# Wetter Temperatur Luftdruck Luftfeuchtigkeit Sichtweite Windgeschwindigkeit Windrichtung Zeit
1 Clear 15 1022 86 10000 2.06 350 08:23 02.10.2022
2 Clear 16 1022 78 10000 3.09 120 03:52 02.10.2022
3 Clear 18 1021 66 10000 3.6 110 00:51 02.10.2022
4 Clear 18 1021 66 10000 3.6 110 00:32 02.10.2022
5 Clear 21 1021 48 10000 2.06 60 22:53 01.10.2022
6 Clear 21 1021 62 10000 3.6 70 20:55 01.10.2022
7 Clouds 22 1021 46 10000 2.81 49 18:53 01.10.2022
8 Clouds 19 1022 67 10000 3.09 40 17:22 01.10.2022
9 Clouds 17 1023 76 10000 2.57 350 14:43 01.10.2022
10 Clear 15 1022 82 10000 2.57 350 13:35 01.10.2022
11 Clear 14 1021 93 10000 2.06 20 12:33 01.10.2022
12 Clear 13 1021 94 10000 2.06 350 11:21 01.10.2022
13 Clear 12 1020 94 10000 0.51 0 10:32 01.10.2022
14 Clear 13 1021 91 10000 2.06 10 09:55 01.10.2022
15 Clear 13 1021 91 10000 2.57 70 08:58 01.10.2022
16 Clear 15 1022 78 10000 4.63 110 05:47 01.10.2022
17 Clear 15 1022 74 10000 5.66 110 03:34 01.10.2022
18 Clear 16 1022 75 10000 7.72 100 01:21 01.10.2022
19 Clouds 18 1021 57 10000 5.66 100 22:55 30.09.2022
20 Clouds 18 1021 56 10000 6.17 100 21:31 30.09.2022
21 Clear 19 1021 52 10000 3.62 102 20:44 30.09.2022
22 Clouds 18 1022 60 10000 5.66 100 20:18 30.09.2022
23 Clouds 17 1024 63 10000 3.6 80 17:38 30.09.2022
24 Clouds 15 1024 71 10000 5.14 80 15:58 30.09.2022
25 Clear 15 1024 74 10000 3.09 80 13:34 30.09.2022
26 Clear 12 1023 85 10000 1.54 80 11:58 30.09.2022
27 Clear 12 1023 85 10000 1.54 80 11:28 30.09.2022
28 Clear 13 1024 74 10000 5.66 30 08:37 30.09.2022
29 Clear 13 1024 74 10000 6.69 80 06:26 30.09.2022
30 Clear 15 1025 67 10000 8.23 110 02:39 30.09.2022
31 Clear 17 1025 41 10000 9.26 110 22:40 29.09.2022
32 Clear 17 1025 39 10000 7.72 110 21:28 29.09.2022
33 Clear 17 1025 38 10000 7.72 100 20:57 29.09.2022
34 Clear 16 1027 42 10000 5.66 100 18:45 29.09.2022
35 Clear 15 1028 45 10000 4.12 110 17:24 29.09.2022
36 Clear 14 1029 49 10000 4.63 80 16:28 29.09.2022
37 Clear 14 1029 51 10000 5.14 70 15:36 29.09.2022
38 Clear 14 1029 52 10000 5.14 70 14:31 29.09.2022
39 Clear 11 1029 64 10000 3.6 60 10:29 29.09.2022
40 Clear 13 1030 52 10000 7.2 80 06:58 29.09.2022
41 Clear 14 1030 58 10000 9.77 110 02:49 29.09.2022
42 Clear 15 1029 52 10000 8.75 110 23:55 28.09.2022
43 Clear 16 1029 46 10000 8.75 100 22:42 28.09.2022
44 Clear 16 1029 49 10000 8.23 110 21:29 28.09.2022
45 Clear 16 1030 45 10000 7.2 110 20:22 28.09.2022
46 Clear 17 1031 48 10000 7.2 100 18:31 28.09.2022
47 Clouds 15 1031 59 10000 6.69 110 15:26 28.09.2022
48 Clear 11 1030 68 10000 3.6 150 12:56 28.09.2022
49 Clear 11 1028 74 10000 4.63 140 10:59 28.09.2022
50 Clear 11 1028 71 10000 4.63 140 09:18 28.09.2022
51 Clear 12 1028 70 10000 5.14 130 07:19 28.09.2022
52 Clear 15 1026 51 10000 9.26 130 02:36 28.09.2022
53 Clouds 16 1025 65 10000 11.32 130 01:33 28.09.2022
54 Clear 21 1022 56 10000 5.66 100 23:20 27.09.2022
55 Clouds 23 1020 57 10000 2.57 20 21:42 27.09.2022
56 Clear 25 1020 38 10000 1.9 158 20:37 27.09.2022
57 Clouds 25 1020 27 10000 0.96 157 19:47 27.09.2022
58 Clouds 25 1020 30 10000 0.97 157 18:37 27.09.2022
59 Clouds 24 1020 32 10000 0.91 145 17:44 27.09.2022
60 Clear 22 1020 41 10000 1.54 180 15:29 27.09.2022
61 Clear 21 1020 46 10000 2.06 200 14:45 27.09.2022
62 Clouds 15 1019 62 8000 1.54 230 12:40 27.09.2022
63 Clouds 14 1018 72 9000 1.03 0 10:58 27.09.2022
64 Fog 15 1017 96 6000 1.03 270 08:46 27.09.2022
65 Fog 15 1017 88 6000 0 0 06:31 27.09.2022
66 Clear 18 1014 74 10000 1.03 0 01:57 27.09.2022
67 Clear 18 1014 73 10000 1.03 0 01:27 27.09.2022
68 Clouds 22 1013 48 10000 1.7 40 23:25 26.09.2022
69 Clouds 23 1012 34 10000 1.7 40 22:31 26.09.2022
70 Clear 19 1012 77 10000 3.09 30 20:40 26.09.2022
71 Clouds 23 1012 34 10000 2.69 64 19:30 26.09.2022
72 Clear 20 1013 60 10000 2.57 30 18:31 26.09.2022
73 Clouds 17 1014 76 10000 3.09 10 15:55 26.09.2022
74 Clouds 16 1014 82 10000 2.06 20 13:30 26.09.2022
75 Clouds 14 1014 91 10000 2.06 50 11:29 26.09.2022
76 Clouds 15 1013 90 10000 2.06 50 10:37 26.09.2022
77 Clouds 15 1013 89 10000 2.06 50 10:19 26.09.2022
78 Clouds 15 1013 90 10000 1.54 30 09:53 26.09.2022
79 Clouds 15 1013 88 10000 1.54 30 09:22 26.09.2022
80 Clouds 15 1015 87 10000 3.6 120 06:28 26.09.2022
81 Rain 16 1015 71 10000 10.29 120 02:44 26.09.2022
82 Clear 18 1015 48 10000 6.69 120 23:28 25.09.2022
83 Clear 19 1015 47 10000 5.14 110 21:49 25.09.2022
84 Clear 19 1015 47 10000 5.14 110 21:25 25.09.2022
85 Clear 20 1016 46 10000 4.63 100 20:38 25.09.2022
86 Clouds 20 1016 38 10000 4.32 104 19:30 25.09.2022
87 Clear 18 1018 45 10000 3.6 70 18:34 25.09.2022
88 Clear 18 1019 47 10000 3.09 90 17:41 25.09.2022
89 Clear 17 1019 49 10000 2.06 60 16:21 25.09.2022
90 Clear 16 1020 62 10000 2.57 20 14:55 25.09.2022
91 Rain 16 1020 61 10000 2.57 20 14:19 25.09.2022
92 Clear 14 1018 72 10000 1.03 0 11:35 25.09.2022
93 Clear 14 1018 72 10000 2.06 20 09:48 25.09.2022
94 Clear 15 1019 71 10000 3.6 20 07:45 25.09.2022
95 Clear 16 1019 78 10000 5.14 70 05:27 25.09.2022
96 Clear 18 1017 54 10000 6.17 100 23:37 24.09.2022
97 Clear 18 1017 54 10000 6.17 100 23:37 24.09.2022
98 Clear 20 1017 40 10000 3.09 90 21:25 24.09.2022
99 Clear 21 1018 42 10000 3.6 70 20:32 24.09.2022
100 Clear 21 1019 46 10000 3.09 60 19:20 24.09.2022
101 Clear 19 1021 53 10000 3.6 360 16:56 24.09.2022
102 Clouds 18 1022 46 10000 3 358 15:29 24.09.2022
103 Clear 17 1021 56 10000 3.6 340 14:47 24.09.2022
104 Clear 14 1021 67 10000 2.57 330 13:22 24.09.2022
105 Clear 12 1020 72 10000 2.57 330 12:25 24.09.2022
106 Clear 13 1020 79 10000 3.6 360 09:59 24.09.2022
107 Clear 13 1020 77 10000 3.09 360 08:58 24.09.2022
108 Clear 14 1020 77 10000 3.09 10 07:41 24.09.2022
109 Clear 15 1020 74 10000 3.6 30 04:55 24.09.2022
110 Clear 15 1020 72 10000 3.6 30 04:21 24.09.2022
111 Clear 17 1019 47 10000 4.12 50 22:58 23.09.2022
112 Clear 18 1019 52 10000 4.12 60 21:37 23.09.2022
113 Clear 18 1019 51 10000 4.12 60 21:19 23.09.2022
114 Clear 19 1018 43 10000 2.77 65 20:43 23.09.2022
115 Clear 19 1020 36 10000 2.71 44 19:20 23.09.2022
116 Clear 19 1020 36 10000 2.71 44 19:20 23.09.2022
117 Clear 15 1021 50 10000 3.09 10 16:23 23.09.2022
118 Clear 9 1020 77 9000 2.06 300 12:52 23.09.2022
119 Clear 9 1018 76 9000 1.03 0 09:36 23.09.2022
120 Clear 10 1019 75 10000 0.51 0 06:51 23.09.2022
121 Clouds 12 1018 70 9000 1.54 170 00:44 23.09.2022
122 Rain 14 1017 60 5000 2.57 160 23:28 22.09.2022
123 Rain 16 1017 42 10000 2.57 0 22:27 22.09.2022
124 Clouds 16 1017 36 9000 3.09 270 21:23 22.09.2022
125 Clouds 16 1018 36 9000 2.57 230 19:58 22.09.2022
126 Clouds 16 1018 37 10000 4.12 220 18:30 22.09.2022
127 Clear 14 1019 59 10000 1.54 0 14:48 22.09.2022
128 Clear 12 1017 80 10000 2.06 300 10:38 22.09.2022
129 Clear 12 1017 80 10000 2.06 300 10:18 22.09.2022
130 Rain 13 1018 71 9000 0 0 07:36 22.09.2022
131 Rain 14 1018 60 10000 3.6 100 04:37 22.09.2022
132 Clear 15 1017 57 10000 6.69 100 23:46 21.09.2022
133 Clear 15 1017 56 10000 6.69 100 22:26 21.09.2022
134 Clear 16 1017 57 10000 5.66 90 20:54 21.09.2022
135 Clouds 16 1018 60 10000 6.17 110 17:55 21.09.2022
136 Clouds 16 1018 59 10000 6.17 110 17:21 21.09.2022
137 Clouds 15 1019 67 10000 2.57 140 15:18 21.09.2022
138 Clouds 12 1018 76 10000 2.06 190 13:38 21.09.2022
139 Clear 12 1018 81 10000 2.57 130 11:34 21.09.2022
140 Clear 12 1018 81 10000 3.09 140 10:50 21.09.2022
141 Clouds 12 1018 81 10000 3.09 150 09:38 21.09.2022
142 Clouds 12 1018 79 10000 3.6 130 08:23 21.09.2022
143 Rain 13 1018 73 10000 5.66 100 02:51 21.09.2022
144 Rain 13 1018 73 10000 5.66 100 02:51 21.09.2022
145 Clouds 13 1017 72 10000 5.66 100 02:32 21.09.2022
146 Clouds 13 1017 73 10000 5.66 100 01:49 21.09.2022
147 Clear 14 1017 66 10000 3.09 80 23:19 20.09.2022
148 Clear 14 1017 58 10000 2.57 20 21:33 20.09.2022
149 Clear 15 1017 57 10000 2.57 40 19:57 20.09.2022
150 Clear 14 1019 57 10000 4.12 90 17:38 20.09.2022
151 Clouds 10 1019 68 10000 4.12 150 14:59 20.09.2022
152 Clouds 9 1019 75 10000 4.12 160 13:58 20.09.2022
153 Clear 9 1018 81 10000 2.57 180 10:41 20.09.2022
154 Clear 10 1018 80 10000 2.06 180 08:29 20.09.2022
155 Clear 11 1017 79 10000 3.6 170 07:27 20.09.2022
156 Clouds 14 1017 71 10000 3.09 210 04:29 20.09.2022
157 Clouds 19 1014 53 10000 3.09 230 23:49 19.09.2022
158 Clouds 20 1014 49 10000 3.09 190 22:28 19.09.2022
159 Clouds 21 1014 52 10000 3.09 220 20:58 19.09.2022
160 Clouds 20 1014 53 10000 3.09 220 20:39 19.09.2022
161 Clouds 19 1015 63 10000 3.6 230 17:55 19.09.2022
162 Clouds 16 1014 81 10000 3.6 220 15:53 19.09.2022
163 Clouds 16 1013 84 9000 1.54 250 13:35 19.09.2022
164 Clear 15 1013 90 10000 1.03 0 11:29 19.09.2022
165 Clear 16 1012 96 10000 1.54 340 08:51 19.09.2022
166 Clear 17 1013 96 10000 1.54 340 08:18 19.09.2022
167 Rain 18 1012 82 10000 3.6 110 01:58 19.09.2022
168 Rain 18 1011 79 10000 4.63 110 23:24 18.09.2022
169 Rain 19 1011 72 10000 6.17 110 21:45 18.09.2022
170 Clear 19 1011 74 10000 6.69 110 20:33 18.09.2022
171 Clear 18 1013 74 10000 5.14 110 18:34 18.09.2022
172 Clear 20 1014 67 10000 4.12 100 17:39 18.09.2022
173 Rain 18 1015 75 10000 4.63 80 15:53 18.09.2022
174 Clear 16 1015 81 10000 4.63 80 14:23 18.09.2022
175 Clear 16 1015 82 10000 4.12 80 12:35 18.09.2022
176 Rain 17 1015 80 10000 4.12 60 11:24 18.09.2022
177 Clear 19 1016 73 10000 3.6 60 04:28 18.09.2022
178 Clear 21 1015 69 10000 5.14 60 01:26 18.09.2022
179 Clouds 22 1015 61 10000 0.89 45 00:24 18.09.2022
180 Clouds 24 1014 51 10000 5.5 44 21:44 17.09.2022
181 Clear 23 1016 57 10000 3.6 80 19:44 17.09.2022
182 Clear 22 1017 60 10000 3.09 80 18:59 17.09.2022
183 Clear 19 1019 69 10000 3.09 60 16:22 17.09.2022
184 Clear 16 1020 77 10000 4.63 30 13:57 17.09.2022
185 Clear 15 1019 82 10000 5.14 30 11:55 17.09.2022
186 Clear 16 1019 80 10000 5.66 20 09:37 17.09.2022
187 Clear 17 1020 75 10000 4.12 50 06:25 17.09.2022
188 Clear 19 1019 69 10000 3.6 60 01:51 17.09.2022
189 Clouds 22 1020 54 10000 0.45 0 22:54 16.09.2022
190 Clouds 22 1019 46 10000 5.4 38 21:23 16.09.2022
191 Clear 21 1021 57 10000 4.12 30 19:51 16.09.2022
192 Clouds 19 1024 64 10000 5.22 25 16:56 16.09.2022
193 Clouds 18 1024 72 10000 6.05 21 15:34 16.09.2022
194 Clouds 15 1024 83 10000 7.72 360 13:57 16.09.2022
195 Clear 14 1023 89 10000 6.17 10 11:42 16.09.2022
196 Clear 15 1023 83 10000 6.17 20 08:26 16.09.2022
197 Clear 15 1023 78 10000 4.12 40 07:19 16.09.2022
198 Clear 15 1023 77 10000 4.63 20 06:47 16.09.2022
199 Clear 16 1023 74 10000 4.12 70 02:40 16.09.2022
200 Clear 18 1022 63 10000 4.12 90 22:52 15.09.2022
201 Clear 19 1023 57 10000 2.57 60 21:18 15.09.2022
202 Clouds 19 1024 57 10000 3.6 50 19:49 15.09.2022
203 Clouds 19 1026 63 10000 3.6 50 18:29 15.09.2022
204 Clear 19 1025 49 10000 2.87 43 17:32 15.09.2022
205 Clear 17 1026 72 10000 3.09 360 16:42 15.09.2022
206 Clear 14 1026 77 10000 4.12 350 14:30 15.09.2022
207 Clear 12 1025 79 10000 2.57 10 12:20 15.09.2022
208 Clear 13 1024 81 10000 2.06 40 09:53 15.09.2022
209 Clear 14 1025 78 10000 3.6 50 07:50 15.09.2022
210 Clear 15 1026 75 10000 3.6 70 03:52 15.09.2022
211 Clear 16 1025 62 10000 3.6 80 23:44 14.09.2022
212 Clear 17 1025 66 10000 4.12 60 21:30 14.09.2022
213 Clear 20 1026 46 10000 1.34 45 19:34 14.09.2022
214 Clouds 18 1026 64 10000 3.6 60 18:32 14.09.2022
215 Clear 17 1026 65 9000 2.57 60 16:44 14.09.2022
216 Clear 16 1026 69 9000 2.06 40 15:34 14.09.2022
217 Clear 14 1026 89 10000 0.51 0 13:36 14.09.2022
218 Clear 11 1024 90 10000 2.06 50 10:52 14.09.2022
219 Clear 12 1023 91 10000 2.06 50 09:41 14.09.2022
220 Clear 13 1023 85 10000 3.09 60 06:52 14.09.2022
221 Clear 13 1024 84 10000 3.09 60 06:34 14.09.2022
222 Clear 13 1024 84 10000 3.09 60 06:34 14.09.2022
223 Clouds 14 1023 85 10000 3.6 100 03:55 14.09.2022
224 Clouds 14 1022 82 9000 5.14 110 01:43 14.09.2022
225 Clouds 14 1021 82 9000 5.14 110 01:20 14.09.2022
226 Clear 15 1021 74 10000 3.6 80 23:55 13.09.2022
227 Clear 16 1020 74 10000 3.6 80 23:37 13.09.2022
228 Clear 16 1020 74 10000 3.6 80 23:19 13.09.2022
229 Clear 16 1020 73 10000 4.63 80 22:44 13.09.2022
230 Clear 16 1019 74 10000 4.63 80 21:42 13.09.2022
231 Clouds 17 1020 75 10000 4.12 70 19:32 13.09.2022
232 Clouds 16 1021 76 10000 4.12 70 17:33 13.09.2022
233 Clouds 15 1021 78 9000 4.12 80 15:54 13.09.2022
234 Clouds 12 1020 90 9000 1.03 0 13:54 13.09.2022
235 Fog 10 1019 96 10000 1.03 0 12:28 13.09.2022
236 Clear 11 1018 89 10000 1.03 0 08:32 13.09.2022
237 Clear 13 1018 79 10000 3.6 80 04:24 13.09.2022
238 Clear 15 1017 60 10000 3.09 70 23:32 12.09.2022
239 Clear 15 1016 56 10000 3.09 70 22:46 12.09.2022
240 Clear 17 1016 50 10000 2.57 50 21:35 12.09.2022
241 Clear 17 1017 51 10000 3.09 40 20:24 12.09.2022
242 Clear 17 1018 52 10000 3.09 50 18:42 12.09.2022
243 Clear 16 1019 57 10000 2.06 50 16:20 12.09.2022
244 Clear 13 1019 68 10000 1.03 0 13:24 12.09.2022
245 Clear 11 1019 73 10000 1.54 60 10:56 12.09.2022
246 Clear 12 1019 72 10000 2.06 80 09:35 12.09.2022
247 Clear 13 1019 69 10000 5.66 90 04:45 12.09.2022
248 Clear 14 1020 64 10000 5.14 90 03:25 12.09.2022
249 Clear 15 1019 51 10000 5.66 110 23:18 11.09.2022
250 Clear 16 1020 43 10000 2.06 70 21:41 11.09.2022
251 Clear 16 1021 38 10000 2.06 70 20:45 11.09.2022
252 Clouds 17 1020 37 10000 2.43 53 19:46 11.09.2022
253 Clouds 17 1021 38 10000 2.72 48 19:22 11.09.2022
254 Clouds 17 1022 36 10000 2.49 39 17:57 11.09.2022
255 Clear 15 1023 48 10000 3.09 10 16:23 11.09.2022
256 Clear 12 1023 56 10000 4.63 330 14:18 11.09.2022
257 Clear 8 1022 76 8000 0 0 12:31 11.09.2022
258 Clear 10 1023 64 10000 2.06 300 08:25 11.09.2022
259 Clear 12 1024 69 10000 2.57 10 05:56 11.09.2022
260 Clear 14 1022 54 10000 3.09 360 00:49 11.09.2022
261 Clear 18 1023 29 10000 0.89 45 22:26 10.09.2022
262 Clear 18 1023 27 10000 3.09 0 20:51 10.09.2022
263 Clear 17 1023 29 10000 3.09 0 19:45 10.09.2022
264 Clear 17 1023 29 10000 3.09 0 19:45 10.09.2022
265 Clear 17 1023 29 10000 3.09 0 19:27 10.09.2022
266 Clear 15 1024 33 10000 2.57 0 17:53 10.09.2022
267 Clear 12 1025 48 10000 2.06 260 15:44 10.09.2022
268 Clear 9 1024 57 10000 3.09 280 14:34 10.09.2022
269 Clear 6 1024 74 10000 2.06 280 12:52 10.09.2022
270 Clear 6 1023 71 10000 1.03 0 10:34 10.09.2022
271 Clear 6 1023 70 10000 1.03 0 08:42 10.09.2022
272 Clear 7 1023 69 10000 1.03 0 08:23 10.09.2022
273 Clear 9 1023 54 10000 1.54 230 04:55 10.09.2022
274 Clear 12 1020 47 10000 3.09 220 23:52 09.09.2022
275 Clear 12 1020 48 10000 3.09 220 23:19 09.09.2022
276 Clouds 12 1018 45 10000 4.12 220 21:21 09.09.2022
277 Clouds 12 1018 48 10000 4.12 0 20:22 09.09.2022
278 Clouds 12 1018 46 10000 4.12 230 19:23 09.09.2022
279 Clouds 12 1019 50 10000 4.63 190 18:18 09.09.2022
280 Clouds 10 1019 62 10000 4.63 170 15:45 09.09.2022
281 Clouds 8 1017 78 10000 5.14 170 13:43 09.09.2022
282 Drizzle 8 1015 87 9000 5.14 190 11:38 09.09.2022
283 Clouds 9 1013 92 10000 4.12 190 07:58 09.09.2022
284 Thunderstorm 11 1011 90 8000 6.69 170 03:39 09.09.2022
285 Thunderstorm 15 1005 92 7000 6.69 190 00:21 09.09.2022
286 Thunderstorm 20 1004 73 8000 4.63 120 21:52 08.09.2022
287 Rain 22 1003 64 10000 0.89 45 20:49 08.09.2022
288 Rain 22 1003 64 10000 0.89 45 20:49 08.09.2022
289 Rain 21 1003 64 10000 4.63 110 20:27 08.09.2022
290 Clear 21 1004 63 10000 5.66 100 19:25 08.09.2022
291 Clear 20 1006 65 10000 3.09 90 17:29 08.09.2022
292 Clear 19 1007 68 10000 2.06 30 15:53 08.09.2022
293 Clear 17 1006 71 10000 2.57 20 13:30 08.09.2022
294 Clear 16 1006 76 10000 3.09 350 12:41 08.09.2022
295 Clear 15 1006 79 10000 3.09 340 11:23 08.09.2022
296 Clear 16 1006 76 10000 3.09 360 09:35 08.09.2022
297 Clear 16 1007 75 10000 2.57 330 07:18 08.09.2022
298 Clear 18 1007 76 10000 0.89 23 03:37 08.09.2022
299 Clear 19 1007 73 10000 1.54 20 02:36 08.09.2022
300 Clear 19 1007 71 10000 1.54 20 02:18 08.09.2022
301 Clear 23 1006 43 10000 0.89 90 22:58 07.09.2022
302 Clear 24 1006 37 10000 4.6 20 21:45 07.09.2022
303 Clear 24 1007 38 10000 4.79 21 21:21 07.09.2022
304 Clear 24 1007 38 10000 4.79 21 21:21 07.09.2022
305 Clear 22 1007 57 10000 3.09 50 20:25 07.09.2022
306 Clouds 24 1009 43 10000 1.79 45 18:54 07.09.2022
307 Clouds 20 1012 50 10000 4.42 8 16:18 07.09.2022
308 Clear 14 1011 83 10000 4.63 350 10:52 07.09.2022
309 Clear 14 1011 88 10000 4.63 350 10:32 07.09.2022
310 Clear 15 1012 90 10000 4.63 10 08:23 07.09.2022
311 Clear 16 1014 86 10000 4.12 20 05:33 07.09.2022
312 Clear 17 1015 78 10000 5.14 110 00:27 07.09.2022
313 Clear 19 1016 72 10000 4.63 100 21:48 06.09.2022
314 Clear 19 1016 71 10000 4.63 100 21:30 06.09.2022
315 Clear 19 1019 64 10000 3.09 80 19:27 06.09.2022
316 Clear 20 1019 51 10000 2.64 54 18:34 06.09.2022
317 Clear 19 1022 60 10000 2.59 26 17:23 06.09.2022
318 Clear 19 1022 56 10000 2.59 26 16:41 06.09.2022
319 Clear 15 1022 77 10000 3.09 360 15:26 06.09.2022
320 Clear 14 1023 75 10000 3.6 360 13:47 06.09.2022
321 Clear 13 1022 78 10000 3.6 360 13:26 06.09.2022
322 Clear 13 1022 80 10000 3.6 10 12:40 06.09.2022
323 Clear 13 1022 75 10000 2.57 10 10:52 06.09.2022
324 Clear 13 1023 75 10000 2.06 330 08:56 06.09.2022
325 Clear 14 1024 73 10000 2.57 360 07:52 06.09.2022
326 Clear 14 1024 72 10000 2.57 90 04:48 06.09.2022
327 Clear 17 1023 55 10000 1.03 0 23:52 05.09.2022
328 Clear 19 1023 51 10000 1.54 50 22:40 05.09.2022
329 Clear 21 1023 27 10000 2.17 50 20:58 05.09.2022
330 Clear 22 1024 44 10000 2.38 36 19:50 05.09.2022
331 Clear 18 1025 67 10000 3.09 30 18:49 05.09.2022
332 Clear 18 1025 67 10000 3.09 30 18:23 05.09.2022
333 Clear 18 1026 63 10000 2.57 360 17:31 05.09.2022
334 Clear 17 1026 40 10000 4.12 320 15:52 05.09.2022
335 Clear 13 1026 49 10000 2.57 320 13:39 05.09.2022
336 Clear 10 1025 57 10000 2.57 300 12:29 05.09.2022
337 Clear 11 1024 55 10000 2.57 300 10:30 05.09.2022
338 Clear 13 1025 53 10000 3.09 320 07:36 05.09.2022
339 Clear 16 1025 47 10000 3.09 310 02:49 05.09.2022
340 Clear 19 1024 46 10000 2.06 30 23:28 04.09.2022
341 Clear 21 1025 33 10000 0.89 90 22:28 04.09.2022
342 Clear 21 1024 39 10000 2.15 30 21:34 04.09.2022
343 Clear 20 1024 32 10000 3.1 10 19:38 04.09.2022
344 Clear 19 1026 37 10000 4.12 340 18:20 04.09.2022
345 Clear 17 1027 42 10000 4.12 320 16:56 04.09.2022
346 Clear 13 1027 56 10000 3.09 340 14:33 04.09.2022
347 Clear 11 1027 59 10000 3.09 300 13:49 04.09.2022
348 Clear 9 1026 67 10000 4.12 320 11:54 04.09.2022
349 Clear 10 1026 65 10000 4.63 320 10:47 04.09.2022
350 Clear 11 1026 64 10000 4.12 320 08:20 04.09.2022
351 Clear 12 1026 63 10000 2.57 330 05:19 04.09.2022
352 Clear 15 1026 60 10000 2.57 10 00:47 04.09.2022
353 Clear 16 1026 56 10000 3.09 30 22:22 03.09.2022
354 Clear 17 1026 49 10000 3.09 30 21:23 03.09.2022
355 Clear 18 1027 28 10000 2.24 25 19:39 03.09.2022
356 Clear 16 1029 47 10000 3.6 360 17:26 03.09.2022
357 Clear 14 1029 51 10000 3.6 360 16:27 03.09.2022
358 Clear 13 1029 61 9000 1.54 310 14:45 03.09.2022
359 Clear 10 1029 66 9000 2.06 310 13:58 03.09.2022
360 Clear 8 1028 79 10000 1.03 0 12:19 03.09.2022
361 Clear 8 1027 63 10000 1.54 130 10:27 03.09.2022
362 Clear 8 1028 67 10000 1.03 0 08:28 03.09.2022
363 Clear 9 1028 60 10000 2.57 130 06:58 03.09.2022
364 Clear 11 1027 49 10000 1.54 150 04:33 03.09.2022
365 Clear 15 1025 31 10000 2.57 0 23:55 02.09.2022
366 Clear 16 1024 30 10000 2.57 180 22:45 02.09.2022
367 Clear 16 1023 30 10000 3.6 210 20:59 02.09.2022
368 Clear 16 1023 31 10000 3.6 210 20:27 02.09.2022
369 Clear 16 1024 32 10000 4.12 175 19:00 02.09.2022
370 Clear 16 1024 30 10000 4.12 200 18:28 02.09.2022
371 Clear 14 1024 34 10000 3.6 200 17:43 02.09.2022
372 Clear 13 1023 42 10000 3.6 180 16:46 02.09.2022
373 Clouds 8 1022 83 10000 6.17 200 13:55 02.09.2022
374 Clouds 7 1021 87 10000 5.66 190 12:24 02.09.2022
375 Clear 9 1020 76 10000 5.14 190 09:50 02.09.2022
376 Clouds 9 1021 75 10000 0.89 0 08:56 02.09.2022
377 Clear 11 1019 66 10000 5.14 190 07:24 02.09.2022
378 Clouds 11 1019 65 10000 1.34 45 06:35 02.09.2022
379 Clouds 16 1015 92 8000 2.06 200 02:37 02.09.2022
380 Rain 16 1011 88 9000 1.03 0 22:26 01.09.2022
381 Clouds 16 1011 88 9000 1.54 360 21:40 01.09.2022
382 Rain 16 1011 88 9000 1.54 360 21:21 01.09.2022
383 Clouds 16 1011 91 9000 2.06 80 20:37 01.09.2022
384 Rain 16 1012 92 10000 1.54 60 18:38 01.09.2022
385 Clear 16 1012 94 10000 0.51 0 16:58 01.09.2022
386 Rain 15 1013 94 3500 0 0 15:29 01.09.2022
387 Clear 15 1013 94 10000 3.6 80 13:44 01.09.2022
388 Clear 15 1011 88 10000 2.06 110 12:56 01.09.2022
389 Clear 15 1011 88 10000 1.54 120 11:51 01.09.2022
390 Clear 15 1011 88 10000 1.54 120 11:22 01.09.2022
391 Clear 16 1012 87 10000 2.06 350 09:32 01.09.2022
392 Clear 15 1013 88 10000 2.57 330 07:31 01.09.2022
393 Clear 15 1013 87 10000 3.09 120 03:59 01.09.2022
394 Clear 16 1013 79 10000 4.12 120 01:30 01.09.2022
395 Clear 16 1013 79 10000 4.12 120 01:30 01.09.2022
396 Clear 16 1013 79 10000 4.12 120 01:30 01.09.2022
397 Clear 16 1013 79 10000 4.12 120 01:30 01.09.2022
398 Clear 16 1013 79 10000 4.12 120 01:30 01.09.2022
399 Clear 16 1013 79 10000 4.12 120 01:30 01.09.2022
400 Clear 18 1013 73 10000 4.63 100 22:50 31.08.2022
401 Clear 17 1014 77 10000 4.63 110 20:44 31.08.2022
402 Clouds 19 1016 65 10000 2.57 51 18:46 31.08.2022
403 Clear 16 1019 73 10000 3.6 70 16:41 31.08.2022
404 Clear 15 1020 79 10000 3.09 70 15:22 31.08.2022
405 Clear 13 1020 83 10000 3.09 60 13:28 31.08.2022
406 Clear 13 1020 87 10000 3.6 50 11:54 31.08.2022
407 Clear 14 1019 79 10000 4.12 60 09:35 31.08.2022
408 Clear 14 1021 81 10000 3.6 60 07:39 31.08.2022
409 Clouds 14 1022 78 9000 5.66 110 02:47 31.08.2022
410 Clear 16 1023 62 10000 4.12 80 22:21 30.08.2022
411 Clouds 16 1024 55 10000 2.06 40 21:27 30.08.2022
412 Clouds 16 1024 57 10000 4.12 70 20:26 30.08.2022
413 Clear 14 1028 64 10000 4.98 24 16:48 30.08.2022
414 Clear 11 1029 78 10000 5.14 360 13:38 30.08.2022
415 Clear 9 1029 80 10000 5.14 360 11:44 30.08.2022
416 Clear 10 1029 79 10000 5.14 360 11:19 30.08.2022
417 Clear 10 1029 75 10000 5.66 360 08:51 30.08.2022
418 Clear 12 1031 65 10000 4.63 10 03:57 30.08.2022
419 Clear 13 1031 60 10000 4.12 360 00:30 30.08.2022
420 Clear 14 1030 55 10000 4.12 30 22:36 29.08.2022
421 Clear 14 1031 52 10000 4.12 20 21:48 29.08.2022
422 Clear 14 1032 53 10000 3.6 50 20:34 29.08.2022
423 Clear 14 1034 48 10000 3.09 10 18:55 29.08.2022
424 Clear 13 1035 49 10000 4.12 350 17:26 29.08.2022
425 Clear 12 1035 52 10000 4.12 340 16:56 29.08.2022
426 Clear 10 1035 54 10000 3.6 310 15:18 29.08.2022
427 Clear 10 1035 54 10000 3.6 310 15:18 29.08.2022
428 Clear 7 1035 67 10000 3.09 310 13:40 29.08.2022
429 Clear 5 1034 72 10000 2.57 300 11:44 29.08.2022
430 Clear 6 1034 68 10000 2.06 290 10:42 29.08.2022
431 Clear 7 1035 66 10000 3.09 300 08:40 29.08.2022
432 Clear 8 1035 63 10000 1.03 270 06:25 29.08.2022
433 Clear 10 1035 47 10000 1.54 190 01:53 29.08.2022
434 Clear 12 1034 39 10000 2.06 200 22:55 28.08.2022
435 Clear 12 1034 38 10000 2.06 0 21:45 28.08.2022
436 Clear 13 1034 39 10000 3.09 180 20:58 28.08.2022
437 Clear 12 1034 40 10000 3.6 200 19:44 28.08.2022
438 Clear 11 1035 42 10000 4.63 200 18:21 28.08.2022
439 Clouds 10 1035 42 10000 4.12 0 17:25 28.08.2022
440 Clouds 9 1035 45 10000 4.12 190 16:28 28.08.2022
441 Clear 7 1035 50 10000 2.57 190 14:42 28.08.2022
442 Clear 4 1032 62 10000 2.57 190 12:48 28.08.2022
443 Clear 5 1031 59 10000 2.57 190 10:43 28.08.2022
444 Clear 5 1031 59 10000 2.57 190 10:43 28.08.2022
445 Clear 5 1030 60 10000 4.12 180 09:54 28.08.2022
446 Clear 6 1030 55 10000 3.6 190 08:37 28.08.2022
447 Clear 6 1030 52 10000 3.6 180 07:43 28.08.2022
448 Clear 10 1025 37 10000 4.12 180 02:48 28.08.2022
449 Clear 13 1021 41 10000 4.63 190 00:27 28.08.2022
450 Clear 15 1019 41 10000 5.14 190 22:36 27.08.2022
451 Clear 16 1016 47 10000 4.63 190 21:31 27.08.2022
452 Clear 17 1014 48 10000 4.63 190 19:49 27.08.2022
453 Clear 17 1015 46 10000 4.12 230 17:43 27.08.2022
454 Clear 16 1012 61 10000 4.12 210 15:53 27.08.2022
455 Clear 16 1012 71 10000 4.12 210 15:24 27.08.2022
456 Thunderstorm 18 1007 95 4500 5.66 180 12:28 27.08.2022
457 Thunderstorm 17 1008 99 2800 3.09 0 11:31 27.08.2022
458 Rain 18 1007 95 8000 3.6 310 09:48 27.08.2022
459 Thunderstorm 19 1006 89 10000 2.57 280 07:54 27.08.2022
460 Clear 18 1008 86 10000 1.54 90 02:52 27.08.2022
461 Clouds 19 1009 81 8000 5.66 110 23:57 26.08.2022
462 Mist 20 1010 79 4000 5.14 110 22:37 26.08.2022
463 Clouds 22 1010 72 8548 3.48 89 20:42 26.08.2022
464 Mist 21 1013 72 2500 3.09 90 19:23 26.08.2022
465 Fog 16 1016 94 200 2.57 50 16:50 26.08.2022
466 Mist 17 1017 81 2000 4.12 100 15:31 26.08.2022
467 Mist 16 1017 89 800 3.09 110 14:29 26.08.2022
468 Fog 14 1016 98 100 0.51 0 12:47 26.08.2022
469 Fog 15 1016 98 200 0.51 0 11:27 26.08.2022
470 Mist 15 1016 96 1500 1.03 0 10:25 26.08.2022
471 Fog 16 1017 94 6000 1.03 0 07:28 26.08.2022
472 Clear 18 1017 88 10000 0.51 0 01:28 26.08.2022
473 Clear 20 1016 80 10000 1.54 90 23:30 25.08.2022
474 Clouds 23 1015 69 10000 2.84 94 21:26 25.08.2022
475 Clouds 24 1016 62 8425 2.58 90 20:21 25.08.2022
476 Clouds 20 1017 82 10000 2.06 50 18:48 25.08.2022
477 Clear 20 1017 77 10000 1.54 40 17:32 25.08.2022
478 Clouds 22 1018 69 7690 1.91 40 16:49 25.08.2022
479 Clear 19 1017 79 10000 1.54 70 15:37 25.08.2022
480 Clear 16 1017 85 10000 1.03 0 14:30 25.08.2022
481 Rain 15 1017 93 8000 1.03 0 11:34 25.08.2022
482 Clouds 14 1016 91 9000 1.03 0 10:46 25.08.2022
483 Clear 15 1017 86 10000 1.03 0 08:41 25.08.2022
484 Clear 16 1017 79 10000 3.09 110 04:40 25.08.2022
485 Clear 18 1016 76 10000 4.12 100 23:56 24.08.2022
486 Clear 19 1016 70 10000 4.12 100 23:25 24.08.2022
487 Clouds 21 1016 63 10000 2.57 90 21:59 24.08.2022
488 Clouds 21 1016 65 10000 2.57 90 21:31 24.08.2022
489 Clouds 23 1017 54 10000 1.32 100 20:18 24.08.2022
490 Clear 18 1019 77 10000 2.06 50 17:32 24.08.2022
491 Clear 17 1020 73 10000 1.03 0 15:55 24.08.2022
492 Clear 18 1020 70 10000 1.03 0 15:35 24.08.2022
493 Clear 12 1019 91 10000 1.03 0 12:52 24.08.2022
494 Clear 12 1019 91 10000 1.03 0 12:52 24.08.2022
495 Clear 11 1018 91 10000 1.03 280 11:21 24.08.2022
496 Fog 12 1018 89 10000 0.51 0 08:59 24.08.2022
497 Clear 13 1018 86 10000 1.03 0 06:40 24.08.2022
498 Clear 14 1018 83 9000 3.09 90 01:20 24.08.2022
499 Clear 17 1017 65 10000 3.09 90 22:49 23.08.2022
500 Clear 18 1017 65 10000 3.09 90 22:18 23.08.2022
501 Clear 18 1018 64 10000 2.15 75 20:49 23.08.2022
502 Clear 18 1019 63 10000 1.35 19 19:24 23.08.2022
503 Clouds 17 1021 64 10000 2.06 30 18:18 23.08.2022
504 Clear 17 1021 65 10000 2.96 5 17:30 23.08.2022
505 Clear 15 1022 71 10000 3.37 14 16:26 23.08.2022
506 Clear 12 1022 81 10000 4.12 360 14:30 23.08.2022
507 Clear 10 1022 88 10000 3.6 350 12:46 23.08.2022
508 Clear 11 1021 84 10000 4.12 10 10:58 23.08.2022
509 Clear 11 1021 84 10000 4.12 10 10:33 23.08.2022
510 Clear 11 1022 86 10000 4.63 10 09:32 23.08.2022
511 Clear 11 1022 85 10000 4.63 30 08:46 23.08.2022
512 Clear 11 1022 84 10000 4.63 30 08:19 23.08.2022
513 Clear 11 1022 84 10000 4.63 50 07:31 23.08.2022
514 Clear 12 1023 81 10000 6.17 50 06:22 23.08.2022
515 Clouds 11 1023 91 9000 8.23 100 01:45 23.08.2022
516 Clear 11 1023 88 10000 6.69 110 00:27 23.08.2022
517 Clear 13 1023 78 10000 4.63 120 23:32 22.08.2022
518 Clouds 13 1023 74 9000 5.66 120 22:24 22.08.2022
519 Clouds 13 1024 75 8000 4.12 110 20:29 22.08.2022
520 Clouds 12 1025 77 9000 4.12 110 19:41 22.08.2022
521 Clouds 12 1026 77 10000 5.14 100 18:37 22.08.2022
522 Clouds 11 1028 79 10000 5.14 100 15:46 22.08.2022
523 Clouds 11 1028 79 10000 5.14 100 15:18 22.08.2022
524 Clouds 9 1027 86 10000 4.12 90 11:39 22.08.2022
525 Clouds 10 1027 86 8000 5.14 90 09:24 22.08.2022
526 Clouds 11 1028 83 9000 4.12 130 05:44 22.08.2022
527 Clouds 13 1028 65 9000 0.51 0 00:56 22.08.2022
528 Clouds 13 1028 64 9000 0.51 0 00:36 22.08.2022
529 Clouds 15 1027 57 8000 1.54 30 22:57 21.08.2022
530 Clouds 17 1027 45 10000 0.78 73 21:50 21.08.2022
531 Clouds 18 1027 38 10000 0.62 83 21:18 21.08.2022
532 Clouds 18 1027 39 10000 0.84 344 19:40 21.08.2022
533 Clouds 17 1028 34 10000 1.25 342 18:35 21.08.2022
534 Clouds 14 1029 53 9000 2.57 360 16:34 21.08.2022
535 Clouds 13 1029 50 9000 2.57 350 15:51 21.08.2022
536 Clouds 11 1029 56 9000 1.03 310 14:41 21.08.2022
537 Clouds 9 1029 66 9000 1.54 310 13:44 21.08.2022
538 Clouds 8 1028 70 9000 1.03 0 12:53 21.08.2022
539 Clouds 9 1027 64 8000 1.03 310 09:57 21.08.2022
540 Clouds 9 1028 66 8000 1.03 0 08:56 21.08.2022
541 Clouds 9 1027 66 8000 1.03 0 08:38 21.08.2022
542 Clouds 9 1028 64 9000 1.03 0 07:50 21.08.2022
543 Clear 11 1028 55 10000 2.57 310 04:28 21.08.2022
544 Clear 14 1026 55 10000 4.12 360 00:53 21.08.2022
545 Clear 16 1026 43 9000 3.6 30 22:59 20.08.2022
546 Clear 16 1026 44 9000 2.57 40 21:45 20.08.2022
547 Clear 16 1027 47 9000 2.57 40 20:48 20.08.2022
548 Clear 17 1027 35 10000 3.09 360 19:42 20.08.2022
549 Clear 16 1028 35 10000 4.63 340 18:43 20.08.2022
550 Clear 15 1028 36 10000 4.63 340 18:25 20.08.2022
551 Clear 15 1029 35 10000 4.63 340 17:19 20.08.2022
552 Clear 11 1030 45 10000 3.6 350 15:51 20.08.2022
553 Clear 8 1030 50 10000 3.6 320 13:39 20.08.2022
554 Clear 8 1028 49 10000 3.6 320 11:53 20.08.2022
555 Clear 8 1028 46 10000 4.12 330 10:36 20.08.2022
556 Clear 9 1028 43 10000 5.14 320 08:53 20.08.2022
557 Clear 11 1028 43 10000 4.63 320 05:58 20.08.2022
558 Clear 12 1028 36 10000 5.14 320 03:28 20.08.2022
559 Smoke 13 1028 36 3500 4.63 320 00:51 20.08.2022
560 Smoke 15 1027 36 4000 4.63 340 23:19 19.08.2022
561 Clear 17 1027 21 10000 4.63 300 22:35 19.08.2022
562 Clear 17 1027 25 10000 6.69 310 20:29 19.08.2022
563 Clear 15 1029 28 10000 5.66 310 18:46 19.08.2022
564 Clear 10 1030 35 9000 4.63 290 15:51 19.08.2022
565 Clear 6 1030 46 10000 3.6 300 13:36 19.08.2022
566 Clear 5 1028 49 10000 3.09 290 11:33 19.08.2022
567 Clear 6 1028 51 9000 1.54 280 10:26 19.08.2022
568 Clear 7 1029 51 10000 1.54 270 06:58 19.08.2022
569 Clouds 9 1027 49 10000 5.04 238 00:58 19.08.2022
570 Clear 10 1026 47 10000 3.09 250 00:30 19.08.2022
571 Clouds 10 1026 47 10000 5.97 233 23:44 18.08.2022
572 Clear 11 1024 44 10000 3.6 220 22:50 18.08.2022
573 Clouds 12 1024 47 10000 6.72 229 21:57 18.08.2022
574 Clear 12 1024 43 10000 4.12 210 21:34 18.08.2022
575 Clouds 11 1023 43 10000 4.12 210 19:56 18.08.2022
576 Clouds 11 1023 43 10000 4.12 210 19:28 18.08.2022
577 Clouds 10 1023 50 10000 4.12 220 17:50 18.08.2022
578 Clouds 9 1023 57 10000 3.6 0 16:58 18.08.2022
579 Clear 6 1022 66 10000 3.09 210 14:45 18.08.2022
580 Clear 5 1021 68 10000 3.09 210 14:19 18.08.2022
581 Clear 4 1019 67 10000 1.54 230 12:55 18.08.2022
582 Clear 4 1018 67 10000 2.06 230 11:34 18.08.2022
583 Clear 5 1016 62 10000 2.57 230 09:43 18.08.2022
584 Clear 6 1017 59 10000 2.57 0 08:39 18.08.2022
585 Clear 7 1016 54 10000 3.6 230 07:19 18.08.2022
586 Clear 9 1014 48 10000 2.06 0 03:53 18.08.2022
587 Clear 12 1011 45 10000 3.6 230 23:30 17.08.2022
588 Clear 14 1010 44 10000 4.12 210 21:39 17.08.2022
589 Clear 12 1009 59 10000 3.09 0 19:59 17.08.2022
590 Clear 12 1009 64 10000 3.09 0 19:28 17.08.2022
591 Rain 10 1010 83 9000 3.6 200 17:32 17.08.2022
592 Rain 9 1010 85 9000 4.12 190 16:22 17.08.2022
593 Rain 11 1010 78 9000 4.63 200 15:18 17.08.2022
594 Clear 12 1007 73 10000 1.03 0 12:52 17.08.2022
595 Rain 12 1006 75 10000 1.03 0 11:36 17.08.2022
596 Clear 12 1006 72 10000 1.54 30 09:31 17.08.2022
597 Clear 13 1006 68 10000 1.54 50 07:36 17.08.2022
598 Clouds 15 1007 52 10000 2.57 320 02:21 17.08.2022
599 Smoke 17 1007 28 1500 2.57 330 23:49 16.08.2022
600 Clear 18 1007 42 10000 4.12 300 21:59 16.08.2022
601 Clouds 19 1007 24 9000 5.14 300 20:51 16.08.2022
602 Clouds 18 1008 22 9000 6.69 300 19:50 16.08.2022
603 Clear 18 1008 24 10000 5.14 310 18:23 16.08.2022
604 Clear 16 1009 25 10000 5.66 300 17:40 16.08.2022
605 Clouds 13 1010 30 8000 4.12 290 15:46 16.08.2022
606 Clouds 11 1010 34 9000 5.14 290 14:55 16.08.2022
607 Clouds 11 1010 35 9000 5.14 290 14:37 16.08.2022
608 Clear 9 1009 44 10000 3.6 310 12:41 16.08.2022
609 Clear 9 1008 42 10000 3.09 300 10:35 16.08.2022
610 Clear 9 1009 41 10000 4.63 300 09:31 16.08.2022
611 Clear 10 1010 40 10000 3.6 300 08:26 16.08.2022
612 Clear 10 1010 39 10000 2.57 290 07:23 16.08.2022
613 Clear 12 1009 36 10000 2.06 250 01:23 16.08.2022
614 Clear 14 1008 38 10000 4.12 220 22:29 15.08.2022
615 Clear 15 1008 34 10000 4.12 0 21:51 15.08.2022
616 Clouds 15 1007 42 10000 4.12 230 20:39 15.08.2022
617 Clouds 16 1008 45 10000 0.89 135 20:00 15.08.2022
618 Clouds 14 1007 74 10000 4.12 220 18:20 15.08.2022
619 Clouds 14 1007 78 10000 3.09 230 16:26 15.08.2022
620 Clouds 14 1007 83 10000 2.06 210 15:55 15.08.2022
621 Clouds 13 1005 87 10000 3.6 120 13:54 15.08.2022
622 Clouds 14 1003 84 10000 4.63 110 12:24 15.08.2022
623 Rain 18 1002 76 10000 3.09 280 09:54 15.08.2022
624 Clouds 19 1001 81 10000 5.14 330 07:50 15.08.2022
625 Clear 19 1002 84 10000 2.06 340 04:35 15.08.2022
626 Clear 20 1004 73 10000 1.54 20 00:54 15.08.2022
627 Clear 21 1004 70 10000 4.63 70 22:38 14.08.2022
628 Clear 20 1006 73 10000 5.14 90 21:37 14.08.2022
629 Clear 20 1009 69 10000 4.12 100 19:48 14.08.2022
630 Clear 19 1010 71 10000 4.63 110 18:57 14.08.2022
631 Clear 19 1010 72 10000 4.63 110 18:18 14.08.2022
632 Clear 17 1012 76 10000 3.09 90 16:52 14.08.2022
633 Clear 17 1013 79 10000 2.57 70 15:48 14.08.2022
634 Clear 16 1013 85 10000 2.06 50 14:24 14.08.2022
635 Clear 15 1013 89 10000 2.06 30 13:49 14.08.2022
636 Clear 14 1013 90 10000 2.06 30 13:19 14.08.2022
637 Clear 15 1013 90 10000 3.09 20 11:56 14.08.2022
638 Clear 15 1014 89 10000 3.09 30 10:40 14.08.2022
639 Clear 15 1015 89 10000 2.06 20 08:50 14.08.2022
640 Clear 15 1016 85 10000 1.54 40 06:21 14.08.2022
641 Clear 16 1016 82 10000 5.14 80 02:47 14.08.2022
642 Clear 17 1016 75 10000 5.14 110 23:49 13.08.2022
643 Clear 18 1016 70 10000 4.63 100 22:52 13.08.2022
644 Clear 19 1017 66 10000 2.06 20 20:58 13.08.2022
645 Clear 20 1017 67 10000 2.06 20 20:28 13.08.2022
646 Clear 20 1017 66 10000 1.54 40 19:24 13.08.2022
647 Clear 20 1019 67 10000 1.54 53 17:36 13.08.2022
648 Clear 16 1018 80 10000 1.54 20 15:23 13.08.2022
649 Clear 15 1019 86 9000 0 0 14:24 13.08.2022
650 Fog 13 1018 92 9000 0.51 0 13:38 13.08.2022
651 Fog 12 1017 94 10000 0.51 0 11:51 13.08.2022
652 Clear 13 1016 91 10000 0.45 315 09:50 13.08.2022
653 Clear 14 1017 83 10000 2.06 80 07:51 13.08.2022
654 Clear 15 1015 73 10000 3.6 90 02:56 13.08.2022
655 Clear 16 1015 69 10000 3.09 110 23:46 12.08.2022
656 Clouds 17 1014 63 10000 3.09 80 21:40 12.08.2022
657 Clouds 17 1016 63 10000 2.57 30 19:51 12.08.2022
658 Clouds 17 1016 63 10000 2.57 30 19:26 12.08.2022
659 Clouds 18 1017 61 10000 0.89 90 18:37 12.08.2022
660 Clouds 15 1018 70 10000 3.6 360 16:28 12.08.2022
661 Clear 14 1018 68 10000 3.09 340 15:31 12.08.2022
662 Clear 13 1018 76 10000 2.57 340 14:27 12.08.2022
663 Clear 11 1018 87 10000 3.09 350 12:51 12.08.2022
664 Clear 11 1019 79 10000 3.6 330 09:28 12.08.2022
665 Clear 12 1020 79 10000 4.63 360 07:47 12.08.2022
666 Clear 13 1020 76 10000 4.63 360 06:28 12.08.2022
667 Clear 14 1020 67 10000 3.6 360 01:45 12.08.2022
668 Clear 15 1020 67 10000 2.57 10 00:20 12.08.2022
669 Clear 16 1019 64 10000 3.6 10 23:29 11.08.2022
670 Clear 17 1020 55 10000 4.12 0 21:57 11.08.2022
671 Clear 17 1020 56 10000 4.12 0 21:34 11.08.2022
672 Clear 17 1020 58 10000 3.6 20 20:31 11.08.2022
673 Clear 16 1021 54 10000 4.12 10 19:41 11.08.2022
674 Clear 16 1021 54 10000 4.12 10 19:21 11.08.2022
675 Clear 14 1024 66 10000 4.12 20 17:23 11.08.2022
676 Clear 13 1024 69 10000 4.63 340 15:51 11.08.2022
677 Clear 12 1024 71 10000 4.63 340 15:20 11.08.2022
678 Clear 9 1024 81 10000 4.63 360 12:35 11.08.2022
679 Clear 10 1023 80 10000 4.63 350 09:24 11.08.2022
680 Clear 11 1024 76 10000 5.14 10 06:58 11.08.2022
681 Clear 12 1024 70 10000 4.63 20 03:23 11.08.2022
682 Clear 11 1024 74 10000 4.63 80 00:19 11.08.2022
683 Clear 13 1025 62 10000 2.57 70 21:56 10.08.2022
684 Clear 13 1025 60 10000 2.57 70 21:19 10.08.2022
685 Clear 13 1026 59 10000 2.57 50 20:36 10.08.2022
686 Clear 13 1028 59 10000 3.09 20 18:53 10.08.2022
687 Clear 13 1029 62 10000 3.6 360 17:28 10.08.2022
688 Clouds 11 1030 73 10000 3.6 20 14:57 10.08.2022
689 Clouds 9 1029 79 10000 3.6 30 13:34 10.08.2022
690 Clear 9 1029 78 10000 4.12 50 10:51 10.08.2022
691 Clear 10 1030 71 10000 5.14 70 08:42 10.08.2022
692 Clear 10 1030 71 10000 5.14 70 07:35 10.08.2022
693 Clear 10 1031 74 10000 4.63 100 04:50 10.08.2022
694 Clear 11 1032 71 10000 4.63 100 01:52 10.08.2022
695 Clouds 12 1031 73 10000 5.14 100 23:32 09.08.2022
696 Clouds 12 1031 69 10000 5.14 110 22:45 09.08.2022
697 Clouds 13 1031 69 10000 4.12 100 21:24 09.08.2022
698 Clouds 13 1031 69 10000 4.12 110 19:28 09.08.2022
699 Clouds 12 1033 77 10000 4.63 110 17:39 09.08.2022
700 Clouds 12 1033 78 10000 4.63 110 17:21 09.08.2022
701 Clouds 11 1033 83 10000 3.09 120 16:23 09.08.2022
702 Clouds 10 1033 87 10000 1.54 170 15:23 09.08.2022
703 Clouds 11 1031 80 10000 4.63 90 11:30 09.08.2022
704 Clouds 10 1030 88 9000 5.14 130 08:53 09.08.2022
705 Clouds 10 1030 85 10000 5.14 140 07:58 09.08.2022
706 Rain 10 1030 82 8000 3.6 150 05:24 09.08.2022
707 Clear 12 1028 67 10000 5.66 130 00:36 09.08.2022
708 Rain 12 1027 67 10000 6.17 120 23:24 08.08.2022
709 Rain 12 1027 65 10000 6.69 120 22:40 08.08.2022
710 Clouds 13 1027 68 10000 6.69 110 21:44 08.08.2022
711 Rain 13 1027 66 10000 8.23 110 20:34 08.08.2022
712 Clouds 13 1027 63 10000 7.72 110 19:34 08.08.2022
713 Clouds 12 1028 69 10000 7.72 120 17:56 08.08.2022
714 Clouds 10 1028 78 10000 7.72 130 15:47 08.08.2022
715 Clouds 9 1028 83 10000 4.63 130 14:46 08.08.2022
716 Clouds 7 1027 88 10000 1.54 180 12:30 08.08.2022
717 Clouds 7 1026 85 10000 1.03 0 10:26 08.08.2022
718 Clouds 9 1026 79 10000 7.2 100 07:51 08.08.2022
719 Clouds 8 1026 78 10000 6.17 140 03:42 08.08.2022
720 Clouds 10 1024 75 10000 9.26 120 23:28 07.08.2022
721 Clouds 12 1023 71 10000 9.26 110 21:41 07.08.2022
722 Clouds 13 1023 68 10000 9.77 110 20:55 07.08.2022
723 Clouds 13 1023 67 10000 9.77 110 20:18 07.08.2022
724 Clouds 13 1023 66 10000 9.26 110 19:51 07.08.2022
725 Clouds 13 1024 66 10000 9.77 120 18:41 07.08.2022
726 Clouds 13 1025 67 10000 8.75 110 17:21 07.08.2022
727 Clouds 13 1025 71 10000 8.23 110 16:41 07.08.2022
728 Rain 12 1024 76 10000 7.2 110 15:25 07.08.2022
729 Clouds 10 1024 84 10000 8.23 100 13:44 07.08.2022
730 Clouds 10 1023 88 9000 4.12 120 12:19 07.08.2022
731 Clouds 10 1022 82 10000 6.17 110 10:37 07.08.2022
732 Clouds 11 1023 80 10000 5.66 80 08:26 07.08.2022
733 Rain 11 1023 82 10000 5.66 120 04:26 07.08.2022
734 Clear 11 1022 75 10000 7.2 130 01:50 07.08.2022
735 Clear 13 1021 57 10000 6.69 100 22:28 06.08.2022
736 Clear 14 1020 56 10000 7.2 100 21:28 06.08.2022
737 Clear 14 1020 51 10000 6.69 110 19:42 06.08.2022
738 Clear 15 1020 47 10000 6.17 110 18:33 06.08.2022
739 Clouds 15 1022 47 10000 2.93 100 17:39 06.08.2022
740 Clear 13 1021 62 10000 2.06 70 15:21 06.08.2022
741 Clear 9 1021 75 10000 0.51 0 13:50 06.08.2022
742 Clear 9 1021 69 10000 2.06 320 12:19 06.08.2022
743 Clear 9 1021 79 10000 1.03 0 10:33 06.08.2022
744 Clear 10 1021 78 10000 2.57 310 09:21 06.08.2022
745 Clear 11 1021 71 10000 1.54 50 03:54 06.08.2022
746 Clear 13 1019 62 10000 1.54 50 23:54 05.08.2022
747 Clear 15 1019 48 8000 1.54 50 22:33 05.08.2022
748 Clear 16 1019 37 9000 2.06 230 19:59 05.08.2022
749 Clear 15 1020 39 10000 2.06 220 18:46 05.08.2022
750 Clear 15 1020 40 10000 2.06 220 18:25 05.08.2022
751 Clear 12 1020 56 10000 1.54 200 16:49 05.08.2022
752 Clear 9 1020 71 10000 1.54 0 15:22 05.08.2022
753 Clear 8 1020 78 10000 1.54 180 14:31 05.08.2022
754 Clear 6 1019 83 10000 1.54 210 13:24 05.08.2022
755 Clear 6 1019 82 8000 2.06 230 12:30 05.08.2022
756 Clear 7 1018 79 8000 1.54 280 10:53 05.08.2022
757 Mist 7 1018 85 5000 1.03 330 08:30 05.08.2022
758 Clear 7 1018 83 6000 2.06 310 07:22 05.08.2022
759 Clear 9 1017 69 10000 0.51 0 01:28 05.08.2022
760 Clear 11 1016 61 10000 2.06 210 22:32 04.08.2022
761 Clear 11 1015 58 10000 2.57 190 21:27 04.08.2022
762 Clouds 11 1015 63 10000 3.09 200 20:44 04.08.2022
763 Clouds 11 1015 70 10000 3.6 170 19:48 04.08.2022
764 Clouds 10 1016 73 10000 4.12 180 18:51 04.08.2022
765 Clouds 9 1016 81 10000 4.12 210 18:32 04.08.2022
766 Clouds 8 1017 90 9000 3.6 190 14:39 04.08.2022
767 Clouds 8 1017 92 9000 2.06 170 13:22 04.08.2022
768 Clouds 9 1014 87 10000 6.17 150 11:33 04.08.2022
769 Clouds 11 1015 85 10000 4.12 150 07:55 04.08.2022
770 Clouds 11 1015 84 10000 6.17 140 06:42 04.08.2022
771 Clouds 13 1016 86 10000 2.57 160 02:35 04.08.2022
772 Clouds 14 1014 78 10000 3.6 160 23:46 03.08.2022
773 Clouds 14 1014 74 10000 5.14 140 22:59 03.08.2022
774 Clouds 15 1014 76 10000 3.09 160 20:57 03.08.2022
775 Clouds 14 1015 89 10000 2.57 160 19:54 03.08.2022
776 Clouds 13 1016 88 10000 2.57 180 18:37 03.08.2022
777 Clouds 12 1017 93 7000 3.6 190 16:26 03.08.2022
778 Mist 11 1017 96 3500 3.6 190 15:45 03.08.2022
779 Mist 10 1016 96 1800 1.03 0 12:44 03.08.2022
780 Mist 10 1015 97 1700 2.06 160 09:46 03.08.2022
781 Clear 12 1016 91 8000 2.06 140 04:51 03.08.2022
782 Clear 13 1016 91 9000 4.12 130 03:52 03.08.2022
783 Clouds 13 1017 89 9000 5.14 130 01:45 03.08.2022
784 Clear 15 1015 80 10000 4.63 120 23:41 02.08.2022
785 Clouds 15 1016 80 10000 5.66 100 21:59 02.08.2022
786 Clouds 15 1015 80 10000 5.66 100 21:40 02.08.2022
787 Clouds 15 1017 74 10000 4.63 100 19:38 02.08.2022
788 Clouds 14 1019 79 10000 4.63 80 16:42 02.08.2022
789 Clouds 12 1019 91 6000 4.63 60 13:21 02.08.2022
790 Clear 12 1017 88 10000 5.66 100 09:53 02.08.2022
791 Clear 12 1018 88 10000 5.14 100 08:27 02.08.2022
792 Clear 12 1018 83 10000 4.63 90 07:50 02.08.2022
793 Clear 12 1019 82 10000 2.57 60 04:56 02.08.2022
794 Clear 12 1018 86 10000 2.57 130 01:58 02.08.2022
795 Clear 14 1017 78 10000 5.14 110 23:21 01.08.2022
796 Clear 16 1017 64 10000 4.12 100 21:19 01.08.2022
797 Clear 16 1018 66 10000 2.06 50 19:44 01.08.2022
798 Clear 16 1018 71 10000 2.57 50 18:53 01.08.2022
799 Clouds 15 1019 77 10000 2.06 60 16:54 01.08.2022
800 Clouds 15 1019 81 10000 2.06 60 16:29 01.08.2022
801 Clouds 14 1019 81 10000 2.57 70 15:33 01.08.2022
802 Clouds 13 1019 92 10000 2.06 80 14:43 01.08.2022
803 Clear 11 1018 94 10000 1.03 0 12:57 01.08.2022
804 Fog 10 1018 95 10000 1.54 90 10:30 01.08.2022
805 Fog 11 1018 94 10000 1.54 70 08:41 01.08.2022
806 Clear 11 1018 91 9000 2.06 130 06:50 01.08.2022
807 Clear 12 1018 87 10000 2.57 120 04:29 01.08.2022
808 Clear 13 1018 79 10000 3.6 90 00:56 01.08.2022
809 Clear 15 1017 68 10000 3.6 90 22:42 31.07.2022
810 Clear 16 1017 63 10000 2.57 70 21:46 31.07.2022
811 Clouds 18 1018 52 10000 2.03 53 20:18 31.07.2022
812 Clouds 17 1018 57 10000 2.53 41 18:38 31.07.2022
813 Clear 15 1020 76 10000 2.06 60 16:18 31.07.2022
814 Clear 12 1019 85 10000 1.54 60 13:53 31.07.2022
815 Clear 12 1019 81 10000 0.51 0 12:29 31.07.2022
816 Rain 12 1018 76 10000 1.54 300 10:22 31.07.2022
817 Rain 12 1018 79 10000 2.06 300 08:18 31.07.2022
818 Clear 14 1018 80 10000 2.06 10 04:30 31.07.2022
819 Clear 15 1017 66 10000 2.57 10 00:23 31.07.2022
820 Clear 17 1017 52 10000 1.54 70 22:19 30.07.2022
821 Clear 17 1017 52 10000 1.54 70 22:19 30.07.2022
822 Clouds 17 1016 58 9000 1.54 40 21:50 30.07.2022
823 Clear 17 1017 58 9000 1.54 0 20:58 30.07.2022
824 Clear 18 1017 56 10000 2.49 28 19:59 30.07.2022
825 Clear 16 1018 67 10000 2.06 20 19:20 30.07.2022
826 Clear 17 1018 54 10000 2.58 358 17:45 30.07.2022
827 Clear 14 1019 59 10000 2.57 340 15:55 30.07.2022
828 Clear 13 1019 61 10000 2.57 340 15:25 30.07.2022
829 Clear 9 1018 70 9000 1.03 310 13:21 30.07.2022
830 Clear 10 1018 66 10000 1.54 330 12:20 30.07.2022
831 Clear 10 1017 61 10000 2.06 310 10:35 30.07.2022
832 Clear 10 1017 63 10000 2.57 300 09:57 30.07.2022
833 Clear 11 1017 68 10000 2.06 310 07:55 30.07.2022
834 Clear 11 1017 68 10000 2.06 310 07:55 30.07.2022
835 Clear 12 1018 65 10000 2.57 320 04:20 30.07.2022
836 Clear 12 1017 67 10000 2.06 320 02:28 30.07.2022
837 Clear 15 1016 62 10000 3.09 360 22:46 29.07.2022
838 Clear 17 1016 45 10000 1.63 284 21:28 29.07.2022
839 Clear 17 1017 39 10000 2.06 0 20:50 29.07.2022
840 Clear 15 1018 41 10000 2.06 0 18:27 29.07.2022
841 Clear 12 1019 52 10000 1.54 220 16:32 29.07.2022
842 Clear 7 1019 75 10000 1.54 240 13:45 29.07.2022
843 Clear 7 1019 75 10000 1.54 250 11:30 29.07.2022
844 Clear 7 1018 77 10000 2.57 230 08:50 29.07.2022
845 Clear 7 1018 77 10000 2.57 230 08:20 29.07.2022
846 Clear 11 1017 70 10000 4.12 240 02:29 29.07.2022
847 Clouds 13 1014 61 10000 3.6 0 23:18 28.07.2022
848 Clouds 14 1013 56 10000 3.6 230 21:29 28.07.2022
849 Clouds 15 1013 57 10000 3.6 230 20:34 28.07.2022
850 Clouds 14 1013 61 10000 3.6 210 19:44 28.07.2022
851 Clouds 14 1013 61 10000 3.6 210 19:25 28.07.2022
852 Clouds 12 1015 67 10000 5.14 0 17:44 28.07.2022
853 Clouds 11 1015 71 10000 4.63 200 16:59 28.07.2022
854 Clouds 11 1015 72 10000 4.63 200 16:36 28.07.2022
855 Clouds 11 1013 91 10000 3.6 0 13:35 28.07.2022
856 Drizzle 11 1013 95 3400 3.09 210 11:42 28.07.2022
857 Clouds 15 1011 95 6000 1.54 190 06:46 28.07.2022
858 Drizzle 16 1010 95 2000 3.6 200 05:33 28.07.2022
859 Clouds 15 1010 97 6000 1.03 0 02:40 28.07.2022
860 Clouds 16 1009 94 9000 6.17 130 22:45 27.07.2022
861 Clouds 17 1009 94 8000 5.66 120 21:29 27.07.2022
862 Rain 17 1010 94 8000 6.17 110 19:43 27.07.2022
863 Clouds 17 1012 94 9000 7.72 110 18:39 27.07.2022
864 Clouds 17 1014 94 9000 3.6 110 15:52 27.07.2022
865 Clouds 17 1014 93 9000 3.6 110 15:20 27.07.2022
866 Clouds 17 1014 95 9000 4.12 110 14:40 27.07.2022
867 Clouds 17 1013 95 10000 6.17 110 12:50 27.07.2022
868 Clouds 17 1014 94 10000 7.72 90 08:44 27.07.2022
869 Clouds 17 1016 95 3000 6.17 90 06:56 27.07.2022
870 Clear 18 1015 92 10000 3.09 130 01:59 27.07.2022
871 Clear 20 1015 84 10000 3.09 120 22:29 26.07.2022
872 Clear 21 1014 83 10000 2.57 120 21:21 26.07.2022
873 Clouds 20 1015 83 10000 3.09 110 20:31 26.07.2022
874 Clouds 19 1016 82 10000 3.6 90 18:44 26.07.2022
875 Clouds 18 1017 86 10000 3.09 90 17:59 26.07.2022
876 Clouds 17 1017 92 10000 3.6 100 16:31 26.07.2022
877 Clouds 17 1018 94 10000 3.6 110 15:30 26.07.2022
878 Clouds 16 1017 95 10000 4.12 130 13:38 26.07.2022
879 Clouds 15 1016 97 10000 4.12 120 11:38 26.07.2022
880 Clear 15 1015 95 10000 3.09 110 08:57 26.07.2022
881 Thunderstorm 15 1016 96 10000 2.06 100 05:53 26.07.2022
882 Mist 15 1016 97 4000 5.14 110 00:37 26.07.2022
883 Mist 15 1015 97 4000 5.66 110 22:53 25.07.2022
884 Mist 15 1016 97 1100 5.66 110 22:25 25.07.2022
885 Fog 15 1016 97 900 6.69 110 21:41 25.07.2022
886 Mist 15 1017 95 1400 5.66 100 20:41 25.07.2022
887 Mist 14 1017 98 1100 4.63 110 19:33 25.07.2022
888 Clouds 13 1019 98 6000 6.17 100 18:18 25.07.2022
889 Clouds 13 1018 95 10000 8.23 120 17:27 25.07.2022
890 Thunderstorm 12 1020 99 2500 9.77 120 14:44 25.07.2022
891 Thunderstorm 12 1018 98 900 8.75 120 12:21 25.07.2022
892 Mist 13 1019 97 1500 6.17 130 09:18 25.07.2022
893 Drizzle 13 1018 97 400 7.72 120 03:23 25.07.2022
894 Fog 13 1017 97 900 8.23 120 23:54 24.07.2022
895 Mist 14 1016 95 4000 7.72 120 22:59 24.07.2022
896 Mist 14 1016 94 4000 7.72 120 22:29 24.07.2022
897 Mist 15 1016 93 5000 7.72 120 21:19 24.07.2022
898 Mist 15 1016 93 5000 8.23 120 20:50 24.07.2022
899 Mist 14 1016 93 3000 8.75 120 20:19 24.07.2022
900 Mist 14 1016 96 1200 7.72 120 18:38 24.07.2022
901 Fog 15 1017 98 800 5.66 120 16:29 24.07.2022
902 Fog 15 1017 99 300 4.63 120 15:45 24.07.2022
903 Fog 15 1017 99 500 4.63 130 14:29 24.07.2022
904 Fog 14 1015 99 100 4.12 130 12:54 24.07.2022
905 Fog 14 1014 99 50 4.63 110 11:40 24.07.2022
906 Fog 14 1014 99 50 3.6 110 11:00 24.07.2022
907 Fog 15 1015 99 300 2.06 120 08:32 24.07.2022
908 Fog 15 1015 99 900 2.57 150 07:52 24.07.2022
909 Fog 15 1015 99 800 1.54 160 05:44 24.07.2022
910 Fog 15 1012 97 100 1.03 0 00:28 24.07.2022
911 Fog 15 1012 97 300 2.06 80 21:28 23.07.2022
912 Fog 15 1012 97 300 2.06 110 19:59 23.07.2022
913 Drizzle 14 1013 97 300 3.6 70 18:50 23.07.2022
914 Drizzle 14 1014 97 600 4.12 110 17:28 23.07.2022
915 Fog 13 1014 98 400 3.6 90 16:33 23.07.2022
916 Drizzle 13 1014 98 600 3.6 90 15:22 23.07.2022
917 Drizzle 13 1014 96 600 4.63 100 14:58 23.07.2022
918 Drizzle 13 1014 97 600 5.14 100 14:26 23.07.2022
919 Fog 13 1014 98 500 3.09 100 12:44 23.07.2022
920 Clouds 13 1014 97 8000 4.12 60 10:45 23.07.2022
921 Clouds 12 1014 96 7000 3.6 60 09:56 23.07.2022
922 Mist 12 1014 97 3000 4.63 70 08:31 23.07.2022
923 Clear 11 1016 90 10000 4.63 130 03:38 23.07.2022
924 Clear 13 1015 81 10000 4.63 120 00:41 23.07.2022
925 Clear 16 1014 71 8000 4.12 120 22:19 22.07.2022
926 Clear 17 1014 67 10000 3.6 110 20:39 22.07.2022
927 Clear 17 1015 68 10000 3.06 112 19:32 22.07.2022
928 Clear 16 1016 72 10000 3.03 115 18:23 22.07.2022
929 Clouds 13 1016 88 7000 3.6 100 16:46 22.07.2022
930 Fog 9 1016 95 500 5.14 130 14:20 22.07.2022
931 Clear 9 1014 95 9000 2.06 140 10:41 22.07.2022
932 Clear 8 1014 96 9000 3.09 130 09:25 22.07.2022
933 Clear 9 1015 94 10000 1.54 160 08:26 22.07.2022
934 Clear 10 1015 89 10000 4.63 100 04:26 22.07.2022
935 Clear 12 1015 78 10000 7.72 120 23:45 21.07.2022
936 Clear 13 1015 73 10000 7.2 110 22:20 21.07.2022
937 Clear 16 1014 62 10000 3.09 90 20:36 21.07.2022
938 Clear 19 1014 46 10000 3.09 150 18:52 21.07.2022
939 Clear 17 1015 57 10000 2.06 180 17:29 21.07.2022
940 Clear 16 1015 62 10000 3.09 190 16:43 21.07.2022
941 Clouds 13 1014 87 9000 2.06 200 14:49 21.07.2022
942 Clouds 12 1013 90 8000 1.54 240 13:58 21.07.2022
943 Clouds 12 1013 90 8000 1.54 240 13:58 21.07.2022
944 Clear 12 1012 91 9000 1.54 250 12:18 21.07.2022
945 Clear 13 1011 93 10000 1.54 270 10:21 21.07.2022
946 Clear 13 1011 92 10000 1.54 290 08:53 21.07.2022
947 Clear 13 1010 92 10000 1.54 290 08:18 21.07.2022
948 Clear 14 1011 92 10000 2.06 310 06:45 21.07.2022
949 Clouds 15 1010 82 10000 1.03 0 02:59 21.07.2022
950 Clouds 16 1010 73 10000 2.06 360 22:49 20.07.2022
951 Clouds 16 1010 71 10000 2.06 360 22:19 20.07.2022
952 Clear 16 1011 71 10000 1.54 70 20:46 20.07.2022
953 Clear 18 1013 66 10000 0.89 315 19:47 20.07.2022
954 Clear 17 1013 65 10000 4.01 6 18:54 20.07.2022
955 Clear 15 1014 74 10000 2.57 10 18:31 20.07.2022
956 Clear 15 1016 69 10000 4.62 5 17:28 20.07.2022
957 Clear 12 1016 79 10000 2.57 340 15:33 20.07.2022
958 Clear 11 1017 86 10000 3.6 330 14:49 20.07.2022
959 Clear 9 1017 92 10000 3.6 330 13:21 20.07.2022
960 Clear 10 1018 91 10000 4.12 350 10:59 20.07.2022
961 Clear 11 1020 91 10000 3.6 360 06:35 20.07.2022
962 Clear 10 1021 86 10000 3.09 110 01:47 20.07.2022
963 Clear 10 1022 79 9000 4.12 110 00:42 20.07.2022
964 Clear 13 1022 62 9000 3.09 90 22:36 19.07.2022
965 Clear 14 1022 53 10000 2.57 80 21:54 19.07.2022
966 Clear 14 1023 51 10000 2.57 80 20:49 19.07.2022
967 Clear 15 1024 47 10000 2.44 43 19:22 19.07.2022
968 Clear 14 1024 53 10000 2.44 43 18:41 19.07.2022
969 Clear 12 1027 61 10000 2.57 50 17:53 19.07.2022
970 Clear 11 1027 67 10000 3.09 40 15:27 19.07.2022
971 Clouds 7 1027 91 9000 1.03 0 13:33 19.07.2022
972 Clear 7 1027 73 10000 3.09 130 11:32 19.07.2022
973 Clear 7 1027 66 10000 1.03 0 09:51 19.07.2022
974 Clear 8 1027 65 10000 2.06 130 08:46 19.07.2022
975 Clear 8 1027 63 10000 1.54 190 07:19 19.07.2022
976 Clear 8 1027 61 10000 1.54 170 06:27 19.07.2022
977 Clear 9 1027 57 10000 1.54 160 05:18 19.07.2022
978 Clouds 11 1027 53 10000 2.62 165 02:37 19.07.2022
979 Clear 14 1024 48 10000 1.03 0 23:52 18.07.2022
980 Clear 14 1024 47 10000 1.03 0 23:19 18.07.2022
981 Clear 16 1024 44 10000 1.54 230 22:26 18.07.2022
982 Clear 16 1023 44 10000 1.54 220 21:20 18.07.2022
983 Clear 15 1023 48 10000 2.06 0 19:54 18.07.2022
984 Clear 14 1023 55 10000 2.57 280 18:24 18.07.2022
985 Clear 11 1024 67 10000 4.12 290 16:28 18.07.2022
986 Clear 9 1023 73 10000 5.14 300 15:19 18.07.2022
987 Clear 6 1022 87 10000 3.6 320 13:31 18.07.2022
988 Clear 7 1021 84 10000 4.63 320 11:31 18.07.2022
989 Clear 7 1019 81 10000 6.17 320 09:53 18.07.2022
990 Clear 8 1019 79 10000 5.66 330 07:48 18.07.2022
991 Clear 10 1019 68 10000 3.6 330 02:34 18.07.2022
992 Clear 13 1018 49 10000 5.14 320 22:52 17.07.2022
993 Clear 13 1018 49 10000 5.14 320 22:25 17.07.2022
994 Clear 13 1017 51 10000 5.66 330 21:26 17.07.2022
995 Clear 14 1018 48 10000 6.17 330 20:44 17.07.2022
996 Clear 13 1019 49 10000 6.17 320 19:49 17.07.2022
997 Clear 13 1019 50 10000 6.17 320 19:19 17.07.2022
998 Clear 11 1021 54 10000 3.09 300 17:39 17.07.2022
999 Clear 10 1021 59 10000 2.57 270 16:51 17.07.2022
1000 Clear 8 1021 62 10000 2.57 270 16:27 17.07.2022
1001 Clear 6 1021 66 10000 2.06 280 15:27 17.07.2022
1002 Clear 4 1020 77 10000 2.57 280 13:47 17.07.2022
1003 Clear 3 1019 81 10000 2.57 300 12:32 17.07.2022
1004 Clear 4 1018 77 10000 2.06 290 09:31 17.07.2022
1005 Clear 5 1018 76 10000 1.54 260 06:58 17.07.2022
1006 Clouds 9 1016 65 10000 3.6 220 02:33 17.07.2022
1007 Clouds 10 1012 69 10000 3.6 0 23:22 16.07.2022
1008 Clouds 10 1012 69 10000 3.6 0 23:22 16.07.2022
1009 Clouds 10 1012 74 10000 3.6 0 21:57 16.07.2022
1010 Clouds 10 1011 74 10000 4.63 0 20:26 16.07.2022
1011 Rain 10 1011 77 10000 4.63 180 18:41 16.07.2022
1012 Rain 9 1012 80 10000 4.63 180 17:20 16.07.2022
1013 Clouds 9 1012 80 10000 3.09 180 15:23 16.07.2022
1014 Drizzle 9 1009 90 7000 4.12 190 11:54 16.07.2022
1015 Rain 9 1009 90 10000 4.63 180 09:37 16.07.2022
1016 Clouds 10 1011 88 10000 3.09 0 08:48 16.07.2022
1017 Clouds 10 1011 88 10000 3.09 0 08:29 16.07.2022
1018 Clouds 11 1011 90 10000 2.57 200 04:28 16.07.2022
1019 Clouds 11 1010 93 8000 2.57 210 03:29 16.07.2022
1020 Drizzle 11 1010 92 4000 2.57 170 23:38 15.07.2022
1021 Clouds 11 1010 93 6000 2.06 200 22:41 15.07.2022
1022 Clouds 12 1008 93 6000 2.57 0 21:29 15.07.2022
1023 Mist 11 1007 93 5000 3.6 150 20:31 15.07.2022
1024 Mist 12 1009 92 5000 1.54 170 18:44 15.07.2022
1025 Mist 11 1010 93 5000 1.54 170 17:44 15.07.2022
1026 Mist 10 1008 94 2500 3.09 160 14:54 15.07.2022
1027 Mist 9 1008 96 5000 3.6 190 13:18 15.07.2022
1028 Mist 9 1008 96 2700 2.06 210 11:44 15.07.2022
1029 Mist 10 1009 98 3500 2.06 190 10:23 15.07.2022
1030 Fog 11 1009 94 5000 1.54 150 06:30 15.07.2022
1031 Clear 12 1008 85 10000 1.54 190 01:32 15.07.2022
1032 Clear 12 1008 85 10000 3.6 120 00:22 15.07.2022
1033 Clear 14 1007 78 10000 3.09 130 22:52 14.07.2022
1034 Clear 13 1007 79 10000 2.57 140 21:51 14.07.2022
1035 Clear 13 1008 79 10000 2.57 140 21:30 14.07.2022
1036 Clear 13 1007 77 10000 3.6 120 20:45 14.07.2022
1037 Clear 13 1007 77 10000 3.6 120 20:21 14.07.2022
1038 Clear 13 1008 79 10000 3.09 120 19:18 14.07.2022
1039 Clear 12 1011 79 10000 4.12 80 16:23 14.07.2022
1040 Clear 12 1011 80 10000 3.6 60 15:32 14.07.2022
1041 Clear 10 1012 85 10000 4.63 80 13:59 14.07.2022
1042 Clear 10 1012 83 10000 5.14 70 12:58 14.07.2022
1043 Clear 10 1011 81 10000 4.12 80 11:54 14.07.2022
1044 Clear 10 1011 81 10000 4.12 80 11:23 14.07.2022
1045 Clear 10 1012 78 10000 4.12 70 10:24 14.07.2022
1046 Clear 11 1014 76 10000 4.12 50 07:47 14.07.2022
1047 Clear 12 1015 72 10000 4.12 60 01:25 14.07.2022
1048 Clear 12 1015 72 10000 3.09 50 00:53 14.07.2022
1049 Clear 14 1015 67 10000 3.09 20 22:33 13.07.2022
1050 Clear 14 1016 68 10000 3.6 20 21:59 13.07.2022
1051 Clear 14 1016 66 10000 3.6 20 21:18 13.07.2022
1052 Clear 15 1017 64 10000 4.12 10 19:34 13.07.2022
1053 Clear 13 1019 69 10000 4.63 340 17:51 13.07.2022
1054 Clouds 11 1019 73 10000 5.66 340 16:43 13.07.2022
1055 Clouds 9 1019 79 10000 4.63 340 15:24 13.07.2022
1056 Clear 7 1018 87 10000 5.66 330 12:55 13.07.2022
1057 Clear 7 1018 84 10000 6.17 340 10:46 13.07.2022
1058 Clear 7 1018 84 10000 6.17 340 10:24 13.07.2022
1059 Clear 8 1018 81 10000 5.14 350 09:24 13.07.2022
1060 Clear 9 1018 74 10000 7.2 340 06:20 13.07.2022
1061 Clear 9 1019 68 10000 6.17 340 02:21 13.07.2022
1062 Clear 9 1019 65 10000 2.57 350 23:45 12.07.2022
1063 Clear 11 1019 55 10000 3.6 360 21:57 12.07.2022
1064 Clear 11 1019 57 10000 3.6 360 21:32 12.07.2022
1065 Clouds 11 1019 55 10000 2.48 342 20:41 12.07.2022
1066 Clear 10 1020 56 10000 3.6 350 19:28 12.07.2022
1067 Clear 9 1021 58 10000 1.54 0 17:50 12.07.2022
1068 Clear 7 1021 65 10000 1.54 160 16:20 12.07.2022
1069 Clear 6 1021 82 10000 1.03 0 14:31 12.07.2022
1070 Clear 5 1020 86 10000 1.03 0 12:29 12.07.2022
1071 Clear 5 1020 86 10000 2.06 220 11:22 12.07.2022
1072 Clouds 6 1019 81 10000 1.54 210 09:38 12.07.2022
1073 Clouds 6 1019 82 10000 3.09 200 08:19 12.07.2022
1074 Clouds 7 1019 75 10000 3.6 180 06:29 12.07.2022
1075 Clouds 7 1019 73 10000 4.12 190 05:39 12.07.2022
1076 Clouds 11 1016 66 10000 3.6 180 02:21 12.07.2022
1077 Clouds 11 1014 67 10000 2.57 170 23:28 11.07.2022
1078 Clouds 11 1013 66 10000 3.09 0 22:30 11.07.2022
1079 Clouds 11 1011 69 10000 4.12 180 20:41 11.07.2022
1080 Clouds 10 1012 70 10000 4.63 160 19:36 11.07.2022
1081 Clouds 10 1012 75 10000 4.12 160 18:32 11.07.2022
1082 Clouds 10 1012 77 10000 4.63 160 17:46 11.07.2022
1083 Rain 9 1012 79 10000 4.63 160 16:19 11.07.2022
1084 Rain 9 1010 80 10000 6.17 160 14:38 11.07.2022
1085 Rain 10 1011 70 10000 3.6 160 11:49 11.07.2022
1086 Clear 10 1009 66 10000 4.63 160 10:29 11.07.2022
1087 Rain 11 1010 63 10000 3.6 170 09:42 11.07.2022
1088 Clear 11 1009 62 10000 4.12 170 08:34 11.07.2022
1089 Rain 13 1009 65 10000 4.12 160 05:51 11.07.2022
1090 Clouds 15 1008 78 10000 3.09 170 00:22 11.07.2022
1091 Clouds 16 1006 79 9000 3.6 150 22:58 10.07.2022
1092 Clouds 16 1005 84 10000 4.63 180 21:51 10.07.2022
1093 Clouds 16 1005 86 9000 4.12 190 20:54 10.07.2022
1094 Clouds 18 1004 86 8000 3.6 180 19:50 10.07.2022
1095 Clouds 18 1004 86 8000 3.6 180 19:50 10.07.2022
1096 Clouds 18 1005 88 10000 0.89 180 18:49 10.07.2022
1097 Clouds 20 1004 76 10000 3.09 0 17:37 10.07.2022
1098 Clouds 19 1004 76 10000 4.12 320 16:57 10.07.2022
1099 Clear 19 1004 76 10000 4.12 320 15:33 10.07.2022
1100 Clear 19 1003 78 10000 4.12 320 14:30 10.07.2022
1101 Clouds 18 1002 84 10000 1.54 340 12:29 10.07.2022
1102 Clear 18 1002 84 10000 1.54 340 11:20 10.07.2022
1103 Clear 18 1003 84 10000 0.51 0 08:45 10.07.2022
1104 Clear 18 1003 86 10000 2.06 350 07:59 10.07.2022
1105 Clear 17 1004 92 10000 1.03 0 02:50 10.07.2022
1106 Clear 16 1004 90 10000 5.14 110 22:59 09.07.2022
1107 Clear 16 1004 88 10000 5.14 110 22:25 09.07.2022
1108 Clouds 17 1005 82 10000 3.09 100 21:28 09.07.2022
1109 Clouds 15 1010 92 8180 0.89 45 18:43 09.07.2022
1110 Clouds 14 1011 89 10000 1.54 40 17:45 09.07.2022
1111 Clouds 13 1011 89 10000 3.09 70 16:44 09.07.2022
1112 Clouds 13 1012 89 10000 2.06 40 15:41 09.07.2022
1113 Clouds 12 1012 87 10000 2.57 60 14:43 09.07.2022
1114 Clouds 12 1012 87 10000 2.57 70 13:50 09.07.2022
1115 Clouds 12 1012 83 10000 3.09 60 12:47 09.07.2022
1116 Clouds 12 1012 86 10000 3.09 60 11:31 09.07.2022
1117 Clouds 12 1013 84 10000 3.09 60 10:22 09.07.2022
1118 Clouds 11 1014 73 10000 5.14 70 07:53 09.07.2022
1119 Clear 11 1015 69 10000 7.2 70 05:24 09.07.2022
1120 Clear 13 1017 54 10000 4.63 80 02:34 09.07.2022
1121 Clear 12 1018 58 10000 8.23 100 22:54 08.07.2022
1122 Clear 12 1018 58 10000 9.26 100 21:59 08.07.2022
1123 Clear 12 1019 53 10000 8.23 100 20:41 08.07.2022
1124 Clear 13 1019 52 10000 8.23 100 20:23 08.07.2022
1125 Clear 13 1022 46 10000 5.66 100 18:26 08.07.2022
1126 Clear 12 1023 48 10000 5.66 80 16:48 08.07.2022
1127 Clear 10 1023 71 10000 4.12 70 14:54 08.07.2022
1128 Clear 8 1023 76 10000 1.03 0 13:41 08.07.2022
1129 Clear 7 1023 63 10000 2.06 110 11:51 08.07.2022
1130 Clear 6 1023 61 10000 0 0 10:29 08.07.2022
1131 Clear 6 1024 61 10000 1.03 0 08:37 08.07.2022
1132 Clear 7 1024 56 10000 0 0 06:50 08.07.2022
1133 Clear 10 1022 40 10000 0.51 0 01:31 08.07.2022
1134 Clear 12 1020 26 10000 1.54 230 23:22 07.07.2022
1135 Clear 13 1020 25 10000 2.57 240 22:35 07.07.2022
1136 Clear 13 1018 29 10000 2.57 0 20:35 07.07.2022
1137 Clear 12 1019 39 10000 2.57 0 18:20 07.07.2022
1138 Clear 10 1018 45 10000 2.57 0 16:53 07.07.2022
1139 Clear 8 1018 53 10000 3.09 230 14:35 07.07.2022
1140 Clear 8 1016 56 10000 3.09 240 13:18 07.07.2022
1141 Clear 8 1015 63 10000 3.6 0 12:24 07.07.2022
1142 Clear 9 1014 69 10000 3.09 240 11:45 07.07.2022
1143 Clear 9 1014 73 10000 3.09 240 11:24 07.07.2022
1144 Clouds 9 1014 85 10000 0.89 0 10:41 07.07.2022
1145 Clear 10 1013 76 10000 3.6 250 10:23 07.07.2022
1146 Clouds 12 1009 95 10000 3.09 240 06:48 07.07.2022
1147 Mist 13 1005 98 1500 0.51 0 01:43 07.07.2022
1148 Clouds 13 1005 97 10000 0.45 135 23:36 06.07.2022
1149 Clouds 13 1005 97 10000 2.18 32 23:18 06.07.2022
1150 Fog 13 1004 95 800 3.09 90 22:52 06.07.2022
1151 Fog 13 1004 95 800 3.09 90 22:52 06.07.2022
1152 Fog 13 1004 96 800 3.09 90 22:34 06.07.2022
1153 Fog 12 1005 98 500 2.06 80 20:30 06.07.2022
1154 Fog 12 1006 98 400 3.09 80 19:33 06.07.2022
1155 Drizzle 11 1010 97 800 4.12 70 17:22 06.07.2022
1156 Drizzle 11 1012 94 2000 3.09 40 15:58 06.07.2022
1157 Clouds 11 1013 94 10000 4.63 50 12:57 06.07.2022
1158 Clouds 11 1013 95 10000 4.63 50 12:21 06.07.2022
1159 Clouds 10 1014 95 10000 4.63 70 10:55 06.07.2022
1160 Clouds 10 1015 96 8000 3.09 70 09:27 06.07.2022
1161 Clouds 10 1015 96 8000 3.09 70 09:27 06.07.2022
1162 Mist 9 1016 97 2000 4.12 80 07:44 06.07.2022
1163 Mist 9 1017 94 1200 3.6 100 06:49 06.07.2022
1164 Fog 10 1017 97 300 5.14 90 00:38 06.07.2022
1165 Clouds 11 1017 86 10000 4.63 110 22:43 05.07.2022
1166 Clouds 12 1017 80 10000 3.09 110 20:49 05.07.2022
1167 Clouds 12 1017 80 10000 3.09 110 20:31 05.07.2022
1168 Clouds 12 1018 80 10000 2.57 90 19:38 05.07.2022
1169 Clouds 12 1019 80 10000 3.09 70 17:51 05.07.2022
1170 Clouds 12 1019 79 10000 3.09 70 17:19 05.07.2022
1171 Clouds 12 1019 84 10000 2.57 80 16:25 05.07.2022
1172 Clouds 11 1019 84 10000 3.09 100 14:54 05.07.2022
1173 Clouds 10 1019 95 9000 5.14 100 13:34 05.07.2022
1174 Clouds 10 1018 92 7000 4.12 120 12:22 05.07.2022
1175 Mist 10 1018 95 5000 2.57 150 10:45 05.07.2022
1176 Drizzle 10 1018 94 2300 2.57 150 09:52 05.07.2022
1177 Clouds 10 1018 91 10000 2.57 180 08:21 05.07.2022
1178 Clouds 11 1019 94 9000 2.57 190 06:51 05.07.2022
1179 Clouds 11 1018 93 10000 2.57 180 04:35 05.07.2022
1180 Clouds 11 1015 88 6000 2.06 0 01:25 05.07.2022
1181 Clouds 11 1016 84 10000 3.25 189 23:37 04.07.2022
1182 Mist 12 1015 81 5000 1.03 0 22:55 04.07.2022
1183 Mist 12 1014 83 5000 1.03 0 21:56 04.07.2022
1184 Clouds 12 1014 80 10000 3.6 80 20:56 04.07.2022
1185 Clouds 12 1014 80 10000 3.6 80 20:35 04.07.2022
1186 Clouds 13 1014 79 10000 3.6 100 19:56 04.07.2022
1187 Clouds 13 1014 80 10000 3.6 100 19:37 04.07.2022
1188 Clouds 12 1015 81 10000 3.6 120 18:34 04.07.2022
1189 Clouds 11 1018 87 10000 3.6 90 16:42 04.07.2022
1190 Clouds 10 1017 85 10000 5.14 120 15:34 04.07.2022
1191 Clouds 10 1017 89 10000 4.12 90 13:41 04.07.2022
1192 Clear 10 1017 87 10000 5.66 100 12:38 04.07.2022
1193 Clear 10 1017 87 10000 5.14 70 10:39 04.07.2022
1194 Clear 10 1017 85 10000 5.14 70 10:20 04.07.2022
1195 Clear 10 1019 78 10000 4.12 70 08:31 04.07.2022
1196 Clear 10 1021 85 10000 6.69 100 05:36 04.07.2022
1197 Clear 9 1022 69 10000 4.12 130 00:43 04.07.2022
1198 Clear 10 1022 65 10000 4.63 130 23:27 03.07.2022
1199 Clear 12 1021 59 10000 4.12 110 22:23 03.07.2022
1200 Clear 12 1022 50 10000 4.63 100 20:42 03.07.2022
1201 Clear 12 1022 45 10000 2.57 110 19:42 03.07.2022
1202 Clear 12 1022 47 10000 2.57 110 19:23 03.07.2022
1203 Clear 11 1024 59 10000 3.09 30 17:45 03.07.2022
1204 Clear 11 1024 62 10000 3.6 20 16:58 03.07.2022
1205 Clouds 9 1023 82 9000 2.57 330 15:25 03.07.2022
1206 Clear 7 1023 89 9000 1.54 300 14:37 03.07.2022
1207 Fog 6 1022 93 8000 1.03 0 13:49 03.07.2022
1208 Clear 6 1022 96 8000 0 0 12:41 03.07.2022
1209 Clear 6 1022 92 8000 1.03 290 11:39 03.07.2022
1210 Clear 6 1022 91 10000 0.51 0 10:39 03.07.2022
1211 Clear 6 1022 90 10000 0.51 0 09:59 03.07.2022
1212 Clear 6 1021 84 10000 0.51 0 07:36 03.07.2022
1213 Clear 7 1020 77 10000 0 0 05:18 03.07.2022
1214 Clear 10 1019 54 10000 1.03 0 00:23 03.07.2022
1215 Clear 12 1018 49 10000 1.54 0 22:35 02.07.2022
1216 Clear 13 1017 48 10000 1.54 0 21:38 02.07.2022
1217 Clear 13 1016 51 10000 3.09 200 19:52 02.07.2022
1218 Clear 12 1016 52 10000 3.09 200 19:31 02.07.2022
1219 Clear 11 1016 59 10000 3.6 220 17:58 02.07.2022
1220 Clear 11 1016 60 10000 3.6 220 17:36 02.07.2022
1221 Clear 8 1015 70 10000 3.09 210 15:28 02.07.2022
1222 Clear 8 1012 87 10000 3.09 0 12:22 02.07.2022
1223 Clear 9 1011 90 10000 2.57 240 11:27 02.07.2022
1224 Clear 9 1011 96 10000 3.09 250 10:46 02.07.2022
1225 Clear 9 1010 97 10000 2.57 250 09:37 02.07.2022
1226 Clear 9 1010 95 10000 2.57 260 08:36 02.07.2022
1227 Clear 9 1010 95 10000 2.57 260 08:18 02.07.2022
1228 Clouds 11 1008 95 10000 2.06 40 02:51 02.07.2022
1229 Rain 11 1006 94 10000 3.09 80 00:26 02.07.2022
1230 Rain 11 1006 92 5000 2.06 40 22:58 01.07.2022
1231 Rain 12 1007 87 4000 2.06 30 21:49 01.07.2022
1232 Rain 12 1006 86 10000 3.09 20 21:29 01.07.2022
1233 Rain 12 1007 83 3000 3.6 360 20:43 01.07.2022
1234 Clear 12 1008 76 10000 3.09 10 19:47 01.07.2022
1235 Clouds 12 1010 71 10000 5.14 10 17:58 01.07.2022
1236 Clear 11 1011 65 10000 6.17 30 16:24 01.07.2022
1237 Clear 10 1013 70 10000 5.66 30 13:55 01.07.2022
1238 Clear 10 1013 73 10000 5.66 30 12:55 01.07.2022
1239 Clear 10 1014 70 10000 4.12 20 10:20 01.07.2022
1240 Clear 10 1015 68 10000 5.66 20 09:47 01.07.2022
1241 Clear 10 1017 84 10000 4.12 80 05:25 01.07.2022
1242 Clear 11 1019 72 10000 1.03 90 00:42 01.07.2022
1243 Clear 13 1018 62 10000 1.03 0 23:22 30.06.2022
1244 Clear 14 1018 61 10000 1.03 0 22:44 30.06.2022
1245 Clear 14 1018 60 10000 1.03 0 22:25 30.06.2022
1246 Clear 15 1018 53 7000 1.54 360 21:45 30.06.2022
1247 Clear 17 1019 33 10000 0.14 5 20:30 30.06.2022
1248 Clear 17 1019 33 10000 0.54 234 19:54 30.06.2022
1249 Clear 17 1019 33 10000 1.6 219 19:26 30.06.2022
1250 Clear 16 1019 38 10000 1.6 219 18:42 30.06.2022
1251 Clear 15 1020 50 10000 2.06 20 17:44 30.06.2022
1252 Clear 14 1020 54 10000 1.54 200 16:55 30.06.2022
1253 Clear 13 1020 65 10000 2.57 190 15:42 30.06.2022
1254 Clouds 10 1019 70 9000 1.54 0 13:36 30.06.2022
1255 Clear 10 1018 70 10000 1.54 0 12:35 30.06.2022
1256 Clear 10 1017 73 10000 2.06 260 11:43 30.06.2022
1257 Clear 11 1015 72 10000 2.06 340 09:55 30.06.2022
1258 Clear 11 1015 72 10000 2.06 340 09:35 30.06.2022
1259 Clear 12 1016 65 10000 1.03 0 08:19 30.06.2022
1260 Rain 11 1016 67 10000 1.03 0 07:23 30.06.2022
1261 Clear 14 1012 60 10000 3.09 320 01:47 30.06.2022
1262 Clear 16 1011 50 10000 4.63 330 23:34 29.06.2022
1263 Clouds 17 1011 50 10000 5.14 330 22:40 29.06.2022
1264 Clear 18 1011 41 10000 5.14 330 21:39 29.06.2022
1265 Clouds 19 1011 43 10000 4.77 349 20:34 29.06.2022
1266 Clear 18 1013 44 10000 5.14 330 19:48 29.06.2022
1267 Clear 16 1015 52 10000 5.66 310 17:54 29.06.2022
1268 Clear 14 1016 63 10000 5.14 310 16:48 29.06.2022
1269 Clear 12 1016 71 9000 4.63 320 15:32 29.06.2022
1270 Clear 9 1016 80 10000 4.12 320 12:49 29.06.2022
1271 Clear 9 1015 80 10000 3.09 320 11:47 29.06.2022
1272 Clear 10 1016 69 10000 2.57 290 09:34 29.06.2022
1273 Clear 10 1016 67 10000 2.06 290 08:42 29.06.2022
1274 Clear 10 1016 68 9000 0.51 0 05:19 29.06.2022
1275 Clear 12 1017 64 10000 0 0 01:48 29.06.2022
1276 Clear 12 1017 63 10000 1.03 0 00:37 29.06.2022
1277 Clouds 14 1017 56 10000 2.67 269 22:56 28.06.2022
1278 Clear 15 1016 51 10000 2.06 0 22:34 28.06.2022
1279 Clear 15 1016 52 10000 1.03 0 21:55 28.06.2022
1280 Clear 15 1016 52 10000 1.03 0 21:33 28.06.2022
1281 Clear 14 1016 57 10000 1.54 0 20:50 28.06.2022
1282 Clear 14 1017 59 10000 1.54 250 19:34 28.06.2022
1283 Clear 14 1017 59 10000 1.54 250 19:34 28.06.2022
1284 Clear 14 1017 60 10000 1.54 230 18:53 28.06.2022
1285 Clear 12 1018 65 10000 2.06 0 17:42 28.06.2022
1286 Clear 12 1018 67 10000 2.06 240 16:24 28.06.2022
1287 Rain 12 1018 68 10000 2.06 240 15:53 28.06.2022
1288 Clear 11 1018 73 10000 2.06 230 14:21 28.06.2022
1289 Rain 11 1018 74 10000 1.54 230 13:54 28.06.2022
1290 Rain 11 1017 75 10000 1.54 230 13:20 28.06.2022
1291 Rain 10 1018 77 10000 1.54 320 11:21 28.06.2022
1292 Clear 10 1017 77 10000 1.54 230 09:36 28.06.2022
1293 Rain 10 1017 76 10000 1.03 0 08:44 28.06.2022
1294 Clouds 10 1018 79 10000 3.04 227 07:43 28.06.2022
1295 Rain 10 1018 79 10000 0.45 225 07:19 28.06.2022
1296 Clear 10 1016 78 10000 1.03 0 01:32 28.06.2022
1297 Clear 11 1015 75 10000 3.09 320 23:41 27.06.2022
1298 Rain 11 1015 76 10000 3.09 350 22:52 27.06.2022
1299 Clear 12 1016 70 10000 2.57 360 21:38 27.06.2022
1300 Clouds 11 1016 72 10000 2.57 350 20:53 27.06.2022
1301 Rain 11 1016 72 10000 2.57 360 19:36 27.06.2022
1302 Clouds 11 1017 72 10000 2.57 350 18:26 27.06.2022
1303 Rain 10 1019 74 10000 2.57 330 16:27 27.06.2022
1304 Rain 10 1019 75 10000 2.57 330 15:23 27.06.2022
1305 Clear 9 1018 78 10000 2.06 310 13:37 27.06.2022
1306 Rain 9 1019 79 10000 2.06 330 12:56 27.06.2022
1307 Clear 9 1018 81 10000 2.57 350 10:34 27.06.2022
1308 Clear 8 1019 78 10000 4.63 360 09:20 27.06.2022
1309 Rain 9 1020 78 10000 3.6 20 08:29 27.06.2022
1310 Clear 9 1021 75 10000 4.12 60 06:38 27.06.2022
1311 Clear 9 1022 72 10000 4.63 60 03:24 27.06.2022
1312 Clouds 9 1023 71 10000 4.12 80 23:56 26.06.2022
1313 Rain 9 1023 72 10000 3.09 60 21:59 26.06.2022
1314 Rain 10 1024 72 10000 2.57 60 20:44 26.06.2022
1315 Rain 10 1024 72 10000 3.09 30 19:32 26.06.2022
1316 Rain 9 1026 73 10000 3.09 30 18:30 26.06.2022
1317 Clouds 9 1028 76 10000 3.09 30 16:33 26.06.2022
1318 Rain 7 1027 80 10000 3.6 60 14:40 26.06.2022
1319 Clouds 7 1027 74 10000 3.6 60 13:38 26.06.2022
1320 Clouds 7 1027 77 10000 3.6 60 13:18 26.06.2022
1321 Clouds 8 1027 84 10000 4.12 80 11:26 26.06.2022
1322 Clouds 8 1027 84 10000 5.14 80 10:26 26.06.2022
1323 Clouds 8 1027 82 10000 5.14 100 09:19 26.06.2022
1324 Rain 7 1029 82 10000 2.06 140 07:30 26.06.2022
1325 Clouds 8 1030 74 10000 3.09 130 00:49 26.06.2022
1326 Clouds 8 1031 73 10000 3.09 130 00:20 26.06.2022
1327 Clouds 9 1031 71 10000 2.57 70 23:33 25.06.2022
1328 Clouds 10 1031 68 10000 2.57 60 22:55 25.06.2022
1329 Clouds 10 1031 66 10000 2.57 60 22:27 25.06.2022
1330 Clouds 10 1030 64 10000 3.09 80 21:37 25.06.2022
1331 Clouds 10 1030 65 10000 3.09 80 21:18 25.06.2022
1332 Clouds 11 1030 60 10000 3.09 0 20:25 25.06.2022
1333 Clear 11 1032 60 10000 2.57 160 18:45 25.06.2022
1334 Clear 9 1033 66 10000 2.57 0 17:28 25.06.2022
1335 Clear 8 1034 71 10000 2.06 0 16:44 25.06.2022
1336 Clear 5 1034 82 10000 2.06 170 14:50 25.06.2022
1337 Clear 5 1033 78 10000 2.06 170 12:56 25.06.2022
1338 Clear 5 1033 78 10000 2.06 170 12:37 25.06.2022
1339 Clear 5 1032 84 10000 2.06 180 09:40 25.06.2022
1340 Clear 5 1032 82 10000 1.54 200 08:56 25.06.2022
1341 Clear 5 1032 83 10000 1.54 200 08:28 25.06.2022
1342 Clear 6 1031 78 10000 2.06 150 06:46 25.06.2022
1343 Clouds 9 1029 64 10000 3.09 150 01:53 25.06.2022
1344 Clouds 10 1028 70 10000 3.09 120 00:20 25.06.2022
1345 Clouds 11 1026 72 10000 3.6 90 22:29 24.06.2022
1346 Clouds 11 1026 72 10000 4.12 100 21:28 24.06.2022
1347 Clouds 12 1025 73 10000 4.12 100 20:24 24.06.2022
1348 Clouds 11 1025 74 10000 5.14 100 19:39 24.06.2022
1349 Clouds 11 1025 76 10000 5.14 100 19:18 24.06.2022
1350 Clouds 11 1025 72 10000 5.14 120 18:44 24.06.2022
1351 Clouds 11 1025 72 10000 5.14 120 18:24 24.06.2022
1352 Clouds 10 1025 79 10000 4.63 130 16:47 24.06.2022
1353 Clouds 9 1025 83 10000 4.63 110 14:50 24.06.2022
1354 Clouds 9 1024 84 10000 4.63 110 14:23 24.06.2022
1355 Clouds 9 1024 88 10000 5.14 120 13:41 24.06.2022
1356 Clouds 9 1022 89 10000 4.12 140 11:41 24.06.2022
1357 Clouds 9 1022 83 10000 3.09 130 10:36 24.06.2022
1358 Rain 9 1022 87 10000 3.09 140 09:42 24.06.2022
1359 Rain 9 1022 87 10000 3.09 140 09:42 24.06.2022
1360 Rain 9 1022 87 10000 3.6 130 08:54 24.06.2022
1361 Clouds 9 1022 88 10000 3.6 130 07:57 24.06.2022
1362 Clouds 9 1023 88 10000 4.12 120 06:44 24.06.2022
1363 Clouds 9 1022 88 10000 4.12 120 06:22 24.06.2022
1364 Clouds 9 1022 83 10000 4.63 110 04:46 24.06.2022
1365 Clouds 9 1021 70 10000 3.6 110 23:24 23.06.2022
1366 Clouds 9 1020 69 10000 1.54 150 22:42 23.06.2022
1367 Clouds 9 1020 70 10000 3.09 120 20:59 23.06.2022
1368 Clouds 9 1020 70 10000 3.09 120 20:36 23.06.2022
1369 Clouds 9 1021 68 10000 3.6 100 19:40 23.06.2022
1370 Clouds 9 1023 70 10000 4.12 110 17:54 23.06.2022
1371 Clouds 9 1023 69 10000 4.12 110 17:33 23.06.2022
1372 Clouds 8 1023 74 10000 5.66 120 16:23 23.06.2022
1373 Clouds 7 1023 74 10000 4.63 130 15:25 23.06.2022
1374 Clouds 6 1022 71 10000 2.57 160 13:46 23.06.2022
1375 Clouds 6 1022 70 10000 2.57 170 11:27 23.06.2022
1376 Clouds 6 1021 70 10000 3.09 170 10:40 23.06.2022
1377 Clouds 6 1022 71 10000 2.57 150 09:18 23.06.2022
1378 Clouds 7 1022 68 10000 6.69 130 03:40 23.06.2022
1379 Clouds 8 1020 63 10000 5.66 140 00:27 23.06.2022
1380 Clouds 8 1020 64 10000 3.6 140 23:41 22.06.2022
1381 Clouds 9 1020 66 10000 7.2 130 22:48 22.06.2022
1382 Clouds 9 1020 66 10000 7.2 130 22:48 22.06.2022
1383 Rain 9 1020 64 10000 6.17 130 21:22 22.06.2022
1384 Clouds 9 1020 64 10000 6.69 120 20:45 22.06.2022
1385 Clouds 9 1020 61 10000 6.17 130 19:58 22.06.2022
1386 Clear 9 1020 60 10000 5.66 140 18:49 22.06.2022
1387 Clear 7 1020 61 10000 3.6 150 17:28 22.06.2022
1388 Clear 6 1021 62 10000 5.14 160 16:29 22.06.2022
1389 Clear 6 1021 65 10000 3.6 160 15:26 22.06.2022
1390 Clear 4 1022 69 10000 4.12 160 14:20 22.06.2022
1391 Clear 5 1022 68 10000 3.6 170 13:39 22.06.2022
1392 Clear 5 1021 68 10000 3.6 170 13:21 22.06.2022
1393 Clouds 6 1021 73 10000 4.12 160 11:49 22.06.2022
1394 Clear 6 1021 74 10000 4.12 160 10:55 22.06.2022
1395 Clear 5 1021 75 10000 4.12 160 10:19 22.06.2022
1396 Clear 5 1021 82 10000 5.14 150 08:27 22.06.2022
1397 Clear 8 1020 69 10000 7.72 150 03:50 22.06.2022
1398 Rain 10 1020 68 10000 7.2 130 01:23 22.06.2022
1399 Rain 11 1019 67 10000 7.72 130 00:24 22.06.2022
1400 Clouds 13 1017 71 10000 6.69 110 22:18 21.06.2022
1401 Clear 14 1015 54 10000 5.14 150 19:55 21.06.2022
1402 Clear 14 1015 55 10000 6.69 140 18:35 21.06.2022
1403 Clear 13 1015 62 10000 4.63 160 17:31 21.06.2022
1404 Clear 9 1015 85 10000 1.03 0 13:54 21.06.2022
1405 Clear 9 1014 83 10000 2.57 140 11:37 21.06.2022
1406 Clear 10 1014 81 10000 3.6 120 09:54 21.06.2022
1407 Clear 10 1015 79 10000 1.54 150 08:47 21.06.2022
1408 Clear 11 1015 74 10000 2.57 100 06:36 21.06.2022
1409 Rain 11 1015 77 10000 4.63 120 01:31 21.06.2022
1410 Clear 12 1015 69 10000 4.63 130 23:24 20.06.2022
1411 Clear 13 1015 64 10000 2.06 80 21:54 20.06.2022
1412 Clear 13 1015 64 10000 2.57 80 20:50 20.06.2022
1413 Clear 13 1016 63 10000 2.06 90 19:40 20.06.2022
1414 Clear 13 1017 67 10000 2.06 50 18:46 20.06.2022
1415 Clear 12 1018 75 10000 2.57 50 17:59 20.06.2022
1416 Clear 12 1018 77 10000 2.57 50 17:32 20.06.2022
1417 Clear 11 1019 82 10000 2.57 120 15:56 20.06.2022
1418 Fog 8 1018 96 9000 1.03 0 12:54 20.06.2022
1419 Clear 8 1018 88 10000 2.57 90 10:58 20.06.2022
1420 Clear 9 1018 78 10000 1.54 150 09:41 20.06.2022
1421 Clear 9 1018 74 10000 3.09 120 08:44 20.06.2022
1422 Clear 10 1019 62 10000 2.57 130 06:19 20.06.2022
1423 Clear 11 1018 58 10000 0 0 02:29 20.06.2022
1424 Clear 12 1018 46 10000 0.51 270 00:26 20.06.2022
1425 Clear 15 1017 35 10000 2.06 280 22:59 19.06.2022
1426 Clear 17 1016 32 10000 3.6 310 21:58 19.06.2022
1427 Clear 17 1016 31 10000 3.6 310 21:40 19.06.2022
1428 Clear 16 1016 34 10000 4.12 290 20:39 19.06.2022
1429 Clear 17 1017 36 10000 4.12 300 19:48 19.06.2022
1430 Clear 16 1017 36 10000 5.14 300 18:57 19.06.2022
1431 Clear 16 1017 38 10000 5.14 300 18:30 19.06.2022
1432 Clear 15 1018 42 10000 5.66 300 17:22 19.06.2022
1433 Clear 12 1018 50 10000 4.63 320 16:35 19.06.2022
1434 Clear 11 1019 55 10000 5.66 320 15:42 19.06.2022
1435 Clear 9 1018 61 10000 6.69 320 14:58 19.06.2022
1436 Clear 8 1017 64 10000 6.69 320 14:20 19.06.2022
1437 Clear 8 1017 63 10000 5.66 320 13:36 19.06.2022
1438 Clear 7 1017 66 10000 5.14 320 11:38 19.06.2022
1439 Clear 8 1016 65 10000 5.66 320 10:31 19.06.2022
1440 Clear 9 1017 59 10000 6.69 320 08:49 19.06.2022
1441 Clear 9 1017 59 10000 6.69 320 08:19 19.06.2022
1442 Clear 11 1017 61 10000 5.14 330 05:44 19.06.2022
1443 Clear 11 1017 52 8000 3.6 320 02:32 19.06.2022
1444 Clear 12 1016 47 10000 2.57 320 00:25 19.06.2022
1445 Clear 14 1016 38 10000 3.09 320 23:36 18.06.2022
1446 Clear 15 1016 35 10000 4.12 310 22:44 18.06.2022
1447 Clear 16 1016 33 10000 4.12 300 21:38 18.06.2022
1448 Clear 15 1017 34 10000 4.63 290 20:42 18.06.2022
1449 Clear 14 1017 35 10000 5.66 300 19:40 18.06.2022
1450 Clear 13 1018 36 10000 5.14 290 18:53 18.06.2022
1451 Clear 11 1019 38 10000 4.12 300 17:35 18.06.2022
1452 Clear 11 1019 35 10000 6.17 300 16:59 18.06.2022
1453 Clear 8 1019 38 10000 5.14 300 15:37 18.06.2022
1454 Clear 6 1019 47 10000 3.6 300 14:46 18.06.2022
1455 Clear 4 1019 53 10000 1.54 290 13:30 18.06.2022
1456 Clear 5 1018 51 10000 2.06 270 11:56 18.06.2022
1457 Clear 5 1018 54 10000 1.03 0 10:55 18.06.2022
1458 Clear 5 1018 52 10000 1.54 270 09:27 18.06.2022
1459 Clear 5 1018 53 10000 1.54 290 08:30 18.06.2022
1460 Clear 5 1018 53 10000 1.54 300 07:20 18.06.2022
1461 Clear 7 1017 43 10000 3.09 230 03:46 18.06.2022
1462 Clear 9 1016 43 10000 4.12 240 01:26 18.06.2022
1463 Clear 9 1016 43 10000 4.12 240 01:26 18.06.2022
1464 Clear 9 1015 42 10000 4.12 240 00:48 18.06.2022
1465 Clear 9 1015 41 10000 0.89 248 23:58 17.06.2022
1466 Clear 10 1014 38 10000 4.63 240 23:24 17.06.2022
1467 Clear 12 1012 37 10000 4.63 250 21:27 17.06.2022
1468 Clear 12 1012 40 10000 5.14 250 20:24 17.06.2022
1469 Clear 12 1012 47 10000 4.63 0 18:49 17.06.2022
1470 Clear 11 1012 52 10000 4.12 0 17:44 17.06.2022
1471 Clear 10 1012 60 10000 4.63 250 16:43 17.06.2022
1472 Clear 9 1012 76 10000 3.6 0 15:49 17.06.2022
1473 Clear 8 1012 81 10000 3.6 0 15:22 17.06.2022
1474 Clouds 6 1011 89 10000 3.09 260 14:20 17.06.2022
1475 Clouds 6 1011 89 10000 3.09 260 14:20 17.06.2022
1476 Clouds 6 1011 87 10000 2.06 260 13:46 17.06.2022
1477 Clouds 6 1011 87 10000 2.06 260 13:24 17.06.2022
1478 Clear 7 1010 87 10000 1.54 0 11:58 17.06.2022
1479 Clear 7 1010 87 10000 1.54 0 11:36 17.06.2022
1480 Clouds 7 1011 93 9000 3.09 220 10:52 17.06.2022
1481 Mist 8 1012 96 2600 3.09 200 08:30 17.06.2022
1482 Mist 9 1012 93 2300 2.06 0 07:47 17.06.2022
1483 Mist 9 1012 96 2300 1.54 0 05:57 17.06.2022
1484 Mist 9 1011 96 1100 2.06 220 03:19 17.06.2022
1485 Clouds 10 1012 99 10000 0.89 135 00:42 17.06.2022
1486 Clouds 14 1010 75 9000 2.57 120 22:45 16.06.2022
1487 Clouds 15 1010 72 9000 2.57 120 22:20 16.06.2022
1488 Clouds 16 1011 69 9000 1.03 0 21:19 16.06.2022
1489 Clouds 16 1011 74 9000 1.03 0 20:50 16.06.2022
1490 Clouds 16 1012 75 6000 1.54 10 19:57 16.06.2022
1491 Clouds 15 1013 82 6000 2.06 20 18:34 16.06.2022
1492 Mist 14 1014 87 4000 2.06 20 17:44 16.06.2022
1493 Mist 13 1015 88 4000 2.57 70 16:46 16.06.2022
1494 Mist 13 1015 93 3500 2.57 100 15:24 16.06.2022
1495 Mist 12 1015 93 3000 2.57 120 14:56 16.06.2022
1496 Mist 10 1015 99 2000 2.57 120 13:45 16.06.2022
1497 Rain 10 1015 99 6000 1.54 100 12:37 16.06.2022
1498 Fog 10 1015 94 9000 0 0 11:54 16.06.2022
1499 Fog 10 1015 94 9000 0 0 11:18 16.06.2022
1500 Fog 10 1015 94 10000 0 0 10:33 16.06.2022
1501 Fog 10 1015 95 10000 0.51 0 09:25 16.06.2022
1502 Clear 11 1015 93 10000 0.51 0 08:46 16.06.2022
1503 Clear 12 1015 91 10000 1.03 310 07:29 16.06.2022
1504 Fog 12 1016 92 9000 1.54 310 05:31 16.06.2022
1505 Clouds 12 1015 92 9000 0.51 0 02:52 16.06.2022
1506 Clouds 13 1015 92 9000 1.54 90 01:51 16.06.2022
1507 Clouds 13 1015 91 9000 1.54 90 01:21 16.06.2022
1508 Clouds 13 1015 91 9000 1.54 90 01:21 16.06.2022
1509 Clear 14 1015 84 10000 1.54 90 23:49 15.06.2022
1510 Clear 15 1015 79 10000 2.06 90 22:44 15.06.2022
1511 Clear 16 1014 74 10000 2.06 70 21:23 15.06.2022
1512 Clear 16 1015 73 10000 1.54 60 20:56 15.06.2022
1513 Clear 16 1015 72 10000 1.54 60 20:35 15.06.2022
1514 Clear 16 1015 74 10000 1.54 30 19:30 15.06.2022
1515 Clouds 16 1017 64 10000 1.94 360 17:58 15.06.2022
1516 Clouds 16 1017 70 10000 1.94 360 17:33 15.06.2022
1517 Clear 13 1017 79 10000 2.06 340 15:46 15.06.2022
1518 Clear 12 1017 91 10000 2.06 350 14:30 15.06.2022
1519 Clouds 10 1017 93 9000 2.06 350 12:56 15.06.2022
1520 Clouds 10 1017 93 9000 2.06 350 12:32 15.06.2022
1521 Fog 9 1016 99 8000 0 0 10:27 15.06.2022
1522 Fog 10 1017 95 5000 1.03 280 09:53 15.06.2022
1523 Fog 10 1017 97 900 0 0 08:50 15.06.2022
1524 Clear 12 1017 92 10000 3.09 350 06:42 15.06.2022
1525 Clear 12 1017 93 10000 1.54 80 04:47 15.06.2022
1526 Clear 12 1016 92 10000 3.09 110 01:55 15.06.2022
1527 Clear 12 1016 89 10000 4.12 110 00:51 15.06.2022
1528 Clear 13 1016 80 10000 2.06 80 23:40 14.06.2022
1529 Clear 14 1015 78 10000 2.06 80 23:21 14.06.2022
1530 Clear 15 1015 75 10000 2.06 80 22:23 14.06.2022
1531 Clouds 15 1015 71 10000 1.54 60 21:40 14.06.2022
1532 Clouds 16 1016 69 10000 2.06 90 20:56 14.06.2022
1533 Clouds 16 1016 69 10000 2.06 90 20:31 14.06.2022
1534 Clouds 17 1017 64 10000 0.45 45 19:20 14.06.2022
1535 Clouds 16 1018 62 10000 0.45 0 18:20 14.06.2022
1536 Clouds 14 1019 67 10000 4.07 358 16:48 14.06.2022
1537 Clear 13 1018 74 10000 5.14 340 15:50 14.06.2022
1538 Clear 12 1018 75 10000 5.14 340 15:28 14.06.2022
1539 Clear 12 1018 77 10000 5.14 340 14:37 14.06.2022
1540 Clear 11 1018 82 10000 5.14 360 13:46 14.06.2022
1541 Clear 10 1018 78 10000 4.63 350 12:45 14.06.2022
1542 Clear 10 1018 78 10000 4.12 350 11:38 14.06.2022
1543 Clear 10 1018 77 10000 2.57 340 10:48 14.06.2022
1544 Clear 10 1018 78 10000 2.57 340 10:22 14.06.2022
1545 Clear 10 1018 77 10000 4.63 360 08:48 14.06.2022
1546 Clear 11 1019 75 10000 4.12 350 07:35 14.06.2022
1547 Clear 12 1019 75 10000 4.12 10 05:29 14.06.2022
1548 Clear 13 1020 75 10000 2.57 20 02:58 14.06.2022
1549 Clear 13 1020 82 10000 3.09 80 00:54 14.06.2022
1550 Clear 14 1020 68 10000 2.57 70 23:41 13.06.2022
1551 Clear 16 1020 57 10000 2.06 40 22:26 13.06.2022
1552 Clear 17 1021 54 10000 2.06 30 21:52 13.06.2022
1553 Clouds 18 1021 48 10000 3.77 17 20:42 13.06.2022
1554 Clouds 18 1021 47 10000 3.81 15 19:35 13.06.2022
1555 Clouds 17 1023 49 10000 3.84 0 18:28 13.06.2022
1556 Clouds 17 1024 51 10000 0.89 0 17:47 13.06.2022
1557 Clear 14 1024 61 10000 2.57 350 16:52 13.06.2022
1558 Clear 12 1024 69 10000 3.09 340 15:39 13.06.2022
1559 Clear 11 1024 74 10000 2.06 320 14:47 13.06.2022
1560 Clear 9 1024 77 10000 2.06 320 13:54 13.06.2022
1561 Clear 8 1023 79 10000 2.06 310 12:48 13.06.2022
1562 Clear 9 1023 79 10000 1.54 310 11:34 13.06.2022
1563 Fog 9 1023 83 10000 1.54 310 10:27 13.06.2022
1564 Fog 8 1023 88 10000 0 0 09:39 13.06.2022
1565 Fog 8 1024 90 9000 0.51 0 07:53 13.06.2022
1566 Fog 9 1024 84 9000 0 0 06:28 13.06.2022
1567 Clear 10 1024 68 10000 1.03 0 03:18 13.06.2022
1568 Clouds 11 1024 67 9000 0 0 01:38 13.06.2022
1569 Clouds 11 1024 67 9000 0 0 00:22 13.06.2022
1570 Clear 12 1023 61 9000 1.54 80 23:25 12.06.2022
1571 Clear 14 1023 54 9000 1.54 60 22:22 12.06.2022
1572 Clear 15 1023 47 9000 1.54 50 21:27 12.06.2022
1573 Clear 15 1023 51 9000 2.06 50 20:33 12.06.2022
1574 Clear 16 1022 42 10000 1.11 12 19:30 12.06.2022
1575 Clear 16 1024 39 10000 1.38 297 17:54 12.06.2022
1576 Clear 13 1025 46 10000 1.03 0 16:34 12.06.2022
1577 Clear 10 1025 53 10000 0 0 15:18 12.06.2022
1578 Clear 8 1025 60 10000 1.03 0 14:29 12.06.2022
1579 Clear 7 1024 63 10000 1.03 250 13:55 12.06.2022
1580 Clear 7 1024 60 10000 0.51 0 12:43 12.06.2022
1581 Clear 8 1023 55 10000 0.51 0 11:40 12.06.2022
1582 Clear 7 1022 55 10000 1.03 0 10:45 12.06.2022
1583 Clear 7 1022 58 9000 0 0 09:25 12.06.2022
1584 Clear 7 1022 59 9000 0 0 08:46 12.06.2022
1585 Clear 7 1023 57 8000 0 0 07:38 12.06.2022
1586 Clear 8 1023 55 7000 0 0 05:29 12.06.2022
1587 Clouds 9 1023 49 8000 0 0 03:29 12.06.2022
1588 Clear 10 1023 49 10000 1.03 0 01:42 12.06.2022
1589 Clear 10 1023 47 10000 0 0 00:58 12.06.2022
1590 Clear 11 1023 44 10000 0 0 00:21 12.06.2022
1591 Clear 12 1022 40 10000 1.54 250 23:44 11.06.2022
1592 Clear 14 1022 34 10000 2.06 250 22:39 11.06.2022
1593 Clear 14 1022 32 10000 3.6 260 21:53 11.06.2022
1594 Clear 15 1023 30 10000 2.57 240 20:38 11.06.2022
1595 Clear 14 1023 31 10000 3.09 230 19:59 11.06.2022
1596 Clear 14 1023 31 10000 3.09 230 19:26 11.06.2022
1597 Clear 13 1024 34 10000 3.09 240 18:34 11.06.2022
1598 Clear 12 1025 34 10000 3.09 210 17:51 11.06.2022
1599 Clear 12 1025 33 10000 3.09 210 17:27 11.06.2022
1600 Clear 10 1025 37 10000 3.09 230 16:56 11.06.2022
1601 Clear 10 1025 38 10000 3.09 230 16:29 11.06.2022
1602 Clear 8 1025 43 10000 3.09 0 15:42 11.06.2022
1603 Clear 4 1025 55 10000 2.06 240 13:53 11.06.2022
1604 Clear 3 1025 55 10000 2.57 230 12:51 11.06.2022
1605 Clear 3 1025 60 10000 4.27 237 10:54 11.06.2022
1606 Clear 4 1024 53 10000 2.57 240 09:55 11.06.2022
1607 Clear 4 1024 50 10000 2.57 240 09:19 11.06.2022
1608 Clear 4 1025 53 10000 2.06 240 07:41 11.06.2022
1609 Clear 5 1026 53 10000 2.06 250 06:30 11.06.2022
1610 Clear 5 1026 48 10000 2.06 240 04:30 11.06.2022
1611 Clear 7 1026 38 10000 2.57 250 01:53 11.06.2022
1612 Clear 8 1026 37 10000 2.57 250 01:32 11.06.2022
1613 Clear 8 1025 37 10000 5.13 236 23:49 10.06.2022
1614 Clear 10 1025 25 10000 3.6 220 22:31 10.06.2022
1615 Clear 11 1025 24 10000 2.57 240 21:50 10.06.2022
1616 Clear 11 1025 26 10000 3.6 0 20:41 10.06.2022
1617 Clear 11 1025 26 10000 3.6 0 20:21 10.06.2022
1618 Clear 10 1026 28 10000 4.63 230 19:20 10.06.2022
1619 Clear 10 1027 29 10000 3.6 0 18:55 10.06.2022
1620 Clear 9 1027 36 10000 4.12 0 17:55 10.06.2022
1621 Clear 9 1028 36 10000 4.12 0 17:33 10.06.2022
1622 Clear 8 1028 43 10000 2.57 220 16:47 10.06.2022
1623 Clear 6 1028 54 10000 2.06 0 15:40 10.06.2022
1624 Clear 5 1029 60 10000 3.09 220 14:34 10.06.2022
1625 Clear 4 1028 66 10000 2.06 0 13:23 10.06.2022
1626 Clear 5 1027 66 10000 2.57 200 11:59 10.06.2022
1627 Clear 5 1027 65 10000 2.57 200 11:25 10.06.2022
1628 Clear 5 1027 67 10000 3.6 0 10:35 10.06.2022
1629 Clear 6 1027 67 10000 2.57 220 09:21 10.06.2022
1630 Clear 7 1026 64 10000 3.09 190 07:51 10.06.2022
1631 Clear 7 1026 63 10000 3.6 190 06:47 10.06.2022
1632 Clear 8 1025 62 10000 3.6 190 06:28 10.06.2022
1633 Clear 9 1025 61 10000 3.6 180 04:55 10.06.2022
1634 Clear 10 1023 84 10000 2.06 230 02:31 10.06.2022
1635 Clear 11 1023 84 10000 2.06 220 01:37 10.06.2022
1636 Clouds 12 1021 77 8000 2.06 230 23:58 09.06.2022
1637 Clouds 14 1020 73 7000 2.06 220 22:30 09.06.2022
1638 Clouds 15 1020 70 7000 3.09 220 21:43 09.06.2022
1639 Clouds 15 1019 69 7000 3.09 220 21:24 09.06.2022
1640 Clouds 16 1019 68 7000 3.09 220 20:38 09.06.2022
1641 Clouds 14 1018 68 6000 1.54 0 19:43 09.06.2022
1642 Mist 15 1019 76 4000 2.57 270 18:37 09.06.2022
1643 Mist 13 1020 93 4000 2.06 240 17:28 09.06.2022
1644 Mist 11 1020 96 3100 3.09 270 16:28 09.06.2022
1645 Mist 10 1020 96 3200 0.51 0 14:45 09.06.2022
1646 Mist 10 1020 97 3200 0.51 0 14:24 09.06.2022
1647 Mist 10 1019 97 3000 1.54 0 13:30 09.06.2022
1648 Mist 9 1019 97 3200 1.03 0 12:51 09.06.2022
1649 Mist 9 1017 100 3000 1.54 290 11:20 09.06.2022
1650 Fog 9 1016 100 500 1.03 0 09:55 09.06.2022
1651 Fog 9 1016 100 500 1.03 0 09:55 09.06.2022
1652 Fog 9 1017 100 900 2.57 310 09:36 09.06.2022
1653 Mist 9 1017 100 1700 1.54 330 08:27 09.06.2022
1654 Fog 9 1018 100 200 1.03 0 07:24 09.06.2022
1655 Clouds 10 1017 93 8000 3.09 310 03:29 09.06.2022
1656 Mist 10 1017 93 3200 2.57 360 00:32 09.06.2022
1657 Mist 10 1017 90 1800 2.06 30 22:59 08.06.2022
1658 Mist 10 1016 87 1800 2.06 30 22:30 08.06.2022
1659 Mist 11 1016 82 1800 2.06 20 21:59 08.06.2022
1660 Mist 12 1017 81 1800 2.06 20 21:31 08.06.2022
1661 Mist 13 1016 75 2000 2.57 30 20:24 08.06.2022
1662 Mist 13 1017 73 2500 2.57 20 19:39 08.06.2022
1663 Mist 13 1018 68 3000 2.57 360 18:48 08.06.2022
1664 Mist 12 1018 74 5000 3.09 10 17:35 08.06.2022
1665 Clear 11 1018 81 10000 1.54 310 15:52 08.06.2022
1666 Clouds 8 1018 93 9000 2.06 330 14:18 08.06.2022
1667 Clouds 8 1018 93 7000 1.03 0 12:29 08.06.2022
1668 Clouds 8 1017 93 8000 2.06 300 11:34 08.06.2022
1669 Clouds 9 1016 93 10000 1.54 320 10:30 08.06.2022
1670 Clouds 9 1017 95 10000 1.03 0 09:22 08.06.2022
1671 Clouds 8 1016 92 10000 1.54 330 08:43 08.06.2022
1672 Clouds 9 1017 94 10000 1.54 280 06:35 08.06.2022
1673 Clouds 10 1016 93 10000 3.09 330 04:22 08.06.2022
1674 Clouds 11 1014 91 10000 3.09 20 00:49 08.06.2022
1675 Mist 10 1014 93 4000 2.06 10 23:30 07.06.2022
1676 Mist 10 1014 93 3000 2.57 10 22:48 07.06.2022
1677 Mist 10 1014 93 2000 3.09 30 22:30 07.06.2022
1678 Fog 10 1014 93 500 2.57 10 21:35 07.06.2022
1679 Mist 10 1014 93 1500 3.09 20 20:59 07.06.2022
1680 Mist 10 1014 93 1500 3.09 20 20:33 07.06.2022
1681 Mist 11 1015 93 2000 2.57 360 19:45 07.06.2022
1682 Fog 12 1016 86 600 2.06 10 18:24 07.06.2022
1683 Fog 11 1016 87 500 2.06 30 17:27 07.06.2022
1684 Fog 11 1017 93 400 1.54 360 16:43 07.06.2022
1685 Fog 11 1017 97 500 2.06 340 15:54 07.06.2022
1686 Fog 10 1017 97 200 1.54 320 15:26 07.06.2022
1687 Fog 9 1017 98 300 2.06 350 14:51 07.06.2022
1688 Fog 9 1017 97 100 1.03 0 14:32 07.06.2022
1689 Fog 8 1017 100 100 2.06 330 13:31 07.06.2022
1690 Fog 8 1016 99 100 3.09 320 12:49 07.06.2022
1691 Fog 8 1016 99 3000 1.54 330 11:47 07.06.2022
1692 Mist 9 1016 99 4000 1.54 310 10:26 07.06.2022
1693 Mist 9 1017 98 1200 2.06 320 08:50 07.06.2022
1694 Fog 9 1017 98 50 1.54 320 07:34 07.06.2022
1695 Fog 10 1017 98 3500 0.51 260 06:18 07.06.2022
1696 Mist 9 1018 97 1500 2.06 360 03:31 07.06.2022
1697 Fog 10 1018 100 200 2.06 30 00:45 07.06.2022
1698 Fog 11 1017 98 100 0.51 0 23:41 06.06.2022
1699 Fog 12 1017 93 200 1.03 0 22:53 06.06.2022
1700 Clear 14 1017 83 10000 0.82 102 21:57 06.06.2022
1701 Fog 14 1017 78 400 1.54 10 20:42 06.06.2022
1702 Clear 15 1017 68 10000 1.79 200 19:24 06.06.2022
1703 Fog 13 1017 79 500 2.06 10 18:47 06.06.2022
1704 Fog 12 1018 83 500 1.54 60 17:55 06.06.2022
1705 Fog 11 1018 94 400 2.06 80 16:55 06.06.2022
1706 Fog 12 1018 92 2000 2.06 60 15:45 06.06.2022
1707 Clouds 11 1017 94 6000 0.51 0 14:59 06.06.2022
1708 Mist 8 1016 97 5000 1.54 200 13:43 06.06.2022
1709 Mist 8 1016 97 5000 1.54 200 13:19 06.06.2022
1710 Clouds 8 1016 96 6000 2.06 200 12:33 06.06.2022
1711 Clouds 8 1016 96 6000 1.03 0 11:45 06.06.2022
1712 Clouds 9 1016 94 6000 1.03 0 09:51 06.06.2022
1713 Fog 9 1016 95 5000 0 0 08:44 06.06.2022
1714 Mist 9 1016 93 5000 0.51 240 07:44 06.06.2022
1715 Mist 10 1016 92 5000 1.54 240 06:49 06.06.2022
1716 Clouds 11 1016 92 7000 1.03 0 04:36 06.06.2022
1717 Clouds 13 1016 83 9000 1.03 0 01:31 06.06.2022
1718 Clouds 13 1016 85 9000 0 0 00:55 06.06.2022
1719 Clouds 13 1016 84 9000 0 0 00:33 06.06.2022
1720 Clouds 14 1016 80 8000 1.54 20 22:58 05.06.2022
1721 Clouds 14 1016 76 7000 1.54 10 21:59 05.06.2022
1722 Clouds 15 1016 76 7000 1.54 20 20:23 05.06.2022
1723 Clouds 13 1016 78 8000 1.54 30 18:57 05.06.2022
1724 Clouds 14 1017 81 8000 2.06 360 17:59 05.06.2022
1725 Clouds 14 1017 81 8000 2.06 360 17:38 05.06.2022
1726 Clouds 13 1017 81 8000 2.06 360 17:20 05.06.2022
1727 Clouds 13 1018 86 8000 1.54 360 16:47 05.06.2022
1728 Clouds 11 1018 91 8000 0.51 0 15:22 05.06.2022
1729 Clouds 10 1017 95 8000 0 0 14:18 05.06.2022
1730 Fog 9 1017 96 9000 0 0 11:58 05.06.2022
1731 Fog 9 1016 96 10000 0.51 0 10:45 05.06.2022
1732 Fog 9 1016 95 10000 0.51 0 10:24 05.06.2022
1733 Clouds 9 1017 95 10000 1.03 0 09:29 05.06.2022
1734 Clouds 9 1017 90 10000 1.03 0 08:23 05.06.2022
1735 Clouds 10 1017 87 10000 2.06 80 05:58 05.06.2022
1736 Clear 9 1017 91 10000 3.35 41 05:19 05.06.2022
1737 Clouds 11 1018 88 10000 4.12 120 02:23 05.06.2022
1738 Clouds 11 1017 88 10000 3.6 140 01:23 05.06.2022
1739 Clouds 11 1017 88 10000 3.6 140 01:23 05.06.2022
1740 Clear 13 1017 79 10000 4.63 120 22:49 04.06.2022
1741 Clear 14 1017 71 10000 2.57 100 21:25 04.06.2022
1742 Clear 14 1019 70 10000 1.54 360 19:26 04.06.2022
1743 Clear 12 1021 80 10000 3.6 360 16:48 04.06.2022
1744 Clear 11 1021 80 10000 3.6 360 16:20 04.06.2022
1745 Clear 11 1021 83 10000 4.63 10 15:35 04.06.2022
1746 Clouds 10 1022 88 10000 5.14 20 13:57 04.06.2022
1747 Clear 9 1022 86 10000 4.12 30 11:28 04.06.2022
1748 Clear 9 1022 81 10000 4.12 50 10:52 04.06.2022
1749 Rain 9 1023 81 10000 4.63 50 09:46 04.06.2022
1750 Clear 9 1024 77 10000 4.63 50 08:50 04.06.2022
1751 Clear 9 1024 76 10000 4.63 50 08:31 04.06.2022
1752 Clear 10 1024 72 10000 3.09 40 06:25 04.06.2022
1753 Clear 9 1024 67 10000 5.66 60 03:37 04.06.2022
1754 Clear 10 1024 72 10000 6.17 90 00:21 04.06.2022
1755 Clouds 10 1025 68 10000 5.66 100 22:54 03.06.2022
1756 Clouds 11 1025 65 10000 3.6 70 21:46 03.06.2022
1757 Clouds 11 1025 63 10000 3.6 70 20:40 03.06.2022
1758 Clouds 11 1027 62 10000 3.6 60 19:19 03.06.2022
1759 Clouds 10 1028 67 10000 3.09 40 16:56 03.06.2022
1760 Clouds 10 1029 73 10000 2.06 350 15:52 03.06.2022
1761 Clouds 7 1028 83 9000 2.06 130 13:58 03.06.2022
1762 Clouds 8 1027 82 10000 2.57 80 11:54 03.06.2022
1763 Clouds 7 1027 82 10000 3.09 70 09:56 03.06.2022
1764 Clouds 8 1027 82 10000 3.09 70 09:29 03.06.2022
1765 Clouds 7 1027 75 10000 2.57 90 07:43 03.06.2022
1766 Clear 7 1027 80 10000 1.54 0 06:49 03.06.2022
1767 Clear 7 1027 79 10000 1.54 0 06:27 03.06.2022
1768 Clear 8 1027 64 10000 2.57 130 02:58 03.06.2022
1769 Clear 10 1026 59 10000 1.54 70 23:39 02.06.2022
1770 Clouds 12 1025 52 10000 2.57 40 21:58 02.06.2022
1771 Clouds 12 1024 53 10000 2.57 60 20:34 02.06.2022
1772 Clouds 12 1025 55 10000 3.09 60 19:54 02.06.2022
1773 Clear 12 1025 51 10000 0.44 76 19:36 02.06.2022
1774 Clear 12 1025 51 10000 2.57 60 18:38 02.06.2022
1775 Clear 10 1026 62 10000 2.57 70 16:28 02.06.2022
1776 Clear 9 1026 66 10000 1.03 0 15:46 02.06.2022
1777 Clear 6 1025 66 7000 1.03 0 13:30 02.06.2022
1778 Clear 6 1025 66 7000 1.03 0 13:30 02.06.2022
1779 Clear 5 1025 68 10000 1.03 0 12:46 02.06.2022
1780 Clear 6 1024 64 10000 1.54 200 10:34 02.06.2022
1781 Clear 6 1023 67 10000 1.03 220 09:29 02.06.2022
1782 Clear 6 1023 67 10000 1.03 220 08:30 02.06.2022
1783 Clear 6 1023 68 10000 1.03 200 07:58 02.06.2022
1784 Clear 7 1023 65 10000 1.03 230 06:20 02.06.2022
1785 Clear 9 1023 59 10000 1.03 220 03:49 02.06.2022
1786 Clear 10 1023 54 10000 1.03 190 00:39 02.06.2022
1787 Clear 12 1022 50 9000 2.06 50 22:57 01.06.2022
1788 Clear 12 1022 45 9000 2.57 10 21:45 01.06.2022
1789 Clear 12 1021 47 9000 2.57 10 21:22 01.06.2022
1790 Clear 12 1021 47 9000 2.57 10 21:22 01.06.2022
1791 Clear 12 1021 47 8000 2.57 60 20:38 01.06.2022
1792 Clouds 12 1022 46 9000 2.57 10 19:49 01.06.2022
1793 Clouds 11 1023 47 9000 1.54 30 18:19 01.06.2022
1794 Clouds 11 1023 47 10000 1.54 190 16:46 01.06.2022
1795 Clouds 10 1023 51 7000 1.03 0 15:39 01.06.2022
1796 Clouds 8 1023 64 6000 1.54 100 14:31 01.06.2022
1797 Clouds 6 1022 66 8000 0.51 0 12:42 01.06.2022
1798 Rain 6 1022 71 10000 1.03 0 10:41 01.06.2022
1799 Clear 5 1022 71 10000 0.51 0 09:26 01.06.2022
1800 Clear 5 1022 74 10000 1.03 0 07:56 01.06.2022
1801 Clear 6 1022 72 10000 1.54 310 06:41 01.06.2022
1802 Clear 8 1021 60 10000 2.57 310 01:30 01.06.2022
1803 Clear 9 1021 55 10000 2.06 10 23:47 31.05.2022
1804 Clear 10 1021 48 10000 1.03 0 22:38 31.05.2022
1805 Clear 10 1021 48 10000 1.03 0 22:38 31.05.2022
1806 Clear 11 1021 39 10000 1.03 0 21:46 31.05.2022
1807 Clear 11 1021 41 10000 2.57 310 20:57 31.05.2022
1808 Clear 11 1021 41 10000 2.57 310 20:33 31.05.2022
1809 Clear 11 1022 44 10000 1.54 0 18:57 31.05.2022
1810 Clouds 10 1023 46 10000 1.03 0 17:51 31.05.2022
1811 Clouds 10 1023 47 10000 1.03 0 17:31 31.05.2022
1812 Clear 8 1024 61 10000 1.54 230 15:42 31.05.2022
1813 Clear 5 1024 76 10000 1.03 0 14:34 31.05.2022
1814 Clear 4 1023 79 10000 1.54 220 12:22 31.05.2022
1815 Clear 4 1023 75 10000 1.54 0 11:42 31.05.2022
1816 Clear 5 1022 71 10000 1.03 230 09:49 31.05.2022
1817 Clear 5 1023 68 10000 1.03 220 07:36 31.05.2022
1818 Clear 6 1023 65 10000 1.03 0 05:24 31.05.2022
1819 Clouds 7 1023 65 10000 3.23 193 02:33 31.05.2022
1820 Clouds 9 1021 49 10000 2.06 210 23:29 30.05.2022
1821 Clouds 10 1021 47 10000 2.06 210 22:59 30.05.2022
1822 Clouds 11 1020 46 10000 2.06 210 22:24 30.05.2022
1823 Clouds 11 1020 47 10000 2.57 0 21:35 30.05.2022
1824 Clouds 11 1019 47 10000 3.09 0 20:22 30.05.2022
1825 Clear 10 1020 47 10000 3.6 0 18:58 30.05.2022
1826 Clear 9 1020 50 10000 3.09 220 17:41 30.05.2022
1827 Clear 9 1020 48 10000 2.57 220 16:45 30.05.2022
1828 Smoke 7 1020 45 9000 3.09 0 15:22 30.05.2022
1829 Clear 4 1018 58 10000 3.09 260 12:37 30.05.2022
1830 Clear 4 1018 59 10000 2.06 270 10:47 30.05.2022
1831 Clear 4 1018 62 10000 2.06 290 09:39 30.05.2022
1832 Clear 5 1018 55 10000 2.06 240 07:23 30.05.2022
1833 Clear 5 1018 54 10000 2.06 0 05:50 30.05.2022
1834 Clear 7 1017 50 10000 1.54 240 02:33 30.05.2022
1835 Clear 9 1016 42 10000 2.57 220 23:23 29.05.2022
1836 Clear 10 1015 39 10000 3.09 0 22:39 29.05.2022
1837 Clear 11 1015 38 10000 3.09 230 21:19 29.05.2022
1838 Clear 10 1015 44 10000 2.57 200 19:38 29.05.2022
1839 Clear 10 1015 44 10000 2.57 200 19:18 29.05.2022
1840 Clear 10 1016 45 10000 3.6 190 17:32 29.05.2022
1841 Clear 8 1016 57 10000 3.09 190 15:49 29.05.2022
1842 Clear 7 1016 58 10000 3.09 190 15:23 29.05.2022
1843 Clear 6 1016 66 10000 3.09 0 14:18 29.05.2022
1844 Clear 10 1014 67 10000 3.6 200 11:48 29.05.2022
1845 Clouds 11 1014 69 10000 3.09 230 10:40 29.05.2022
1846 Rain 11 1013 76 9000 2.06 240 09:31 29.05.2022
1847 Clouds 11 1013 78 9000 0.51 0 06:24 29.05.2022
1848 Clear 11 1013 77 10000 1.03 0 04:45 29.05.2022
1849 Clear 11 1013 77 10000 1.03 0 04:19 29.05.2022
1850 Clear 11 1012 71 10000 2.57 130 23:53 28.05.2022
1851 Clear 12 1012 69 10000 2.57 130 23:34 28.05.2022
1852 Clear 12 1012 68 10000 2.57 70 22:40 28.05.2022
1853 Clouds 12 1012 72 10000 3.6 70 21:38 28.05.2022
1854 Clouds 13 1013 74 10000 3.6 60 19:51 28.05.2022
1855 Clouds 12 1014 76 10000 3.09 50 18:54 28.05.2022
1856 Clouds 13 1015 75 10000 3.09 70 17:37 28.05.2022
1857 Clouds 13 1016 74 10000 2.57 60 16:43 28.05.2022
1858 Clouds 13 1017 74 10000 2.57 60 15:43 28.05.2022
1859 Clouds 11 1017 81 10000 2.06 120 14:26 28.05.2022
1860 Clouds 10 1017 81 10000 1.54 130 12:51 28.05.2022
1861 Clouds 11 1017 81 10000 1.54 130 12:33 28.05.2022
1862 Clouds 11 1017 81 10000 1.54 140 11:21 28.05.2022
1863 Clouds 11 1017 79 10000 1.03 0 09:58 28.05.2022
1864 Clouds 11 1017 77 10000 1.03 0 09:21 28.05.2022
1865 Clear 10 1018 79 10000 1.54 150 07:23 28.05.2022
1866 Clear 11 1018 82 10000 2.06 120 05:36 28.05.2022
1867 Clouds 11 1018 84 10000 3.09 110 02:44 28.05.2022
1868 Clouds 13 1018 78 10000 2.57 80 00:32 28.05.2022
1869 Clouds 13 1017 77 10000 2.57 70 22:53 27.05.2022
1870 Clouds 14 1017 72 10000 2.57 70 21:44 27.05.2022
1871 Clouds 14 1017 69 10000 2.57 60 20:50 27.05.2022
1872 Clouds 14 1017 70 10000 2.57 60 20:24 27.05.2022
1873 Clouds 14 1018 70 10000 3.09 60 19:42 27.05.2022
1874 Clouds 14 1018 65 10000 3.09 60 19:21 27.05.2022
1875 Clouds 14 1019 65 10000 3.6 130 17:54 27.05.2022
1876 Clouds 14 1020 71 10000 2.57 130 16:38 27.05.2022
1877 Clouds 11 1019 81 10000 2.57 160 15:22 27.05.2022
1878 Clouds 10 1020 91 9000 1.54 190 13:53 27.05.2022
1879 Clouds 10 1019 91 10000 2.06 150 12:39 27.05.2022
1880 Clouds 10 1019 90 10000 2.57 140 11:33 27.05.2022
1881 Clouds 10 1019 87 10000 1.54 160 10:54 27.05.2022
1882 Clouds 10 1019 86 10000 1.54 160 10:26 27.05.2022
1883 Clouds 10 1019 84 10000 1.54 180 09:32 27.05.2022
1884 Clouds 11 1020 82 10000 3.6 140 07:42 27.05.2022
1885 Clouds 12 1021 80 10000 6.17 110 05:27 27.05.2022
1886 Clouds 11 1022 77 10000 6.69 100 02:25 27.05.2022
1887 Clouds 11 1022 74 10000 6.17 110 00:19 27.05.2022
1888 Clouds 12 1022 68 10000 6.69 100 22:30 26.05.2022
1889 Clouds 13 1022 63 10000 7.2 100 21:34 26.05.2022
1890 Clouds 13 1024 67 10000 5.66 100 19:51 26.05.2022
1891 Clouds 13 1024 67 10000 5.66 100 19:18 26.05.2022
1892 Clear 12 1026 66 10000 6.69 130 17:36 26.05.2022
1893 Clear 12 1026 66 10000 6.69 130 17:36 26.05.2022
1894 Clear 12 1027 66 10000 6.17 130 16:35 26.05.2022
1895 Clear 11 1027 63 10000 4.12 140 15:34 26.05.2022
1896 Clear 8 1027 73 10000 3.09 160 14:21 26.05.2022
1897 Clear 6 1027 81 10000 2.06 170 12:35 26.05.2022
1898 Clear 7 1026 83 10000 2.57 170 11:21 26.05.2022
1899 Clear 8 1026 87 10000 2.06 160 09:40 26.05.2022
1900 Clear 8 1026 90 10000 3.09 160 08:57 26.05.2022
1901 Clear 8 1026 93 10000 3.09 170 07:38 26.05.2022
1902 Clear 9 1025 89 10000 3.09 170 02:59 26.05.2022
1903 Clouds 10 1024 88 10000 3.09 160 00:20 26.05.2022
1904 Clouds 10 1022 88 10000 3.6 150 23:19 25.05.2022
1905 Clouds 11 1021 87 10000 5.14 140 21:46 25.05.2022
1906 Drizzle 11 1020 90 9000 4.63 150 20:53 25.05.2022
1907 Drizzle 10 1020 85 9000 5.66 160 19:59 25.05.2022
1908 Drizzle 10 1020 87 8000 7.72 160 18:48 25.05.2022
1909 Clouds 11 1020 83 10000 6.17 160 17:30 25.05.2022
1910 Clouds 11 1020 88 10000 6.17 150 16:36 25.05.2022
1911 Clouds 11 1019 94 10000 4.63 160 15:53 25.05.2022
1912 Clouds 12 1019 96 7000 5.66 150 14:51 25.05.2022
1913 Clouds 13 1018 96 7000 5.66 150 14:32 25.05.2022
1914 Thunderstorm 12 1017 99 3000 4.63 170 13:28 25.05.2022
1915 Rain 13 1018 98 8285 0.89 90 11:51 25.05.2022
1916 Rain 14 1016 99 5000 7.72 100 10:42 25.05.2022
1917 Rain 14 1016 99 4000 6.17 110 09:46 25.05.2022
1918 Clouds 13 1018 96 10000 0.89 135 08:22 25.05.2022
1919 Clouds 13 1019 90 10000 0.89 225 06:37 25.05.2022
1920 Clear 14 1017 84 10000 2.06 160 02:46 25.05.2022
1921 Clear 16 1015 81 10000 2.06 120 23:52 24.05.2022
1922 Clear 17 1015 80 10000 2.06 120 23:23 24.05.2022
1923 Clear 19 1014 72 10000 2.06 60 22:18 24.05.2022
1924 Clouds 19 1014 72 9000 2.06 40 21:38 24.05.2022
1925 Clouds 19 1014 71 9000 2.06 40 21:19 24.05.2022
1926 Clear 20 1014 62 10000 2.06 270 19:32 24.05.2022
1927 Clear 19 1014 64 10000 3.09 290 18:40 24.05.2022
1928 Clear 17 1015 73 10000 3.09 340 16:40 24.05.2022
1929 Rain 16 1015 75 10000 2.57 330 15:54 24.05.2022
1930 Rain 15 1015 79 10000 2.57 330 14:45 24.05.2022
1931 Clear 14 1014 85 10000 3.09 330 13:48 24.05.2022
1932 Clear 14 1013 85 10000 2.57 330 12:35 24.05.2022
1933 Clear 14 1013 88 10000 3.09 340 09:52 24.05.2022
1934 Clear 14 1012 87 10000 3.09 340 09:27 24.05.2022
1935 Clear 15 1013 88 10000 3.09 340 08:42 24.05.2022
1936 Clear 15 1014 86 10000 2.06 20 06:42 24.05.2022
1937 Clear 15 1014 82 10000 4.12 80 03:48 24.05.2022
1938 Clouds 15 1015 91 10000 1.54 120 01:47 24.05.2022
1939 Clear 16 1015 89 10000 2.57 100 00:53 24.05.2022
1940 Clear 18 1015 74 10000 1.54 90 22:25 23.05.2022
1941 Clear 18 1015 73 10000 2.06 90 21:53 23.05.2022
1942 Clear 18 1016 74 10000 2.06 70 20:53 23.05.2022
1943 Clouds 20 1015 66 10000 1.98 32 19:56 23.05.2022
1944 Clear 17 1016 82 10000 2.06 70 19:27 23.05.2022
1945 Clouds 20 1016 71 10000 2.09 28 18:41 23.05.2022
1946 Clear 17 1017 77 10000 2.57 30 17:56 23.05.2022
1947 Clear 16 1018 76 10000 2.06 350 16:40 23.05.2022
1948 Clear 14 1018 91 10000 2.57 350 14:20 23.05.2022
1949 Clear 12 1017 94 10000 2.06 340 11:57 23.05.2022
1950 Clear 12 1017 93 10000 3.09 360 10:58 23.05.2022
1951 Clear 12 1016 93 10000 2.57 350 09:48 23.05.2022
1952 Clear 13 1016 92 10000 2.57 360 08:47 23.05.2022
1953 Clear 13 1017 85 10000 3.09 360 07:37 23.05.2022
1954 Clear 13 1017 85 10000 3.6 360 06:41 23.05.2022
1955 Clear 15 1017 80 10000 3.09 20 03:52 23.05.2022
1956 Clear 15 1017 78 10000 2.06 10 02:18 23.05.2022
1957 Clear 16 1017 70 10000 2.57 330 01:33 23.05.2022
1958 Clear 17 1016 65 10000 3.09 340 23:22 22.05.2022
1959 Clear 18 1016 63 10000 4.63 10 22:33 22.05.2022
1960 Clear 18 1017 69 10000 2.06 60 21:53 22.05.2022
1961 Clouds 20 1017 56 10000 3.24 28 20:50 22.05.2022
1962 Clouds 20 1018 56 10000 2.4 22 20:23 22.05.2022
1963 Clouds 20 1018 58 10000 2.47 26 19:39 22.05.2022
1964 Clouds 19 1019 65 10000 2.84 0 18:52 22.05.2022
1965 Clouds 19 1019 67 10000 3.1 7 18:21 22.05.2022
1966 Clouds 18 1020 65 10000 3.43 2 17:26 22.05.2022
1967 Mist 14 1021 86 1500 2.57 350 15:57 22.05.2022
1968 Mist 13 1021 99 1500 1.54 330 14:48 22.05.2022
1969 Fog 11 1021 100 5000 0 0 13:22 22.05.2022
1970 Mist 10 1020 100 2500 1.54 310 12:48 22.05.2022
1971 Fog 10 1020 96 6000 1.03 0 11:29 22.05.2022
1972 Fog 11 1020 100 4000 0 0 09:40 22.05.2022
1973 Fog 13 1021 93 5000 1.03 0 07:54 22.05.2022
1974 Fog 13 1021 93 5000 1.03 0 07:20 22.05.2022
1975 Clear 13 1021 86 8000 1.03 0 04:59 22.05.2022
1976 Fog 15 1020 88 10000 0.51 0 01:21 22.05.2022
1977 Fog 15 1020 84 10000 0.51 0 00:26 22.05.2022
1978 Clear 16 1020 76 10000 0.51 0 23:47 21.05.2022
1979 Clear 20 1020 53 10000 0.89 90 22:24 21.05.2022
1980 Clear 21 1019 44 10000 0.75 280 21:39 21.05.2022
1981 Clear 21 1019 43 10000 1.32 270 20:48 21.05.2022
1982 Clear 21 1019 43 10000 1.53 279 20:21 21.05.2022
1983 Clouds 21 1020 45 10000 1.72 284 19:24 21.05.2022
1984 Clear 18 1020 58 10000 2.06 290 17:38 21.05.2022
1985 Clear 14 1021 76 10000 1.54 310 15:38 21.05.2022
1986 Clear 13 1021 83 10000 3.09 330 14:37 21.05.2022
1987 Clear 12 1020 85 10000 2.06 320 13:39 21.05.2022
1988 Clear 12 1020 82 10000 1.54 0 12:40 21.05.2022
1989 Clear 12 1019 82 10000 1.54 270 11:54 21.05.2022
1990 Clear 12 1019 81 10000 1.54 300 10:22 21.05.2022
1991 Clear 12 1019 83 10000 2.57 310 09:20 21.05.2022
1992 Clear 12 1019 83 10000 2.57 310 09:20 21.05.2022
1993 Clear 12 1018 81 10000 3.09 310 08:47 21.05.2022
1994 Clouds 13 1019 84 10000 0.45 315 06:22 21.05.2022
1995 Clear 14 1018 78 10000 2.57 310 02:23 21.05.2022
1996 Clear 16 1017 68 10000 3.09 330 23:42 20.05.2022
1997 Clear 17 1016 62 10000 3.6 340 22:41 20.05.2022
1998 Clear 17 1016 61 10000 3.6 340 22:18 20.05.2022
1999 Clear 18 1015 57 10000 3.09 340 21:19 20.05.2022
2000 Clear 18 1015 60 10000 3.6 350 20:51 20.05.2022
2001 Clear 17 1016 60 10000 3.6 350 19:54 20.05.2022
2002 Clear 18 1017 59 10000 4.63 350 18:58 20.05.2022
2003 Clear 17 1017 61 10000 4.63 350 18:23 20.05.2022
2004 Clear 13 1018 77 10000 3.6 340 16:27 20.05.2022
2005 Clear 13 1018 77 10000 3.6 330 15:54 20.05.2022
2006 Clear 11 1018 83 10000 3.6 330 15:20 20.05.2022
2007 Clear 10 1019 86 10000 3.09 320 14:27 20.05.2022
2008 Clear 8 1018 92 10000 2.57 310 12:37 20.05.2022
2009 Clear 9 1018 88 10000 2.06 300 10:47 20.05.2022
2010 Clear 9 1019 87 10000 5.14 320 09:27 20.05.2022
2011 Clear 9 1019 87 10000 4.12 320 08:24 20.05.2022
2012 Clear 10 1020 87 10000 2.57 310 06:42 20.05.2022
2013 Clear 10 1020 82 10000 1.54 310 05:39 20.05.2022
2014 Clear 12 1020 74 10000 3.6 330 01:30 20.05.2022
2015 Clear 12 1020 74 10000 2.57 10 23:46 19.05.2022
2016 Clear 14 1019 72 10000 2.57 20 22:36 19.05.2022
2017 Clear 14 1020 68 10000 2.57 40 21:50 19.05.2022
2018 Clear 15 1020 65 10000 2.57 40 21:24 19.05.2022
2019 Clear 14 1020 65 10000 2.57 20 20:47 19.05.2022
2020 Clouds 14 1021 62 10000 2.57 30 19:54 19.05.2022
2021 Clouds 14 1021 63 10000 1.94 349 19:00 19.05.2022
2022 Clouds 14 1022 62 10000 3.09 350 17:36 19.05.2022
2023 Clouds 12 1022 71 10000 2.06 340 15:43 19.05.2022
2024 Clouds 10 1023 81 8000 1.54 330 14:39 19.05.2022
2025 Clouds 10 1023 83 8000 1.54 330 14:19 19.05.2022
2026 Clouds 8 1022 85 8000 0.51 0 11:53 19.05.2022
2027 Clouds 7 1022 86 8000 0.51 0 10:30 19.05.2022
2028 Clouds 8 1022 85 10000 1.03 0 08:39 19.05.2022
2029 Clouds 9 1023 79 9000 1.54 150 07:18 19.05.2022
2030 Clear 10 1024 72 9000 1.03 0 03:26 19.05.2022
2031 Clear 12 1024 66 10000 2.57 160 00:56 19.05.2022
2032 Clear 13 1024 60 10000 2.06 160 23:21 18.05.2022
2033 Clouds 14 1024 57 10000 1.54 170 22:41 18.05.2022
2034 Clouds 15 1024 56 10000 2.06 190 21:33 18.05.2022
2035 Clouds 15 1024 54 10000 3.6 160 20:55 18.05.2022
2036 Clouds 15 1024 54 10000 3.6 160 20:19 18.05.2022
2037 Clouds 14 1026 57 10000 3.6 160 18:47 18.05.2022
2038 Clouds 13 1027 62 10000 3.6 160 17:41 18.05.2022
2039 Clouds 13 1027 63 10000 3.6 160 17:23 18.05.2022
2040 Clear 12 1027 64 10000 2.57 190 16:36 18.05.2022
2041 Clear 10 1026 68 10000 3.6 190 15:43 18.05.2022
2042 Clear 10 1026 68 10000 3.6 190 15:19 18.05.2022
2043 Clear 9 1026 75 10000 3.6 180 13:53 18.05.2022
2044 Clear 8 1027 79 10000 0.89 135 12:53 18.05.2022
2045 Clouds 9 1025 76 10000 3.6 200 11:47 18.05.2022
2046 Clouds 9 1025 76 10000 3.6 200 11:29 18.05.2022
2047 Clouds 10 1025 74 10000 3.6 200 09:59 18.05.2022
2048 Clouds 9 1024 74 10000 3.6 200 07:56 18.05.2022
2049 Clear 9 1025 75 10000 4.63 200 06:52 18.05.2022
2050 Clouds 11 1025 73 10000 4.12 190 02:47 18.05.2022
2051 Clouds 12 1023 72 10000 4.12 200 00:31 18.05.2022
2052 Clouds 13 1023 72 10000 5.66 200 22:57 17.05.2022
2053 Clouds 14 1022 74 10000 4.63 190 21:21 17.05.2022
2054 Clouds 14 1021 69 10000 5.66 190 20:30 17.05.2022
2055 Clouds 14 1021 69 10000 6.17 190 19:29 17.05.2022
2056 Rain 14 1022 70 10000 4.63 0 18:22 17.05.2022
2057 Clouds 13 1022 73 10000 5.66 200 17:28 17.05.2022
2058 Clouds 12 1022 75 10000 5.14 0 16:36 17.05.2022
2059 Rain 11 1022 83 10000 4.12 0 15:43 17.05.2022
2060 Rain 11 1022 83 10000 5.14 200 14:31 17.05.2022
2061 Rain 11 1021 83 10000 4.63 200 13:54 17.05.2022
2062 Drizzle 10 1021 92 6000 3.6 0 12:32 17.05.2022
2063 Drizzle 9 1020 91 5000 3.6 220 09:53 17.05.2022
2064 Drizzle 9 1020 85 9000 3.6 0 08:44 17.05.2022
2065 Drizzle 9 1021 92 8000 3.09 0 07:18 17.05.2022
2066 Clouds 9 1022 70 10000 4.12 0 04:28 17.05.2022
2067 Clouds 11 1022 58 10000 8.79 200 00:47 17.05.2022
2068 Clouds 13 1021 58 10000 5.14 0 22:44 16.05.2022
2069 Clouds 13 1021 60 10000 5.14 0 22:18 16.05.2022
2070 Clouds 14 1020 64 10000 5.14 190 20:49 16.05.2022
2071 Clouds 14 1020 63 10000 5.66 190 19:59 16.05.2022
2072 Clouds 14 1021 65 10000 5.14 200 18:32 16.05.2022
2073 Clouds 13 1022 70 10000 5.66 200 16:28 16.05.2022
2074 Clouds 12 1022 79 10000 3.09 210 14:42 16.05.2022
2075 Drizzle 10 1021 89 8000 3.6 230 13:25 16.05.2022
2076 Clouds 10 1020 88 10000 4.12 230 11:33 16.05.2022
2077 Drizzle 10 1020 86 8000 3.6 0 09:58 16.05.2022
2078 Clouds 11 1020 77 10000 3.6 230 07:21 16.05.2022
2079 Clouds 12 1021 67 10000 4.12 240 04:41 16.05.2022
2080 Clear 13 1021 46 10000 0.89 90 23:44 15.05.2022
2081 Clear 14 1020 36 10000 4.12 0 22:34 15.05.2022
2082 Clear 15 1020 34 10000 3.6 230 21:47 15.05.2022
2083 Clear 14 1020 36 10000 3.6 0 20:59 15.05.2022
2084 Clear 15 1021 36 10000 3.6 230 19:53 15.05.2022
2085 Clouds 13 1022 48 10000 3.6 220 17:52 15.05.2022
2086 Clear 12 1022 58 10000 2.06 0 16:31 15.05.2022
2087 Clear 9 1022 69 10000 2.06 230 13:59 15.05.2022
2088 Clear 9 1022 68 10000 1.54 210 12:57 15.05.2022
2089 Clear 9 1021 64 10000 2.06 180 11:40 15.05.2022
2090 Clear 10 1021 62 10000 2.06 170 10:29 15.05.2022
2091 Clear 11 1021 60 10000 2.57 180 08:46 15.05.2022
2092 Clear 11 1021 56 10000 3.09 200 06:58 15.05.2022
2093 Rain 12 1021 55 10000 2.57 190 05:52 15.05.2022
2094 Clear 15 1019 44 10000 3.09 180 00:49 15.05.2022
2095 Clear 16 1019 43 10000 2.06 180 23:39 14.05.2022
2096 Clear 17 1019 50 10000 2.06 60 22:59 14.05.2022
2097 Clear 18 1018 54 10000 3.09 40 21:29 14.05.2022
2098 Clear 19 1018 38 10000 2.81 202 20:53 14.05.2022
2099 Clear 19 1018 51 10000 3.09 60 19:39 14.05.2022
2100 Clear 19 1018 52 10000 3.09 60 19:19 14.05.2022
2101 Clouds 19 1018 50 10000 2.06 0 18:44 14.05.2022
2102 Clouds 17 1019 71 10000 2.57 150 16:46 14.05.2022
2103 Clouds 15 1019 79 10000 3.09 160 15:30 14.05.2022
2104 Clouds 14 1020 84 10000 2.06 200 14:34 14.05.2022
2105 Clouds 14 1019 82 10000 0.51 0 12:24 14.05.2022
2106 Clear 14 1019 79 10000 1.03 0 10:59 14.05.2022
2107 Clear 15 1019 78 10000 1.03 0 10:21 14.05.2022
2108 Clear 14 1019 79 10000 1.03 0 09:53 14.05.2022
2109 Clear 14 1019 83 10000 2.57 300 08:49 14.05.2022
2110 Clear 14 1019 84 10000 1.03 0 05:47 14.05.2022
2111 Clear 15 1019 80 10000 1.54 310 02:32 14.05.2022
2112 Clear 17 1018 70 10000 3.6 360 23:36 13.05.2022
2113 Clear 18 1018 66 10000 3.6 10 22:57 13.05.2022
2114 Clear 18 1018 65 10000 3.6 10 22:23 13.05.2022
2115 Clear 18 1017 65 10000 3.09 20 21:38 13.05.2022
2116 Clear 18 1018 65 10000 2.57 50 20:44 13.05.2022
2117 Clear 18 1018 64 10000 2.57 50 20:24 13.05.2022
2118 Clear 18 1018 64 10000 2.06 50 19:21 13.05.2022
2119 Clear 17 1019 63 10000 3.6 350 17:50 13.05.2022
2120 Clear 17 1019 63 10000 3.6 350 17:27 13.05.2022
2121 Clear 16 1019 65 10000 4.12 340 16:18 13.05.2022
2122 Clear 15 1019 71 10000 5.66 360 14:54 13.05.2022
2123 Clear 13 1018 76 10000 3.6 20 13:26 13.05.2022
2124 Clear 13 1018 76 10000 3.6 10 12:25 13.05.2022
2125 Clear 13 1017 75 10000 5.14 360 10:42 13.05.2022
2126 Clear 13 1017 75 10000 5.14 10 09:31 13.05.2022
2127 Clear 13 1017 77 10000 3.6 20 08:23 13.05.2022
2128 Clear 13 1017 78 10000 3.09 40 07:31 13.05.2022
2129 Clear 14 1019 78 10000 5.66 60 05:58 13.05.2022
2130 Clear 14 1018 77 10000 4.63 90 01:49 13.05.2022
2131 Clear 14 1018 69 10000 5.66 110 23:43 12.05.2022
2132 Clear 15 1018 68 10000 5.14 110 22:42 12.05.2022
2133 Clear 16 1018 63 10000 4.12 90 21:36 12.05.2022
2134 Clear 16 1018 62 10000 4.63 80 20:22 12.05.2022
2135 Clouds 16 1021 66 10000 2.57 40 18:31 12.05.2022
2136 Clouds 16 1022 70 10000 4.12 110 16:52 12.05.2022
2137 Clouds 14 1022 78 10000 4.12 110 15:30 12.05.2022
2138 Clouds 11 1022 87 9000 3.09 130 13:59 12.05.2022
2139 Clouds 10 1022 89 9000 3.09 130 13:21 12.05.2022
2140 Clear 10 1021 81 10000 2.06 140 10:35 12.05.2022
2141 Clear 10 1022 79 10000 2.57 150 08:58 12.05.2022
2142 Clear 10 1022 78 10000 2.57 150 08:37 12.05.2022
2143 Clear 11 1022 75 10000 4.63 130 07:36 12.05.2022
2144 Clear 12 1022 71 10000 3.09 140 04:50 12.05.2022
2145 Clouds 14 1022 63 10000 4.63 140 01:55 12.05.2022
2146 Clouds 15 1022 54 10000 7.72 110 23:42 11.05.2022
2147 Clouds 17 1021 61 10000 6.69 110 22:22 11.05.2022
2148 Clouds 17 1021 65 10000 4.12 100 21:27 11.05.2022
2149 Clouds 17 1020 57 10000 5.14 120 20:45 11.05.2022
2150 Clouds 15 1022 67 10000 3.6 130 17:43 11.05.2022
2151 Clouds 14 1022 72 10000 3.6 150 16:39 11.05.2022
2152 Clouds 12 1022 80 10000 2.57 170 14:48 11.05.2022
2153 Clouds 11 1022 81 10000 2.57 170 14:25 11.05.2022
2154 Clouds 11 1022 86 10000 3.09 160 13:25 11.05.2022
2155 Clear 12 1020 89 10000 3.09 150 11:48 11.05.2022
2156 Clear 12 1020 91 10000 1.54 170 09:30 11.05.2022
2157 Clear 14 1020 85 10000 2.06 190 06:36 11.05.2022
2158 Clouds 16 1019 80 10000 3.09 180 02:27 11.05.2022
2159 Clouds 18 1017 77 10000 1.54 40 22:58 10.05.2022
2160 Clouds 18 1017 77 10000 1.54 40 22:58 10.05.2022
2161 Clouds 18 1017 76 10000 1.54 40 22:30 10.05.2022
2162 Clouds 18 1017 74 10000 2.06 30 21:40 10.05.2022
2163 Clouds 19 1017 70 8000 2.57 50 20:34 10.05.2022
2164 Clouds 18 1018 69 8000 2.06 0 18:49 10.05.2022
2165 Clouds 17 1018 75 8000 2.57 200 17:38 10.05.2022
2166 Clouds 16 1019 81 7000 4.12 100 16:35 10.05.2022
2167 Mist 14 1018 93 2500 1.54 160 13:31 10.05.2022
2168 Mist 14 1018 96 3000 3.09 130 11:54 10.05.2022
2169 Mist 14 1018 96 3000 3.09 130 11:32 10.05.2022
2170 Mist 14 1018 98 2500 2.57 150 10:56 10.05.2022
2171 Mist 15 1017 94 1200 2.57 140 09:47 10.05.2022
2172 Mist 14 1018 93 5000 2.57 140 08:18 10.05.2022
2173 Clouds 15 1019 89 6000 2.06 140 06:20 10.05.2022
2174 Clear 17 1018 78 10000 3.6 110 01:54 10.05.2022
2175 Clear 18 1018 72 10000 3.09 130 23:45 09.05.2022
2176 Clear 19 1018 66 10000 3.09 110 22:35 09.05.2022
2177 Clear 20 1018 62 10000 3.6 100 21:38 09.05.2022
2178 Clouds 20 1019 60 9000 3.6 100 20:20 09.05.2022
2179 Clouds 20 1020 60 10000 1.91 75 18:25 09.05.2022
2180 Clouds 20 1021 64 7000 2.57 130 17:25 09.05.2022
2181 Clouds 18 1021 74 6000 2.06 70 16:18 09.05.2022
2182 Mist 18 1021 76 4500 1.03 0 15:47 09.05.2022
2183 Clear 17 1021 84 10000 0 0 14:33 09.05.2022
2184 Fog 14 1021 93 10000 0.51 0 13:56 09.05.2022
2185 Clear 13 1021 94 10000 1.03 0 12:55 09.05.2022
2186 Fog 13 1020 94 10000 1.03 0 11:52 09.05.2022
2187 Fog 13 1020 93 10000 1.03 0 10:47 09.05.2022
2188 Fog 14 1020 91 10000 1.03 0 10:20 09.05.2022
2189 Clear 15 1020 94 10000 1.54 290 07:56 09.05.2022
2190 Clear 16 1020 92 10000 1.03 0 04:35 09.05.2022
2191 Clear 18 1018 69 10000 0 0 00:23 09.05.2022
2192 Clear 20 1018 62 10000 1.54 360 23:27 08.05.2022
2193 Clear 22 1018 57 10000 1.54 20 22:29 08.05.2022
2194 Clouds 23 1017 52 10000 3.94 5 20:53 08.05.2022
2195 Clouds 23 1017 53 10000 4.15 0 20:18 08.05.2022
2196 Clouds 23 1017 53 10000 4.04 358 19:32 08.05.2022
2197 Clouds 22 1017 55 10000 4.18 356 18:35 08.05.2022
2198 Clear 21 1019 63 10000 3.6 340 17:22 08.05.2022
2199 Clear 18 1020 74 10000 3.6 340 15:44 08.05.2022
2200 Clear 18 1020 76 10000 3.6 340 15:20 08.05.2022
2201 Clear 14 1019 96 10000 2.57 320 12:45 08.05.2022
2202 Clear 15 1018 93 10000 4.12 330 10:46 08.05.2022
2203 Clear 16 1019 90 10000 4.12 330 10:22 08.05.2022
2204 Clear 16 1019 87 10000 3.09 330 09:46 08.05.2022
2205 Clear 17 1019 84 10000 3.6 320 07:33 08.05.2022
2206 Clear 18 1020 80 10000 4.63 330 04:56 08.05.2022
2207 Clear 19 1021 79 10000 2.06 340 03:20 08.05.2022
2208 Clear 20 1021 80 10000 2.06 330 00:29 08.05.2022
2209 Clear 20 1020 78 10000 3.09 350 23:53 07.05.2022
2210 Clouds 21 1021 73 10000 2.57 10 22:57 07.05.2022
2211 Clouds 22 1020 71 10000 2.57 10 22:33 07.05.2022
2212 Clouds 23 1022 65 10000 0.45 0 21:44 07.05.2022
2213 Clouds 23 1022 66 10000 0.89 0 20:56 07.05.2022
2214 Clouds 23 1021 68 10000 3.09 0 19:58 07.05.2022
2215 Clouds 22 1022 72 10000 3.09 360 17:51 07.05.2022
2216 Clouds 19 1024 78 10000 2.57 340 15:53 07.05.2022
2217 Clouds 17 1024 90 10000 1.03 0 14:20 07.05.2022
2218 Clouds 15 1022 97 10000 1.54 300 10:59 07.05.2022
2219 Clear 15 1022 96 10000 2.06 330 09:38 07.05.2022
2220 Clear 16 1023 92 10000 3.09 320 07:52 07.05.2022
2221 Clear 17 1023 90 10000 3.6 320 06:43 07.05.2022
2222 Clear 16 1023 88 10000 2.57 320 05:22 07.05.2022
2223 Clear 18 1023 92 10000 1.03 330 02:21 07.05.2022
2224 Clear 20 1021 80 10000 2.06 360 23:38 06.05.2022
2225 Clouds 21 1021 72 10000 3.09 20 22:31 06.05.2022
2226 Clear 23 1021 55 10000 1.38 42 21:44 06.05.2022
2227 Clear 23 1021 55 10000 1.55 2 20:35 06.05.2022
2228 Clear 23 1021 56 10000 1.55 350 19:40 06.05.2022
2229 Clear 23 1021 57 10000 1.56 337 19:00 06.05.2022
2230 Clear 22 1022 62 10000 1.66 328 18:19 06.05.2022
2231 Clear 20 1023 67 10000 3.09 330 16:44 06.05.2022
2232 Clear 18 1023 73 10000 1.54 300 15:41 06.05.2022
2233 Clear 16 1023 85 10000 2.06 330 14:50 06.05.2022
2234 Clear 13 1022 92 10000 2.57 310 12:56 06.05.2022
2235 Clear 13 1022 92 10000 2.57 310 12:37 06.05.2022
2236 Clear 13 1021 92 10000 1.54 310 11:42 06.05.2022
2237 Clear 14 1021 94 10000 1.54 290 10:29 06.05.2022
2238 Clear 14 1020 94 10000 2.57 320 09:45 06.05.2022
2239 Clear 14 1020 93 10000 3.09 320 08:27 06.05.2022
2240 Fog 15 1020 89 10000 3.09 320 06:46 06.05.2022
2241 Clear 15 1021 91 10000 1.54 340 04:53 06.05.2022
2242 Clear 16 1020 86 10000 2.06 320 02:45 06.05.2022
2243 Clear 18 1020 75 10000 1.54 40 23:45 05.05.2022
2244 Clear 20 1019 68 10000 3.09 70 21:56 05.05.2022
2245 Clouds 21 1019 61 10000 2.79 23 21:19 05.05.2022
2246 Clouds 21 1019 49 10000 2.7 16 19:53 05.05.2022
2247 Clouds 20 1020 54 10000 2.88 352 18:26 05.05.2022
2248 Clear 17 1022 68 10000 3.09 350 16:20 05.05.2022
2249 Clear 15 1022 80 10000 2.06 320 14:43 05.05.2022
2250 Clear 12 1021 94 10000 1.03 0 13:21 05.05.2022
2251 Clear 10 1020 94 10000 1.54 280 12:24 05.05.2022
2252 Clear 11 1020 91 10000 1.03 0 10:33 05.05.2022
2253 Clear 11 1020 88 10000 1.03 300 09:39 05.05.2022
2254 Clear 13 1020 85 10000 2.06 300 07:24 05.05.2022
2255 Clear 14 1020 77 10000 2.57 310 02:59 05.05.2022
2256 Clear 15 1020 73 10000 4.12 330 01:48 05.05.2022
2257 Clear 15 1020 73 10000 4.12 330 01:22 05.05.2022
2258 Clear 17 1019 74 10000 1.54 0 23:31 04.05.2022
2259 Clear 18 1019 64 10000 2.06 40 22:25 04.05.2022
2260 Clear 18 1019 60 10000 2.57 40 21:49 04.05.2022
2261 Clear 19 1019 53 10000 2.48 25 21:26 04.05.2022
2262 Clear 20 1019 42 10000 2.3 21 20:22 04.05.2022
2263 Clear 19 1019 46 10000 2.29 19 19:51 04.05.2022
2264 Clear 18 1021 56 10000 3.6 350 18:49 04.05.2022
2265 Clear 17 1021 59 10000 3.6 350 18:20 04.05.2022
2266 Clear 16 1022 63 10000 3.09 350 17:28 04.05.2022
2267 Clouds 14 1022 79 10000 2.57 330 15:38 04.05.2022
2268 Clouds 13 1022 88 10000 2.06 310 14:49 04.05.2022
2269 Clouds 11 1022 91 10000 2.06 310 14:20 04.05.2022
2270 Fog 9 1021 96 10000 1.03 0 12:58 04.05.2022
2271 Fog 9 1021 96 10000 1.03 0 12:28 04.05.2022
2272 Fog 10 1021 96 10000 1.54 260 10:33 04.05.2022
2273 Clear 9 1021 96 10000 1.03 280 09:28 04.05.2022
2274 Clear 10 1021 90 10000 1.03 290 08:33 04.05.2022
2275 Clear 11 1022 84 10000 1.03 0 05:44 04.05.2022
2276 Clear 12 1022 77 10000 0.51 0 02:43 04.05.2022
2277 Clear 14 1021 66 10000 1.54 30 23:31 03.05.2022
2278 Clear 16 1021 61 10000 2.57 30 22:00 03.05.2022
2279 Clear 17 1021 45 10000 1.19 46 21:33 03.05.2022
2280 Clear 16 1022 58 10000 3.09 50 20:52 03.05.2022
2281 Clouds 16 1023 55 10000 3.09 60 19:39 03.05.2022
2282 Clouds 16 1024 50 10000 1.03 0 18:48 03.05.2022
2283 Clouds 15 1024 52 10000 1.54 220 17:34 03.05.2022
2284 Clouds 14 1024 53 10000 1.54 0 16:20 03.05.2022
2285 Clear 11 1024 68 10000 1.54 180 14:34 03.05.2022
2286 Clear 7 1024 78 10000 2.57 200 12:46 03.05.2022
2287 Clear 8 1024 79 10000 2.57 200 12:22 03.05.2022
2288 Clear 8 1023 76 10000 1.54 190 10:50 03.05.2022
2289 Clear 9 1024 73 10000 2.06 190 08:33 03.05.2022
2290 Clouds 10 1024 68 9000 2.06 160 06:46 03.05.2022
2291 Clouds 10 1024 68 9000 2.06 160 06:46 03.05.2022
2292 Clear 12 1024 57 10000 2.06 160 03:26 03.05.2022
2293 Clouds 14 1023 63 10000 5.14 120 23:32 02.05.2022
2294 Clouds 14 1022 63 10000 5.14 120 22:32 02.05.2022
2295 Clouds 15 1022 64 10000 5.66 100 21:48 02.05.2022
2296 Clouds 15 1022 64 10000 5.66 100 21:48 02.05.2022
2297 Clouds 15 1022 62 10000 7.2 100 19:59 02.05.2022
2298 Clouds 15 1023 64 10000 7.72 130 18:27 02.05.2022
2299 Clouds 15 1023 64 10000 7.72 120 17:42 02.05.2022
2300 Clouds 14 1023 63 10000 6.17 130 16:43 02.05.2022
2301 Clouds 13 1023 66 10000 5.14 140 15:44 02.05.2022
2302 Clouds 12 1023 77 10000 3.09 160 14:54 02.05.2022
2303 Clear 10 1023 85 10000 3.09 160 13:45 02.05.2022
2304 Clear 9 1022 80 10000 2.06 160 11:41 02.05.2022
2305 Clear 11 1021 74 10000 2.06 170 09:59 02.05.2022
2306 Clear 11 1021 71 10000 2.57 150 08:31 02.05.2022
2307 Clear 11 1022 68 10000 3.09 140 07:23 02.05.2022
2308 Clouds 15 1018 50 10000 2.57 160 00:48 02.05.2022
2309 Clouds 16 1018 49 10000 2.57 160 00:22 02.05.2022
2310 Clear 16 1017 50 10000 3.6 140 23:40 01.05.2022
2311 Clear 18 1017 41 10000 3.6 160 21:45 01.05.2022
2312 Clear 18 1016 39 10000 3.09 160 20:50 01.05.2022
2313 Clear 18 1017 39 10000 3.6 130 19:40 01.05.2022
2314 Clear 18 1017 40 10000 3.09 180 18:53 01.05.2022
2315 Clear 17 1017 45 10000 2.57 0 17:51 01.05.2022
2316 Clear 16 1018 45 10000 3.09 200 16:42 01.05.2022
2317 Clear 16 1018 45 10000 3.09 200 16:18 01.05.2022
2318 Clear 12 1017 58 10000 2.06 210 14:54 01.05.2022
2319 Clear 9 1017 74 10000 1.03 0 12:52 01.05.2022
2320 Clouds 9 1017 76 10000 2.85 235 10:36 01.05.2022
2321 Clouds 11 1016 68 8000 1.03 0 08:50 01.05.2022
2322 Clouds 10 1017 78 10000 2.57 269 06:50 01.05.2022
2323 Clear 13 1017 55 10000 1.54 40 02:31 01.05.2022
2324 Clear 14 1018 52 10000 2.57 80 22:51 30.04.2022
2325 Clear 14 1019 51 10000 2.57 80 21:33 30.04.2022
2326 Clear 14 1019 51 10000 2.57 80 21:33 30.04.2022
2327 Clear 13 1019 53 10000 1.54 70 20:19 30.04.2022
2328 Clear 14 1020 50 10000 2.06 60 19:31 30.04.2022
2329 Clouds 14 1022 57 10000 3.6 70 17:32 30.04.2022
2330 Clouds 13 1022 70 10000 3.09 70 15:53 30.04.2022
2331 Clouds 13 1022 70 10000 3.09 70 15:19 30.04.2022
2332 Clouds 12 1023 65 10000 3.09 90 14:19 30.04.2022
2333 Clear 9 1022 65 10000 1.54 140 11:58 30.04.2022
2334 Clear 10 1022 64 10000 1.54 140 11:31 30.04.2022
2335 Clouds 10 1023 61 10000 1.03 0 10:23 30.04.2022
2336 Clouds 9 1023 64 10000 1.54 170 08:25 30.04.2022
2337 Clear 10 1026 53 10000 1.03 0 04:58 30.04.2022
2338 Clear 12 1026 42 10000 1.03 0 00:25 30.04.2022
2339 Clear 14 1026 30 10000 1.03 0 22:56 29.04.2022
2340 Clear 14 1026 29 10000 1.03 0 22:21 29.04.2022
2341 Clear 15 1026 29 10000 2.57 220 21:26 29.04.2022
2342 Clear 14 1026 30 10000 2.06 200 20:24 29.04.2022
2343 Clear 14 1027 29 10000 2.06 180 19:28 29.04.2022
2344 Clear 12 1028 33 10000 2.57 160 17:35 29.04.2022
2345 Clear 11 1029 37 10000 2.06 0 16:38 29.04.2022
2346 Clear 10 1029 42 10000 2.57 200 14:37 29.04.2022
2347 Clear 8 1028 50 10000 1.03 0 13:42 29.04.2022
2348 Clear 7 1028 54 10000 1.54 190 12:37 29.04.2022
2349 Clear 8 1027 52 10000 1.54 180 10:32 29.04.2022
2350 Clear 9 1027 46 10000 2.06 180 07:55 29.04.2022
2351 Clear 9 1027 46 10000 2.06 180 07:25 29.04.2022
2352 Clear 10 1027 43 10000 2.06 190 06:32 29.04.2022
2353 Clear 12 1025 40 10000 3.09 200 02:23 29.04.2022
2354 Clear 14 1023 25 10000 2.57 220 23:58 28.04.2022
2355 Clear 15 1023 25 10000 2.57 220 23:25 28.04.2022
2356 Clear 16 1022 24 10000 2.06 230 22:24 28.04.2022
2357 Clear 16 1021 25 10000 2.06 220 21:41 28.04.2022
2358 Clear 16 1021 28 10000 3.09 210 20:45 28.04.2022
2359 Clear 16 1021 29 10000 3.6 180 19:52 28.04.2022
2360 Clear 16 1021 29 10000 3.6 180 19:24 28.04.2022
2361 Clear 17 1022 34 10000 3.09 0 18:51 28.04.2022
2362 Clear 16 1021 33 10000 2.57 190 17:42 28.04.2022
2363 Clear 15 1021 36 10000 4.12 160 16:51 28.04.2022
2364 Clear 15 1021 37 10000 4.12 160 16:20 28.04.2022
2365 Clear 15 1021 37 10000 4.12 160 16:20 28.04.2022
2366 Clear 14 1020 38 10000 3.6 160 15:43 28.04.2022
2367 Clear 14 1019 44 10000 4.12 160 14:58 28.04.2022
2368 Clear 12 1017 51 10000 3.09 150 13:33 28.04.2022
2369 Clear 12 1016 59 10000 4.12 160 12:28 28.04.2022
2370 Clouds 12 1016 59 10000 0.89 45 10:59 28.04.2022
2371 Clear 13 1014 53 10000 2.06 210 10:26 28.04.2022
2372 Clear 14 1014 57 10000 1.54 200 09:47 28.04.2022
2373 Clear 14 1014 63 10000 1.54 220 07:40 28.04.2022
2374 Clear 14 1013 69 10000 1.54 210 06:42 28.04.2022
2375 Clear 13 1012 69 10000 0.51 0 05:52 28.04.2022
2376 Clear 14 1011 67 10000 1.03 0 04:42 28.04.2022
2377 Clear 17 1010 57 10000 3.09 360 00:52 28.04.2022
2378 Clear 18 1010 47 10000 2.57 40 23:18 27.04.2022
2379 Clear 19 1009 39 10000 3.09 50 21:58 27.04.2022
2380 Clear 19 1009 41 10000 3.09 50 21:32 27.04.2022
2381 Clear 19 1010 40 10000 2.57 0 20:44 27.04.2022
2382 Clear 20 1009 31 10000 2.06 180 19:41 27.04.2022
2383 Clear 20 1009 33 10000 2.06 180 19:22 27.04.2022
2384 Clear 20 1009 32 10000 2.06 180 19:22 27.04.2022
2385 Clear 19 1009 34 10000 3.6 190 18:38 27.04.2022
2386 Clear 18 1008 43 10000 4.12 190 17:26 27.04.2022
2387 Clear 17 1008 49 10000 3.09 190 15:56 27.04.2022
2388 Clouds 14 1002 90 10000 4.12 160 12:34 27.04.2022
2389 Rain 15 1002 90 8000 4.63 180 11:23 27.04.2022
2390 Rain 16 1001 92 9000 4.12 210 10:26 27.04.2022
2391 Clouds 25 995 83 10000 5.66 320 07:41 27.04.2022
2392 Clouds 24 995 88 10000 6.69 340 06:30 27.04.2022
2393 Clouds 22 998 90 10000 2.06 350 02:25 27.04.2022
2394 Clouds 22 998 92 10000 1.54 30 01:18 27.04.2022
2395 Clouds 23 998 90 10000 2.57 30 00:27 27.04.2022
2396 Clouds 22 999 89 10000 2.57 30 23:23 26.04.2022
2397 Clouds 23 999 87 10000 2.57 30 22:43 26.04.2022
2398 Clouds 22 1000 82 10000 2.06 60 21:57 26.04.2022
2399 Clouds 23 1002 82 10000 3.09 80 20:56 26.04.2022
2400 Clouds 23 1002 80 10000 3.09 80 20:35 26.04.2022
2401 Clouds 22 1003 83 10000 2.57 50 19:34 26.04.2022
2402 Clouds 21 1005 85 10000 3.6 30 18:51 26.04.2022
2403 Clouds 21 1005 88 10000 3.6 30 18:19 26.04.2022
2404 Clouds 21 1006 86 10000 3.6 20 17:33 26.04.2022
2405 Clouds 20 1008 93 10000 3.6 40 14:46 26.04.2022
2406 Clouds 20 1008 95 10000 3.09 50 13:34 26.04.2022
2407 Clouds 20 1008 96 8000 3.09 60 12:25 26.04.2022
2408 Mist 19 1008 99 2500 3.6 80 10:46 26.04.2022
2409 Mist 19 1008 97 2500 4.12 90 09:41 26.04.2022
2410 Clouds 18 1009 95 7000 5.66 110 07:59 26.04.2022
2411 Clouds 19 1010 93 10000 4.63 130 04:33 26.04.2022
2412 Clouds 19 1010 93 10000 5.14 100 02:20 26.04.2022
2413 Clouds 19 1008 93 8000 5.14 110 00:26 26.04.2022
2414 Fog 20 1008 91 600 5.66 110 22:49 25.04.2022
2415 Mist 20 1007 84 1500 6.69 110 21:44 25.04.2022
2416 Clear 22 1006 78 10000 5.66 110 20:45 25.04.2022
2417 Clear 22 1006 78 10000 5.66 110 20:45 25.04.2022
2418 Clouds 24 1008 52 10000 4.7 93 19:34 25.04.2022
2419 Clear 24 1007 52 10000 6.69 100 18:23 25.04.2022
2420 Clear 23 1007 50 10000 6.17 140 17:32 25.04.2022
2421 Clouds 20 1007 76 10000 4.63 170 15:30 25.04.2022
2422 Clouds 19 1006 93 9000 2.57 170 14:54 25.04.2022
2423 Clouds 20 1005 97 2500 1.54 240 13:41 25.04.2022
2424 Rain 20 1005 97 10000 1.52 283 11:49 25.04.2022
2425 Thunderstorm 20 1002 96 8000 6.17 340 10:27 25.04.2022
2426 Thunderstorm 20 1003 92 8000 7.72 360 08:47 25.04.2022
2427 Thunderstorm 21 1002 76 10000 1.54 20 06:46 25.04.2022
2428 Clear 21 1004 72 10000 2.57 10 04:33 25.04.2022
2429 Clear 21 1005 59 10000 4.12 350 00:58 25.04.2022
2430 Clear 21 1005 56 10000 2.57 350 23:51 24.04.2022
2431 Clear 23 1005 50 10000 3.6 350 22:45 24.04.2022
2432 Clear 23 1005 49 10000 3.6 350 22:26 24.04.2022
2433 Clear 24 1006 45 10000 3.09 10 21:26 24.04.2022
2434 Clear 24 1006 40 10000 5.92 3 20:54 24.04.2022
2435 Clear 23 1007 49 10000 3.09 20 20:35 24.04.2022
2436 Clear 24 1008 46 10000 3.09 10 19:46 24.04.2022
2437 Clear 23 1009 51 10000 3.09 10 18:20 24.04.2022
2438 Clear 21 1010 60 10000 3.6 350 17:28 24.04.2022
2439 Clear 20 1010 62 10000 3.6 350 16:58 24.04.2022
2440 Clear 20 1009 59 10000 6.61 0 16:32 24.04.2022
2441 Clear 19 1010 65 10000 4.63 350 15:54 24.04.2022
2442 Clear 17 1010 65 10000 4.63 330 14:58 24.04.2022
2443 Clear 15 1010 70 10000 4.63 320 13:51 24.04.2022
2444 Clear 15 1010 72 10000 4.63 320 13:24 24.04.2022
2445 Clear 13 1009 83 10000 5.14 330 11:56 24.04.2022
2446 Clear 13 1009 84 10000 5.14 330 11:27 24.04.2022
2447 Clear 14 1008 80 10000 6.17 330 09:55 24.04.2022
2448 Clear 14 1008 79 10000 5.14 330 08:51 24.04.2022
2449 Clear 15 1008 74 10000 5.66 320 06:18 24.04.2022
2450 Clear 17 1007 70 10000 4.63 340 02:59 24.04.2022
2451 Clear 17 1007 66 10000 3.6 330 01:18 24.04.2022
2452 Clear 19 1006 55 10000 5.66 320 23:55 23.04.2022
2453 Clear 19 1006 54 10000 5.66 320 23:25 23.04.2022
2454 Clear 20 1006 52 10000 6.69 330 22:42 23.04.2022
2455 Clear 21 1006 47 10000 6.69 330 21:49 23.04.2022
2456 Clear 21 1006 45 10000 6.69 330 21:30 23.04.2022
2457 Clear 21 1006 46 10000 6.69 320 20:27 23.04.2022
2458 Clear 20 1006 47 10000 6.17 330 19:21 23.04.2022
2459 Clear 20 1007 46 10000 6.17 340 18:54 23.04.2022
2460 Clear 20 1007 46 10000 6.17 340 18:32 23.04.2022
2461 Clear 20 1007 46 10000 6.17 340 18:32 23.04.2022
2462 Clear 19 1007 48 10000 5.66 330 17:47 23.04.2022
2463 Clear 18 1008 51 10000 5.14 330 16:46 23.04.2022
2464 Clear 16 1008 51 10000 3.6 320 15:51 23.04.2022
2465 Clear 11 1007 77 10000 1.03 0 13:31 23.04.2022
2466 Clear 10 1006 77 10000 2.06 310 11:30 23.04.2022
2467 Clear 9 1006 77 10000 0 0 10:32 23.04.2022
2468 Clear 10 1007 71 10000 1.54 280 08:18 23.04.2022
2469 Clear 12 1009 72 10000 0.45 45 03:57 23.04.2022
2470 Clear 13 1008 76 10000 2.06 240 02:36 23.04.2022
2471 Clear 15 1005 72 10000 3.6 290 23:34 22.04.2022
2472 Clear 16 1005 69 10000 3.6 280 22:43 22.04.2022
2473 Rain 16 1005 65 10000 4.63 290 21:56 22.04.2022
2474 Rain 16 1005 65 10000 4.63 290 21:56 22.04.2022
2475 Rain 16 1005 64 10000 4.63 290 21:56 22.04.2022
2476 Rain 16 1005 65 10000 4.63 290 21:56 22.04.2022
2477 Rain 16 1005 64 10000 4.63 290 21:56 22.04.2022
2478 Rain 16 1005 64 10000 4.63 290 21:56 22.04.2022
2479 Rain 16 1005 65 10000 4.63 290 21:56 22.04.2022
2480 Clear 16 1005 63 10000 4.63 290 21:38 22.04.2022
2481 Clouds 16 1005 62 10000 3.6 280 20:30 22.04.2022
2482 Rain 15 1007 82 10000 2.57 290 19:24 22.04.2022
2483 Rain 15 1007 85 9000 3.6 290 18:56 22.04.2022
2484 Rain 15 1007 85 9000 3.6 290 18:24 22.04.2022
2485 Rain 15 1007 83 9000 3.6 300 16:54 22.04.2022
2486 Rain 15 1007 83 9000 3.09 310 15:58 22.04.2022
2487 Rain 15 1007 81 9000 3.09 310 15:23 22.04.2022
2488 Rain 15 1007 75 10000 3.6 310 14:37 22.04.2022
2489 Rain 15 1006 78 10000 4.12 330 13:41 22.04.2022
2490 Rain 14 1006 85 10000 3.6 310 12:35 22.04.2022
2491 Rain 14 1006 90 10000 1.54 0 11:23 22.04.2022
2492 Rain 15 1006 86 10000 3.09 330 10:56 22.04.2022
2493 Rain 15 1006 82 10000 3.09 330 10:32 22.04.2022
2494 Rain 15 1006 82 10000 6.69 350 09:54 22.04.2022
2495 Rain 15 1006 85 8000 6.69 340 08:56 22.04.2022
2496 Clouds 15 1006 87 8000 6.69 340 08:36 22.04.2022
2497 Rain 15 1008 83 10000 5.14 10 06:21 22.04.2022
2498 Clear 18 1009 50 10000 0 0 00:53 22.04.2022
2499 Clear 19 1009 44 10000 1.03 50 23:29 21.04.2022
2500 Clear 21 1009 41 10000 2.57 20 22:34 21.04.2022
2501 Clouds 21 1009 37 10000 1.66 272 21:23 21.04.2022
2502 Clear 21 1010 37 10000 2.57 290 20:27 21.04.2022
2503 Clear 20 1012 37 10000 2.57 270 18:49 21.04.2022
2504 Clear 20 1012 39 10000 2.57 270 18:19 21.04.2022
2505 Clear 18 1014 48 10000 3.09 0 16:53 21.04.2022
2506 Clear 16 1015 62 10000 1.54 240 15:23 21.04.2022
2507 Clear 15 1015 71 10000 2.06 0 14:51 21.04.2022
2508 Clear 13 1015 84 10000 2.57 220 13:52 21.04.2022
2509 Clear 13 1015 86 10000 2.57 220 13:19 21.04.2022
2510 Clear 15 1015 91 10000 1.54 250 11:25 21.04.2022
2511 Clouds 16 1015 92 10000 3.09 240 08:59 21.04.2022
2512 Clear 16 1015 94 10000 1.03 0 08:29 21.04.2022
2513 Rain 17 1014 94 9000 0.51 0 06:25 21.04.2022
2514 Rain 19 1016 75 8000 4.12 190 03:35 21.04.2022
2515 Clouds 20 1016 72 5000 4.12 230 02:48 21.04.2022
2516 Clear 21 1014 73 10000 0 0 01:50 21.04.2022
2517 Clouds 23 1013 68 10000 1.54 70 23:53 20.04.2022
2518 Clouds 23 1013 66 10000 1.54 70 23:23 20.04.2022
2519 Clouds 24 1013 60 10000 2.06 80 22:51 20.04.2022
2520 Clouds 25 1013 59 10000 2.06 80 22:32 20.04.2022
2521 Clouds 26 1014 50 10000 0.45 45 21:33 20.04.2022
2522 Clouds 26 1013 52 10000 3.92 6 20:42 20.04.2022
2523 Clouds 25 1014 54 10000 4.09 7 19:53 20.04.2022
2524 Clouds 25 1014 52 10000 3.76 11 19:25 20.04.2022
2525 Clouds 25 1015 54 10000 3.62 10 18:26 20.04.2022
2526 Clouds 23 1016 59 10000 3.94 10 16:57 20.04.2022
2527 Clouds 23 1016 62 10000 3.94 10 16:38 20.04.2022
2528 Clear 20 1017 79 10000 1.54 340 14:26 20.04.2022
2529 Clear 16 1016 93 10000 1.03 0 11:55 20.04.2022
2530 Clear 17 1016 93 10000 1.03 0 11:25 20.04.2022
2531 Clear 17 1015 91 10000 2.57 320 10:27 20.04.2022
2532 Clear 18 1015 89 10000 2.57 350 09:26 20.04.2022
2533 Clouds 17 1016 89 10000 2.68 2 08:22 20.04.2022
2534 Clouds 17 1016 92 10000 2.68 2 07:42 20.04.2022
2535 Clouds 17 1016 92 10000 2.68 2 07:42 20.04.2022
2536 Clear 19 1016 86 10000 4.12 110 03:54 20.04.2022
2537 Clear 20 1015 82 10000 4.63 110 00:38 20.04.2022
2538 Clear 20 1015 82 10000 4.63 110 00:20 20.04.2022
2539 Clouds 23 1015 61 10000 3.29 81 22:28 19.04.2022
2540 Clouds 23 1015 58 10000 2.57 90 21:57 19.04.2022
2541 Clouds 23 1015 56 10000 2.57 90 21:34 19.04.2022
2542 Clouds 23 1016 61 10000 2.57 70 20:50 19.04.2022
2543 Clouds 23 1016 61 10000 2.57 70 20:32 19.04.2022
2544 Clear 24 1016 57 10000 2.03 58 19:24 19.04.2022
2545 Clear 24 1017 61 10000 2.3 53 17:51 19.04.2022
2546 Clear 22 1018 72 10000 1.54 40 16:43 19.04.2022
2547 Clear 22 1018 67 10000 2.09 21 16:24 19.04.2022
2548 Clear 20 1018 84 10000 1.54 10 14:51 19.04.2022
2549 Clear 19 1018 84 10000 1.54 10 14:30 19.04.2022
2550 Clear 16 1017 94 10000 2.06 10 12:51 19.04.2022
2551 Clear 16 1017 94 10000 2.06 10 12:26 19.04.2022
2552 Clear 17 1017 91 10000 2.06 340 10:50 19.04.2022
2553 Clear 17 1017 89 10000 2.57 20 09:23 19.04.2022
2554 Clear 18 1018 89 10000 4.12 60 06:30 19.04.2022
2555 Clear 18 1018 90 10000 6.17 100 03:59 19.04.2022
2556 Clouds 19 1017 82 10000 6.69 110 00:56 19.04.2022
2557 Clouds 20 1017 75 10000 5.66 110 23:36 18.04.2022
2558 Clouds 21 1018 72 10000 5.66 100 21:37 18.04.2022
2559 Clouds 21 1018 72 10000 5.66 100 21:18 18.04.2022
2560 Clouds 22 1018 64 10000 2.57 80 20:35 18.04.2022
2561 Clouds 22 1018 63 10000 2.81 44 19:57 18.04.2022
2562 Clouds 21 1020 72 10000 2.57 70 18:58 18.04.2022
2563 Clouds 22 1019 67 10000 3.2 39 18:32 18.04.2022
2564 Clouds 20 1020 77 10000 3.09 70 17:36 18.04.2022
2565 Clouds 20 1020 78 10000 3.09 70 17:18 18.04.2022
2566 Clouds 19 1021 79 10000 3.09 60 16:34 18.04.2022
2567 Clouds 18 1021 83 10000 3.6 70 15:18 18.04.2022
2568 Clouds 18 1021 90 10000 3.09 50 13:42 18.04.2022
2569 Clouds 17 1021 89 9000 3.6 20 12:34 18.04.2022
2570 Clouds 17 1021 86 10000 3.09 40 11:35 18.04.2022
2571 Clouds 18 1020 83 10000 3.6 40 10:32 18.04.2022
2572 Clouds 18 1021 82 10000 5.66 60 09:31 18.04.2022
2573 Clear 18 1021 85 10000 4.63 70 08:18 18.04.2022
2574 Clear 18 1021 78 10000 6.17 80 05:45 18.04.2022
2575 Clouds 19 1021 82 10000 5.14 110 00:50 18.04.2022
2576 Rain 20 1021 66 10000 4.63 100 22:42 17.04.2022
2577 Clear 21 1021 62 10000 3.09 80 21:49 17.04.2022
2578 Clear 21 1021 58 10000 3.09 80 21:27 17.04.2022
2579 Rain 22 1021 46 10000 3.47 103 20:41 17.04.2022
2580 Clouds 21 1022 53 10000 2.57 350 19:40 17.04.2022
2581 Clouds 22 1023 59 10000 3.6 360 18:21 17.04.2022
2582 Clear 20 1024 69 10000 2.57 20 16:27 17.04.2022
2583 Clear 20 1024 66 10000 2.06 30 15:26 17.04.2022
2584 Rain 18 1024 75 10000 2.06 30 14:25 17.04.2022
2585 Clear 18 1023 76 10000 1.54 60 13:18 17.04.2022
2586 Clouds 17 1023 86 10000 1.54 60 12:27 17.04.2022
2587 Clouds 17 1023 86 10000 1.54 60 12:27 17.04.2022
2588 Clouds 17 1023 85 10000 3.6 70 10:46 17.04.2022
2589 Clouds 17 1023 85 10000 3.6 70 10:28 17.04.2022
2590 Clouds 18 1023 85 10000 0 0 09:37 17.04.2022
2591 Clouds 18 1023 85 10000 4.12 80 08:53 17.04.2022
2592 Clear 18 1023 83 10000 5.66 70 07:37 17.04.2022
2593 Clear 18 1023 83 10000 3.6 90 04:30 17.04.2022
2594 Clouds 18 1023 70 10000 4.12 90 01:26 17.04.2022
2595 Clear 19 1023 73 10000 5.66 110 23:52 16.04.2022
2596 Clear 20 1022 66 10000 5.14 100 22:35 16.04.2022
2597 Clouds 21 1022 57 10000 3.6 80 21:38 16.04.2022
2598 Clouds 21 1022 58 10000 2.06 40 20:32 16.04.2022
2599 Clear 22 1022 57 10000 2.18 61 18:59 16.04.2022
2600 Clouds 20 1024 65 10000 3.09 360 17:52 16.04.2022
2601 Clear 20 1024 68 10000 4.12 360 16:40 16.04.2022
2602 Clear 19 1024 70 10000 3.6 340 15:45 16.04.2022
2603 Clouds 18 1025 76 10000 3.09 10 14:56 16.04.2022
2604 Clouds 16 1024 83 10000 4.12 350 13:58 16.04.2022
2605 Clouds 16 1024 85 10000 4.12 350 13:32 16.04.2022
2606 Clear 14 1023 91 10000 3.6 10 12:22 16.04.2022
2607 Clear 15 1022 90 10000 3.09 20 10:49 16.04.2022
2608 Clear 15 1022 90 10000 2.57 40 09:56 16.04.2022
2609 Clear 15 1022 92 10000 3.09 60 08:57 16.04.2022
2610 Clear 16 1022 91 10000 4.63 70 07:52 16.04.2022
2611 Clear 16 1022 88 10000 5.66 60 06:58 16.04.2022
2612 Clear 17 1022 86 10000 5.14 80 02:46 16.04.2022
2613 Clear 17 1021 78 10000 5.66 110 00:30 16.04.2022
2614 Clear 17 1021 68 10000 5.14 100 22:58 15.04.2022
2615 Clear 18 1021 66 10000 5.14 100 22:32 15.04.2022
2616 Clear 18 1021 64 10000 3.6 100 21:50 15.04.2022
2617 Clear 18 1021 64 10000 3.6 100 21:18 15.04.2022
2618 Clear 18 1022 62 10000 3.6 70 20:21 15.04.2022
2619 Clouds 18 1022 62 10000 3.09 60 19:39 15.04.2022
2620 Clouds 17 1023 65 10000 2.57 50 18:53 15.04.2022
2621 Clouds 17 1023 65 10000 2.57 50 18:24 15.04.2022
2622 Clouds 17 1024 66 10000 3.09 20 17:32 15.04.2022
2623 Clouds 17 1024 70 10000 3.6 360 16:26 15.04.2022
2624 Clouds 16 1024 76 10000 3.09 10 15:59 15.04.2022
2625 Clouds 16 1024 77 10000 1.54 300 14:41 15.04.2022
2626 Clouds 14 1023 82 10000 2.57 300 13:33 15.04.2022
2627 Clouds 13 1023 87 10000 1.03 0 12:40 15.04.2022
2628 Clouds 12 1023 85 10000 3.6 120 11:54 15.04.2022
2629 Clear 13 1023 79 10000 1.03 0 10:53 15.04.2022
2630 Clear 12 1022 80 10000 1.03 0 10:24 15.04.2022
2631 Clouds 13 1022 80 10000 2.57 140 09:38 15.04.2022
2632 Clouds 13 1022 78 10000 2.57 140 09:18 15.04.2022
2633 Clouds 14 1023 79 10000 2.06 140 07:24 15.04.2022
2634 Clouds 14 1023 74 10000 3.09 130 05:57 15.04.2022
2635 Clear 16 1023 63 10000 3.6 80 01:49 15.04.2022
2636 Clear 18 1022 56 10000 2.57 60 23:30 14.04.2022
2637 Clear 19 1022 55 10000 2.57 40 22:47 14.04.2022
2638 Clear 19 1022 49 10000 2.57 40 22:28 14.04.2022
2639 Clear 19 1022 47 10000 3.6 60 21:54 14.04.2022
2640 Clear 20 1022 48 10000 3.09 30 20:35 14.04.2022
2641 Clear 20 1023 45 10000 3.6 60 19:22 14.04.2022
2642 Clear 19 1024 48 10000 3.09 60 17:58 14.04.2022
2643 Clear 18 1024 49 10000 3.09 60 17:28 14.04.2022
2644 Clear 18 1024 51 10000 1.03 0 16:33 14.04.2022
2645 Clear 14 1024 73 10000 2.06 160 14:23 14.04.2022
2646 Clear 12 1024 77 10000 2.57 160 13:31 14.04.2022
2647 Clear 12 1023 79 10000 2.57 170 12:42 14.04.2022
2648 Clear 12 1023 78 10000 2.57 170 12:22 14.04.2022
2649 Clear 12 1022 73 10000 1.54 0 11:21 14.04.2022
2650 Clear 12 1022 67 10000 2.57 170 10:36 14.04.2022
2651 Clear 12 1021 64 10000 2.06 190 09:54 14.04.2022
2652 Clear 12 1022 65 10000 3.72 195 08:40 14.04.2022
2653 Clear 13 1021 59 8000 1.03 0 06:50 14.04.2022
2654 Clear 15 1020 53 10000 0.51 0 02:45 14.04.2022
2655 Clear 20 1018 32 10000 1.54 0 22:52 13.04.2022
2656 Clear 20 1018 33 10000 2.57 0 21:44 13.04.2022
2657 Clear 20 1017 34 10000 2.57 220 20:53 13.04.2022
2658 Clear 19 1017 34 10000 2.57 220 20:22 13.04.2022
2659 Clear 19 1018 39 10000 3.09 220 19:23 13.04.2022
2660 Clouds 18 1019 46 10000 2.57 230 17:54 13.04.2022
2661 Clouds 17 1019 47 10000 2.57 230 17:23 13.04.2022
2662 Clear 16 1019 53 10000 2.06 0 16:33 13.04.2022
2663 Clear 15 1018 60 10000 2.06 210 15:32 13.04.2022
2664 Clear 13 1018 65 10000 1.54 200 14:50 13.04.2022
2665 Clear 12 1018 70 10000 1.03 0 13:58 13.04.2022
2666 Clear 11 1018 74 10000 1.03 0 12:59 13.04.2022
2667 Clear 10 1017 73 10000 1.03 0 12:19 13.04.2022
2668 Clear 11 1016 69 10000 1.54 220 10:44 13.04.2022
2669 Clear 12 1016 64 10000 1.54 230 08:50 13.04.2022
2670 Clear 12 1016 64 10000 1.54 230 08:28 13.04.2022
2671 Clear 13 1016 59 10000 1.54 230 06:50 13.04.2022
2672 Clear 13 1016 58 10000 1.54 230 06:25 13.04.2022
2673 Clear 16 1015 54 10000 2.06 300 03:31 13.04.2022
2674 Clear 17 1013 48 10000 2.57 250 00:20 13.04.2022
2675 Clear 20 1012 41 10000 3.09 240 22:46 12.04.2022
2676 Clear 20 1011 40 10000 3.6 270 21:57 12.04.2022
2677 Clear 21 1011 39 10000 3.6 250 20:49 12.04.2022
2678 Clear 21 1011 39 10000 3.6 250 20:27 12.04.2022
2679 Clear 21 1011 39 10000 2.57 240 19:41 12.04.2022
2680 Clear 21 1011 39 10000 2.57 240 19:19 12.04.2022
2681 Clear 20 1011 38 10000 3.09 220 17:50 12.04.2022
2682 Clear 19 1012 39 10000 2.57 230 16:50 12.04.2022
2683 Clear 18 1012 46 10000 2.57 250 15:39 12.04.2022
2684 Clear 17 1012 48 10000 2.57 250 15:20 12.04.2022
2685 Clear 14 1012 67 10000 1.54 290 13:53 12.04.2022
2686 Clear 14 1011 71 10000 1.54 290 13:27 12.04.2022
2687 Clear 14 1011 71 10000 1.54 290 13:27 12.04.2022
2688 Clear 13 1011 87 10000 1.54 290 12:26 12.04.2022
2689 Clear 13 1012 93 10000 2.06 280 11:39 12.04.2022
2690 Clear 14 1011 93 10000 1.03 0 09:59 12.04.2022
2691 Clear 14 1011 92 10000 2.06 290 08:53 12.04.2022
2692 Clear 14 1011 92 10000 1.54 290 07:21 12.04.2022
2693 Clear 15 1011 88 10000 2.06 310 05:42 12.04.2022
2694 Clear 17 1010 83 10000 2.57 230 02:49 12.04.2022
2695 Clouds 21 1007 65 10000 2.57 250 23:25 11.04.2022
2696 Clouds 22 1007 61 10000 4.63 240 22:33 11.04.2022
2697 Clouds 22 1006 61 10000 3.6 220 21:23 11.04.2022
2698 Clouds 24 1005 57 10000 3.09 0 20:35 11.04.2022
2699 Clouds 23 1005 64 10000 3.09 0 19:59 11.04.2022
2700 Clouds 22 1005 65 10000 3.09 0 19:27 11.04.2022
2701 Clear 21 1005 70 10000 3.6 350 18:56 11.04.2022
2702 Clear 21 1005 72 10000 1.03 0 17:58 11.04.2022
2703 Clear 21 1005 72 10000 1.03 0 17:39 11.04.2022
2704 Clear 21 1005 72 10000 1.03 0 17:39 11.04.2022
2705 Rain 18 1006 80 10000 2.06 220 16:36 11.04.2022
2706 Rain 17 1008 92 8000 3.6 0 14:59 11.04.2022
2707 Rain 17 1010 96 10000 0.45 135 13:36 11.04.2022
2708 Rain 18 1007 97 10000 1.54 250 12:39 11.04.2022
2709 Clear 17 1007 97 10000 1.54 250 12:20 11.04.2022
2710 Clouds 18 1006 97 10000 1.54 260 10:37 11.04.2022
2711 Clear 18 1006 94 10000 1.03 0 09:49 11.04.2022
2712 Thunderstorm 18 1006 95 5000 9.77 100 07:58 11.04.2022
2713 Rain 21 1010 87 8000 1.03 0 04:18 11.04.2022
2714 Clouds 23 1009 76 10000 3.09 100 23:27 10.04.2022
2715 Clouds 24 1009 76 10000 5.66 110 22:26 10.04.2022
2716 Clouds 25 1010 66 10000 5.66 110 21:43 10.04.2022
2717 Clouds 25 1010 63 10000 4.63 100 20:50 10.04.2022
2718 Clouds 25 1010 66 10000 4.12 100 19:54 10.04.2022
2719 Clouds 25 1010 67 10000 4.12 100 19:33 10.04.2022
2720 Clouds 24 1011 69 10000 2.06 70 18:46 10.04.2022
2721 Clear 25 1012 65 10000 2.65 39 18:20 10.04.2022
2722 Clear 25 1013 66 10000 0.89 225 17:41 10.04.2022
2723 Clear 24 1012 70 10000 3.52 28 16:47 10.04.2022
2724 Clear 23 1013 73 10000 4.11 20 15:37 10.04.2022
2725 Clouds 22 1013 82 10000 2.06 20 14:34 10.04.2022
2726 Clouds 19 1013 92 10000 2.06 10 12:41 10.04.2022
2727 Clouds 19 1013 92 10000 2.06 10 12:21 10.04.2022
2728 Clear 19 1012 90 10000 1.03 0 11:29 10.04.2022
2729 Clouds 19 1012 92 10000 2.57 80 10:57 10.04.2022
2730 Clouds 19 1012 92 10000 2.57 80 10:20 10.04.2022
2731 Clouds 19 1012 93 10000 1.03 70 09:39 10.04.2022
2732 Clouds 19 1012 90 10000 2.57 80 08:24 10.04.2022
2733 Clear 20 1013 89 10000 4.12 70 07:42 10.04.2022
2734 Clear 19 1013 89 10000 3.57 68 05:57 10.04.2022
2735 Clouds 20 1014 91 10000 7.72 100 02:34 10.04.2022
2736 Clear 20 1014 86 10000 4.63 110 00:29 10.04.2022
2737 Clear 21 1013 80 10000 5.14 110 23:49 09.04.2022
2738 Clear 22 1013 75 10000 5.14 100 22:48 09.04.2022
2739 Clear 23 1014 71 10000 3.6 90 21:35 09.04.2022
2740 Clear 23 1014 70 10000 4.12 80 20:49 09.04.2022
2741 Clear 23 1014 70 10000 4.12 80 20:26 09.04.2022
2742 Clear 24 1013 65 10000 2.76 87 19:42 09.04.2022
2743 Clear 24 1014 64 10000 2.56 80 18:59 09.04.2022
2744 Clear 23 1015 68 10000 2.42 72 18:20 09.04.2022
2745 Clouds 23 1016 74 10000 2.06 70 17:39 09.04.2022
2746 Clouds 21 1017 78 10000 2.57 60 16:52 09.04.2022
2747 Clouds 21 1017 79 10000 2.57 70 15:55 09.04.2022
2748 Clouds 20 1017 80 10000 2.57 70 15:30 09.04.2022
2749 Clouds 19 1017 84 10000 2.57 80 14:44 09.04.2022
2750 Clouds 19 1017 87 10000 2.57 80 14:22 09.04.2022
2751 Clouds 18 1016 90 10000 2.57 80 13:18 09.04.2022
2752 Clouds 18 1016 93 10000 2.06 70 12:41 09.04.2022
2753 Clouds 18 1017 93 10000 3.09 110 11:22 09.04.2022
2754 Clouds 18 1016 93 10000 3.6 120 10:21 09.04.2022
2755 Clouds 18 1016 94 8000 3.09 120 09:37 09.04.2022
2756 Clouds 18 1016 95 10000 2.06 150 08:53 09.04.2022
2757 Clouds 18 1016 94 10000 2.06 140 06:56 09.04.2022
2758 Clouds 19 1016 88 10000 4.63 120 01:32 09.04.2022
2759 Clouds 21 1015 82 10000 5.14 100 23:30 08.04.2022
2760 Clear 22 1015 70 10000 4.12 80 21:58 08.04.2022
2761 Clear 24 1014 64 10000 3.6 94 20:48 08.04.2022
2762 Clouds 23 1015 70 10000 5.66 110 20:23 08.04.2022
2763 Clear 24 1015 64 10000 3.1 94 19:20 08.04.2022
2764 Clouds 22 1016 74 10000 5.66 100 18:29 08.04.2022
2765 Clouds 22 1017 74 10000 6.17 100 17:46 08.04.2022
2766 Clouds 22 1017 75 10000 6.17 100 17:22 08.04.2022
2767 Clouds 22 1017 76 10000 4.12 100 16:47 08.04.2022
2768 Clouds 21 1017 80 10000 4.63 100 15:56 08.04.2022
2769 Clouds 21 1017 84 10000 4.63 100 15:25 08.04.2022
2770 Clouds 19 1017 87 10000 4.63 110 14:26 08.04.2022
2771 Clouds 19 1017 91 10000 4.63 100 13:44 08.04.2022
2772 Clouds 19 1017 92 10000 4.63 100 13:25 08.04.2022
2773 Clouds 19 1016 93 8000 6.17 100 11:53 08.04.2022
2774 Clouds 18 1015 89 7000 4.63 130 10:32 08.04.2022
2775 Clouds 18 1015 92 7000 5.66 130 09:26 08.04.2022
2776 Clouds 18 1016 92 7000 4.12 130 08:30 08.04.2022
2777 Clouds 19 1016 94 7000 6.69 110 06:47 08.04.2022
2778 Clouds 19 1016 94 7000 6.69 110 06:47 08.04.2022
2779 Clear 19 1016 91 8000 4.12 120 04:34 08.04.2022
2780 Clear 21 1016 74 10000 5.58 101 00:42 08.04.2022
2781 Clear 22 1016 72 10000 0.45 90 00:19 08.04.2022
2782 Clear 23 1014 66 10000 5.14 110 22:58 07.04.2022
2783 Clear 23 1014 65 10000 5.14 110 22:37 07.04.2022
2784 Clear 24 1014 63 10000 5.14 110 22:19 07.04.2022
2785 Clear 24 1015 64 10000 2.57 110 21:49 07.04.2022
2786 Clouds 25 1015 64 10000 3.09 80 20:58 07.04.2022
2787 Clouds 25 1015 61 10000 3.09 80 20:30 07.04.2022
2788 Clouds 23 1015 74 10000 3.6 100 17:57 07.04.2022
2789 Clouds 23 1015 76 10000 3.6 100 17:24 07.04.2022
2790 Clear 24 1015 72 10000 2.55 79 16:43 07.04.2022
2791 Rain 23 1016 76 10000 3.09 70 16:20 07.04.2022
2792 Clear 22 1016 86 9000 1.54 120 14:36 07.04.2022
2793 Clouds 20 1015 91 8000 1.03 0 13:42 07.04.2022
2794 Fog 17 1015 93 10000 1.03 0 12:40 07.04.2022
2795 Fog 17 1014 95 10000 1.03 0 10:58 07.04.2022
2796 Fog 18 1014 96 10000 0 0 09:36 07.04.2022
2797 Fog 18 1014 94 10000 0 0 08:37 07.04.2022
2798 Clear 19 1014 89 10000 0 0 06:42 07.04.2022
2799 Clear 20 1014 87 10000 2.57 110 02:43 07.04.2022
2800 Clear 21 1014 81 10000 1.03 0 01:52 07.04.2022
2801 Clear 23 1013 70 10000 2.06 50 23:56 06.04.2022
2802 Clouds 25 1013 61 10000 2.06 50 22:46 06.04.2022
2803 Clouds 25 1013 58 10000 2.06 50 22:24 06.04.2022
2804 Clouds 25 1013 58 10000 2.06 30 21:31 06.04.2022
2805 Clouds 24 1013 65 10000 2.57 40 20:27 06.04.2022
2806 Clouds 24 1014 67 10000 3.09 40 19:53 06.04.2022
2807 Clouds 24 1015 67 10000 2.57 40 18:50 06.04.2022
2808 Clouds 23 1015 66 10000 2.57 40 17:52 06.04.2022
2809 Clear 25 1015 55 10000 3.23 360 17:28 06.04.2022
2810 Clear 24 1015 58 10000 3.23 360 16:35 06.04.2022
2811 Clear 22 1016 68 10000 3.09 350 15:47 06.04.2022
2812 Clear 19 1016 82 10000 3.09 330 14:23 06.04.2022
2813 Clear 14 1016 94 10000 1.54 300 12:58 06.04.2022
2814 Clear 15 1016 90 10000 1.54 290 11:54 06.04.2022
2815 Clear 15 1015 88 10000 1.03 0 10:43 06.04.2022
2816 Clear 15 1015 88 10000 1.03 0 10:19 06.04.2022
2817 Clear 15 1015 88 10000 1.54 290 09:27 06.04.2022
2818 Clear 15 1015 87 10000 1.54 300 08:26 06.04.2022
2819 Clear 16 1015 84 10000 1.03 0 07:37 06.04.2022
2820 Clear 18 1015 67 10000 2.57 330 02:19 06.04.2022
2821 Clear 21 1015 50 10000 2.06 20 23:51 05.04.2022
2822 Clear 23 1015 45 10000 2.06 40 22:28 05.04.2022
2823 Clear 22 1015 46 10000 2.57 50 21:18 05.04.2022
2824 Clear 22 1015 46 10000 2.57 50 21:18 05.04.2022
2825 Clear 22 1016 49 10000 2.57 50 20:25 05.04.2022
2826 Clear 21 1017 48 10000 3.09 10 18:56 05.04.2022
2827 Clear 21 1018 46 10000 2.57 10 17:31 05.04.2022
2828 Clear 20 1018 51 10000 2.57 350 16:47 05.04.2022
2829 Clear 19 1018 50 10000 3.09 320 15:52 05.04.2022
2830 Clear 19 1019 50 10000 3.09 320 15:33 05.04.2022
2831 Clear 17 1018 58 10000 2.57 330 14:18 05.04.2022
2832 Clear 12 1018 69 10000 1.03 0 12:55 05.04.2022
2833 Clear 12 1018 69 10000 1.03 0 11:49 05.04.2022
2834 Clear 12 1017 68 10000 1.03 0 11:31 05.04.2022
2835 Clear 12 1017 69 10000 1.03 240 09:41 05.04.2022
2836 Clear 12 1017 69 10000 0.51 0 08:52 05.04.2022
2837 Clear 14 1018 66 10000 1.54 300 05:28 05.04.2022
2838 Clear 18 1017 38 10000 3.09 20 23:51 04.04.2022
2839 Clear 19 1016 35 10000 3.09 30 22:41 04.04.2022
2840 Clear 20 1017 38 10000 3.6 10 21:52 04.04.2022
2841 Clear 20 1017 39 10000 3.6 10 21:21 04.04.2022
2842 Clear 20 1017 37 10000 3.09 20 20:48 04.04.2022
2843 Clear 20 1018 33 10000 3.09 30 19:39 04.04.2022
2844 Clear 21 1018 28 10000 3.6 40 18:59 04.04.2022
2845 Clear 19 1018 28 10000 2.06 0 17:39 04.04.2022
2846 Clear 18 1018 31 10000 2.57 180 16:36 04.04.2022
2847 Clear 18 1019 35 10000 1.03 0 15:34 04.04.2022
2848 Clear 16 1018 43 10000 1.03 0 14:49 04.04.2022
2849 Clear 15 1018 46 10000 1.03 0 14:31 04.04.2022
2850 Clear 12 1018 63 10000 0.51 0 13:18 04.04.2022
2851 Clear 11 1017 63 10000 1.03 0 11:29 04.04.2022
2852 Clear 11 1017 60 10000 2.06 190 10:49 04.04.2022
2853 Clouds 13 1017 58 10000 2.57 190 07:46 04.04.2022
2854 Clouds 13 1017 58 10000 2.57 190 07:46 04.04.2022
2855 Clouds 18 1016 89 10000 1.03 0 03:19 04.04.2022
2856 Drizzle 18 1014 95 8000 1.54 350 00:25 04.04.2022
2857 Drizzle 20 1013 88 4500 4.12 330 22:31 03.04.2022
2858 Clouds 21 1012 79 10000 6.17 330 21:37 03.04.2022
2859 Clouds 22 1012 70 10000 4.12 340 20:40 03.04.2022
2860 Clouds 23 1013 64 10000 4.12 330 19:45 03.04.2022
2861 Clouds 22 1013 70 10000 3.6 30 18:29 03.04.2022
2862 Clear 21 1014 73 10000 3.09 30 17:44 03.04.2022
2863 Clear 21 1014 69 10000 4.12 360 16:50 03.04.2022
2864 Clear 21 1014 70 10000 4.12 360 16:21 03.04.2022
2865 Clear 19 1014 73 10000 4.12 340 14:28 03.04.2022
2866 Clear 18 1014 77 10000 5.14 360 13:45 03.04.2022
2867 Clear 17 1013 83 10000 3.6 350 12:19 03.04.2022
2868 Clear 17 1013 81 10000 4.12 360 10:54 03.04.2022
2869 Clear 17 1014 77 10000 3.6 20 09:23 03.04.2022
2870 Clear 18 1015 72 10000 3.09 40 07:24 03.04.2022
2871 Clear 18 1016 63 10000 4.12 40 03:46 03.04.2022
2872 Clear 19 1017 58 10000 4.63 10 00:41 03.04.2022
2873 Clouds 21 1017 51 10000 3.6 40 22:54 02.04.2022
2874 Clouds 21 1018 51 10000 4.12 40 21:57 02.04.2022
2875 Clouds 21 1018 51 10000 4.12 40 21:33 02.04.2022
2876 Clouds 21 1019 52 10000 3.6 30 20:51 02.04.2022
2877 Clouds 21 1020 57 10000 4.63 10 19:28 02.04.2022
2878 Clouds 21 1021 58 10000 5.66 360 18:20 02.04.2022
2879 Clouds 20 1022 60 10000 6.17 360 17:47 02.04.2022
2880 Clear 18 1023 65 10000 6.17 360 16:22 02.04.2022
2881 Clear 17 1023 70 10000 6.17 10 15:21 02.04.2022
2882 Clear 17 1023 74 10000 5.14 10 14:43 02.04.2022
2883 Clear 16 1023 76 10000 7.2 10 13:34 02.04.2022
2884 Clear 14 1023 80 10000 6.17 10 12:37 02.04.2022
2885 Clear 14 1023 84 10000 3.09 50 10:56 02.04.2022
2886 Clear 14 1024 82 10000 3.09 40 08:44 02.04.2022
2887 Clear 15 1024 81 10000 4.63 60 06:49 02.04.2022
2888 Clear 16 1025 74 10000 4.63 80 03:39 02.04.2022
2889 Clear 17 1024 54 10000 3.09 70 23:55 01.04.2022
2890 Clear 18 1024 47 10000 3.09 70 23:18 01.04.2022
2891 Clear 19 1025 48 10000 3.09 60 21:32 01.04.2022
2892 Clouds 18 1025 48 10000 3.6 60 20:50 01.04.2022
2893 Clouds 19 1026 47 10000 3.09 50 19:51 01.04.2022
2894 Clear 19 1025 45 10000 2.79 53 19:30 01.04.2022
2895 Clear 19 1026 45 10000 2.96 41 18:44 01.04.2022
2896 Clear 19 1027 42 10000 2.98 27 17:46 01.04.2022
2897 Clear 18 1028 48 10000 3.09 360 16:42 01.04.2022
2898 Clear 16 1028 54 10000 2.06 10 15:23 01.04.2022
2899 Clear 15 1028 57 10000 2.06 350 14:19 01.04.2022
2900 Clear 13 1028 62 10000 1.03 0 13:33 01.04.2022
2901 Clear 11 1028 73 10000 0 0 12:32 01.04.2022
2902 Clear 11 1027 74 10000 1.03 300 11:33 01.04.2022
2903 Clear 11 1027 68 10000 0.51 0 10:18 01.04.2022
2904 Clear 12 1027 70 10000 0 0 07:59 01.04.2022
2905 Clear 12 1027 65 10000 1.03 260 06:31 01.04.2022
2906 Clear 13 1026 63 10000 1.03 0 04:45 01.04.2022
2907 Clear 13 1026 60 10000 1.03 300 03:41 01.04.2022
2908 Clear 15 1025 55 10000 1.03 0 01:54 01.04.2022
2909 Clear 18 1024 34 10000 2.57 0 22:58 31.03.2022
2910 Clear 19 1024 33 10000 1.03 0 21:50 31.03.2022
2911 Clear 18 1024 32 10000 1.03 0 21:31 31.03.2022
2912 Clear 18 1024 31 10000 2.57 0 20:28 31.03.2022
2913 Clear 18 1024 32 10000 2.57 0 19:46 31.03.2022
2914 Clear 17 1025 33 10000 2.57 0 18:38 31.03.2022
2915 Clear 17 1025 35 10000 2.57 210 17:33 31.03.2022
2916 Clear 15 1026 42 10000 2.57 230 16:18 31.03.2022
2917 Clear 14 1025 45 10000 2.57 0 15:33 31.03.2022
2918 Clear 13 1026 52 10000 1.54 0 14:52 31.03.2022
2919 Clear 12 1025 57 10000 1.54 0 14:19 31.03.2022
2920 Clear 9 1023 70 10000 1.03 0 11:32 31.03.2022
2921 Clear 9 1023 70 10000 1.03 230 10:41 31.03.2022
2922 Clear 9 1023 69 10000 1.03 0 09:43 31.03.2022
2923 Clear 10 1022 64 10000 1.54 240 07:49 31.03.2022
2924 Clear 12 1021 55 10000 2.06 230 03:57 31.03.2022
2925 Clear 15 1018 40 10000 4.12 240 23:27 30.03.2022
2926 Clear 16 1018 37 10000 4.12 240 22:20 30.03.2022
2927 Clear 16 1018 41 10000 4.12 210 21:32 30.03.2022
2928 Clear 16 1017 41 10000 4.63 230 20:44 30.03.2022
2929 Clear 16 1018 43 10000 4.12 240 19:54 30.03.2022
2930 Clear 16 1018 42 10000 4.12 230 18:50 30.03.2022
2931 Clear 15 1018 42 10000 4.63 220 17:52 30.03.2022
2932 Clear 15 1018 42 10000 4.63 220 17:29 30.03.2022
2933 Clear 14 1018 44 10000 3.6 220 16:41 30.03.2022
2934 Clear 14 1018 44 10000 3.6 220 16:18 30.03.2022
2935 Clear 11 1017 50 10000 3.6 240 14:42 30.03.2022
2936 Clear 10 1016 57 10000 3.6 230 13:23 30.03.2022
2937 Clear 9 1016 59 10000 3.6 240 12:32 30.03.2022
2938 Clear 10 1014 59 10000 4.12 0 10:48 30.03.2022
2939 Clear 10 1015 60 10000 3.6 0 09:58 30.03.2022
2940 Clear 11 1015 57 10000 4.12 210 08:27 30.03.2022
2941 Clear 12 1015 54 10000 3.6 0 07:28 30.03.2022
2942 Clear 15 1014 40 10000 3.6 0 05:40 30.03.2022
2943 Clear 19 1011 37 10000 3.6 220 02:32 30.03.2022
2944 Clouds 21 1005 56 9000 3.09 210 22:42 29.03.2022
2945 Clouds 23 1004 58 10000 6.17 190 21:49 29.03.2022
2946 Clouds 22 1003 58 10000 6.17 190 21:28 29.03.2022
2947 Clouds 25 1004 68 10000 4.63 340 20:25 29.03.2022
2948 Clear 28 1004 55 10000 5.66 310 19:31 29.03.2022
2949 Clear 27 1005 56 10000 3.59 285 18:53 29.03.2022
2950 Clear 27 1005 59 10000 4.63 340 17:48 29.03.2022
2951 Clear 27 1006 55 10000 4.04 331 17:18 29.03.2022
2952 Clear 26 1006 60 10000 3.09 360 16:52 29.03.2022
2953 Clear 23 1007 68 10000 4.63 330 15:20 29.03.2022
2954 Clear 22 1007 73 10000 3.6 330 14:43 29.03.2022
2955 Clear 20 1007 77 10000 4.63 340 13:33 29.03.2022
2956 Clear 20 1007 79 10000 4.12 340 11:58 29.03.2022
2957 Clear 20 1008 80 10000 3.6 340 10:59 29.03.2022
2958 Clear 20 1009 80 10000 2.57 330 09:50 29.03.2022
2959 Clear 21 1009 76 10000 3.6 330 08:32 29.03.2022
2960 Clear 21 1010 75 10000 2.57 310 05:44 29.03.2022
2961 Clear 23 1011 75 10000 2.57 350 01:31 29.03.2022
2962 Clear 25 1011 63 10000 2.57 360 23:26 28.03.2022
2963 Clear 26 1011 59 10000 2.57 10 22:55 28.03.2022
2964 Clear 26 1011 57 10000 2.57 10 22:30 28.03.2022
2965 Clear 27 1012 52 10000 4.06 3 21:18 28.03.2022
2966 Clear 27 1012 50 10000 4.06 3 20:32 28.03.2022
2967 Clouds 27 1012 52 10000 4.12 9 19:46 28.03.2022
2968 Clouds 26 1013 54 10000 4.01 15 19:28 28.03.2022
2969 Clouds 26 1013 54 10000 4.01 15 18:40 28.03.2022
2970 Clouds 25 1014 56 10000 4.21 17 17:39 28.03.2022
2971 Clear 24 1015 59 10000 4.59 16 16:38 28.03.2022
2972 Clear 22 1017 68 10000 2.06 350 14:49 28.03.2022
2973 Clear 20 1017 71 10000 2.06 350 14:22 28.03.2022
2974 Clear 17 1017 86 10000 2.06 330 12:41 28.03.2022
2975 Clear 17 1016 84 10000 1.54 330 11:32 28.03.2022
2976 Clear 18 1016 80 10000 2.57 330 09:43 28.03.2022
2977 Rain 18 1016 80 10000 2.57 330 09:19 28.03.2022
2978 Clear 18 1016 81 10000 1.54 320 08:22 28.03.2022
2979 Clear 19 1016 81 10000 1.54 310 07:34 28.03.2022
2980 Clear 20 1015 74 10000 2.06 330 03:52 28.03.2022
2981 Clear 27 1013 42 10000 2.57 290 23:30 27.03.2022
2982 Clear 28 1012 41 10000 3.6 280 22:24 27.03.2022
2983 Clear 28 1012 40 10000 3.09 290 21:42 27.03.2022
2984 Clear 28 1012 38 10000 4.12 290 20:57 27.03.2022
2985 Clear 27 1013 40 10000 2.57 0 19:49 27.03.2022
2986 Clear 27 1013 40 10000 2.57 0 19:24 27.03.2022
2987 Clear 26 1013 43 10000 3.09 280 18:27 27.03.2022
2988 Clear 25 1013 45 10000 3.09 280 17:39 27.03.2022
2989 Clear 23 1014 51 10000 4.12 290 16:28 27.03.2022
2990 Clear 21 1014 64 10000 3.6 300 15:21 27.03.2022
2991 Clear 17 1013 90 10000 1.03 0 13:55 27.03.2022
2992 Clear 14 1012 97 10000 0.51 0 12:31 27.03.2022
2993 Clouds 15 1011 95 7000 1.54 310 10:57 27.03.2022
2994 Fog 15 1010 93 7000 1.03 0 08:51 27.03.2022
2995 Clear 17 1009 87 9000 1.03 0 05:54 27.03.2022
2996 Clear 19 1008 80 10000 1.54 270 00:48 27.03.2022
2997 Clouds 20 1008 73 10000 2.57 250 23:40 26.03.2022
2998 Clouds 22 1007 69 10000 3.09 250 22:36 26.03.2022
2999 Clouds 22 1007 65 10000 3.6 0 21:33 26.03.2022
3000 Clouds 23 1007 59 10000 3.6 240 20:20 26.03.2022
3001 Clouds 22 1007 61 10000 3.09 240 19:21 26.03.2022
3002 Clouds 21 1008 69 10000 3.6 240 17:51 26.03.2022
3003 Clouds 20 1008 70 10000 3.6 240 17:30 26.03.2022
3004 Clouds 19 1009 76 10000 3.09 230 16:25 26.03.2022
3005 Clouds 19 1009 81 10000 3.09 230 14:51 26.03.2022
3006 Clouds 18 1008 82 10000 3.09 240 13:52 26.03.2022
3007 Clouds 17 1008 87 10000 3.6 0 12:44 26.03.2022
3008 Clouds 17 1008 88 10000 3.09 230 11:29 26.03.2022
3009 Clouds 17 1007 89 10000 2.57 240 09:23 26.03.2022
3010 Clouds 17 1006 91 10000 2.57 0 08:28 26.03.2022
3011 Drizzle 17 1007 95 4000 2.06 220 05:54 26.03.2022
3012 Clouds 17 1006 87 10000 1.03 0 03:58 26.03.2022
3013 Clouds 18 1005 85 10000 0.89 180 23:39 25.03.2022
3014 Clouds 21 1001 78 10000 4.12 250 21:28 25.03.2022
3015 Clouds 20 1000 88 10000 4.12 250 20:45 25.03.2022
3016 Drizzle 19 1001 90 4000 4.12 230 19:28 25.03.2022
3017 Drizzle 18 1001 93 1500 4.12 260 18:46 25.03.2022
3018 Drizzle 18 1001 93 1500 4.12 260 18:46 25.03.2022
3019 Drizzle 18 1002 95 5000 4.12 270 17:35 25.03.2022
3020 Drizzle 18 1002 95 5000 4.12 270 17:35 25.03.2022
3021 Drizzle 17 1002 92 5000 4.12 280 16:41 25.03.2022
3022 Drizzle 16 1002 94 4000 4.63 290 15:52 25.03.2022
3023 Clouds 12 1003 88 10000 4.12 290 13:51 25.03.2022
3024 Clear 11 1003 88 10000 2.57 270 12:20 25.03.2022
3025 Clear 10 1004 90 10000 3.09 0 09:47 25.03.2022
3026 Clear 10 1004 90 10000 3.09 0 09:19 25.03.2022
3027 Clouds 10 1003 92 10000 2.57 0 07:48 25.03.2022
3028 Clouds 10 1003 92 10000 2.57 0 07:21 25.03.2022
3029 Rain 12 1000 97 6000 3.09 200 04:35 25.03.2022
3030 Rain 11 999 90 9000 10.29 330 23:55 24.03.2022
3031 Clouds 12 1001 79 10000 10.29 330 22:24 24.03.2022
3032 Rain 14 1001 70 10000 9.26 320 21:29 24.03.2022
3033 Clouds 14 1002 69 10000 9.26 310 19:50 24.03.2022
3034 Clouds 16 1003 64 10000 8.75 300 18:46 24.03.2022
3035 Clouds 17 1002 61 10000 10.29 300 17:38 24.03.2022
3036 Clouds 17 1002 58 10000 10.29 310 16:41 24.03.2022
3037 Clouds 16 1003 71 10000 7.72 300 14:58 24.03.2022
3038 Clouds 16 1003 72 10000 7.72 300 14:39 24.03.2022
3039 Clouds 15 1003 79 10000 4.63 290 13:36 24.03.2022
3040 Clouds 15 1002 86 10000 6.17 290 12:35 24.03.2022
3041 Clouds 15 1001 91 10000 5.14 280 11:31 24.03.2022
3042 Clouds 16 1001 94 10000 6.17 300 09:34 24.03.2022
3043 Rain 17 1001 94 8000 6.17 300 08:39 24.03.2022
3044 Rain 20 1000 94 6283 2.24 315 05:45 24.03.2022
3045 Clouds 22 1004 88 10000 4.63 120 00:47 24.03.2022
3046 Clouds 24 1003 84 10000 6.17 100 22:23 23.03.2022
3047 Clouds 24 1003 79 10000 5.66 110 21:24 23.03.2022
3048 Clouds 24 1004 81 10000 6.17 110 20:45 23.03.2022
3049 Clouds 25 1005 77 10000 3.09 90 19:33 23.03.2022
3050 Clouds 25 1006 75 10000 2.57 80 18:18 23.03.2022
3051 Clouds 23 1006 84 10000 3.09 70 17:25 23.03.2022
3052 Clouds 24 1008 78 10000 2.57 30 15:56 23.03.2022
3053 Clouds 23 1008 82 10000 3.6 10 14:48 23.03.2022
3054 Clouds 22 1009 87 10000 3.09 10 13:34 23.03.2022
3055 Clouds 20 1009 96 10000 4.12 340 11:33 23.03.2022
3056 Clouds 20 1009 93 10000 4.12 360 08:41 23.03.2022
3057 Clouds 20 1010 92 10000 2.06 350 05:50 23.03.2022
3058 Clouds 21 1011 91 9000 3.6 70 02:50 23.03.2022
3059 Clouds 22 1011 88 10000 2.57 80 00:26 23.03.2022
3060 Clouds 22 1011 81 10000 2.06 40 21:52 22.03.2022
3061 Clouds 23 1011 80 10000 2.06 40 21:23 22.03.2022
3062 Clouds 23 1011 78 10000 2.06 40 20:23 22.03.2022
3063 Clouds 24 1011 68 10000 4.84 12 19:27 22.03.2022
3064 Clouds 23 1012 77 10000 2.06 10 18:48 22.03.2022
3065 Clouds 22 1012 78 10000 3.09 340 17:43 22.03.2022
3066 Clouds 21 1013 84 10000 5.14 350 16:39 22.03.2022
3067 Clouds 21 1014 86 10000 5.14 360 15:41 22.03.2022
3068 Clouds 20 1014 87 10000 5.14 360 15:20 22.03.2022
3069 Clouds 20 1014 89 10000 4.12 10 14:42 22.03.2022
3070 Clouds 19 1015 90 10000 5.14 360 13:42 22.03.2022
3071 Clouds 18 1014 93 10000 5.14 40 11:53 22.03.2022
3072 Clouds 18 1014 93 10000 5.14 30 10:54 22.03.2022
3073 Clouds 18 1014 92 9000 3.6 0 09:21 22.03.2022
3074 Rain 18 1016 94 10000 0.45 68 07:30 22.03.2022
3075 Rain 21 1016 74 10000 5.66 120 03:55 22.03.2022
3076 Clear 21 1015 69 10000 5.14 100 00:46 22.03.2022
3077 Clear 21 1016 67 10000 5.14 110 22:46 21.03.2022
3078 Clear 22 1016 62 10000 4.63 90 21:25 21.03.2022
3079 Clear 21 1017 63 10000 3.6 60 20:43 21.03.2022
3080 Rain 22 1017 60 10000 3.6 60 20:23 21.03.2022
3081 Clouds 21 1018 62 10000 4.63 60 19:35 21.03.2022
3082 Clouds 21 1018 62 10000 4.63 60 19:35 21.03.2022
3083 Clouds 21 1018 62 10000 4.63 60 19:35 21.03.2022
3084 Clouds 20 1019 62 10000 4.12 50 18:47 21.03.2022
3085 Clouds 20 1020 61 10000 4.63 40 17:35 21.03.2022
3086 Clouds 20 1021 61 10000 5.14 40 16:59 21.03.2022
3087 Clouds 20 1021 61 10000 5.14 40 16:26 21.03.2022
3088 Clear 19 1022 68 10000 5.66 50 15:37 21.03.2022
3089 Clear 17 1023 71 10000 6.17 60 14:29 21.03.2022
3090 Clouds 16 1023 75 10000 5.14 60 12:58 21.03.2022
3091 Clouds 16 1023 76 9000 6.17 60 11:57 21.03.2022
3092 Clouds 16 1023 79 10000 6.69 60 10:59 21.03.2022
3093 Clouds 16 1023 77 10000 7.2 60 09:42 21.03.2022
3094 Clear 16 1023 72 10000 8.75 60 07:22 21.03.2022
3095 Clear 17 1024 52 10000 9.26 60 04:54 21.03.2022
3096 Clear 17 1024 62 10000 9.26 100 00:36 21.03.2022
3097 Clouds 18 1024 66 10000 8.75 110 22:56 20.03.2022
3098 Clouds 18 1024 66 10000 8.75 110 22:22 20.03.2022
3099 Clear 20 1025 61 10000 8.75 100 21:31 20.03.2022
3100 Clouds 20 1025 60 10000 7.72 100 20:48 20.03.2022
3101 Clouds 20 1025 59 10000 7.72 100 20:25 20.03.2022
3102 Clouds 21 1025 58 10000 6.17 90 19:43 20.03.2022
3103 Clouds 20 1026 56 10000 5.14 70 18:48 20.03.2022
3104 Clouds 20 1026 53 10000 4.63 80 17:38 20.03.2022
3105 Clouds 20 1027 54 10000 3.6 70 16:59 20.03.2022
3106 Clouds 19 1027 58 10000 3.09 70 15:56 20.03.2022
3107 Clouds 19 1027 58 10000 2.57 30 14:36 20.03.2022
3108 Clouds 17 1027 72 10000 4.12 120 13:20 20.03.2022
3109 Clouds 14 1027 71 9000 1.54 190 11:37 20.03.2022
3110 Clouds 13 1026 72 8000 1.54 200 09:57 20.03.2022
3111 Clouds 15 1026 68 10000 2.06 40 07:51 20.03.2022
3112 Clear 16 1026 65 10000 2.57 60 05:49 20.03.2022
3113 Clear 16 1025 59 10000 1.03 0 02:53 20.03.2022
3114 Clear 17 1024 53 10000 2.06 140 00:48 20.03.2022
3115 Clear 17 1024 49 10000 2.06 90 23:21 19.03.2022
3116 Clear 19 1024 42 10000 4.12 70 21:41 19.03.2022
3117 Clear 19 1024 41 10000 4.12 70 21:18 19.03.2022
3118 Clear 20 1024 37 10000 4.63 70 19:21 19.03.2022
3119 Clear 19 1024 38 10000 4.63 80 18:25 19.03.2022
3120 Clear 19 1025 37 10000 5.14 100 17:41 19.03.2022
3121 Clear 17 1025 38 10000 3.09 0 16:24 19.03.2022
3122 Clear 16 1026 42 10000 3.6 160 15:20 19.03.2022
3123 Clear 13 1025 53 10000 2.57 150 13:35 19.03.2022
3124 Clear 12 1025 62 10000 1.03 0 12:41 19.03.2022
3125 Clear 11 1025 67 10000 1.54 170 11:54 19.03.2022
3126 Clear 11 1025 68 10000 1.54 170 11:25 19.03.2022
3127 Clear 12 1024 65 10000 3.6 160 07:59 19.03.2022
3128 Clear 14 1024 68 10000 3.09 160 03:53 19.03.2022
3129 Clear 15 1023 70 10000 3.6 150 02:30 19.03.2022
3130 Clouds 17 1020 56 10000 3.6 170 23:46 18.03.2022
3131 Clouds 18 1020 51 10000 3.09 170 22:29 18.03.2022
3132 Clouds 19 1020 52 10000 3.6 0 21:55 18.03.2022
3133 Clouds 18 1019 62 10000 6.17 150 19:54 18.03.2022
3134 Clouds 18 1019 63 10000 6.17 150 19:22 18.03.2022
3135 Rain 17 1019 71 10000 4.12 170 18:18 18.03.2022
3136 Rain 15 1019 88 7000 6.69 140 16:51 18.03.2022
3137 Rain 14 1019 91 3000 4.12 160 15:32 18.03.2022
3138 Rain 15 1020 92 3000 2.06 170 14:23 18.03.2022
3139 Rain 16 1016 91 7000 5.66 160 12:38 18.03.2022
3140 Rain 17 1015 93 5000 4.63 160 10:58 18.03.2022
3141 Rain 17 1014 93 9000 2.57 170 09:30 18.03.2022
3142 Clouds 17 1013 96 10000 5.14 160 08:42 18.03.2022
3143 Rain 19 1013 78 8000 5.66 160 06:37 18.03.2022
3144 Clear 25 1009 80 10000 0.51 0 03:19 18.03.2022
3145 Clear 26 1008 72 10000 1.03 0 00:39 18.03.2022
3146 Clear 27 1008 69 10000 1.03 0 23:38 17.03.2022
3147 Clear 27 1007 70 10000 2.06 20 22:25 17.03.2022
3148 Clear 28 1007 67 10000 2.06 40 21:48 17.03.2022
3149 Clouds 29 1007 61 10000 1.44 50 21:23 17.03.2022
3150 Clouds 30 1007 57 10000 1.44 50 20:44 17.03.2022
3151 Clouds 31 1007 51 10000 1.23 44 19:48 17.03.2022
3152 Clouds 30 1007 55 10000 1.52 11 18:59 17.03.2022
3153 Clouds 31 1007 47 10000 1.52 11 18:39 17.03.2022
3154 Clouds 30 1008 52 10000 1.95 359 16:49 17.03.2022
3155 Clouds 29 1009 55 10000 2.03 328 15:44 17.03.2022
3156 Clouds 28 1010 57 10000 2.81 335 15:24 17.03.2022
3157 Clear 25 1009 83 10000 2.57 350 14:28 17.03.2022
3158 Clear 24 1009 81 10000 1.54 320 12:51 17.03.2022
3159 Clear 22 1009 88 10000 1.54 320 12:22 17.03.2022
3160 Clear 21 1009 92 10000 3.09 330 11:27 17.03.2022
3161 Clear 22 1008 87 10000 2.57 330 09:57 17.03.2022
3162 Clouds 22 1008 85 10000 2.57 320 08:34 17.03.2022
3163 Clouds 22 1008 85 10000 2.57 320 08:34 17.03.2022
3164 Clouds 23 1009 84 10000 3.09 330 07:33 17.03.2022
3165 Clear 23 1009 79 10000 3.09 360 05:47 17.03.2022
3166 Clear 25 1010 63 10000 2.06 10 00:46 17.03.2022
3167 Clear 26 1010 56 10000 2.57 360 23:39 16.03.2022
3168 Clear 27 1010 48 10000 3.6 360 22:44 16.03.2022
3169 Clear 27 1010 46 10000 3.6 360 22:21 16.03.2022
3170 Clear 27 1010 52 10000 3.09 20 21:34 16.03.2022
3171 Clear 28 1012 50 10000 3.6 20 19:40 16.03.2022
3172 Clear 27 1012 51 10000 3.6 20 19:19 16.03.2022
3173 Clear 27 1013 52 10000 3.6 10 18:35 16.03.2022
3174 Clear 27 1014 53 10000 4.63 10 17:41 16.03.2022
3175 Clear 27 1013 50 10000 4.73 15 16:50 16.03.2022
3176 Clear 27 1016 51 10000 0.89 135 15:53 16.03.2022
3177 Clear 25 1015 60 10000 4.12 360 14:24 16.03.2022
3178 Clear 24 1015 72 10000 2.06 340 13:22 16.03.2022
3179 Clear 21 1015 81 10000 2.06 310 11:51 16.03.2022
3180 Clear 20 1015 82 10000 2.06 310 11:19 16.03.2022
3181 Clear 21 1014 78 10000 2.06 310 09:59 16.03.2022
3182 Clear 21 1014 77 10000 1.54 300 08:37 16.03.2022
3183 Clear 24 1015 71 10000 2.06 310 03:33 16.03.2022
3184 Clear 25 1014 67 10000 2.06 20 23:39 15.03.2022
3185 Clouds 27 1014 64 10000 2.57 50 22:37 15.03.2022
3186 Clouds 27 1014 60 10000 3.6 50 21:33 15.03.2022
3187 Clouds 29 1013 49 10000 4.33 21 19:47 15.03.2022
3188 Clouds 29 1014 47 10000 3.66 24 18:41 15.03.2022
3189 Clear 28 1016 51 10000 2.57 270 16:47 15.03.2022
3190 Clear 27 1016 52 10000 2.57 270 16:18 15.03.2022
3191 Clear 25 1016 56 10000 2.57 300 14:55 15.03.2022
3192 Clear 24 1016 58 10000 2.57 300 14:30 15.03.2022
3193 Clear 22 1016 61 10000 3.09 320 13:24 15.03.2022
3194 Clear 21 1015 69 10000 3.09 300 11:48 15.03.2022
3195 Clear 20 1015 71 10000 3.09 300 10:56 15.03.2022
3196 Clear 20 1014 71 10000 2.57 310 09:30 15.03.2022
3197 Clear 20 1014 70 10000 3.09 320 08:32 15.03.2022
3198 Clear 21 1014 70 10000 4.12 310 07:39 15.03.2022
3199 Clear 21 1014 72 10000 3.6 320 06:32 15.03.2022
3200 Clear 22 1014 70 10000 3.09 310 01:59 15.03.2022
3201 Clear 24 1013 67 10000 4.63 360 23:32 14.03.2022
3202 Clear 25 1012 64 10000 3.09 10 22:54 14.03.2022
3203 Clear 26 1012 59 10000 3.6 30 21:56 14.03.2022
3204 Clear 26 1012 58 10000 3.6 30 21:18 14.03.2022
3205 Clear 26 1013 56 10000 3.6 10 20:30 14.03.2022
3206 Clear 27 1014 51 10000 3.6 10 19:33 14.03.2022
3207 Clouds 26 1015 53 10000 4.12 360 17:59 14.03.2022
3208 Clouds 26 1015 53 10000 4.12 360 17:41 14.03.2022
3209 Clear 26 1015 52 10000 2.03 352 16:33 14.03.2022
3210 Clear 23 1016 55 10000 3.09 290 14:52 14.03.2022
3211 Clear 21 1016 61 10000 2.57 330 13:57 14.03.2022
3212 Clear 16 1017 84 10000 2.06 290 11:26 14.03.2022
3213 Clear 17 1016 87 10000 2.06 300 09:57 14.03.2022
3214 Clear 17 1016 86 10000 2.06 300 09:35 14.03.2022
3215 Clear 17 1015 84 10000 2.06 300 08:58 14.03.2022
3216 Clear 17 1015 84 10000 2.06 300 08:28 14.03.2022
3217 Clear 18 1016 77 10000 1.03 0 06:47 14.03.2022
3218 Clear 19 1018 62 10000 2.26 66 02:59 14.03.2022
3219 Clear 20 1017 58 10000 2.57 70 01:39 14.03.2022
3220 Clear 21 1016 60 10000 2.57 60 23:41 13.03.2022
3221 Clear 23 1017 57 10000 3.09 30 21:46 13.03.2022
3222 Clear 23 1017 55 10000 3.09 30 21:21 13.03.2022
3223 Clear 23 1017 55 10000 3.09 30 20:46 13.03.2022
3224 Clear 24 1017 53 10000 3.09 30 20:21 13.03.2022
3225 Clear 24 1018 53 10000 3.6 60 19:41 13.03.2022
3226 Clear 25 1017 48 10000 2.62 58 19:21 13.03.2022
3227 Clouds 24 1018 53 10000 3.6 50 18:41 13.03.2022
3228 Clouds 24 1018 54 10000 3.6 50 18:22 13.03.2022
3229 Clear 24 1019 52 10000 3.09 50 17:36 13.03.2022
3230 Clouds 23 1020 50 10000 2.57 40 16:44 13.03.2022
3231 Clear 23 1020 49 10000 1.3 73 16:21 13.03.2022
3232 Clouds 22 1020 56 10000 2.06 30 15:36 13.03.2022
3233 Clouds 21 1021 59 10000 2.57 60 14:20 13.03.2022
3234 Clear 19 1021 64 10000 1.03 0 13:27 13.03.2022
3235 Clear 18 1021 76 10000 1.03 0 12:20 13.03.2022
3236 Clear 16 1021 85 10000 0.51 0 11:36 13.03.2022
3237 Clear 16 1020 82 10000 2.06 90 10:48 13.03.2022
3238 Clear 16 1020 82 10000 2.06 90 10:25 13.03.2022
3239 Clear 16 1019 81 10000 2.57 70 09:41 13.03.2022
3240 Clear 17 1019 81 10000 3.09 70 08:47 13.03.2022
3241 Clear 17 1019 78 10000 3.09 80 07:57 13.03.2022
3242 Clear 18 1020 78 10000 4.12 70 05:55 13.03.2022
3243 Clouds 19 1020 71 10000 3.6 70 03:26 13.03.2022
3244 Clear 20 1018 58 10000 3.6 80 00:30 13.03.2022
3245 Clear 22 1018 53 10000 3.6 70 22:44 12.03.2022
3246 Clear 23 1018 49 10000 4.12 60 20:58 12.03.2022
3247 Clear 23 1018 49 10000 3.09 50 19:56 12.03.2022
3248 Clear 24 1018 49 10000 3.09 50 19:38 12.03.2022
3249 Clear 24 1019 47 10000 2.14 65 18:27 12.03.2022
3250 Clear 23 1019 44 10000 3.6 10 17:34 12.03.2022
3251 Clear 22 1019 44 10000 3.09 360 16:24 12.03.2022
3252 Clear 21 1020 46 10000 2.57 30 15:24 12.03.2022
3253 Clear 21 1020 49 10000 2.57 360 14:50 12.03.2022
3254 Clouds 20 1019 50 10000 0.51 0 13:47 12.03.2022
3255 Clouds 15 1019 85 7000 1.03 0 11:57 12.03.2022
3256 Clouds 15 1019 87 7000 1.03 0 11:38 12.03.2022
3257 Clear 14 1019 81 10000 1.03 0 10:58 12.03.2022
3258 Clear 14 1019 77 10000 1.03 180 09:45 12.03.2022
3259 Clear 15 1019 75 10000 1.54 200 08:56 12.03.2022
3260 Clear 16 1019 70 10000 1.54 210 07:27 12.03.2022
3261 Clear 18 1020 64 10000 1.03 0 03:36 12.03.2022
3262 Clear 20 1019 54 10000 0.45 45 23:56 11.03.2022
3263 Clear 20 1019 54 10000 0.45 45 23:56 11.03.2022
3264 Clear 20 1019 54 10000 0.45 45 23:56 11.03.2022
3265 Clear 21 1018 50 10000 3.09 190 23:18 11.03.2022
3266 Clear 21 1018 50 10000 3.09 190 23:18 11.03.2022
3267 Clear 22 1017 47 10000 2.57 0 21:35 11.03.2022
3268 Clear 23 1017 45 10000 3.6 200 20:55 11.03.2022
3269 Clear 23 1017 45 10000 3.6 200 20:34 11.03.2022
3270 Clouds 23 1017 46 10000 4.12 0 19:49 11.03.2022
3271 Clouds 23 1017 47 10000 4.12 0 19:22 11.03.2022
3272 Clouds 22 1018 52 10000 3.09 0 17:30 11.03.2022
3273 Clear 21 1018 55 10000 3.6 0 16:27 11.03.2022
3274 Clouds 21 1018 59 10000 3.6 280 15:53 11.03.2022
3275 Clear 20 1018 66 10000 2.57 280 14:19 11.03.2022
3276 Clear 18 1019 75 10000 2.06 290 12:44 11.03.2022
3277 Clear 17 1019 76 10000 2.06 290 12:21 11.03.2022
3278 Clear 17 1018 80 10000 2.57 290 11:51 11.03.2022
3279 Clear 16 1017 82 10000 2.57 300 09:40 11.03.2022
3280 Clear 16 1017 82 10000 1.03 0 08:47 11.03.2022
3281 Clear 16 1016 82 10000 1.03 290 07:53 11.03.2022
3282 Clear 16 1016 80 10000 1.03 290 07:28 11.03.2022
3283 Clear 17 1017 71 10000 1.03 0 05:42 11.03.2022
3284 Clear 19 1016 67 10000 5.66 110 02:56 11.03.2022
3285 Clear 21 1015 61 10000 5.66 100 22:56 10.03.2022
3286 Clear 22 1015 60 10000 5.66 100 22:28 10.03.2022
3287 Clear 23 1014 62 10000 6.17 100 21:26 10.03.2022
3288 Clear 23 1014 62 10000 5.66 110 20:45 10.03.2022
3289 Clouds 24 1014 60 10000 5.66 80 19:22 10.03.2022
3290 Clouds 24 1014 63 10000 6.17 100 18:30 10.03.2022
3291 Clouds 23 1015 70 10000 6.17 100 16:53 10.03.2022
3292 Clouds 22 1015 70 10000 4.12 130 15:36 10.03.2022
3293 Clouds 21 1015 76 10000 3.6 150 14:19 10.03.2022
3294 Clear 18 1014 81 10000 2.57 170 12:46 10.03.2022
3295 Clear 17 1014 89 10000 2.06 180 11:37 10.03.2022
3296 Clear 16 1013 90 10000 2.57 200 10:19 10.03.2022
3297 Clear 17 1013 91 10000 2.57 190 08:40 10.03.2022
3298 Clear 18 1014 89 10000 1.54 170 05:48 10.03.2022
3299 Clear 18 1015 86 10000 1.03 0 03:22 10.03.2022
3300 Rain 19 1014 82 10000 1.03 0 00:22 10.03.2022
3301 Clouds 20 1013 79 10000 4.63 110 22:32 09.03.2022
3302 Rain 20 1013 78 10000 3.09 110 21:47 09.03.2022
3303 Rain 20 1013 77 10000 1.03 0 20:50 09.03.2022
3304 Rain 19 1013 75 10000 9.77 360 18:58 09.03.2022
3305 Rain 17 1014 88 10000 0.89 270 17:28 09.03.2022
3306 Rain 18 1015 86 7000 4.12 360 16:45 09.03.2022
3307 Rain 18 1015 90 4000 2.06 350 15:37 09.03.2022
3308 Rain 18 1016 92 5000 1.03 0 14:23 09.03.2022
3309 Rain 18 1017 92 6000 1.03 0 13:25 09.03.2022
3310 Rain 18 1017 92 9000 2.57 330 12:20 09.03.2022
3311 Rain 18 1017 96 10000 2.4 349 11:45 09.03.2022
3312 Rain 19 1017 89 10000 3.48 325 10:50 09.03.2022
3313 Thunderstorm 20 1015 70 10000 3.6 300 09:22 09.03.2022
3314 Thunderstorm 21 1014 72 9000 4.63 330 08:42 09.03.2022
3315 Clear 22 1012 69 10000 3.09 30 04:49 09.03.2022
3316 Clear 22 1013 59 10000 4.63 90 00:55 09.03.2022
3317 Clear 24 1013 51 10000 4.12 80 23:21 08.03.2022
3318 Clear 25 1013 48 10000 3.09 80 22:45 08.03.2022
3319 Clear 26 1013 45 10000 3.09 70 21:28 08.03.2022
3320 Clear 26 1014 41 10000 2.57 40 20:54 08.03.2022
3321 Clear 26 1014 40 10000 2.57 20 19:59 08.03.2022
3322 Clear 26 1015 36 10000 3.6 20 18:45 08.03.2022
3323 Clear 26 1014 37 10000 3.09 60 17:50 08.03.2022
3324 Clear 26 1015 41 10000 3.09 30 16:33 08.03.2022
3325 Clear 23 1015 47 10000 2.06 210 14:23 08.03.2022
3326 Clear 20 1015 58 10000 1.54 0 12:44 08.03.2022
3327 Clear 17 1014 65 10000 1.54 200 11:53 08.03.2022
3328 Clear 17 1014 66 10000 1.54 200 11:34 08.03.2022
3329 Clear 16 1014 69 10000 1.54 230 10:22 08.03.2022
3330 Clear 18 1013 69 10000 1.03 230 07:34 08.03.2022
3331 Clear 19 1013 66 10000 1.54 250 05:44 08.03.2022
3332 Clear 23 1009 55 10000 4.12 250 23:58 07.03.2022
3333 Clear 25 1008 50 10000 3.6 280 22:23 07.03.2022
3334 Clear 25 1007 49 10000 4.12 260 21:34 07.03.2022
3335 Clear 25 1007 50 10000 3.09 0 20:49 07.03.2022
3336 Clear 25 1007 50 10000 3.09 0 20:20 07.03.2022
3337 Clear 25 1007 47 10000 4.12 240 19:33 07.03.2022
3338 Clear 25 1007 47 10000 3.6 230 18:44 07.03.2022
3339 Clouds 24 1007 54 10000 5.14 240 17:52 07.03.2022
3340 Clouds 23 1007 62 10000 3.09 230 16:56 07.03.2022
3341 Clouds 22 1006 71 10000 3.6 250 15:59 07.03.2022
3342 Clouds 18 1004 83 10000 3.6 0 13:52 07.03.2022
3343 Clouds 18 1004 83 10000 3.6 0 13:52 07.03.2022
3344 Clouds 17 1003 92 9000 3.6 190 12:28 07.03.2022
3345 Clouds 16 1002 89 10000 5.14 220 10:38 07.03.2022
3346 Thunderstorm 19 1002 93 5000 4.12 260 08:57 07.03.2022
3347 Clouds 24 1005 85 10000 4.63 70 04:43 07.03.2022
3348 Clouds 23 1005 88 10000 9.26 100 00:22 07.03.2022
3349 Clouds 23 1006 87 10000 7.2 120 23:35 06.03.2022
3350 Clear 24 1006 81 10000 6.69 100 22:42 06.03.2022
3351 Clouds 25 1007 77 10000 7.2 100 21:47 06.03.2022
3352 Clouds 25 1008 76 10000 7.2 110 20:38 06.03.2022
3353 Clouds 26 1008 73 10000 7.2 110 20:20 06.03.2022
3354 Clouds 26 1010 73 10000 6.17 70 18:56 06.03.2022
3355 Clouds 26 1010 72 10000 6.17 70 18:23 06.03.2022
3356 Clouds 26 1010 76 10000 5.14 90 17:21 06.03.2022
3357 Clear 26 1010 71 10000 5.14 100 16:41 06.03.2022
3358 Clouds 25 1010 74 10000 5.66 100 15:49 06.03.2022
3359 Clouds 25 1010 74 10000 5.66 100 15:49 06.03.2022
3360 Clouds 24 1011 78 10000 4.12 100 14:49 06.03.2022
3361 Clouds 24 1011 78 10000 4.12 100 14:30 06.03.2022
3362 Clouds 22 1011 88 10000 3.09 90 12:50 06.03.2022
3363 Clouds 20 1011 90 10000 2.57 130 11:56 06.03.2022
3364 Mist 19 1011 92 4000 2.06 160 10:52 06.03.2022
3365 Clouds 20 1010 91 10000 2.06 140 09:43 06.03.2022
3366 Clouds 21 1010 91 10000 4.63 90 08:29 06.03.2022
3367 Clouds 20 1010 89 10000 6.69 110 07:34 06.03.2022
3368 Clouds 21 1010 86 10000 6.17 140 04:46 06.03.2022
3369 Rain 23 1009 88 10000 1.54 190 00:44 06.03.2022
3370 Clear 23 1009 89 10000 1.54 190 00:25 06.03.2022
3371 Clear 24 1009 87 10000 2.06 70 23:20 05.03.2022
3372 Clouds 24 1009 85 10000 3.09 90 22:43 05.03.2022
3373 Rain 24 1009 84 10000 5.14 110 21:45 05.03.2022
3374 Clouds 25 1008 83 10000 5.14 110 21:19 05.03.2022
3375 Rain 25 1009 82 10000 5.66 110 19:24 05.03.2022
3376 Rain 24 1009 87 10000 7.2 100 18:50 05.03.2022
3377 Rain 25 1009 85 10000 4.12 110 17:41 05.03.2022
3378 Rain 24 1010 92 8000 4.63 80 16:20 05.03.2022
3379 Rain 24 1010 89 9000 3.6 100 15:30 05.03.2022
3380 Rain 24 1010 88 10000 3.6 110 14:42 05.03.2022
3381 Rain 24 1010 87 10000 3.6 110 14:24 05.03.2022
3382 Clear 24 1010 85 9000 1.54 160 12:55 05.03.2022
3383 Clear 22 1009 92 10000 1.03 0 11:39 05.03.2022
3384 Clear 22 1009 93 10000 1.03 0 11:18 05.03.2022
3385 Clear 22 1008 91 10000 1.03 0 09:40 05.03.2022
3386 Clear 22 1009 90 10000 3.09 310 08:46 05.03.2022
3387 Clear 23 1009 87 10000 3.09 310 07:23 05.03.2022
3388 Clear 23 1009 87 10000 3.09 310 07:23 05.03.2022
3389 Clear 23 1010 86 10000 3.6 330 05:39 05.03.2022
3390 Clouds 24 1010 84 10000 5.14 110 00:51 05.03.2022
3391 Clouds 25 1009 82 10000 4.63 110 23:20 04.03.2022
3392 Clear 25 1009 81 10000 5.66 110 22:39 04.03.2022
3393 Clouds 27 1009 73 10000 4.63 100 21:43 04.03.2022
3394 Clouds 27 1009 71 10000 3.09 100 20:45 04.03.2022
3395 Clouds 27 1010 75 10000 2.57 120 19:38 04.03.2022
3396 Clear 26 1011 80 10000 2.06 30 18:58 04.03.2022
3397 Clear 26 1011 79 10000 2.06 30 18:35 04.03.2022
3398 Clear 25 1011 76 10000 1.54 330 17:29 04.03.2022
3399 Clouds 23 1011 87 10000 2.06 290 15:58 04.03.2022
3400 Rain 23 1011 87 10000 2.06 290 15:25 04.03.2022
3401 Clear 22 1012 89 9000 3.6 320 13:36 04.03.2022
3402 Clear 23 1012 81 10000 3.09 330 12:47 04.03.2022
3403 Clear 22 1012 86 10000 2.06 10 11:37 04.03.2022
3404 Clear 22 1010 88 10000 1.54 80 10:25 04.03.2022
3405 Clear 21 1010 87 10000 2.06 10 09:27 04.03.2022
3406 Clear 22 1010 85 10000 2.06 10 07:48 04.03.2022
3407 Clear 23 1011 85 10000 3.09 90 05:49 04.03.2022
3408 Clear 22 1011 84 10000 6.69 100 01:46 04.03.2022
3409 Clear 23 1010 75 10000 7.72 110 23:35 03.03.2022
3410 Clear 25 1011 66 10000 7.72 110 22:18 03.03.2022
3411 Clear 25 1011 64 10000 7.2 110 21:36 03.03.2022
3412 Clear 25 1011 63 10000 6.69 110 20:44 03.03.2022
3413 Clear 25 1012 61 10000 6.69 100 19:22 03.03.2022
3414 Clear 25 1013 60 10000 6.17 100 18:25 03.03.2022
3415 Clear 25 1013 57 10000 6.17 110 17:31 03.03.2022
3416 Clear 24 1014 54 10000 5.66 100 16:38 03.03.2022
3417 Clear 23 1014 54 10000 6.17 110 15:43 03.03.2022
3418 Clear 23 1015 51 10000 5.14 90 14:44 03.03.2022
3419 Clear 23 1015 51 10000 5.14 90 14:25 03.03.2022
3420 Clear 21 1015 65 10000 5.66 80 12:32 03.03.2022
3421 Clouds 19 1014 78 8000 5.66 90 10:58 03.03.2022
3422 Clouds 20 1014 81 8000 5.66 90 09:58 03.03.2022
3423 Clouds 20 1014 80 8000 7.72 100 08:42 03.03.2022
3424 Clouds 20 1013 80 8000 8.75 110 06:55 03.03.2022
3425 Clouds 21 1013 80 7000 8.23 110 05:22 03.03.2022
3426 Clear 27 1009 46 10000 3.09 200 23:48 02.03.2022
3427 Clear 28 1009 43 10000 3.09 210 22:54 02.03.2022
3428 Clear 29 1009 40 10000 3.09 210 22:33 02.03.2022
3429 Clear 30 1009 37 10000 3.6 240 20:59 02.03.2022
3430 Clear 30 1009 37 10000 3.6 240 20:25 02.03.2022
3431 Clear 30 1009 40 10000 4.12 280 19:38 02.03.2022
3432 Clear 30 1009 41 10000 4.12 280 19:18 02.03.2022
3433 Clear 29 1010 42 10000 3.09 0 18:31 02.03.2022
3434 Clear 28 1010 45 10000 3.09 270 17:42 02.03.2022
3435 Clear 27 1010 49 10000 4.63 290 16:52 02.03.2022
3436 Clear 26 1010 51 10000 4.63 280 15:59 02.03.2022
3437 Clear 24 1010 50 10000 6.17 290 14:29 02.03.2022
3438 Clear 21 1010 55 10000 4.63 290 12:56 02.03.2022
3439 Clear 20 1010 57 10000 4.63 290 12:34 02.03.2022
3440 Clear 19 1010 62 10000 5.14 300 11:27 02.03.2022
3441 Clear 19 1010 65 10000 5.66 310 10:39 02.03.2022
3442 Clear 19 1010 67 10000 3.09 330 09:37 02.03.2022
3443 Clear 20 1009 65 10000 3.6 330 08:36 02.03.2022
3444 Clear 20 1009 66 10000 4.12 320 07:23 02.03.2022
3445 Clear 20 1010 69 10000 3.6 320 05:42 02.03.2022
3446 Clear 22 1010 68 10000 4.12 340 00:40 02.03.2022
3447 Clear 24 1009 59 10000 4.63 330 23:27 01.03.2022
3448 Clear 25 1010 53 10000 4.63 340 22:38 01.03.2022
3449 Clear 25 1010 52 10000 6.17 360 21:44 01.03.2022
3450 Clear 26 1011 51 10000 5.66 360 20:40 01.03.2022
3451 Clear 26 1011 52 10000 5.66 360 20:20 01.03.2022
3452 Clear 25 1013 52 10000 5.66 360 18:58 01.03.2022
3453 Clear 24 1013 54 10000 5.66 360 18:24 01.03.2022
3454 Clouds 24 1014 56 10000 6.17 360 17:54 01.03.2022
3455 Clouds 23 1015 59 10000 5.14 350 16:37 01.03.2022
3456 Clear 22 1015 61 10000 5.66 340 15:48 01.03.2022
3457 Clear 21 1016 60 10000 6.17 350 14:54 01.03.2022
3458 Clear 21 1016 58 10000 6.17 350 14:31 01.03.2022
3459 Clear 20 1016 57 10000 5.66 360 13:26 01.03.2022
3460 Clear 19 1016 59 10000 4.63 20 12:37 01.03.2022
3461 Clear 17 1015 66 10000 4.12 30 11:35 01.03.2022
3462 Clear 16 1015 71 10000 3.6 70 09:52 01.03.2022
3463 Clear 16 1015 65 10000 3.6 80 08:25 01.03.2022
3464 Clear 16 1016 61 10000 4.12 140 06:47 01.03.2022
3465 Clear 19 1016 52 10000 3.09 160 03:26 01.03.2022
3466 Clear 21 1014 47 10000 3.35 230 00:48 01.03.2022
3467 Clear 23 1012 42 10000 3.02 235 23:46 28.02.2022
3468 Clear 25 1011 34 10000 4.12 0 22:43 28.02.2022
3469 Clear 26 1011 34 10000 5.02 233 21:47 28.02.2022
3470 Clear 27 1010 31 10000 4.12 230 20:46 28.02.2022
3471 Clear 28 1010 33 10000 3.09 0 19:51 28.02.2022
3472 Clear 28 1010 31 10000 3.6 240 18:56 28.02.2022
3473 Clear 28 1010 33 10000 6.62 242 17:43 28.02.2022
3474 Clear 28 1010 26 10000 2.57 0 17:21 28.02.2022
3475 Clear 27 1011 34 10000 3.09 270 16:21 28.02.2022
3476 Clear 24 1010 74 10000 2.06 220 14:33 28.02.2022
3477 Clouds 21 1010 88 7000 1.03 0 13:53 28.02.2022
3478 Clouds 20 1010 94 7000 1.03 0 13:19 28.02.2022
3479 Mist 20 1010 97 4500 1.54 200 12:25 28.02.2022
3480 Mist 19 1009 97 2500 1.54 210 11:19 28.02.2022
3481 Clear 20 1009 97 7000 1.54 220 10:23 28.02.2022
3482 Clear 20 1008 97 9000 1.54 190 09:44 28.02.2022
3483 Clear 20 1007 98 8000 1.03 0 08:54 28.02.2022
3484 Clear 21 1007 97 8000 0 0 07:59 28.02.2022
3485 Clouds 21 1008 96 10000 1.54 220 06:31 28.02.2022
3486 Clouds 21 1008 96 10000 1.54 280 04:30 28.02.2022
3487 Clouds 22 1007 93 10000 1.03 0 00:53 28.02.2022
3488 Clouds 23 1006 92 10000 2.06 300 22:53 27.02.2022
3489 Clouds 23 1006 92 10000 2.06 300 22:32 27.02.2022
3490 Rain 23 1007 92 10000 4.12 330 21:42 27.02.2022
3491 Clouds 23 1007 89 10000 1.54 0 20:44 27.02.2022
3492 Rain 24 1007 89 10000 1.54 0 20:18 27.02.2022
3493 Rain 24 1006 91 10000 4.63 320 19:48 27.02.2022
3494 Rain 23 1007 92 10000 4.63 320 19:21 27.02.2022
3495 Clouds 23 1006 93 8000 7.2 330 18:24 27.02.2022
3496 Rain 23 1006 92 10000 7.72 340 17:45 27.02.2022
3497 Rain 22 1006 96 10000 4.63 340 16:23 27.02.2022
3498 Rain 22 1006 96 9000 7.2 360 14:29 27.02.2022
3499 Rain 22 1010 97 3000 3.6 310 12:36 27.02.2022
3500 Thunderstorm 22 1008 95 9000 2.57 340 11:46 27.02.2022
3501 Rain 22 1008 95 10000 2.57 20 10:36 27.02.2022
3502 Rain 22 1007 97 8000 4.12 50 09:58 27.02.2022
3503 Rain 22 1006 97 8000 4.12 50 09:23 27.02.2022
3504 Rain 22 1006 97 6000 5.14 90 08:45 27.02.2022
3505 Rain 22 1006 97 6000 5.14 90 08:45 27.02.2022
3506 Thunderstorm 22 1008 97 7000 4.12 120 05:45 27.02.2022
3507 Thunderstorm 22 1011 97 3200 4.12 210 03:35 27.02.2022
3508 Clouds 24 1008 90 10000 2.57 10 23:52 26.02.2022
3509 Clouds 25 1009 85 10000 2.57 30 22:42 26.02.2022
3510 Clouds 25 1010 78 10000 3.09 360 21:27 26.02.2022
3511 Clouds 26 1011 80 10000 3.6 310 20:43 26.02.2022
3512 Rain 25 1012 73 10000 5.14 320 19:56 26.02.2022
3513 Clouds 24 1012 75 10000 5.14 320 19:33 26.02.2022
3514 Rain 25 1013 83 9000 4.63 310 18:33 26.02.2022
3515 Rain 25 1014 83 9000 5.14 340 17:36 26.02.2022
3516 Clouds 26 1014 78 10000 3.09 360 16:39 26.02.2022
3517 Clouds 26 1014 78 10000 2.57 350 15:37 26.02.2022
3518 Clouds 25 1014 82 10000 2.57 350 15:18 26.02.2022
3519 Clear 25 1014 82 10000 2.57 20 14:41 26.02.2022
3520 Rain 24 1014 82 10000 2.57 20 13:51 26.02.2022
3521 Clouds 24 1014 82 10000 2.57 30 12:53 26.02.2022
3522 Clear 23 1014 85 10000 3.09 20 11:50 26.02.2022
3523 Clear 22 1014 84 10000 3.09 20 11:25 26.02.2022
3524 Clear 22 1014 75 10000 2.06 50 09:31 26.02.2022
3525 Clear 22 1013 74 10000 2.57 50 08:26 26.02.2022
3526 Clear 23 1015 70 10000 3.09 60 04:23 26.02.2022
3527 Clear 26 1014 52 10000 1.54 60 23:50 25.02.2022
3528 Clear 28 1014 37 10000 1.54 20 22:31 25.02.2022
3529 Clear 28 1014 40 10000 2.06 360 21:31 25.02.2022
3530 Clear 28 1015 39 10000 3.6 360 20:47 25.02.2022
3531 Clear 28 1015 38 10000 3.6 360 20:25 25.02.2022
3532 Clear 27 1015 52 10000 3.6 30 17:54 25.02.2022
3533 Clear 27 1015 46 10000 3.09 50 16:48 25.02.2022
3534 Clear 27 1016 39 10000 1.54 0 15:50 25.02.2022
3535 Clear 26 1016 43 10000 1.54 0 15:23 25.02.2022
3536 Clear 25 1016 51 10000 1.54 0 14:55 25.02.2022
3537 Clear 24 1016 58 10000 1.54 0 14:19 25.02.2022
3538 Clear 22 1017 69 10000 1.03 0 13:30 25.02.2022
3539 Clear 18 1016 87 10000 1.03 0 11:56 25.02.2022
3540 Clear 17 1016 90 10000 1.03 0 11:20 25.02.2022
3541 Clear 17 1015 90 10000 1.54 260 10:23 25.02.2022
3542 Fog 17 1015 93 10000 1.03 0 09:42 25.02.2022
3543 Fog 17 1015 93 10000 1.03 0 09:42 25.02.2022
3544 Clear 18 1014 95 8000 1.54 240 07:53 25.02.2022
3545 Fog 19 1013 94 7000 1.54 280 06:54 25.02.2022
3546 Clear 19 1013 92 8000 1.54 290 05:40 25.02.2022
3547 Clouds 20 1012 88 8000 1.03 0 01:23 25.02.2022
3548 Clouds 23 1010 82 10000 3.09 320 22:31 24.02.2022
3549 Clouds 23 1010 85 10000 4.63 320 21:43 24.02.2022
3550 Clouds 22 1010 86 10000 4.63 320 21:21 24.02.2022
3551 Clouds 22 1010 84 10000 4.12 340 20:44 24.02.2022
3552 Clouds 22 1011 85 10000 4.12 10 19:31 24.02.2022
3553 Clouds 22 1011 87 10000 5.14 10 18:20 24.02.2022
3554 Clouds 21 1011 88 10000 5.14 10 17:54 24.02.2022
3555 Clouds 21 1012 92 10000 5.14 10 17:19 24.02.2022
3556 Clouds 21 1012 95 10000 4.63 50 16:28 24.02.2022
3557 Rain 20 1012 96 7000 5.14 60 15:42 24.02.2022
3558 Rain 20 1012 95 7000 4.12 60 14:45 24.02.2022
3559 Rain 20 1013 94 2500 2.57 80 13:57 24.02.2022
3560 Rain 20 1013 93 2500 2.57 80 13:35 24.02.2022
3561 Thunderstorm 21 1009 85 10000 6.69 50 11:38 24.02.2022
3562 Rain 21 1008 85 10000 7.2 50 10:31 24.02.2022
3563 Clouds 21 1009 84 10000 9.77 60 08:43 24.02.2022
3564 Clouds 22 1011 86 10000 1.34 90 06:45 24.02.2022
3565 Rain 22 1011 86 10000 9.26 90 05:40 24.02.2022
3566 Clouds 22 1012 83 10000 9.77 110 00:30 24.02.2022
3567 Clouds 24 1012 73 10000 8.23 120 22:19 23.02.2022
3568 Clouds 25 1013 68 10000 7.2 100 20:44 23.02.2022
3569 Clouds 25 1013 67 10000 7.2 100 20:23 23.02.2022
3570 Clouds 25 1014 65 10000 5.14 80 19:34 23.02.2022
3571 Clouds 25 1015 66 10000 5.14 70 18:22 23.02.2022
3572 Clouds 24 1016 68 10000 4.12 70 16:27 23.02.2022
3573 Clouds 22 1018 74 10000 2.57 110 13:45 23.02.2022
3574 Clear 21 1018 81 10000 2.06 130 12:31 23.02.2022
3575 Clear 19 1018 90 10000 1.54 150 10:56 23.02.2022
3576 Clouds 19 1017 89 10000 3.6 130 09:38 23.02.2022
3577 Clouds 20 1017 89 10000 4.63 110 08:54 23.02.2022
3578 Clouds 20 1017 87 10000 3.09 80 07:47 23.02.2022
3579 Clear 22 1017 76 10000 1.03 0 02:31 23.02.2022
3580 Clear 23 1016 70 10000 1.54 30 23:50 22.02.2022
3581 Clear 24 1016 68 10000 1.54 30 23:31 22.02.2022
3582 Clear 25 1017 66 10000 2.06 360 22:28 22.02.2022
3583 Clear 25 1017 64 10000 2.57 20 21:44 22.02.2022
3584 Clear 25 1017 61 10000 2.57 20 21:20 22.02.2022
3585 Clouds 25 1017 66 10000 2.57 20 20:31 22.02.2022
3586 Clouds 25 1018 64 10000 3.09 50 19:56 22.02.2022
3587 Clouds 25 1018 66 10000 3.09 50 19:33 22.02.2022
3588 Clouds 25 1018 61 10000 3.09 40 18:35 22.02.2022
3589 Clouds 25 1019 59 10000 4.63 70 17:27 22.02.2022
3590 Clouds 24 1019 57 10000 2.57 230 16:55 22.02.2022
3591 Clouds 24 1019 59 10000 2.57 230 16:20 22.02.2022
3592 Clouds 22 1019 67 10000 2.57 180 15:21 22.02.2022
3593 Clouds 21 1019 76 10000 3.09 170 14:19 22.02.2022
3594 Clouds 18 1019 90 10000 2.06 180 11:38 22.02.2022
3595 Clear 18 1018 88 10000 3.09 160 09:44 22.02.2022
3596 Clear 19 1018 84 10000 2.06 170 07:30 22.02.2022
3597 Clear 20 1017 84 10000 3.09 140 06:54 22.02.2022
3598 Clear 23 1017 64 10000 1.03 0 02:50 22.02.2022
3599 Clear 25 1015 51 10000 2.57 200 23:18 21.02.2022
3600 Clear 26 1015 49 10000 3.09 180 22:36 21.02.2022
3601 Clouds 26 1015 52 10000 4.12 200 20:52 21.02.2022
3602 Clouds 26 1015 53 10000 2.57 0 18:56 21.02.2022
3603 Clouds 25 1015 53 10000 2.57 0 18:37 21.02.2022
3604 Clouds 24 1015 59 10000 4.12 170 16:23 21.02.2022
3605 Clear 22 1015 65 10000 3.09 190 14:23 21.02.2022
3606 Clear 20 1014 74 10000 3.09 170 13:31 21.02.2022
3607 Clouds 19 1013 80 10000 2.57 180 12:46 21.02.2022
3608 Clear 19 1015 85 10000 5.12 180 12:21 21.02.2022
3609 Clouds 17 1012 92 10000 2.57 190 10:27 21.02.2022
3610 Clear 18 1010 90 10000 3.6 200 06:25 21.02.2022
3611 Clouds 20 1008 86 10000 3.6 160 00:35 21.02.2022
3612 Clouds 20 1008 82 10000 6.17 150 22:32 20.02.2022
3613 Clouds 19 1007 88 8000 5.14 170 21:43 20.02.2022
3614 Rain 19 1007 89 8000 5.14 170 21:24 20.02.2022
3615 Clouds 19 1007 91 9000 4.12 170 20:43 20.02.2022
3616 Rain 19 1007 92 7000 3.6 170 19:49 20.02.2022
3617 Rain 20 1007 91 4000 4.12 160 18:55 20.02.2022
3618 Rain 20 1007 94 4000 4.12 160 18:34 20.02.2022
3619 Rain 20 1007 96 6000 4.12 160 17:55 20.02.2022
3620 Rain 21 1007 87 8000 2.57 170 16:18 20.02.2022
3621 Rain 21 1008 89 8000 3.09 160 14:55 20.02.2022
3622 Rain 21 1008 87 10000 2.57 180 13:58 20.02.2022
3623 Rain 20 1007 87 10000 2.57 170 12:42 20.02.2022
3624 Clear 20 1007 93 10000 3.6 130 10:52 20.02.2022
3625 Clear 21 1006 93 10000 3.6 130 10:20 20.02.2022
3626 Clouds 21 1006 92 8000 2.06 170 09:24 20.02.2022
3627 Clear 24 1008 74 10000 6.17 100 02:54 20.02.2022
3628 Clear 24 1007 80 10000 7.72 110 00:31 20.02.2022
3629 Clear 25 1007 80 10000 7.2 110 23:30 19.02.2022
3630 Clear 27 1007 64 10000 6.17 110 22:23 19.02.2022
3631 Clear 27 1007 67 10000 7.2 110 21:45 19.02.2022
3632 Clear 28 1008 67 10000 5.14 100 19:58 19.02.2022
3633 Clear 28 1008 65 10000 5.14 100 19:33 19.02.2022
3634 Clouds 28 1009 64 10000 5.66 80 18:38 19.02.2022
3635 Clouds 27 1009 63 10000 4.12 100 17:37 19.02.2022
3636 Clouds 26 1010 69 10000 4.12 80 16:34 19.02.2022
3637 Clear 25 1010 72 10000 3.6 80 15:19 19.02.2022
3638 Clouds 24 1010 73 10000 3.6 90 14:52 19.02.2022
3639 Clouds 23 1010 76 10000 3.6 80 13:47 19.02.2022
3640 Clouds 21 1010 87 10000 3.6 70 11:39 19.02.2022
3641 Clouds 21 1009 89 10000 3.6 60 10:30 19.02.2022
3642 Clouds 21 1010 86 10000 4.63 60 07:55 19.02.2022
3643 Clouds 22 1011 83 10000 8.23 100 04:32 19.02.2022
3644 Clear 23 1010 73 10000 8.23 110 23:38 18.02.2022
3645 Clear 25 1011 65 10000 8.23 100 21:53 18.02.2022
3646 Clear 26 1011 63 10000 7.72 100 20:51 18.02.2022
3647 Clouds 26 1012 61 10000 6.69 100 19:53 18.02.2022
3648 Clouds 25 1013 59 10000 6.17 100 18:50 18.02.2022
3649 Clouds 25 1013 61 10000 6.17 100 18:22 18.02.2022
3650 Clouds 25 1014 62 10000 6.69 100 17:51 18.02.2022
3651 Clouds 22 1015 65 10000 6.17 90 14:54 18.02.2022
3652 Clouds 21 1015 69 10000 4.63 110 13:55 18.02.2022
3653 Clouds 20 1015 69 10000 2.57 130 12:53 18.02.2022
3654 Clouds 18 1015 71 10000 2.57 130 12:32 18.02.2022
3655 Clouds 16 1015 76 10000 2.57 150 11:27 18.02.2022
3656 Clouds 16 1015 77 10000 2.06 160 10:23 18.02.2022
3657 Clouds 17 1016 73 10000 4.12 140 06:56 18.02.2022
3658 Clouds 17 1016 70 10000 4.63 140 05:39 18.02.2022
3659 Clear 21 1015 65 10000 8.75 120 23:24 17.02.2022
3660 Clear 22 1016 64 10000 9.77 110 21:44 17.02.2022
3661 Clear 22 1016 64 10000 9.77 110 21:19 17.02.2022
3662 Clear 23 1016 63 10000 9.26 110 20:36 17.02.2022
3663 Clouds 23 1017 62 10000 9.77 110 19:48 17.02.2022
3664 Clouds 24 1017 61 10000 9.77 110 18:41 17.02.2022
3665 Clouds 23 1017 65 10000 8.23 100 17:50 17.02.2022
3666 Clouds 23 1017 61 10000 7.2 110 16:20 17.02.2022
3667 Clouds 23 1017 61 10000 7.2 110 16:20 17.02.2022
3668 Clouds 22 1017 64 10000 5.66 140 15:26 17.02.2022
3669 Clouds 21 1017 67 10000 6.69 140 14:21 17.02.2022
3670 Clouds 18 1017 76 10000 5.66 150 12:24 17.02.2022
3671 Clouds 18 1016 78 10000 5.66 160 11:21 17.02.2022
3672 Clear 19 1015 75 10000 4.63 160 08:43 17.02.2022
3673 Clear 29 1011 52 10000 2.57 130 00:29 17.02.2022
3674 Clouds 33 1011 45 10000 0.45 315 22:41 16.02.2022
3675 Clouds 35 1009 27 10000 3.7 74 20:46 16.02.2022
3676 Clouds 35 1009 36 10000 3.48 72 19:43 16.02.2022
3677 Clear 35 1010 30 10000 3.19 61 18:36 16.02.2022
3678 -273 0 0 0 0 0 17:38 16.02.2022
3679 Clear 30 1013 50 10000 2.27 6 15:30 16.02.2022
3680 Clear 29 1013 49 10000 3.09 350 14:57 16.02.2022
3681 Clear 24 1013 64 10000 4.63 340 12:35 16.02.2022
3682 Rain 23 1012 65 10000 4.12 350 11:53 16.02.2022
3683 Clear 23 1012 68 10000 4.12 350 11:23 16.02.2022
3684 Clear 22 1012 65 10000 4.12 360 10:29 16.02.2022
3685 Clear 24 1012 69 10000 0.51 0 06:57 16.02.2022
3686 Clear 25 1012 68 10000 2.06 70 04:42 16.02.2022
3687 Clear 29 1010 53 10000 2.06 40 23:35 15.02.2022
3688 Clear 31 1010 46 10000 2.57 40 22:18 15.02.2022
3689 Clear 32 1009 41 10000 3.31 71 21:45 15.02.2022
3690 Clear 32 1010 41 10000 3.42 62 21:26 15.02.2022
3691 Clear 32 1010 41 10000 3.42 62 20:53 15.02.2022
3692 Clear 32 1010 43 10000 3.6 50 19:48 15.02.2022
3693 Clear 32 1011 43 10000 3.69 40 18:45 15.02.2022
3694 Clear 32 1012 37 10000 3.5 28 18:19 15.02.2022
3695 Clear 32 1012 42 10000 3.5 28 17:47 15.02.2022
3696 Clear 31 1012 42 10000 3.35 13 16:30 15.02.2022
3697 Clear 27 1014 48 10000 3.09 350 14:39 15.02.2022
3698 Clear 25 1014 51 10000 4.12 340 13:26 15.02.2022
3699 Clear 22 1013 54 10000 1.54 310 11:52 15.02.2022
3700 Clear 21 1012 59 10000 4.12 330 10:39 15.02.2022
3701 Clear 21 1012 60 10000 3.6 330 09:23 15.02.2022
3702 Clear 22 1012 59 10000 2.06 320 06:48 15.02.2022
3703 Clear 26 1010 52 10000 2.57 320 00:26 15.02.2022
3704 Clear 30 1011 35 10000 0.45 90 21:59 14.02.2022
3705 Clear 31 1009 38 10000 3.07 35 21:19 14.02.2022
3706 Clear 31 1009 37 10000 3.15 28 20:19 14.02.2022
3707 Clear 31 1009 34 10000 3.15 28 19:30 14.02.2022
3708 Clear 30 1011 38 10000 4.63 360 18:24 14.02.2022
3709 Clear 29 1011 38 10000 2.64 18 17:37 14.02.2022
3710 Clear 29 1011 38 10000 2.18 357 17:18 14.02.2022
3711 Clear 27 1012 40 10000 2.06 260 15:58 14.02.2022
3712 Clear 23 1012 46 10000 2.06 0 13:37 14.02.2022
3713 Clear 21 1011 52 10000 2.06 260 12:59 14.02.2022
3714 Clear 20 1011 54 10000 2.06 260 12:32 14.02.2022
3715 Clear 19 1011 57 10000 1.54 250 11:39 14.02.2022
3716 Clear 17 1011 61 10000 1.54 240 10:22 14.02.2022
3717 Clear 18 1010 59 10000 1.54 280 08:32 14.02.2022
3718 Clear 18 1010 58 10000 1.03 0 07:26 14.02.2022
3719 Clear 25 1010 32 10000 3.6 240 23:19 13.02.2022
3720 Clear 26 1010 33 10000 2.57 240 22:41 13.02.2022
3721 Clear 26 1010 33 10000 2.57 240 22:22 13.02.2022
3722 Clear 26 1011 33 10000 2.57 0 21:24 13.02.2022
3723 Clear 26 1011 33 10000 4.12 220 20:30 13.02.2022
3724 Clear 25 1012 33 10000 4.12 240 19:23 13.02.2022
3725 Clear 25 1013 35 10000 3.09 0 18:41 13.02.2022
3726 Clear 24 1014 37 10000 2.57 0 17:41 13.02.2022
3727 Clear 21 1016 42 10000 2.06 0 15:53 13.02.2022
3728 Clear 20 1016 45 10000 2.57 260 14:50 13.02.2022
3729 Clear 18 1016 49 10000 2.06 190 13:39 13.02.2022
3730 Clear 16 1016 56 10000 1.54 190 12:44 13.02.2022
3731 Clear 13 1016 66 10000 1.54 240 10:46 13.02.2022
3732 Clear 13 1016 66 10000 1.54 240 10:27 13.02.2022
3733 Clear 13 1016 64 10000 1.03 0 08:57 13.02.2022
3734 Clear 17 1018 50 10000 5.66 160 02:50 13.02.2022
3735 Clouds 19 1017 60 10000 3.6 170 00:33 13.02.2022
3736 Clouds 21 1017 55 10000 4.12 160 22:56 12.02.2022
3737 Clouds 22 1017 55 10000 4.12 160 22:32 12.02.2022
3738 Clouds 22 1017 57 10000 3.6 180 21:18 12.02.2022
3739 Clouds 22 1017 59 10000 3.6 180 20:24 12.02.2022
3740 Clouds 21 1018 62 10000 5.66 160 18:54 12.02.2022
3741 Clouds 21 1018 62 10000 5.66 160 18:36 12.02.2022
3742 Clouds 20 1018 62 10000 4.63 170 17:40 12.02.2022
3743 Clouds 20 1019 63 10000 4.12 170 16:46 12.02.2022
3744 Clouds 20 1019 65 10000 6.17 160 15:59 12.02.2022
3745 Clouds 19 1019 62 10000 6.17 160 15:21 12.02.2022
3746 Clear 18 1019 67 10000 4.12 180 14:29 12.02.2022
3747 Clear 14 1019 82 10000 4.12 180 11:34 12.02.2022
3748 Clouds 14 1019 86 10000 3.6 180 10:33 12.02.2022
3749 Clouds 14 1019 88 10000 3.6 170 09:38 12.02.2022
3750 Clouds 14 1019 89 10000 4.63 190 08:47 12.02.2022
3751 Clouds 14 1019 90 10000 4.12 200 07:47 12.02.2022
3752 Rain 15 1019 89 7000 4.63 150 05:31 12.02.2022
3753 Clouds 17 1019 60 10000 5.66 160 02:19 12.02.2022
3754 Rain 18 1018 69 10000 0.89 90 23:56 11.02.2022
3755 Rain 19 1016 76 10000 6.17 180 22:23 11.02.2022
3756 Rain 19 1015 88 7000 4.63 170 21:37 11.02.2022
3757 Rain 21 1015 84 9000 4.63 0 20:29 11.02.2022
3758 Clouds 24 1013 72 7000 4.12 170 19:29 11.02.2022
3759 Rain 26 1012 53 10000 6.17 100 18:44 11.02.2022
3760 Rain 28 1012 54 10000 4.12 110 17:27 11.02.2022
3761 Clouds 28 1013 62 10000 3.6 60 16:47 11.02.2022
3762 Clouds 28 1013 64 10000 2.57 60 15:22 11.02.2022
3763 Clear 26 1012 67 10000 1.54 30 14:38 11.02.2022
3764 Clear 26 1012 71 10000 1.54 30 14:19 11.02.2022
3765 Clear 25 1012 75 10000 2.06 50 13:44 11.02.2022
3766 Clear 24 1012 76 10000 2.06 50 13:25 11.02.2022
3767 Clouds 22 1011 85 10000 3.09 60 11:23 11.02.2022
3768 Clear 22 1010 86 10000 3.09 30 09:37 11.02.2022
3769 Clear 22 1010 82 10000 2.57 60 08:35 11.02.2022
3770 Clear 22 1010 76 10000 4.12 70 07:46 11.02.2022
3771 Clear 22 1010 76 10000 4.12 70 07:46 11.02.2022
3772 Clear 23 1009 73 10000 1.54 30 06:24 11.02.2022
3773 Clear 24 1009 78 10000 4.63 110 02:21 11.02.2022
3774 Clear 26 1008 59 10000 6.69 110 23:46 10.02.2022
3775 Clear 28 1008 56 10000 5.66 110 22:33 10.02.2022
3776 Clear 29 1008 58 10000 5.66 110 21:42 10.02.2022
3777 Clouds 29 1009 54 10000 4.12 80 20:50 10.02.2022
3778 Clouds 30 1009 53 10000 3.09 70 19:56 10.02.2022
3779 Clouds 29 1009 52 10000 3.09 70 19:22 10.02.2022
3780 Clear 30 1008 52 10000 3.29 54 18:32 10.02.2022
3781 Clear 29 1010 54 10000 3.37 26 17:21 10.02.2022
3782 Clear 28 1010 56 10000 3.37 26 16:43 10.02.2022
3783 Clear 27 1011 61 10000 3.94 18 15:40 10.02.2022
3784 Clear 26 1011 62 10000 5.12 16 15:21 10.02.2022
3785 Clear 25 1012 66 10000 5.14 360 14:35 10.02.2022
3786 Clear 23 1012 69 10000 4.12 10 13:40 10.02.2022
3787 Clear 23 1012 70 10000 4.12 10 13:19 10.02.2022
3788 Clear 21 1011 74 10000 5.66 10 11:52 10.02.2022
3789 Clear 21 1011 75 10000 5.66 10 11:30 10.02.2022
3790 Clear 20 1010 76 10000 5.14 10 10:23 10.02.2022
3791 Clear 21 1010 74 10000 5.14 20 09:44 10.02.2022
3792 Clear 21 1010 71 10000 3.6 50 08:25 10.02.2022
3793 Clear 21 1010 75 10000 3.6 60 06:32 10.02.2022
3794 Clear 22 1012 81 10000 6.69 100 02:43 10.02.2022
3795 Clear 24 1011 70 10000 6.69 100 00:52 10.02.2022
3796 Clear 24 1011 68 10000 6.69 100 00:30 10.02.2022
3797 Clear 24 1011 68 10000 6.69 100 00:30 10.02.2022
3798 Clear 24 1011 67 10000 6.69 100 23:53 09.02.2022
3799 Clear 26 1011 61 10000 6.17 110 22:51 09.02.2022
3800 Clear 26 1011 60 10000 6.17 110 22:30 09.02.2022
3801 Clear 26 1012 55 10000 4.12 80 21:45 09.02.2022
3802 Clear 27 1012 54 10000 4.12 80 21:24 09.02.2022
3803 Clear 27 1012 51 10000 3.09 80 20:41 09.02.2022
3804 Clear 27 1012 50 10000 3.09 80 20:21 09.02.2022
3805 Clear 27 1012 50 10000 3.09 80 20:21 09.02.2022
3806 Clear 27 1013 51 10000 3.09 70 19:39 09.02.2022
3807 Clouds 26 1014 55 10000 3.09 30 17:50 09.02.2022
3808 Clouds 25 1015 58 10000 4.12 10 16:54 09.02.2022
3809 Clear 25 1015 57 10000 2.74 36 15:55 09.02.2022
3810 Clear 24 1016 63 10000 3.29 24 15:19 09.02.2022
3811 Clouds 21 1016 75 10000 3.6 30 12:42 09.02.2022
3812 Clouds 21 1016 75 10000 3.6 30 12:42 09.02.2022
3813 Clear 19 1016 77 10000 3.09 40 11:20 09.02.2022
3814 Clouds 18 1016 81 10000 2.57 40 10:31 09.02.2022
3815 Clouds 18 1016 82 10000 3.09 70 09:42 09.02.2022
3816 Clouds 18 1016 81 10000 3.09 70 09:19 09.02.2022
3817 Clear 19 1016 78 10000 3.6 90 07:56 09.02.2022
3818 Clear 20 1016 80 10000 4.12 80 05:30 09.02.2022
3819 Clear 20 1016 80 10000 4.12 80 05:30 09.02.2022
3820 Clear 20 1017 72 10000 3.6 90 03:50 09.02.2022
3821 Clear 21 1016 67 10000 3.09 90 01:28 09.02.2022
3822 Clear 22 1016 60 10000 2.57 60 23:39 08.02.2022
3823 Clear 24 1016 56 10000 3.09 70 22:50 08.02.2022
3824 Clear 24 1016 56 10000 3.09 70 22:22 08.02.2022
3825 Clear 24 1016 53 10000 3.09 70 21:49 08.02.2022
3826 Clear 24 1016 52 10000 3.09 70 21:21 08.02.2022
3827 Clear 25 1017 51 10000 3.6 70 20:45 08.02.2022
3828 Clear 25 1017 50 10000 3.6 60 19:46 08.02.2022
3829 Clear 24 1018 50 10000 3.6 60 18:48 08.02.2022
3830 Clear 24 1018 53 10000 3.6 60 17:43 08.02.2022
3831 Clear 23 1019 51 10000 3.09 20 16:30 08.02.2022
3832 Clouds 23 1019 51 10000 2.06 50 15:30 08.02.2022
3833 Clouds 23 1019 51 10000 2.06 50 15:30 08.02.2022
3834 Clouds 22 1019 51 10000 2.57 70 14:36 08.02.2022
3835 Clouds 21 1018 54 10000 3.6 120 13:20 08.02.2022
3836 Clear 18 1018 66 9000 1.54 190 11:33 08.02.2022
3837 Clear 16 1018 73 10000 1.54 180 10:23 08.02.2022
3838 Clouds 16 1017 72 10000 2.06 170 09:44 08.02.2022
3839 Clear 17 1017 66 10000 2.57 150 07:51 08.02.2022
3840 Clear 18 1018 63 10000 3.6 140 05:40 08.02.2022
3841 Clouds 19 1018 64 10000 4.63 130 04:39 08.02.2022
3842 Clouds 19 1018 64 10000 4.63 130 04:21 08.02.2022
3843 Clouds 19 1018 66 10000 5.14 120 03:36 08.02.2022
3844 Clouds 20 1018 65 10000 5.14 120 03:18 08.02.2022
3845 Clouds 20 1018 64 10000 6.17 110 02:58 08.02.2022
3846 Clouds 20 1018 64 10000 6.17 110 02:36 08.02.2022
3847 Clouds 20 1018 64 10000 6.17 110 02:18 08.02.2022
3848 Clouds 20 1018 66 10000 5.66 100 01:43 08.02.2022
3849 Clouds 20 1018 65 10000 5.66 100 01:24 08.02.2022
3850 Clouds 20 1017 66 10000 4.63 90 00:49 08.02.2022
3851 Clouds 21 1017 63 10000 4.63 80 23:54 07.02.2022
3852 Clouds 22 1017 59 10000 4.63 80 23:36 07.02.2022
3853 Clouds 22 1017 58 10000 4.63 80 23:18 07.02.2022
3854 Clear 23 1017 47 10000 3.09 180 22:19 07.02.2022
3855 Clear 23 1017 49 10000 4.12 150 21:52 07.02.2022
3856 Clear 23 1017 49 10000 4.12 150 21:29 07.02.2022
3857 Clear 23 1017 49 10000 4.12 150 21:29 07.02.2022
3858 Clear 24 1017 47 10000 4.63 180 20:56 07.02.2022
3859 Clear 24 1017 46 10000 4.63 180 20:38 07.02.2022
3860 Clear 24 1018 46 10000 5.14 130 19:47 07.02.2022
3861 Clear 23 1018 47 10000 5.14 130 19:20 07.02.2022
3862 Clouds 23 1019 50 10000 2.57 0 17:39 07.02.2022
3863 Clouds 22 1019 52 10000 3.09 160 16:52 07.02.2022
3864 Clouds 21 1019 54 10000 3.09 0 15:49 07.02.2022
3865 Clouds 20 1019 57 10000 3.6 0 14:41 07.02.2022
3866 Clouds 19 1019 65 10000 3.6 170 13:27 07.02.2022
3867 Clear 17 1018 73 10000 3.09 180 12:37 07.02.2022
3868 Clear 16 1018 80 10000 2.06 180 11:52 07.02.2022
3869 Clear 15 1018 81 10000 2.06 180 11:25 07.02.2022
3870 Clear 15 1018 87 10000 2.57 160 10:43 07.02.2022
3871 Clear 15 1018 87 10000 2.57 160 10:24 07.02.2022
3872 Clouds 15 1018 87 10000 3.09 170 09:52 07.02.2022
3873 Clouds 15 1017 85 10000 3.09 170 09:18 07.02.2022
3874 Clouds 16 1017 87 10000 3.09 0 07:58 07.02.2022
3875 Clouds 17 1017 86 10000 3.6 170 06:34 07.02.2022
3876 Clouds 17 1016 84 10000 3.6 160 05:18 07.02.2022
3877 Clear 19 1016 76 10000 3.09 220 02:38 07.02.2022
3878 Clouds 20 1014 61 10000 3.6 240 00:24 07.02.2022
3879 Clouds 21 1014 58 10000 3.09 230 23:20 06.02.2022
3880 Clouds 21 1014 57 10000 4.12 250 22:42 06.02.2022
3881 Clouds 22 1014 56 10000 4.12 0 21:47 06.02.2022
3882 Clouds 21 1014 56 10000 4.12 0 21:21 06.02.2022
3883 Clouds 21 1014 57 10000 4.63 250 20:48 06.02.2022
3884 Clouds 21 1014 58 10000 4.63 250 20:23 06.02.2022
3885 Clouds 21 1014 54 10000 4.12 260 19:22 06.02.2022
3886 Clouds 20 1015 54 10000 3.6 240 18:33 06.02.2022
3887 Clouds 20 1015 54 10000 3.6 270 17:37 06.02.2022
3888 Clouds 19 1016 53 10000 3.6 0 16:52 06.02.2022
3889 Clouds 19 1016 54 10000 3.6 0 16:20 06.02.2022
3890 Clouds 19 1016 53 10000 5.14 230 15:47 06.02.2022
3891 Clouds 18 1016 53 10000 5.14 230 15:24 06.02.2022
3892 Clouds 17 1016 62 10000 3.6 240 13:59 06.02.2022
3893 Clouds 16 1016 65 10000 3.6 240 13:20 06.02.2022
3894 Clouds 15 1016 76 10000 3.09 0 12:19 06.02.2022
3895 Clear 13 1016 87 10000 0.89 293 10:33 06.02.2022
3896 Clouds 13 1016 87 10000 0.45 0 09:43 06.02.2022
3897 Clear 14 1014 83 10000 3.09 0 08:41 06.02.2022
3898 Clear 15 1014 80 10000 4.63 180 06:31 06.02.2022
3899 Clouds 16 1014 80 10000 3.6 190 05:28 06.02.2022
3900 Clouds 16 1014 80 10000 3.6 190 05:28 06.02.2022
3901 Clouds 17 1013 84 10000 4.63 180 02:25 06.02.2022
3902 Clouds 18 1013 82 10000 0.45 45 00:32 06.02.2022
3903 Clouds 20 1011 74 10000 3.09 200 23:38 05.02.2022
3904 Clouds 20 1010 78 3000 3.09 200 21:46 05.02.2022
3905 Clouds 22 1009 61 10000 4.12 200 20:39 05.02.2022
3906 Clouds 22 1009 60 10000 4.12 200 20:19 05.02.2022
3907 Clouds 22 1009 61 10000 4.63 200 19:41 05.02.2022
3908 Clouds 21 1010 64 10000 3.6 0 18:30 05.02.2022
3909 Clouds 20 1009 74 10000 5.14 220 17:35 05.02.2022
3910 Drizzle 19 1009 79 9000 3.6 220 15:51 05.02.2022
3911 Drizzle 19 1009 83 9000 3.6 220 15:29 05.02.2022
3912 Clouds 20 1008 80 10000 2.57 240 13:25 05.02.2022
3913 Clouds 20 1008 80 10000 2.57 240 13:25 05.02.2022
3914 Clouds 19 1007 82 10000 3.09 220 12:42 05.02.2022
3915 Clear 18 1007 81 10000 2.06 220 11:29 05.02.2022
3916 Clouds 19 1007 82 10000 1.54 0 10:43 05.02.2022
3917 Clouds 19 1006 83 10000 4.45 250 09:49 05.02.2022
3918 Clouds 20 1007 83 10000 0.45 45 08:34 05.02.2022
3919 Clear 22 1006 85 10000 1.03 0 06:58 05.02.2022
3920 Clear 22 1006 86 10000 1.03 0 05:44 05.02.2022
3921 Clouds 23 1006 81 10000 2.06 110 01:47 05.02.2022
3922 Clouds 23 1006 81 10000 2.06 110 01:18 05.02.2022
3923 Clouds 24 1006 81 10000 2.57 70 00:36 05.02.2022
3924 Rain 24 1006 80 10000 3.09 90 23:33 04.02.2022
3925 Clouds 25 1006 76 10000 3.6 80 22:28 04.02.2022
3926 Clouds 26 1006 72 10000 4.12 70 21:36 04.02.2022
3927 Rain 26 1006 71 10000 4.12 70 21:18 04.02.2022
3928 Clouds 27 1007 65 10000 3.09 50 20:21 04.02.2022
3929 Clouds 27 1008 63 10000 3.09 60 18:27 04.02.2022
3930 Rain 26 1008 62 10000 2.57 120 15:55 04.02.2022
3931 Clouds 24 1009 71 10000 2.06 0 14:56 04.02.2022
3932 Clouds 23 1009 79 9000 3.09 190 13:55 04.02.2022
3933 Clouds 21 1009 90 8000 2.57 180 12:43 04.02.2022
3934 Clouds 20 1009 94 7000 2.06 190 11:43 04.02.2022
3935 Clouds 20 1008 94 7000 1.03 0 10:37 04.02.2022
3936 Clouds 20 1008 94 10000 1.03 0 08:48 04.02.2022
3937 Clouds 21 1009 91 10000 1.03 160 06:57 04.02.2022
3938 Clouds 22 1009 85 10000 5.66 110 02:48 04.02.2022
3939 Clouds 22 1008 85 10000 5.66 110 01:56 04.02.2022
3940 Clouds 24 1008 80 10000 4.63 110 23:29 03.02.2022
3941 Clouds 24 1009 80 10000 4.12 90 22:40 03.02.2022
3942 Clouds 25 1009 77 10000 4.63 90 21:49 03.02.2022
3943 Clouds 25 1009 73 10000 5.14 90 20:39 03.02.2022
3944 Clouds 25 1009 73 10000 5.14 90 20:19 03.02.2022
3945 Rain 26 1009 72 10000 4.12 120 19:32 03.02.2022
3946 Clear 24 1010 74 10000 3.6 120 18:38 03.02.2022
3947 Rain 24 1010 80 10000 3.09 110 17:33 03.02.2022
3948 Clear 23 1009 82 10000 5.14 100 16:26 03.02.2022
3949 Rain 21 1010 93 5000 1.54 90 14:49 03.02.2022
3950 Rain 20 1011 96 9000 1.03 0 12:58 03.02.2022
3951 Rain 20 1012 97 5000 1.03 0 11:22 03.02.2022
3952 Rain 24 1008 64 10000 1.03 0 08:37 03.02.2022
3953 Rain 23 1011 72 10000 4.12 200 05:26 03.02.2022
3954 Clear 27 1008 60 10000 4.12 90 00:32 03.02.2022
3955 Clear 28 1008 58 10000 4.12 90 23:39 02.02.2022
3956 Clear 31 1009 51 10000 5.14 90 21:55 02.02.2022
3957 Clear 31 1009 48 10000 5.14 90 21:31 02.02.2022
3958 Clouds 32 1010 46 10000 4.63 80 20:40 02.02.2022
3959 Clouds 32 1011 39 10000 2.57 70 19:58 02.02.2022
3960 Clouds 32 1011 39 10000 2.57 70 19:27 02.02.2022
3961 Clouds 32 1011 40 10000 1.54 0 18:39 02.02.2022
3962 Clear 31 1010 33 10000 2.55 67 17:44 02.02.2022
3963 Clear 31 1011 36 10000 2.65 40 17:19 02.02.2022
3964 Clear 31 1011 32 10000 2.65 40 16:41 02.02.2022
3965 Clear 25 1012 59 10000 2.57 30 12:57 02.02.2022
3966 Clear 24 1012 61 10000 2.57 30 12:20 02.02.2022
3967 Clear 23 1011 66 10000 3.09 20 11:32 02.02.2022
3968 Rain 22 1010 69 10000 4.12 360 09:46 02.02.2022
3969 Clear 23 1010 70 10000 4.12 360 07:32 02.02.2022
3970 Clear 28 1009 51 10000 3.09 30 22:51 01.02.2022
3971 Clear 28 1008 48 10000 3.85 62 21:40 01.02.2022
3972 Clear 28 1011 47 10000 4.12 30 19:58 01.02.2022
3973 Clear 27 1011 46 10000 3.13 52 17:41 01.02.2022
3974 Clear 25 1013 48 10000 3.6 360 16:36 01.02.2022
3975 Clear 21 1014 62 10000 6.17 360 13:32 01.02.2022
3976 Clear 20 1014 63 10000 5.14 10 12:30 01.02.2022
3977 Clear 18 1013 67 10000 5.66 10 11:19 01.02.2022
3978 Clear 21 1013 50 10000 5.66 110 02:32 01.02.2022
3979 Clear 23 1011 49 10000 5.14 80 23:40 31.01.2022
3980 Clear 25 1011 33 10000 2.06 0 22:48 31.01.2022
3981 Clear 26 1011 29 10000 2.57 190 21:38 31.01.2022
3982 Clear 26 1011 28 10000 3.09 170 20:45 31.01.2022
3983 Clear 26 1011 29 10000 3.09 170 20:26 31.01.2022
3984 Clear 26 1012 31 10000 2.57 170 18:54 31.01.2022
3985 Clear 26 1012 32 10000 2.57 170 18:20 31.01.2022
3986 Clear 25 1012 32 10000 3.6 170 17:25 31.01.2022
3987 Clear 24 1013 33 10000 4.12 140 16:25 31.01.2022
3988 Clear 23 1012 34 10000 6.17 140 14:54 31.01.2022
3989 Clear 21 1012 36 10000 6.69 140 13:43 31.01.2022
3990 Clear 20 1011 41 10000 6.17 140 12:38 31.01.2022
3991 Clear 18 1011 54 10000 5.66 150 11:31 31.01.2022
3992 Clouds 18 1010 63 10000 6.17 160 10:48 31.01.2022
3993 Clouds 19 1009 78 10000 6.17 160 09:38 31.01.2022
3994 Clear 20 1008 82 10000 4.12 190 08:56 31.01.2022
3995 Clear 20 1007 86 10000 4.12 190 08:20 31.01.2022
3996 Clear 22 1007 78 10000 3.6 310 07:43 31.01.2022
3997 Clear 24 1006 66 10000 3.09 320 05:33 31.01.2022
3998 Clear 27 1006 52 10000 5.14 340 00:36 31.01.2022
3999 Clear 29 1005 50 10000 4.12 10 22:33 30.01.2022
4000 Clear 29 1006 50 10000 3.6 30 21:46 30.01.2022
4001 Clear 30 1006 50 10000 3.6 30 21:26 30.01.2022
4002 Clear 30 1005 49 10000 4.43 37 20:53 30.01.2022
4003 Clear 30 1005 49 10000 4.43 37 20:31 30.01.2022
4004 Clear 29 1007 50 10000 4.63 30 19:56 30.01.2022
4005 Clear 29 1007 50 10000 4.55 32 18:51 30.01.2022
4006 Clear 29 1008 49 10000 4.49 22 18:22 30.01.2022
4007 Clear 29 1008 48 10000 4.49 22 17:31 30.01.2022
4008 Clear 28 1009 48 10000 4.66 14 16:43 30.01.2022
4009 Clear 28 1010 52 10000 4.99 6 16:23 30.01.2022
4010 Clear 27 1010 55 10000 4.99 6 15:54 30.01.2022
4011 Clear 27 1010 57 10000 4.99 6 15:33 30.01.2022
4012 Clear 26 1010 61 10000 5.47 2 14:47 30.01.2022
4013 Clear 24 1011 68 10000 5.66 350 13:47 30.01.2022
4014 Clear 23 1011 71 10000 7.72 360 12:46 30.01.2022
4015 Clear 21 1011 77 10000 8.23 360 10:47 30.01.2022
4016 Clear 21 1011 77 10000 8.23 360 10:25 30.01.2022
4017 Clear 21 1011 75 10000 5.66 10 09:22 30.01.2022
4018 Rain 22 1010 68 10000 4.12 350 07:58 30.01.2022
4019 Clear 24 1011 77 10000 4.63 80 02:44 30.01.2022
4020 Clear 25 1011 70 10000 4.12 90 01:52 30.01.2022
4021 Clouds 26 1011 63 10000 5.14 110 23:46 29.01.2022
4022 Clouds 27 1010 57 10000 4.57 76 22:48 29.01.2022
4023 Clear 28 1011 52 10000 3.09 40 21:28 29.01.2022
4024 Clouds 28 1011 48 10000 3.79 67 20:50 29.01.2022
4025 Clouds 28 1013 49 10000 3.09 40 19:51 29.01.2022
4026 Clouds 28 1013 50 10000 3.09 40 19:30 29.01.2022
4027 Clouds 28 1013 53 10000 3.6 40 18:43 29.01.2022
4028 Clear 28 1013 53 10000 2.7 47 17:46 29.01.2022
4029 Clear 27 1013 52 10000 3.39 37 16:43 29.01.2022
4030 Clouds 26 1015 62 10000 4.12 360 15:20 29.01.2022
4031 Clear 23 1015 69 10000 5.66 360 13:47 29.01.2022
4032 Clear 23 1015 70 10000 5.66 360 13:26 29.01.2022
4033 Clear 22 1015 73 10000 4.63 360 12:42 29.01.2022
4034 Clear 20 1015 77 10000 5.14 360 11:38 29.01.2022
4035 Clear 19 1014 87 10000 4.12 360 10:25 29.01.2022
4036 Clear 20 1014 83 10000 3.6 60 07:24 29.01.2022
4037 Clear 22 1014 57 10000 4.12 90 01:35 29.01.2022
4038 Clear 22 1014 51 10000 4.63 110 00:31 29.01.2022
4039 Clear 24 1013 33 10000 3.45 95 22:53 28.01.2022
4040 Clear 24 1014 39 10000 4.63 90 22:29 28.01.2022
4041 Clear 25 1014 34 10000 4.12 110 21:53 28.01.2022
4042 Clear 24 1015 42 10000 3.6 70 20:31 28.01.2022
4043 Clear 24 1016 46 10000 4.12 70 19:44 28.01.2022
4044 Clouds 24 1016 52 10000 4.12 60 18:48 28.01.2022
4045 Clouds 24 1017 56 10000 3.6 60 17:43 28.01.2022
4046 Clouds 22 1018 58 10000 2.57 20 15:28 28.01.2022
4047 Clouds 20 1018 64 10000 3.09 350 13:59 28.01.2022
4048 Clouds 19 1018 64 10000 2.57 40 12:32 28.01.2022
4049 Clouds 17 1018 70 10000 1.54 190 11:38 28.01.2022
4050 Clouds 15 1018 77 10000 1.03 0 09:59 28.01.2022
4051 Clouds 16 1018 75 10000 2.06 170 08:41 28.01.2022
4052 Clouds 17 1018 72 10000 2.57 150 07:36 28.01.2022
4053 Clouds 18 1019 71 10000 4.12 140 05:23 28.01.2022
4054 Clouds 19 1020 66 10000 5.66 120 03:45 28.01.2022
4055 Clouds 19 1020 63 10000 6.17 110 02:22 28.01.2022
4056 Clear 20 1019 63 10000 6.69 110 01:33 28.01.2022
4057 Clouds 22 1019 58 10000 6.69 110 23:25 27.01.2022
4058 Clouds 22 1019 56 10000 8.75 100 21:49 27.01.2022
4059 Clouds 23 1019 55 10000 8.75 100 21:29 27.01.2022
4060 Clouds 23 1020 47 10000 7.2 100 20:44 27.01.2022
4061 Clouds 23 1020 46 10000 5.66 120 18:55 27.01.2022
4062 Clouds 22 1021 45 10000 5.14 140 17:56 27.01.2022
4063 Clear 19 1021 55 10000 5.14 150 14:42 27.01.2022
4064 Clear 18 1021 58 10000 6.17 150 13:35 27.01.2022
4065 Clear 17 1021 62 10000 5.14 160 12:40 27.01.2022
4066 Clear 14 1020 74 10000 4.63 160 10:23 27.01.2022
4067 Clear 14 1020 75 10000 4.63 170 08:56 27.01.2022
4068 Clear 14 1020 75 10000 4.63 170 08:30 27.01.2022
4069 Clear 16 1020 71 10000 4.63 160 05:59 27.01.2022
4070 Clear 19 1018 65 10000 8.23 150 02:36 27.01.2022
4071 Clouds 23 1013 67 10000 7.72 150 22:44 26.01.2022
4072 Clouds 23 1013 78 10000 8.75 140 21:55 26.01.2022
4073 Clouds 23 1013 81 10000 8.75 140 21:31 26.01.2022
4074 Clouds 24 1012 84 10000 7.72 150 20:35 26.01.2022
4075 Clouds 25 1011 85 10000 7.72 140 19:55 26.01.2022
4076 Clouds 25 1011 87 6000 6.17 160 19:19 26.01.2022
4077 Clouds 27 1010 75 9000 6.17 150 18:26 26.01.2022
4078 Clouds 27 1010 75 10000 5.66 160 17:49 26.01.2022
4079 Clouds 27 1009 76 10000 5.66 160 17:19 26.01.2022
4080 Clouds 27 1009 76 10000 3.6 170 16:26 26.01.2022
4081 Clouds 27 1008 75 10000 3.6 170 15:45 26.01.2022
4082 Clouds 25 1007 83 10000 1.03 0 12:54 26.01.2022
4083 Clouds 24 1007 91 10000 1.03 0 11:34 26.01.2022
4084 Clouds 24 1007 90 10000 1.03 0 10:19 26.01.2022
4085 Rain 24 1007 90 10000 1.54 270 09:42 26.01.2022
4086 Clear 24 1007 90 10000 2.57 320 07:31 26.01.2022
4087 Clear 26 1005 82 10000 4.12 100 00:44 26.01.2022
4088 Rain 27 1006 85 10000 5.66 100 23:44 25.01.2022
4089 Clouds 27 1008 83 10000 4.12 70 22:50 25.01.2022
4090 Clouds 27 1008 83 10000 4.12 70 22:50 25.01.2022
4091 Clouds 27 1008 84 10000 4.12 70 22:21 25.01.2022
4092 Clouds 27 1008 80 10000 3.09 50 21:35 25.01.2022
4093 Rain 27 1008 75 10000 1.54 210 20:46 25.01.2022
4094 Clouds 27 1009 78 10000 2.06 200 19:59 25.01.2022
4095 Clouds 27 1009 75 10000 2.06 200 19:34 25.01.2022
4096 Rain 27 1010 80 10000 3.09 0 18:20 25.01.2022
4097 Clouds 28 1010 78 10000 2.57 20 17:39 25.01.2022
4098 Rain 30 1009 76 10000 2.57 40 16:35 25.01.2022
4099 Clouds 30 1009 78 10000 0.61 345 15:39 25.01.2022
4100 Clouds 29 1009 81 10000 3.6 100 15:20 25.01.2022
4101 Clouds 29 1009 79 10000 3.6 100 14:56 25.01.2022
4102 Clear 26 1010 83 10000 4.12 110 12:23 25.01.2022
4103 Clear 24 1009 90 10000 1.54 120 09:39 25.01.2022
4104 Clear 24 1009 89 10000 1.54 150 08:21 25.01.2022
4105 Clear 25 1010 87 10000 2.06 90 07:27 25.01.2022
4106 Clear 26 1010 87 10000 2.57 70 05:26 25.01.2022
4107 Clear 27 1009 72 10000 5.14 130 00:57 25.01.2022
4108 Clear 28 1008 67 10000 4.12 90 23:36 24.01.2022
4109 Clear 29 1008 66 10000 4.12 90 23:18 24.01.2022
4110 Rain 29 1008 64 10000 1.54 110 22:42 24.01.2022
4111 Rain 29 1008 65 10000 1.54 110 22:23 24.01.2022
4112 Clouds 30 1010 65 10000 2.06 50 21:42 24.01.2022
4113 Clouds 30 1010 65 10000 2.06 50 21:24 24.01.2022
4114 Clouds 30 1011 62 10000 2.57 30 20:27 24.01.2022
4115 Rain 30 1012 62 10000 2.06 20 19:38 24.01.2022
4116 Clouds 30 1011 64 10000 2.16 86 18:50 24.01.2022
4117 Clouds 28 1013 71 10000 3.09 50 17:39 24.01.2022
4118 Clouds 29 1013 71 10000 3.09 50 17:21 24.01.2022
4119 Clouds 28 1012 69 10000 2.11 92 16:31 24.01.2022
4120 Clouds 27 1012 73 10000 4.12 70 15:25 24.01.2022
4121 Clouds 26 1012 75 8000 2.06 140 13:58 24.01.2022
4122 Clouds 25 1012 79 8000 2.06 180 12:34 24.01.2022
4123 Clouds 23 1012 85 7000 1.54 200 11:41 24.01.2022
4124 Clouds 21 1012 93 7000 1.54 250 10:18 24.01.2022
4125 Clouds 21 1011 93 8000 1.03 0 09:44 24.01.2022
4126 Clouds 21 1012 94 10000 2.73 80 07:40 24.01.2022
4127 Clouds 24 1011 80 10000 1.03 0 01:38 24.01.2022
4128 Clouds 24 1011 77 10000 1.03 0 00:50 24.01.2022
4129 Clouds 25 1011 76 10000 1.03 0 00:29 24.01.2022
4130 Clouds 26 1010 71 10000 2.06 220 22:58 23.01.2022
4131 Clouds 26 1010 72 10000 2.06 330 21:52 23.01.2022
4132 Clouds 26 1010 71 10000 2.06 330 21:27 23.01.2022
4133 Clouds 25 1011 74 10000 2.57 350 20:55 23.01.2022
4134 Clouds 26 1011 74 10000 2.57 350 20:21 23.01.2022
4135 Clouds 25 1011 75 10000 2.57 350 18:53 23.01.2022
4136 Rain 25 1011 74 10000 1.54 0 17:56 23.01.2022
4137 Clouds 25 1011 76 10000 1.54 0 16:55 23.01.2022
4138 Clouds 24 1011 79 10000 1.54 290 15:45 23.01.2022
4139 Rain 23 1011 80 10000 2.57 230 14:34 23.01.2022
4140 Clouds 23 1010 84 10000 2.06 190 13:43 23.01.2022
4141 Rain 21 1010 90 10000 1.54 170 12:40 23.01.2022
4142 Clouds 21 1010 91 10000 1.54 170 12:18 23.01.2022
4143 Rain 21 1010 96 10000 2.57 120 11:25 23.01.2022
4144 Rain 20 1009 95 10000 1.54 0 10:57 23.01.2022
4145 Clouds 20 1009 95 10000 1.54 0 10:23 23.01.2022
4146 Clouds 21 1009 96 10000 2.06 180 09:25 23.01.2022
4147 Rain 21 1007 95 9000 4.12 130 05:59 23.01.2022
4148 Clouds 22 1009 97 10000 0.45 0 03:20 23.01.2022
4149 Rain 22 1008 98 10000 7.29 110 01:36 23.01.2022
4150 Thunderstorm 22 1009 95 2500 2.57 110 00:42 23.01.2022
4151 Thunderstorm 22 1009 88 9000 2.57 150 23:57 22.01.2022
4152 Thunderstorm 21 1007 94 2500 4.63 0 22:48 22.01.2022
4153 Rain 24 1007 83 10000 5.66 170 21:58 22.01.2022
4154 Clouds 25 1007 80 10000 6.17 180 20:26 22.01.2022
4155 Clouds 25 1007 78 10000 4.63 180 19:34 22.01.2022
4156 Clouds 25 1007 83 10000 3.09 210 18:36 22.01.2022
4157 Clouds 27 1008 78 10000 2.57 160 17:42 22.01.2022
4158 Clouds 27 1008 82 10000 2.06 200 16:57 22.01.2022
4159 Clouds 26 1008 87 10000 2.06 200 16:20 22.01.2022
4160 Clouds 26 1008 86 10000 2.57 150 15:42 22.01.2022
4161 Clouds 24 1008 92 8000 2.57 140 13:59 22.01.2022
4162 Clouds 23 1008 93 5000 3.09 160 12:58 22.01.2022
4163 Rain 23 1008 96 10000 3.09 160 12:30 22.01.2022
4164 Clouds 22 1009 96 8000 3.6 170 11:57 22.01.2022
4165 Clouds 22 1007 96 3000 3.6 180 10:38 22.01.2022
4166 Thunderstorm 23 1007 93 500 3.09 170 10:19 22.01.2022
4167 Clear 24 1005 88 10000 3.6 80 08:54 22.01.2022
4168 Clear 24 1005 88 10000 3.6 80 08:27 22.01.2022
4169 Clear 24 1008 82 10000 3.6 70 05:20 22.01.2022
4170 Thunderstorm 25 1009 77 10000 3.6 100 01:58 22.01.2022
4171 Rain 25 1008 67 10000 6.69 140 23:48 21.01.2022
4172 Rain 26 1009 68 10000 7.2 160 22:41 21.01.2022
4173 Clouds 29 1005 72 10000 7.78 108 20:45 21.01.2022
4174 Clouds 30 1008 73 10000 6.17 90 18:41 21.01.2022
4175 Clouds 29 1008 73 10000 7.2 100 17:45 21.01.2022
4176 Clouds 28 1009 74 9000 4.63 110 15:48 21.01.2022
4177 Clouds 27 1009 78 10000 4.12 120 14:37 21.01.2022
4178 Rain 25 1010 86 10000 1.03 0 12:40 21.01.2022
4179 Rain 25 1009 87 10000 3.6 40 11:29 21.01.2022
4180 Rain 25 1008 86 10000 6.17 60 10:22 21.01.2022
4181 Clouds 24 1009 86 10000 4.11 47 08:25 21.01.2022
4182 Clouds 24 1009 86 10000 4.11 47 08:25 21.01.2022
4183 Clear 24 1008 82 10000 2.06 20 07:19 21.01.2022
4184 Rain 26 1011 87 10000 8.23 120 23:54 20.01.2022
4185 Clear 27 1011 77 10000 8.23 120 22:44 20.01.2022
4186 Clouds 28 1011 73 10000 8.75 120 21:47 20.01.2022
4187 Clouds 29 1012 69 10000 5.66 130 20:56 20.01.2022
4188 Clouds 27 1013 74 10000 6.17 140 19:21 20.01.2022
4189 Clouds 26 1014 72 8000 4.63 160 18:51 20.01.2022
4190 Clouds 28 1013 76 10000 6.17 100 17:30 20.01.2022
4191 Clouds 28 1014 76 10000 4.63 90 15:45 20.01.2022
4192 Clouds 27 1014 77 10000 4.63 90 15:24 20.01.2022
4193 Clouds 26 1015 85 10000 5.66 100 13:42 20.01.2022
4194 Clouds 24 1015 87 10000 5.66 110 12:35 20.01.2022
4195 Clouds 24 1015 92 10000 5.14 130 11:57 20.01.2022
4196 Clouds 23 1016 95 10000 0.89 0 10:40 20.01.2022
4197 Clouds 23 1016 93 10000 5.66 110 09:40 20.01.2022
4198 Clouds 23 1015 92 10000 6.17 100 08:34 20.01.2022
4199 Clouds 23 1016 91 10000 9.77 110 05:34 20.01.2022
4200 Clouds 25 1015 83 10000 8.75 130 23:35 19.01.2022
4201 Clouds 26 1015 82 10000 8.23 110 22:32 19.01.2022
4202 Clouds 26 1015 78 10000 7.72 110 21:24 19.01.2022
4203 Clouds 26 1015 79 10000 7.72 100 20:50 19.01.2022
4204 Clouds 27 1016 77 10000 6.69 100 19:54 19.01.2022
4205 Clouds 26 1016 77 10000 4.12 100 18:40 19.01.2022
4206 Clouds 26 1016 84 10000 3.6 60 17:45 19.01.2022
4207 Clouds 26 1016 84 10000 4.12 80 16:57 19.01.2022
4208 Clouds 23 1017 95 10000 3.6 80 14:42 19.01.2022
4209 Mist 21 1017 97 2000 2.57 150 12:43 19.01.2022
4210 Drizzle 21 1016 97 1500 1.54 170 11:42 19.01.2022
4211 Drizzle 21 1016 98 3000 4.12 150 10:35 19.01.2022
4212 Drizzle 21 1016 98 2500 8.75 110 09:34 19.01.2022
4213 Clouds 22 1016 94 8000 11.83 100 06:56 19.01.2022
4214 Clouds 22 1017 94 10000 0.89 45 02:41 19.01.2022
4215 Clouds 22 1015 90 10000 7.92 86 23:20 18.01.2022
4216 Clouds 23 1015 91 9000 9.77 100 22:34 18.01.2022
4217 Rain 23 1015 92 7000 9.26 100 20:59 18.01.2022
4218 Rain 24 1015 92 10000 8.75 100 19:55 18.01.2022
4219 Rain 24 1015 92 10000 8.75 100 19:36 18.01.2022
4220 Rain 24 1015 84 10000 6.17 80 18:51 18.01.2022
4221 Rain 23 1016 90 9000 5.14 70 17:58 18.01.2022
4222 Rain 23 1016 89 9000 4.63 70 16:50 18.01.2022
4223 Rain 23 1017 87 10000 6.17 70 15:47 18.01.2022
4224 Rain 23 1017 86 10000 6.17 70 15:21 18.01.2022
4225 Rain 23 1017 83 10000 8.59 84 12:33 18.01.2022
4226 Rain 23 1013 86 10000 9.77 100 10:47 18.01.2022
4227 Rain 22 1012 89 10000 10.8 110 08:59 18.01.2022
4228 Clouds 23 1012 89 10000 11.32 110 07:51 18.01.2022
4229 Clouds 22 1012 89 10000 6.69 140 02:33 18.01.2022
4230 Clouds 23 1009 82 10000 11.32 120 23:38 17.01.2022
4231 Clouds 24 1008 77 10000 8.23 130 22:26 17.01.2022
4232 Clouds 25 1008 72 10000 8.23 120 21:33 17.01.2022
4233 Clouds 26 1008 70 10000 6.69 110 20:24 17.01.2022
4234 Clouds 26 1008 72 10000 5.14 80 18:30 17.01.2022
4235 Rain 25 1008 74 10000 5.66 70 17:25 17.01.2022
4236 Rain 25 1008 75 10000 6.69 100 16:35 17.01.2022
4237 Rain 25 1007 80 10000 4.63 80 15:18 17.01.2022
4238 Rain 24 1006 84 10000 6.69 100 14:43 17.01.2022
4239 Rain 22 1007 87 10000 3.09 170 13:20 17.01.2022
4240 Rain 22 1008 86 10000 2.57 210 12:55 17.01.2022
4241 Rain 21 1007 86 10000 4.63 120 11:48 17.01.2022
4242 Rain 22 1005 83 10000 6.17 130 10:21 17.01.2022
4243 Rain 22 1005 85 10000 10.29 130 09:33 17.01.2022
4244 Rain 21 1005 85 9000 5.14 170 07:23 17.01.2022
4245 Clouds 27 1004 54 10000 2.57 170 02:54 17.01.2022
4246 Clouds 31 1002 55 10000 2.57 180 00:55 17.01.2022
4247 Clouds 31 1002 57 10000 2.06 280 22:18 16.01.2022
4248 Clouds 32 1002 57 10000 3.6 300 20:34 16.01.2022
4249 Clouds 32 1003 59 10000 5.14 320 18:51 16.01.2022
4250 Clouds 31 1003 64 10000 5.14 340 17:57 16.01.2022
4251 Rain 30 1003 63 10000 4.12 330 16:59 16.01.2022
4252 Clear 30 1003 64 10000 4.12 330 16:20 16.01.2022
4253 Rain 24 1002 82 10000 1.03 0 14:30 16.01.2022
4254 Rain 24 1002 91 10000 3.6 300 13:34 16.01.2022
4255 Rain 22 1004 75 10000 3.15 352 12:27 16.01.2022
4256 Rain 23 1004 99 10000 0.45 113 11:38 16.01.2022
4257 Rain 23 1003 93 7000 5.14 360 10:46 16.01.2022
4258 Rain 23 1003 91 10000 2.06 40 09:59 16.01.2022
4259 Rain 22 1002 94 5000 3.09 20 09:38 16.01.2022
4260 Rain 22 1002 94 5000 3.09 20 09:20 16.01.2022
4261 Thunderstorm 23 1005 94 5000 1.54 270 07:23 16.01.2022
4262 Clear 30 1003 70 10000 2.06 60 00:36 16.01.2022
4263 Clouds 33 1002 57 9000 4.63 340 22:55 15.01.2022
4264 Clouds 34 1004 56 9000 6.69 330 21:22 15.01.2022
4265 Rain 35 1004 57 9000 3.09 10 20:45 15.01.2022
4266 Clouds 36 1004 53 10000 0.45 113 20:22 15.01.2022
4267 Clouds 38 1004 46 10000 5.17 40 19:27 15.01.2022
4268 Clouds 38 1005 46 10000 3.94 28 18:23 15.01.2022
4269 Clouds 37 1006 52 10000 5.02 51 16:49 15.01.2022
4270 Clouds 37 1006 52 10000 5.02 51 16:49 15.01.2022
4271 Clouds 35 1008 50 10000 4.06 20 14:38 15.01.2022
4272 Clouds 31 1009 55 8000 3.6 320 12:52 15.01.2022
4273 Clouds 29 1009 60 9000 3.09 340 11:32 15.01.2022
4274 Clear 29 1008 58 9000 1.54 350 09:46 15.01.2022
4275 Clear 32 1009 48 10000 0 0 04:46 15.01.2022
4276 Clear 38 1007 26 10000 4.92 13 23:21 14.01.2022
4277 Clouds 40 1005 26 10000 4.85 39 21:18 14.01.2022
4278 Clouds 41 1006 25 10000 4.87 41 20:25 14.01.2022
4279 Clouds 41 1006 22 10000 4.87 41 19:50 14.01.2022
4280 Clear 40 1007 24 10000 4.68 53 18:41 14.01.2022
4281 Clear 39 1007 29 10000 4.13 39 17:36 14.01.2022
4282 Clear 37 1009 37 10000 3.63 19 16:42 14.01.2022
4283 Clear 35 1009 41 10000 3.93 359 15:30 14.01.2022
4284 Clear 33 1011 49 10000 3.51 346 14:25 14.01.2022
4285 Clear 29 1011 63 10000 5.14 360 12:47 14.01.2022
4286 Clear 27 1010 66 10000 4.63 360 11:51 14.01.2022
4287 Clear 25 1010 73 10000 2.57 350 10:24 14.01.2022
4288 Clear 26 1010 71 10000 4.63 10 08:52 14.01.2022
4289 Clear 26 1010 66 10000 2.06 30 07:29 14.01.2022
4290 Clear 28 1010 72 10000 5.14 120 02:20 14.01.2022
4291 Clear 31 1010 56 10000 7.2 110 23:40 13.01.2022
4292 Clear 34 1010 38 10000 5.66 100 21:46 13.01.2022
4293 Clear 35 1010 38 10000 5.66 100 21:27 13.01.2022
4294 Clear 35 1012 37 10000 3.6 80 19:44 13.01.2022
4295 Clear 35 1012 37 10000 3.6 80 19:23 13.01.2022
4296 Clear 35 1013 33 10000 1.54 20 18:33 13.01.2022
4297 Clear 33 1014 38 10000 2.06 30 16:43 13.01.2022
4298 Clear 32 1015 41 10000 0.89 90 15:38 13.01.2022
4299 Clear 30 1014 51 10000 3.6 10 14:50 13.01.2022
4300 Clear 27 1015 56 10000 3.6 360 13:22 13.01.2022
4301 Rain 23 1013 75 10000 3.6 30 10:29 13.01.2022
4302 Rain 23 1013 72 10000 3.09 40 09:22 13.01.2022
4303 Clear 23 1013 71 10000 3.09 60 08:28 13.01.2022
4304 Clear 24 1013 67 10000 3.09 50 07:25 13.01.2022
4305 Clear 24 1013 65 10000 4.63 90 06:41 13.01.2022
4306 Rain 25 1013 58 10000 5.66 90 05:20 13.01.2022
4307 Clear 25 1014 62 10000 6.69 100 03:24 13.01.2022
4308 Clear 26 1013 65 10000 7.2 110 00:56 13.01.2022
4309 Clear 27 1012 56 10000 7.2 110 23:50 12.01.2022
4310 Clear 28 1012 54 10000 7.2 110 23:30 12.01.2022
4311 Clear 30 1013 54 10000 7.2 100 21:58 12.01.2022
4312 Clear 30 1013 52 10000 7.2 100 21:23 12.01.2022
4313 Clear 30 1013 53 10000 7.2 100 20:57 12.01.2022
4314 Clear 30 1014 46 10000 6.17 100 19:57 12.01.2022
4315 Clear 30 1014 49 10000 5.66 110 18:43 12.01.2022
4316 Clear 30 1015 49 10000 6.69 100 17:51 12.01.2022
4317 Clear 29 1015 50 10000 7.2 100 16:39 12.01.2022
4318 Clear 27 1015 58 10000 7.2 110 14:49 12.01.2022
4319 Clear 26 1015 64 10000 6.17 110 13:34 12.01.2022
4320 Clear 25 1015 63 10000 5.66 120 12:35 12.01.2022
4321 Clear 22 1013 74 6000 7.72 130 08:50 12.01.2022
4322 Clear 22 1013 73 7000 6.69 130 07:52 12.01.2022
4323 Clear 22 1013 73 7000 6.69 130 07:32 12.01.2022
4324 Smoke 31 1008 44 4700 2.06 310 01:26 12.01.2022
4325 Clouds 37 1007 40 9000 3.09 340 23:25 11.01.2022
4326 Clear 38 1007 54 10000 3.09 360 22:24 11.01.2022
4327 Clouds 38 1007 38 9000 3.6 360 21:25 11.01.2022
4328 Clouds 40 1006 22 10000 3.9 27 20:33 11.01.2022
4329 Clouds 38 1008 34 7000 4.63 350 18:48 11.01.2022
4330 Clouds 38 1008 25 10000 3.09 23 17:42 11.01.2022
4331 Clouds 37 1009 30 10000 3.16 16 16:38 11.01.2022
4332 Clouds 36 1009 31 10000 2.83 4 15:59 11.01.2022
4333 Clouds 34 1010 36 10000 2.76 336 14:43 11.01.2022
4334 Clouds 32 1010 38 10000 3.63 329 13:58 11.01.2022
4335 Clouds 32 1010 39 10000 3.63 329 13:39 11.01.2022
4336 Clouds 31 1010 40 10000 3.73 329 13:21 11.01.2022
4337 Clear 28 1010 49 10000 4.12 340 12:22 11.01.2022
4338 Clear 24 1009 61 10000 1.03 0 10:24 11.01.2022
4339 Clear 25 1008 72 10000 1.54 20 07:35 11.01.2022
4340 Clear 30 1008 56 10000 2.06 70 00:43 11.01.2022
4341 Clear 30 1008 56 10000 2.06 70 00:21 11.01.2022
4342 Clear 32 1008 44 10000 2.06 60 23:28 10.01.2022
4343 Clear 33 1008 45 10000 2.57 40 22:19 10.01.2022
4344 Clear 33 1009 45 10000 4.12 70 21:54 10.01.2022
4345 Clear 34 1009 44 10000 4.12 70 21:21 10.01.2022
4346 Clear 34 1010 45 10000 3.6 60 20:57 10.01.2022
4347 Clear 34 1010 45 10000 3.6 60 20:28 10.01.2022
4348 Clouds 34 1011 44 9000 3.6 40 19:44 10.01.2022
4349 Clouds 34 1011 45 9000 3.6 40 19:21 10.01.2022
4350 Clear 33 1011 46 10000 3.09 50 18:50 10.01.2022
4351 Clear 34 1011 38 10000 2.65 74 17:56 10.01.2022
4352 Clear 32 1013 46 10000 3.09 30 16:42 10.01.2022
4353 Clouds 32 1013 44 10000 2.27 44 15:49 10.01.2022
4354 Clouds 29 1013 51 10000 2.36 23 14:34 10.01.2022
4355 Clear 25 1014 69 10000 4.12 10 12:18 10.01.2022
4356 Clear 24 1014 69 10000 5.66 360 11:25 10.01.2022
4357 Clear 23 1013 74 10000 4.63 10 09:52 10.01.2022
4358 Clear 24 1013 70 10000 3.6 20 07:31 10.01.2022
4359 Clear 24 1013 77 10000 1.54 170 05:49 10.01.2022
4360 Clear 26 1012 67 10000 7.2 120 01:31 10.01.2022
4361 Clear 27 1012 68 10000 6.17 120 00:25 10.01.2022
4362 Clear 28 1012 63 10000 7.2 110 23:40 09.01.2022
4363 Clear 29 1012 53 10000 6.69 100 22:38 09.01.2022
4364 Clear 30 1012 42 10000 6.17 100 21:46 09.01.2022
4365 Clear 30 1012 41 10000 6.17 100 21:23 09.01.2022
4366 Clear 30 1013 44 10000 6.17 100 20:51 09.01.2022
4367 Clear 30 1013 46 10000 6.17 100 20:33 09.01.2022
4368 Clear 30 1014 45 10000 4.12 100 19:44 09.01.2022
4369 Clear 30 1014 45 10000 4.12 100 19:23 09.01.2022
4370 Clear 29 1014 46 10000 2.06 80 18:52 09.01.2022
4371 Clear 29 1014 44 10000 2.06 80 18:33 09.01.2022
4372 Clear 28 1015 50 10000 2.06 0 17:31 09.01.2022
4373 Clouds 27 1016 52 10000 2.57 40 16:53 09.01.2022
4374 Clouds 26 1016 56 10000 4.12 20 15:57 09.01.2022
4375 Clouds 26 1016 54 10000 4.12 20 15:35 09.01.2022
4376 Clouds 25 1017 62 10000 4.63 20 14:40 09.01.2022
4377 Clouds 24 1017 65 10000 5.14 20 13:50 09.01.2022
4378 Clouds 23 1017 70 10000 4.63 50 12:50 09.01.2022
4379 Clouds 22 1017 71 10000 4.63 50 11:54 09.01.2022
4380 Clouds 21 1016 71 10000 5.14 50 10:52 09.01.2022
4381 Clouds 21 1016 77 10000 3.6 40 09:47 09.01.2022
4382 Clouds 22 1016 76 10000 5.14 0 08:51 09.01.2022
4383 Clear 24 1014 61 10000 9.26 60 05:21 09.01.2022
4384 Clear 25 1014 74 10000 8.23 120 01:24 09.01.2022
4385 Clear 26 1013 68 10000 10.29 110 23:44 08.01.2022
4386 Clear 27 1013 66 10000 10.29 110 23:26 08.01.2022
4387 Clear 28 1013 59 10000 8.23 120 22:19 08.01.2022
4388 Clear 28 1013 53 10000 7.72 100 21:25 08.01.2022
4389 Clear 29 1014 47 10000 6.69 100 20:41 08.01.2022
4390 Clear 29 1014 47 10000 6.69 100 20:19 08.01.2022
4391 Clouds 28 1015 49 10000 5.66 100 18:34 08.01.2022
4392 Clouds 27 1016 54 10000 6.17 100 17:22 08.01.2022
4393 Clouds 26 1017 53 10000 3.6 50 15:52 08.01.2022
4394 Clear 25 1017 57 10000 4.12 50 14:43 08.01.2022
4395 Clear 23 1017 63 10000 4.12 50 13:25 08.01.2022
4396 Clear 22 1017 65 10000 5.14 60 11:25 08.01.2022
4397 Clear 22 1017 67 10000 3.6 40 10:25 08.01.2022
4398 Clear 22 1016 68 10000 4.12 40 09:47 08.01.2022
4399 Clear 23 1016 68 10000 5.14 60 07:21 08.01.2022
4400 Clear 24 1016 77 10000 9.26 110 02:45 08.01.2022
4401 Clear 24 1015 72 10000 9.77 110 00:41 08.01.2022
4402 Clear 27 1015 60 10000 7.72 100 22:47 07.01.2022
4403 Clouds 28 1015 47 10000 6.69 100 20:56 07.01.2022
4404 Clouds 28 1016 50 10000 5.66 100 19:56 07.01.2022
4405 Clouds 28 1016 50 10000 3.6 100 18:58 07.01.2022
4406 Clouds 28 1016 50 10000 3.6 100 18:38 07.01.2022
4407 Clouds 27 1017 49 10000 2.57 60 17:25 07.01.2022
4408 Clouds 27 1017 52 10000 2.59 84 16:23 07.01.2022
4409 Clouds 23 1018 69 10000 4.12 10 13:53 07.01.2022
4410 Clouds 23 1018 70 10000 4.12 10 13:21 07.01.2022
4411 Clear 23 1017 71 10000 4.12 10 12:49 07.01.2022
4412 Clear 21 1016 76 10000 4.12 50 09:37 07.01.2022
4413 Clear 23 1015 71 10000 9.77 110 02:55 07.01.2022
4414 Clear 23 1015 72 10000 10.29 110 01:54 07.01.2022
4415 Clear 24 1014 70 10000 10.29 110 01:27 07.01.2022
4416 Clear 24 1014 70 10000 9.26 110 00:57 07.01.2022
4417 Clear 26 1014 57 10000 9.77 110 22:46 06.01.2022
4418 Clear 27 1015 53 10000 8.23 100 21:23 06.01.2022
4419 Clear 27 1015 47 10000 7.72 100 20:20 06.01.2022
4420 Clear 28 1016 43 10000 5.66 100 19:41 06.01.2022
4421 Clear 26 1017 42 10000 3.09 80 17:53 06.01.2022
4422 Clear 26 1017 41 10000 3.09 80 17:34 06.01.2022
4423 Clear 25 1018 46 10000 3.09 30 16:40 06.01.2022
4424 Clear 25 1018 47 10000 3 82 15:45 06.01.2022
4425 Clear 24 1018 48 10000 2.95 61 15:24 06.01.2022
4426 Clear 23 1018 55 10000 3.09 50 14:21 06.01.2022
4427 Clear 22 1018 56 10000 3.6 40 13:47 06.01.2022
4428 Clear 21 1018 61 10000 3.6 50 12:43 06.01.2022
4429 Clear 20 1018 64 10000 3.6 60 11:41 06.01.2022
4430 Clear 20 1018 64 10000 3.6 60 11:21 06.01.2022
4431 Clear 19 1017 68 10000 6.69 70 08:50 06.01.2022
4432 Clouds 21 1016 57 10000 9.77 110 00:42 06.01.2022
4433 Clear 23 1016 52 10000 9.26 100 23:36 05.01.2022
4434 Clear 23 1015 51 10000 8.75 110 22:54 05.01.2022
4435 Clear 24 1015 50 10000 8.75 110 22:30 05.01.2022
4436 Clear 24 1015 51 10000 8.23 110 21:46 05.01.2022
4437 Clear 24 1016 52 10000 8.23 100 20:49 05.01.2022
4438 Clear 25 1016 52 10000 5.66 90 19:58 05.01.2022
4439 Clear 26 1016 50 10000 6.17 90 18:33 05.01.2022
4440 Clear 26 1016 47 10000 5.14 70 17:23 05.01.2022
4441 Clouds 24 1016 46 10000 5.14 90 16:24 05.01.2022
4442 Clouds 24 1017 46 10000 5.66 110 15:20 05.01.2022
4443 Clear 21 1016 54 10000 4.63 140 13:38 05.01.2022
4444 Clear 20 1016 57 10000 4.12 140 12:49 05.01.2022
4445 Clear 16 1014 59 10000 3.6 150 08:57 05.01.2022
4446 Clear 17 1013 53 10000 5.66 150 07:31 05.01.2022
4447 Dust 23 1010 48 4500 8.23 130 01:59 05.01.2022
4448 Dust 26 1008 42 3500 7.2 130 23:50 04.01.2022
4449 Dust 27 1008 41 3500 7.2 130 23:26 04.01.2022
4450 Clear 28 1006 40 10000 4.12 160 22:21 04.01.2022
4451 Clear 30 1006 33 10000 4.12 170 20:50 04.01.2022
4452 Clear 31 1005 40 10000 4.12 0 18:46 04.01.2022
4453 Clear 32 1004 38 10000 4.63 0 17:38 04.01.2022
4454 Clear 31 1004 43 10000 4.63 220 16:40 04.01.2022
4455 Clear 31 1004 44 10000 4.63 220 16:21 04.01.2022
4456 Clouds 28 1006 53 10000 5.14 280 14:51 04.01.2022
4457 Clouds 28 1006 53 10000 5.14 280 14:33 04.01.2022
4458 Rain 28 1006 59 10000 6.69 290 13:26 04.01.2022
4459 Rain 26 1004 74 10000 3.6 320 10:29 04.01.2022
4460 Clear 26 1004 69 10000 4.12 320 08:59 04.01.2022
4461 Clear 27 1003 70 10000 3.6 350 06:46 04.01.2022
4462 Clear 28 1005 71 10000 6.17 100 00:50 04.01.2022
4463 Clear 29 1005 69 10000 6.17 100 00:31 04.01.2022
4464 Clouds 33 1004 49 10000 5.14 70 22:30 03.01.2022
4465 Clouds 34 1005 46 10000 5.14 70 21:41 03.01.2022
4466 Clouds 34 1006 47 10000 3.09 50 20:51 03.01.2022
4467 Clouds 35 1006 47 10000 2.57 50 19:44 03.01.2022
4468 Clouds 35 1007 46 10000 2.06 40 18:32 03.01.2022
4469 Clear 34 1007 42 10000 3.09 40 17:34 03.01.2022
4470 Clear 35 1008 40 10000 0.45 135 16:56 03.01.2022
4471 Clear 31 1008 54 10000 1.19 46 14:54 03.01.2022
4472 Clouds 29 1009 67 10000 2.06 80 13:25 03.01.2022
4473 Clouds 27 1009 75 10000 3.09 70 12:28 03.01.2022
4474 Clear 25 1009 80 10000 4.12 90 11:30 03.01.2022
4475 Clear 24 1007 70 10000 2.57 150 09:41 03.01.2022
4476 Clouds 24 1007 68 10000 2.57 120 08:18 03.01.2022
4477 Rain 26 1007 78 10000 3.09 120 05:21 03.01.2022
4478 Clear 30 1004 55 10000 3.09 70 23:44 02.01.2022
4479 Clear 31 1003 47 10000 3.09 80 22:57 02.01.2022
4480 Clear 32 1003 44 10000 3.09 80 22:22 02.01.2022
4481 Clear 32 1003 39 10000 3.09 90 21:26 02.01.2022
4482 Clouds 32 1004 39 10000 4.12 80 20:30 02.01.2022
4483 Clouds 31 1004 43 10000 2.57 30 19:32 02.01.2022
4484 Clouds 30 1005 50 10000 3.6 20 18:56 02.01.2022
4485 Clouds 30 1005 52 10000 3.6 20 18:23 02.01.2022
4486 Clear 31 1006 52 10000 3.09 40 17:42 02.01.2022
4487 Clear 30 1006 55 10000 3.09 40 17:21 02.01.2022
4488 Clouds 29 1006 61 8000 3.6 50 16:28 02.01.2022
4489 Clear 29 1006 61 10000 3.09 0 15:39 02.01.2022
4490 Clear 27 1006 58 10000 2.06 200 13:57 02.01.2022
4491 Clear 23 1005 70 10000 2.06 0 12:32 02.01.2022
4492 Clouds 21 1006 78 9000 2.06 260 11:55 02.01.2022
4493 Clouds 20 1005 88 8000 3.09 300 10:55 02.01.2022
4494 Clear 20 1005 91 10000 1.03 0 09:58 02.01.2022
4495 Clouds 20 1004 91 10000 3.09 310 07:35 02.01.2022
4496 Rain 22 1004 81 10000 2.06 330 02:57 02.01.2022
4497 Clear 24 1002 73 10000 3.09 60 23:50 01.01.2022
4498 Clear 24 1002 73 10000 3.09 60 23:27 01.01.2022
4499 Clear 23 1002 73 10000 3.09 330 22:25 01.01.2022
4500 Clouds 23 1003 78 10000 3.6 340 21:54 01.01.2022
4501 Rain 23 1003 78 10000 3.6 340 21:36 01.01.2022
4502 Rain 23 1004 83 10000 4.12 20 20:27 01.01.2022
4503 Clouds 22 1004 83 10000 4.63 10 19:36 01.01.2022
4504 Clouds 31 1003 36 10000 7.14 311 18:51 01.01.2022
4505 Rain 24 1003 34 10000 7.52 300 17:38 01.01.2022
4506 Rain 23 1005 73 9000 5.14 310 16:35 01.01.2022
4507 Rain 23 1005 69 9000 5.14 340 15:37 01.01.2022
4508 Rain 23 1006 78 9000 2.57 290 14:25 01.01.2022
4509 Rain 24 1005 66 9000 3.6 280 13:41 01.01.2022
4510 Rain 24 1004 69 9000 4.63 300 12:25 01.01.2022
4511 Rain 24 1005 72 8000 5.66 300 11:25 01.01.2022
4512 Rain 23 1006 85 10000 0.45 315 10:56 01.01.2022
4513 Thunderstorm 25 1004 80 6000 6.17 300 09:48 01.01.2022
4514 Rain 26 1001 71 10000 4.63 20 08:35 01.01.2022
4515 Clouds 26 1002 70 10000 3.6 40 07:56 01.01.2022
4516 Clouds 26 1002 70 10000 3.6 40 07:37 01.01.2022
4517 Clear 27 1003 67 10000 3.6 70 06:43 01.01.2022
4518 Clear 27 1004 59 10000 6.69 100 04:39 01.01.2022
4519 Clear 27 1004 64 10000 5.14 90 03:50 01.01.2022
4520 Clear 28 1003 68 10000 7.2 110 23:53 31.12.2021
4521 Clouds 30 1003 59 10000 5.66 100 21:57 31.12.2021
4522 Clouds 30 1003 60 10000 5.66 100 21:39 31.12.2021
4523 Clouds 31 1005 60 10000 6.69 100 19:43 31.12.2021
4524 Clouds 29 1006 74 10000 6.69 100 18:50 31.12.2021
4525 Clouds 30 1007 67 10000 6.17 100 17:49 31.12.2021
4526 Clouds 30 1007 67 10000 6.17 100 17:24 31.12.2021
4527 Clouds 30 1007 68 10000 7.2 100 16:52 31.12.2021
4528 Clouds 30 1007 67 10000 7.2 100 16:18 31.12.2021
4529 Clouds 29 1008 68 10000 7.2 100 15:42 31.12.2021
4530 Clouds 29 1008 69 10000 7.2 100 15:20 31.12.2021
4531 Clouds 28 1008 72 10000 6.17 120 14:38 31.12.2021
4532 Clouds 26 1009 74 7000 5.14 120 13:45 31.12.2021
4533 Clouds 26 1009 74 7000 5.14 120 13:45 31.12.2021
4534 Mist 25 1009 77 5000 4.63 130 12:50 31.12.2021
4535 Mist 23 1009 80 5000 4.63 130 12:19 31.12.2021
4536 Clouds 22 1009 82 10000 4.12 150 11:41 31.12.2021
4537 Clouds 22 1009 83 10000 4.63 140 10:48 31.12.2021
4538 Clouds 22 1009 83 10000 4.63 140 10:25 31.12.2021
4539 Clear 22 1008 78 10000 2.57 150 09:34 31.12.2021
4540 Clear 23 1008 73 10000 2.06 160 08:50 31.12.2021
4541 Clear 24 1008 65 10000 2.57 160 07:49 31.12.2021
4542 Clear 29 1008 42 10000 4.12 160 01:38 31.12.2021
4543 Clear 32 1006 39 10000 2.06 50 22:54 30.12.2021
4544 Clear 32 1006 40 10000 2.06 50 22:27 30.12.2021
4545 Clear 33 1007 34 10000 2.06 150 21:38 30.12.2021
4546 Rain 32 1008 37 10000 4.12 200 20:58 30.12.2021
4547 Clear 32 1008 38 10000 4.12 200 20:35 30.12.2021
4548 Clear 33 1008 34 10000 2.06 0 19:50 30.12.2021
4549 Clear 33 1008 33 10000 2.06 0 19:24 30.12.2021
4550 Clear 34 1008 35 10000 3.09 30 18:26 30.12.2021
4551 Clouds 34 1010 30 10000 0.89 45 16:39 30.12.2021
4552 Clear 32 1009 35 10000 2.57 10 15:53 30.12.2021
4553 Clear 29 1009 41 10000 4.12 340 14:51 30.12.2021
4554 Clear 30 1009 44 10000 4.22 2 14:31 30.12.2021
4555 Clear 28 1009 46 10000 5.66 340 13:24 30.12.2021
4556 Clear 26 1009 57 10000 6.69 360 11:45 30.12.2021
4557 Clear 26 1008 59 10000 6.69 10 10:27 30.12.2021
4558 Clear 26 1008 58 10000 6.69 360 09:27 30.12.2021
4559 Clear 28 1008 51 10000 6.17 10 06:56 30.12.2021
4560 Clear 29 1008 47 10000 3.09 20 04:42 30.12.2021
4561 Clear 30 1008 43 10000 3.09 20 03:40 30.12.2021
4562 Clear 32 1007 34 10000 3.6 30 01:56 30.12.2021
4563 Clouds 35 1006 33 10000 6.94 58 23:36 29.12.2021
4564 Clouds 36 1007 26 10000 0.45 90 22:32 29.12.2021
4565 Clouds 36 1006 32 10000 6.3 66 21:54 29.12.2021
4566 Clouds 37 1006 31 10000 5.45 64 20:56 29.12.2021
4567 Clouds 37 1007 32 10000 4.59 50 20:25 29.12.2021
4568 Clouds 37 1007 32 10000 4.59 50 19:31 29.12.2021
4569 Clouds 36 1008 37 10000 5.62 47 18:30 29.12.2021
4570 Clear 35 1011 40 10000 3.6 30 17:35 29.12.2021
4571 Clear 35 1011 38 10000 3.6 10 16:58 29.12.2021
4572 Clear 35 1011 29 10000 3.6 10 16:19 29.12.2021
4573 Clouds 33 1012 31 10000 1.79 270 14:59 29.12.2021
4574 Clear 29 1013 39 10000 3.6 340 12:57 29.12.2021
4575 Clear 28 1013 44 10000 3.6 340 12:30 29.12.2021
4576 Clear 26 1012 47 10000 5.66 330 10:53 29.12.2021
4577 Clear 27 1010 43 10000 6.69 340 08:56 29.12.2021
4578 Clear 28 1010 49 10000 1.54 330 06:49 29.12.2021
4579 Clear 28 1010 51 10000 1.54 330 06:28 29.12.2021
4580 Clear 28 1011 59 10000 1.54 360 05:51 29.12.2021
4581 Clear 29 1011 65 10000 2.57 100 03:47 29.12.2021
4582 Clear 31 1009 53 10000 4.12 130 00:28 29.12.2021
4583 Clear 32 1009 50 10000 3.6 90 23:56 28.12.2021
4584 Clear 34 1009 39 10000 2.57 70 22:56 28.12.2021
4585 Clear 34 1009 40 10000 2.57 70 22:24 28.12.2021
4586 Clear 34 1009 41 10000 2.57 70 21:54 28.12.2021
4587 Clear 35 1007 37 10000 5.41 57 20:54 28.12.2021
4588 Clear 34 1008 39 10000 5.47 56 19:50 28.12.2021
4589 Clear 33 1011 41 10000 3.09 10 18:53 28.12.2021
4590 Clear 33 1011 39 10000 3.09 10 18:23 28.12.2021
4591 Clear 32 1012 41 10000 2.06 30 17:25 28.12.2021
4592 Clouds 30 1013 43 10000 3.09 10 15:52 28.12.2021
4593 Clouds 29 1013 43 10000 3.09 10 15:27 28.12.2021
4594 Clouds 28 1013 43 10000 2.57 360 14:53 28.12.2021
4595 Clouds 26 1013 48 10000 2.57 360 14:21 28.12.2021
4596 Clouds 25 1012 54 10000 1.54 0 13:54 28.12.2021
4597 Clouds 25 1012 50 10000 1.54 0 13:33 28.12.2021
4598 Clouds 24 1012 55 10000 3.6 360 12:55 28.12.2021
4599 Clouds 24 1011 58 10000 3.09 20 11:51 28.12.2021
4600 Clear 23 1010 57 10000 4.12 10 09:30 28.12.2021
4601 Clear 24 1009 58 10000 3.09 30 07:31 28.12.2021
4602 Clear 25 1010 65 10000 5.66 80 03:28 28.12.2021
4603 Clear 27 1009 67 10000 6.69 110 23:26 27.12.2021
4604 Clear 28 1009 61 10000 5.66 100 22:20 27.12.2021
4605 Clear 29 1009 57 10000 5.66 90 21:29 27.12.2021
4606 Clouds 31 1009 55 10000 5.14 80 20:24 27.12.2021
4607 Clouds 31 1009 55 10000 5.14 80 20:24 27.12.2021
4608 Clouds 30 1009 56 10000 4.12 20 19:45 27.12.2021
4609 Clouds 30 1010 57 10000 3.6 70 18:54 27.12.2021
4610 Clouds 29 1011 61 10000 3.6 60 17:50 27.12.2021
4611 Clouds 28 1011 64 10000 3.6 60 17:18 27.12.2021
4612 Clouds 27 1012 64 10000 4.12 80 15:53 27.12.2021
4613 Clouds 26 1012 68 10000 5.14 100 14:34 27.12.2021
4614 Clouds 26 1012 66 10000 5.14 100 13:58 27.12.2021
4615 Clouds 25 1011 68 10000 4.63 120 12:47 27.12.2021
4616 Clear 21 1010 78 10000 3.6 130 10:36 27.12.2021
4617 Clear 21 1010 80 10000 3.6 130 10:18 27.12.2021
4618 Clear 22 1009 82 10000 4.63 130 08:39 27.12.2021
4619 Clouds 22 1010 81 10000 2.57 130 07:32 27.12.2021
4620 Clear 27 1011 46 10000 1.54 200 02:26 27.12.2021
4621 Clouds 28 1010 39 7000 8.23 130 00:23 27.12.2021
4622 Clouds 31 1009 41 10000 4.12 340 23:41 26.12.2021
4623 Clouds 33 1009 35 10000 0.45 135 22:47 26.12.2021
4624 Clouds 34 1009 34 10000 0.89 45 21:30 26.12.2021
4625 Clouds 33 1008 36 10000 2.75 13 19:52 26.12.2021
4626 Clear 32 1011 40 10000 3.5 25 18:25 26.12.2021
4627 Clear 32 1013 36 10000 0.89 0 17:44 26.12.2021
4628 Clear 28 1014 47 10000 2.57 30 14:38 26.12.2021
4629 Clear 26 1014 56 10000 2.57 10 13:43 26.12.2021
4630 Clear 26 1014 60 10000 2.57 10 13:21 26.12.2021
4631 Clear 25 1014 66 10000 2.06 30 12:33 26.12.2021
4632 Rain 22 1013 81 10000 0 0 10:48 26.12.2021
4633 Clear 20 1012 87 10000 1.03 210 09:29 26.12.2021
4634 Clear 21 1012 85 10000 1.03 200 08:44 26.12.2021
4635 Clear 21 1013 84 10000 0 0 07:59 26.12.2021
4636 Clouds 24 1012 81 10000 6.17 110 01:36 26.12.2021
4637 Clear 25 1011 76 10000 7.72 110 23:58 25.12.2021
4638 Clear 26 1011 73 10000 7.72 110 23:28 25.12.2021
4639 Clear 27 1010 69 10000 6.17 100 22:28 25.12.2021
4640 Clear 29 1010 55 10000 6.17 80 21:18 25.12.2021
4641 Clouds 30 1009 41 10000 4.12 180 19:28 25.12.2021
4642 Clouds 30 1010 44 10000 3.6 0 18:57 25.12.2021
4643 Clouds 30 1010 44 10000 3.6 0 18:21 25.12.2021
4644 Clouds 29 1010 51 10000 3.6 170 16:42 25.12.2021
4645 Clouds 27 1010 64 10000 4.12 160 15:26 25.12.2021
4646 Clear 24 1009 71 10000 3.09 190 13:41 25.12.2021
4647 Clouds 22 1009 82 10000 3.6 190 11:54 25.12.2021
4648 Clouds 21 1008 87 8000 3.6 200 10:18 25.12.2021
4649 Clear 22 1007 87 10000 1.03 0 09:42 25.12.2021
4650 Rain 24 1009 71 10000 4.12 150 04:36 25.12.2021
4651 Clear 30 1006 51 10000 3.09 340 01:27 25.12.2021
4652 Clear 32 1005 44 10000 4.09 39 23:47 24.12.2021
4653 Clear 34 1007 39 10000 4.41 55 19:50 24.12.2021
4654 Clear 34 1008 36 10000 4.06 47 19:24 24.12.2021
4655 Clear 32 1010 42 10000 3.89 26 16:59 24.12.2021
4656 Clear 32 1011 43 10000 3.39 14 16:22 24.12.2021
4657 Clear 30 1012 47 5000 4.12 360 15:48 24.12.2021
4658 Clear 30 1011 46 10000 3.55 357 15:18 24.12.2021
4659 Clear 28 1012 53 6000 4.63 340 14:31 24.12.2021
4660 Clear 27 1012 54 10000 4.44 352 13:42 24.12.2021
4661 Clear 25 1013 61 10000 5.66 350 12:49 24.12.2021
4662 Clear 24 1013 62 10000 5.66 350 12:21 24.12.2021
4663 Clear 23 1013 65 10000 6.17 360 11:30 24.12.2021
4664 Clear 23 1012 68 10000 5.66 10 10:59 24.12.2021
4665 Clear 23 1012 68 10000 5.66 10 10:31 24.12.2021
4666 Clear 23 1012 71 10000 4.12 20 08:28 24.12.2021
4667 Rain 23 1012 74 10000 3.6 60 07:57 24.12.2021
4668 Clear 23 1013 74 10000 4.12 80 06:18 24.12.2021
4669 Clear 25 1014 73 10000 8.75 100 00:19 24.12.2021
4670 Clear 26 1014 68 10000 8.23 110 23:23 23.12.2021
4671 Clouds 27 1014 63 10000 7.72 100 22:44 23.12.2021
4672 Clouds 27 1014 60 10000 7.72 100 22:21 23.12.2021
4673 Clouds 28 1014 56 10000 6.69 100 21:34 23.12.2021
4674 Clouds 29 1015 54 10000 6.17 110 20:21 23.12.2021
4675 Clouds 29 1016 52 10000 6.17 100 19:27 23.12.2021
4676 Clouds 29 1017 46 10000 3.09 70 17:57 23.12.2021
4677 Clear 28 1017 51 10000 3.09 40 16:58 23.12.2021
4678 Clear 28 1017 53 10000 3.09 40 16:26 23.12.2021
4679 Clear 27 1018 58 10000 3.09 50 15:32 23.12.2021
4680 Clear 26 1018 61 10000 3.6 70 14:55 23.12.2021
4681 Clear 26 1018 62 10000 3.6 70 14:37 23.12.2021
4682 Clear 25 1018 62 10000 3.09 60 13:22 23.12.2021
4683 Clear 22 1017 71 10000 4.12 70 10:54 23.12.2021
4684 Clear 21 1016 74 10000 4.63 80 09:49 23.12.2021
4685 Clear 21 1016 74 10000 4.63 80 09:26 23.12.2021
4686 Clear 22 1015 72 10000 4.12 80 08:25 23.12.2021
4687 Clear 23 1016 63 10000 5.14 100 04:36 23.12.2021
4688 Clear 26 1014 56 10000 5.14 90 23:33 22.12.2021
4689 Clouds 27 1014 58 10000 7.72 100 22:48 22.12.2021
4690 Clouds 27 1014 57 10000 6.69 100 21:57 22.12.2021
4691 Clouds 28 1014 56 10000 6.69 100 21:29 22.12.2021
4692 Clouds 28 1014 55 10000 5.66 80 20:51 22.12.2021
4693 Clouds 29 1014 51 10000 5.66 80 20:33 22.12.2021
4694 Clouds 29 1014 57 10000 5.14 70 19:35 22.12.2021
4695 Clouds 30 1015 52 10000 4.12 70 17:55 22.12.2021
4696 Clouds 29 1015 54 10000 4.12 70 17:34 22.12.2021
4697 Clouds 29 1014 55 10000 4.12 80 15:42 22.12.2021
4698 Clouds 26 1014 66 10000 4.12 90 13:44 22.12.2021
4699 Clouds 25 1013 73 10000 4.63 110 12:41 22.12.2021
4700 Clear 22 1012 80 10000 3.09 130 10:46 22.12.2021
4701 Clear 21 1012 81 10000 2.57 130 09:40 22.12.2021
4702 Clear 22 1011 72 10000 5.66 100 07:32 22.12.2021
4703 Clear 22 1011 69 10000 7.72 100 05:50 22.12.2021
4704 Clear 23 1011 67 10000 7.72 100 05:27 22.12.2021
4705 Clear 23 1011 66 10000 8.23 110 04:52 22.12.2021
4706 Clear 23 1011 67 10000 8.23 110 04:29 22.12.2021
4707 Clear 23 1010 72 10000 7.72 110 03:33 22.12.2021
4708 Clear 25 1009 60 10000 9.77 120 00:50 22.12.2021
4709 Clear 26 1007 53 10000 9.26 120 23:25 21.12.2021
4710 Clear 27 1007 44 10000 8.75 120 22:28 21.12.2021
4711 Clear 28 1007 48 10000 8.23 110 21:44 21.12.2021
4712 Rain 28 1007 48 10000 8.23 110 21:22 21.12.2021
4713 Clear 28 1008 57 10000 8.75 120 20:21 21.12.2021
4714 Clouds 28 1008 54 10000 7.72 120 19:42 21.12.2021
4715 Clouds 27 1009 64 10000 7.2 100 18:46 21.12.2021
4716 Clouds 28 1009 67 10000 7.2 100 18:21 21.12.2021
4717 Clouds 27 1009 69 10000 7.2 100 17:41 21.12.2021
4718 Clouds 25 1010 75 10000 6.17 100 15:59 21.12.2021
4719 Clouds 25 1010 74 10000 6.17 100 15:20 21.12.2021
4720 Rain 24 1010 75 10000 4.63 90 13:50 21.12.2021
4721 Clear 24 1010 76 10000 4.63 90 13:30 21.12.2021
4722 Clear 23 1009 79 10000 4.12 80 11:49 21.12.2021
4723 Clear 22 1008 79 10000 4.63 90 10:24 21.12.2021
4724 Clear 22 1008 80 10000 4.63 100 09:23 21.12.2021
4725 Rain 22 1009 84 10000 6.17 100 07:58 21.12.2021
4726 Clouds 22 1012 86 10000 6.09 143 07:27 21.12.2021
4727 Rain 23 1012 82 9000 4.63 130 05:31 21.12.2021
4728 Clear 23 1011 81 10000 9.26 120 02:40 21.12.2021
4729 Clouds 24 1010 79 10000 9.77 120 23:58 20.12.2021
4730 Clouds 25 1010 74 10000 9.77 120 23:27 20.12.2021
4731 Clear 27 1010 65 10000 10.29 120 22:28 20.12.2021
4732 Clear 27 1010 65 10000 10.29 120 22:28 20.12.2021
4733 Clear 28 1010 60 10000 10.29 110 21:47 20.12.2021
4734 Clear 28 1010 59 10000 10.29 110 21:23 20.12.2021
4735 Clear 29 1011 59 10000 8.75 110 20:44 20.12.2021
4736 Clouds 29 1012 60 10000 7.72 100 19:52 20.12.2021
4737 Clouds 29 1012 60 10000 7.72 100 19:31 20.12.2021
4738 Clouds 30 1013 56 10000 6.17 110 18:54 20.12.2021
4739 Clear 30 1013 63 10000 6.69 110 17:52 20.12.2021
4740 Clear 30 1013 65 10000 6.69 110 17:23 20.12.2021
4741 Clear 29 1013 63 10000 5.14 100 16:38 20.12.2021
4742 Clouds 29 1013 58 8000 4.63 90 15:48 20.12.2021
4743 Haze 29 1013 54 5000 5.66 90 14:42 20.12.2021
4744 Clear 26 1013 68 10000 3.09 160 12:51 20.12.2021
4745 Clear 23 1013 76 10000 2.06 170 11:19 20.12.2021
4746 Clear 22 1012 81 10000 1.03 0 09:47 20.12.2021
4747 Rain 22 1011 78 10000 2.06 140 08:58 20.12.2021
4748 Rain 22 1011 78 10000 2.06 140 08:40 20.12.2021
4749 Clear 23 1011 78 10000 4.12 110 07:49 20.12.2021
4750 Clear 23 1011 79 10000 3.09 110 06:47 20.12.2021
4751 Clear 24 1012 82 10000 5.14 100 03:41 20.12.2021
4752 Clear 27 1010 63 10000 5.14 100 23:50 19.12.2021
4753 Clear 29 1010 46 10000 3.6 90 22:44 19.12.2021
4754 Clear 30 1010 49 10000 3.09 70 21:49 19.12.2021
4755 Clear 30 1010 49 10000 3.09 70 21:25 19.12.2021
4756 Clear 30 1010 49 10000 4.12 80 20:29 19.12.2021
4757 Clear 30 1011 46 10000 4.12 70 19:45 19.12.2021
4758 Clouds 30 1012 52 10000 3.6 60 18:54 19.12.2021
4759 Clouds 30 1012 55 10000 3.6 60 18:20 19.12.2021
4760 Clouds 29 1012 56 10000 3.6 50 17:45 19.12.2021
4761 Clear 29 1012 56 10000 2.34 87 16:55 19.12.2021
4762 Clear 27 1013 62 10000 3.09 20 15:58 19.12.2021
4763 Clear 27 1013 62 10000 3.09 20 15:25 19.12.2021
4764 Clear 26 1014 64 10000 4.12 360 14:49 19.12.2021
4765 Clear 24 1014 69 10000 4.63 360 13:41 19.12.2021
4766 Clear 24 1014 71 10000 4.63 360 13:20 19.12.2021
4767 Clouds 22 1014 75 10000 4.12 20 12:33 19.12.2021
4768 Clouds 22 1014 77 10000 4.12 40 11:39 19.12.2021
4769 Clouds 21 1015 79 10000 3.6 40 10:51 19.12.2021
4770 Clouds 21 1015 81 10000 3.6 40 10:23 19.12.2021
4771 Clear 21 1015 77 10000 4.63 50 08:55 19.12.2021
4772 Clear 22 1015 69 10000 4.63 60 06:54 19.12.2021
4773 Clear 24 1014 80 10000 8.75 100 02:30 19.12.2021
4774 Clear 24 1013 75 10000 9.26 120 00:55 19.12.2021
4775 Clear 25 1014 70 10000 8.75 120 23:21 18.12.2021
4776 Clear 26 1014 66 10000 10.29 110 22:28 18.12.2021
4777 Clear 26 1015 66 10000 10.29 110 21:44 18.12.2021
4778 Clear 26 1015 65 10000 10.29 110 21:25 18.12.2021
4779 Clear 27 1015 61 10000 8.75 110 20:43 18.12.2021
4780 Clear 27 1016 55 10000 8.23 100 19:38 18.12.2021
4781 Clear 26 1017 60 10000 7.72 100 18:25 18.12.2021
4782 Clouds 27 1018 59 10000 7.2 100 17:49 18.12.2021
4783 Clouds 26 1018 60 10000 4.63 80 16:48 18.12.2021
4784 Clouds 26 1018 62 10000 4.63 80 16:20 18.12.2021
4785 Clouds 24 1019 68 10000 4.63 60 14:54 18.12.2021
4786 Clouds 23 1019 71 10000 4.63 60 13:45 18.12.2021
4787 Clouds 21 1019 76 10000 4.63 50 11:57 18.12.2021
4788 Clouds 21 1019 76 10000 4.63 50 11:57 18.12.2021
4789 Clear 20 1018 80 10000 5.14 60 09:59 18.12.2021
4790 Clear 20 1018 79 10000 5.14 60 09:32 18.12.2021
4791 Clear 20 1018 79 10000 5.66 60 08:36 18.12.2021
4792 Clear 21 1017 73 10000 6.69 60 07:24 18.12.2021
4793 Clouds 22 1017 83 10000 8.75 120 01:45 18.12.2021
4794 Clear 24 1016 69 10000 9.26 120 23:49 17.12.2021
4795 Clear 25 1016 68 10000 8.23 120 22:39 17.12.2021
4796 Clear 26 1017 64 10000 7.2 110 21:31 17.12.2021
4797 Clear 27 1017 62 10000 6.69 100 20:43 17.12.2021
4798 Clear 27 1018 60 10000 6.69 100 19:56 17.12.2021
4799 Clear 26 1019 56 10000 6.17 100 18:40 17.12.2021
4800 Clouds 26 1019 59 10000 6.17 100 17:50 17.12.2021
4801 Clouds 25 1020 65 10000 6.17 100 16:51 17.12.2021
4802 Clouds 25 1020 65 10000 6.17 100 16:27 17.12.2021
4803 Clouds 24 1020 63 10000 5.66 90 15:38 17.12.2021
4804 Clouds 23 1020 67 10000 5.66 90 14:42 17.12.2021
4805 Clouds 23 1021 68 10000 5.14 80 13:45 17.12.2021
4806 Clouds 21 1020 73 10000 5.14 70 12:36 17.12.2021
4807 Clouds 19 1019 77 10000 5.14 70 10:41 17.12.2021
4808 Clouds 18 1019 80 10000 5.14 80 09:47 17.12.2021
4809 Clouds 18 1019 80 10000 5.14 80 09:47 17.12.2021
4810 Clouds 19 1018 80 10000 5.66 70 08:31 17.12.2021
4811 Clouds 19 1018 82 10000 4.63 60 07:21 17.12.2021
4812 Clouds 20 1018 76 10000 7.72 100 04:40 17.12.2021
4813 Clouds 22 1017 71 10000 10.29 100 23:58 16.12.2021
4814 Clear 24 1017 65 10000 10.29 100 22:24 16.12.2021
4815 Clear 24 1016 65 10000 9.77 100 21:51 16.12.2021
4816 Clear 24 1016 65 10000 9.77 100 21:30 16.12.2021
4817 Clear 24 1017 64 10000 9.26 100 20:31 16.12.2021
4818 Clouds 25 1017 63 10000 9.77 100 19:51 16.12.2021
4819 Clouds 25 1017 62 10000 9.26 100 18:41 16.12.2021
4820 Clouds 26 1017 61 10000 7.72 100 17:57 16.12.2021
4821 Clouds 25 1017 62 10000 7.72 100 17:31 16.12.2021
4822 Clouds 26 1017 63 10000 5.66 100 16:23 16.12.2021
4823 Clouds 24 1017 60 10000 4.63 120 14:54 16.12.2021
4824 Clouds 23 1017 66 10000 4.63 130 13:43 16.12.2021
4825 Clouds 17 1016 84 10000 2.06 170 11:21 16.12.2021
4826 Clouds 17 1016 87 10000 2.57 170 10:59 16.12.2021
4827 Clouds 16 1016 91 10000 2.57 170 10:22 16.12.2021
4828 Clouds 17 1015 87 10000 3.09 160 08:25 16.12.2021
4829 Clear 17 1015 85 10000 2.57 170 06:22 16.12.2021
4830 Clouds 21 1015 69 10000 5.14 140 01:25 16.12.2021
4831 Clouds 23 1013 79 10000 6.69 100 23:33 15.12.2021
4832 Clouds 23 1013 79 10000 5.14 100 22:43 15.12.2021
4833 Clouds 24 1013 75 10000 5.14 100 21:56 15.12.2021
4834 Clouds 24 1013 74 10000 5.14 100 21:27 15.12.2021
4835 Clouds 24 1013 72 10000 4.12 90 20:18 15.12.2021
4836 Clouds 25 1014 73 10000 3.6 70 19:50 15.12.2021
4837 Clouds 25 1014 70 10000 3.6 60 18:37 15.12.2021
4838 Clouds 25 1015 67 10000 3.09 60 17:53 15.12.2021
4839 Clouds 25 1015 69 10000 3.09 60 17:34 15.12.2021
4840 Clouds 23 1015 73 10000 2.06 90 16:28 15.12.2021
4841 Clouds 22 1015 73 10000 2.06 10 15:46 15.12.2021
4842 Clouds 22 1015 74 10000 2.06 10 15:27 15.12.2021
4843 Clouds 22 1015 75 10000 2.06 20 14:18 15.12.2021
4844 Clouds 22 1015 75 10000 1.03 0 12:37 15.12.2021
4845 Clouds 20 1014 83 10000 1.54 280 10:27 15.12.2021
4846 Clouds 20 1013 83 10000 4.12 20 08:55 15.12.2021
4847 Clouds 21 1014 85 10000 6.69 60 06:54 15.12.2021
4848 Rain 22 1015 55 9000 5.66 150 01:20 15.12.2021
4849 Clear 24 1013 41 10000 8.23 140 23:42 14.12.2021
4850 Clear 24 1013 42 10000 8.75 130 22:48 14.12.2021
4851 Clear 25 1013 40 10000 8.75 130 22:18 14.12.2021
4852 Clear 26 1013 43 10000 10.8 110 20:28 14.12.2021
4853 Clear 26 1013 43 10000 12.86 110 19:40 14.12.2021
4854 Clear 26 1014 45 10000 10.29 110 18:53 14.12.2021
4855 Clear 26 1014 45 10000 10.29 110 18:22 14.12.2021
4856 Clear 26 1015 44 10000 9.26 110 17:28 14.12.2021
4857 Clear 26 1016 49 10000 8.23 100 16:38 14.12.2021
4858 Clear 26 1017 51 10000 7.2 100 15:26 14.12.2021
4859 Clear 24 1016 57 10000 7.2 120 13:31 14.12.2021
4860 Clear 22 1016 62 10000 6.17 110 11:58 14.12.2021
4861 Clear 21 1016 63 10000 6.17 110 11:23 14.12.2021
4862 Clear 19 1015 66 10000 6.69 110 09:57 14.12.2021
4863 Clear 19 1015 64 10000 6.69 110 09:35 14.12.2021
4864 Clear 20 1014 57 10000 5.14 90 08:23 14.12.2021
4865 Clear 20 1014 55 10000 6.17 80 07:43 14.12.2021
4866 Clear 23 1014 53 10000 7.2 100 02:25 14.12.2021
4867 Clear 25 1013 47 10000 5.66 100 22:55 13.12.2021
4868 Clear 25 1013 47 10000 6.17 90 21:52 13.12.2021
4869 Clear 26 1013 46 10000 6.17 90 20:59 13.12.2021
4870 Clear 26 1013 44 10000 6.17 90 20:34 13.12.2021
4871 Clear 27 1013 40 10000 6.69 90 19:52 13.12.2021
4872 Clear 27 1013 41 10000 5.14 100 17:56 13.12.2021
4873 Clear 28 1013 41 10000 5.14 100 17:24 13.12.2021
4874 Clear 26 1013 33 10000 5.14 140 15:50 13.12.2021
4875 Clear 26 1013 35 10000 5.14 140 15:19 13.12.2021
4876 Clear 23 1013 48 10000 3.6 160 13:38 13.12.2021
4877 Rain 22 1012 62 10000 3.09 180 12:42 13.12.2021
4878 Clear 22 1011 69 10000 1.54 180 11:54 13.12.2021
4879 Clear 22 1011 69 10000 1.54 180 11:35 13.12.2021
4880 Clear 21 1010 68 10000 2.06 160 10:43 13.12.2021
4881 Clear 22 1009 69 10000 2.06 190 08:52 13.12.2021
4882 Rain 22 1008 67 10000 1.54 150 07:38 13.12.2021
4883 Rain 23 1008 62 10000 2.57 160 05:34 13.12.2021
4884 Clear 24 1006 74 10000 1.54 80 00:43 13.12.2021
4885 Clear 27 1004 66 10000 4.12 70 21:59 12.12.2021
4886 Clear 27 1004 66 10000 4.12 70 21:33 12.12.2021
4887 Clear 25 1004 64 10000 2.57 140 19:38 12.12.2021
4888 Clouds 24 1005 71 10000 3.6 190 18:35 12.12.2021
4889 Rain 27 1006 58 10000 3.09 230 16:58 12.12.2021
4890 Rain 28 1005 52 10000 3.09 230 16:27 12.12.2021
4891 Clear 29 1004 48 10000 2.57 20 15:41 12.12.2021
4892 Clear 28 1004 53 10000 2.57 20 15:21 12.12.2021
4893 Clear 28 1004 53 10000 2.57 10 14:28 12.12.2021
4894 Clear 26 1004 57 10000 4.63 340 12:55 12.12.2021
4895 Clear 25 1004 59 10000 4.63 340 12:24 12.12.2021
4896 Clear 24 1003 63 10000 4.12 350 11:43 12.12.2021
4897 Clear 23 1003 67 10000 4.12 350 10:45 12.12.2021
4898 Clear 22 1003 69 10000 4.12 350 10:21 12.12.2021
4899 Clear 22 1003 70 10000 2.57 10 08:50 12.12.2021
4900 Clear 22 1003 77 10000 2.06 50 07:30 12.12.2021
4901 Clear 23 1004 74 10000 4.12 80 05:56 12.12.2021
4902 Clear 23 1004 76 10000 4.12 90 04:53 12.12.2021
4903 Clear 24 1004 73 10000 5.66 110 02:52 12.12.2021
4904 Clear 26 1003 66 10000 7.2 100 23:28 11.12.2021
4905 Clouds 27 1003 58 10000 5.66 110 22:21 11.12.2021
4906 Clouds 28 1004 52 10000 5.66 100 21:47 11.12.2021
4907 Clear 29 1004 43 10000 4.12 60 20:20 11.12.2021
4908 Clear 29 1005 41 10000 3.6 70 19:21 11.12.2021
4909 Clear 29 1006 44 10000 3.6 60 18:48 11.12.2021
4910 Clear 28 1007 46 10000 3.09 40 17:54 11.12.2021
4911 Clouds 29 1008 46 10000 0.45 270 16:37 11.12.2021
4912 Clouds 27 1007 51 10000 2.51 54 15:41 11.12.2021
4913 Clouds 26 1008 55 10000 2.51 37 14:36 11.12.2021
4914 Clouds 22 1008 73 10000 5.14 360 12:41 11.12.2021
4915 Clear 20 1008 79 10000 3.6 360 10:58 11.12.2021
4916 Clear 20 1008 84 10000 2.57 40 09:44 11.12.2021
4917 Clear 21 1010 77 10000 4.63 110 03:58 11.12.2021
4918 Clear 22 1010 77 10000 6.17 110 00:49 11.12.2021
4919 Clear 23 1010 71 10000 5.14 90 23:44 10.12.2021
4920 Clear 24 1010 69 10000 5.14 100 22:47 10.12.2021
4921 Clouds 24 1011 67 10000 5.66 110 21:41 10.12.2021
4922 Clouds 25 1011 61 10000 4.63 100 20:28 10.12.2021
4923 Clouds 25 1012 60 10000 3.09 70 19:19 10.12.2021
4924 Rain 24 1013 63 10000 3.09 40 17:46 10.12.2021
4925 Clear 23 1014 65 10000 2.57 50 16:37 10.12.2021
4926 Clear 22 1015 66 10000 2.57 30 15:45 10.12.2021
4927 Clear 22 1015 67 10000 2.57 30 15:26 10.12.2021
4928 Rain 21 1015 70 10000 3.09 30 14:35 10.12.2021
4929 Clouds 21 1016 72 10000 3.6 50 13:49 10.12.2021
4930 Rain 21 1016 74 10000 3.09 20 12:56 10.12.2021
4931 Clouds 20 1015 75 10000 4.12 20 11:43 10.12.2021
4932 Clear 20 1015 77 10000 4.12 50 10:57 10.12.2021
4933 Clear 20 1015 76 10000 3.6 40 09:49 10.12.2021
4934 Rain 21 1015 71 10000 4.63 50 07:49 10.12.2021
4935 Clear 22 1016 70 10000 5.66 90 04:57 10.12.2021
4936 Clouds 22 1016 86 10000 7.2 120 02:42 10.12.2021
4937 Clear 24 1016 70 10000 7.2 120 23:42 09.12.2021
4938 Clear 25 1016 65 10000 7.72 130 22:43 09.12.2021
4939 Clear 25 1016 63 10000 7.72 130 22:22 09.12.2021
4940 Clear 25 1016 62 10000 7.72 110 21:40 09.12.2021
4941 Clear 25 1016 63 10000 7.72 110 20:36 09.12.2021
4942 Rain 25 1017 63 10000 6.17 100 19:43 09.12.2021
4943 Clear 25 1017 62 10000 6.17 100 19:20 09.12.2021
4944 Clear 26 1018 58 10000 5.14 100 18:19 09.12.2021
4945 Clear 26 1018 58 10000 5.14 100 17:48 09.12.2021
4946 Clear 25 1018 61 10000 5.14 100 17:24 09.12.2021
4947 Clear 24 1019 64 10000 3.6 90 16:36 09.12.2021
4948 Clear 24 1019 65 10000 3.09 70 15:18 09.12.2021
4949 Rain 23 1019 66 10000 4.14 51 14:30 09.12.2021
4950 Clear 21 1019 71 10000 5.14 60 12:48 09.12.2021
4951 Clear 21 1018 73 10000 4.12 50 11:33 09.12.2021
4952 Clear 20 1018 74 10000 4.63 50 10:20 09.12.2021
4953 Clear 22 1017 70 10000 4.12 50 06:59 09.12.2021
4954 Clear 22 1017 82 10000 6.17 130 03:55 09.12.2021
4955 Clear 23 1017 77 10000 8.75 120 00:25 09.12.2021
4956 Clear 24 1017 70 10000 8.75 110 23:36 08.12.2021
4957 Clear 25 1017 67 10000 8.75 120 22:57 08.12.2021
4958 Clear 27 1017 52 10000 6.69 120 21:50 08.12.2021
4959 Clear 27 1017 48 10000 6.69 120 21:32 08.12.2021
4960 Clear 27 1017 45 10000 6.17 110 20:31 08.12.2021
4961 Clear 27 1018 42 10000 6.69 100 19:55 08.12.2021
4962 Clear 27 1018 45 10000 5.66 100 18:57 08.12.2021
4963 Clear 27 1018 46 10000 5.66 100 18:22 08.12.2021
4964 Clear 25 1019 50 10000 3.09 50 16:49 08.12.2021
4965 Clear 24 1020 55 10000 3.6 60 15:40 08.12.2021
4966 Clouds 24 1020 55 10000 3.7 55 15:21 08.12.2021
4967 Clear 22 1021 64 10000 3.6 30 13:21 08.12.2021
4968 Clouds 20 1019 74 10000 6.17 10 10:42 08.12.2021
4969 Clear 19 1019 75 10000 6.17 10 09:32 08.12.2021
4970 Clear 20 1018 69 10000 7.2 30 07:50 08.12.2021
4971 Clear 22 1018 61 10000 8.23 60 05:22 08.12.2021
4972 Clear 23 1016 77 10000 9.26 110 00:21 08.12.2021
4973 Clear 25 1017 68 10000 9.26 110 22:48 07.12.2021
4974 Clear 27 1017 63 10000 8.75 100 21:25 07.12.2021
4975 Clouds 27 1018 53 10000 7.72 110 20:25 07.12.2021
4976 Clear 28 1018 52 10000 5.33 108 18:57 07.12.2021
4977 Clear 28 1019 50 10000 4.98 104 18:19 07.12.2021
4978 Clear 27 1020 51 10000 4.3 98 17:20 07.12.2021
4979 Clear 27 1020 52 10000 4.3 98 16:37 07.12.2021
4980 Clear 26 1021 57 10000 3.62 83 15:37 07.12.2021
4981 Clear 24 1022 62 10000 4.12 20 14:37 07.12.2021
4982 Clear 23 1022 68 10000 4.12 20 13:29 07.12.2021
4983 Clouds 22 1022 74 10000 3.6 30 12:21 07.12.2021
4984 Clouds 20 1022 76 10000 3.09 50 10:45 07.12.2021
4985 Clouds 20 1021 79 10000 3.09 40 09:19 07.12.2021
4986 Clouds 20 1021 81 10000 5.14 90 06:39 07.12.2021
4987 Clear 21 1021 82 10000 5.66 100 05:45 07.12.2021
4988 Clouds 21 1021 82 10000 8.75 110 00:54 07.12.2021
4989 Clear 23 1020 73 10000 8.75 110 23:18 06.12.2021
4990 Clear 23 1020 69 10000 9.26 110 22:39 06.12.2021
4991 Clouds 24 1021 67 10000 8.23 100 21:54 06.12.2021
4992 Clouds 25 1021 65 10000 7.72 100 20:44 06.12.2021
4993 Clouds 25 1021 63 10000 7.72 100 20:26 06.12.2021
4994 Clouds 25 1021 58 10000 6.69 100 19:23 06.12.2021
4995 Clouds 26 1022 58 10000 6.17 110 18:29 06.12.2021
4996 Clouds 25 1022 59 10000 5.66 100 17:51 06.12.2021
4997 Clouds 25 1022 60 10000 4.63 90 16:56 06.12.2021
4998 Clouds 24 1022 63 10000 5.66 110 15:45 06.12.2021
4999 Clouds 22 1022 72 10000 5.14 110 13:46 06.12.2021
5000 Clouds 22 1022 76 10000 4.12 110 12:40 06.12.2021
5001 Clouds 20 1022 78 10000 4.12 100 11:48 06.12.2021
5002 Clouds 17 1021 89 10000 3.6 130 09:20 06.12.2021
5003 Clouds 18 1020 83 10000 6.69 100 06:43 06.12.2021
5004 Clouds 21 1019 77 10000 8.23 110 23:44 05.12.2021
5005 Clouds 22 1019 71 10000 6.69 100 21:52 05.12.2021
5006 Clouds 23 1019 69 10000 6.69 100 21:19 05.12.2021
5007 Clouds 24 1019 69 10000 6.69 100 20:19 05.12.2021
5008 Clouds 23 1019 69 10000 6.69 100 19:33 05.12.2021
5009 Clouds 24 1020 66 10000 7.2 110 18:55 05.12.2021
5010 Clouds 23 1020 65 10000 7.2 110 18:20 05.12.2021
5011 Clouds 23 1020 67 10000 6.69 100 17:48 05.12.2021
5012 Clouds 22 1020 71 10000 6.69 110 16:48 05.12.2021
5013 Clouds 22 1020 73 10000 6.69 110 16:26 05.12.2021
5014 Clouds 20 1021 77 10000 5.66 120 15:48 05.12.2021
5015 Clouds 20 1021 82 10000 5.66 110 14:41 05.12.2021
5016 Clouds 20 1021 82 10000 5.66 110 14:23 05.12.2021
5017 Clouds 21 1020 79 10000 4.63 70 13:22 05.12.2021
5018 Clouds 20 1021 87 7000 4.12 80 12:40 05.12.2021
5019 Rain 19 1021 89 10000 1.72 75 12:18 05.12.2021
5020 Clouds 19 1020 83 10000 5.66 110 11:29 05.12.2021
5021 Clouds 18 1019 85 10000 4.63 80 09:59 05.12.2021
5022 Rain 20 1019 83 10000 5.14 100 07:55 05.12.2021
5023 Clouds 20 1020 80 10000 7.72 100 03:27 05.12.2021
5024 Clouds 21 1019 77 10000 9.77 110 23:45 04.12.2021
5025 Clouds 22 1018 74 10000 8.23 110 21:55 04.12.2021
5026 Clear 23 1018 71 10000 5.14 100 20:57 04.12.2021
5027 Clouds 24 1018 64 10000 4.63 70 19:55 04.12.2021
5028 Clouds 24 1018 61 10000 4.63 70 19:32 04.12.2021
5029 Clouds 25 1019 61 10000 4.63 80 18:20 04.12.2021
5030 Clouds 25 1019 63 10000 4.63 100 17:38 04.12.2021
5031 Clouds 24 1020 62 10000 5.66 100 16:49 04.12.2021
5032 Clouds 24 1020 65 10000 5.66 100 16:30 04.12.2021
5033 Clouds 23 1020 71 10000 4.63 100 15:22 04.12.2021
5034 Clouds 19 1018 84 10000 3.6 140 11:50 04.12.2021
5035 Rain 19 1018 84 10000 3.6 140 11:32 04.12.2021
5036 Clouds 19 1018 84 10000 3.6 130 10:44 04.12.2021
5037 Clouds 19 1017 82 10000 7.2 100 08:47 04.12.2021
5038 Rain 19 1017 80 10000 4.63 120 06:26 04.12.2021
5039 Clouds 20 1018 79 10000 5.66 120 04:42 04.12.2021
5040 Clear 21 1016 68 10000 6.69 120 00:18 04.12.2021
5041 Clear 23 1015 52 10000 7.2 110 23:20 03.12.2021
5042 Rain 24 1015 46 10000 7.2 120 22:41 03.12.2021
5043 Clouds 24 1015 45 10000 4.63 140 21:25 03.12.2021
5044 Rain 24 1015 51 10000 5.66 100 20:48 03.12.2021
5045 Rain 24 1016 51 10000 4.12 120 19:50 03.12.2021
5046 Rain 24 1016 51 10000 3.09 120 18:34 03.12.2021
5047 Rain 24 1016 54 10000 1.54 80 17:59 03.12.2021
5048 Clouds 23 1017 62 10000 3.42 79 14:47 03.12.2021
5049 Clear 20 1017 70 10000 3.6 30 12:54 03.12.2021
5050 Clouds 19 1016 74 10000 4.12 360 11:38 03.12.2021
5051 Clouds 19 1015 79 10000 3.6 10 10:51 03.12.2021
5052 Clouds 19 1015 77 10000 3.6 10 08:25 03.12.2021
5053 Clear 19 1014 76 10000 4.63 30 07:40 03.12.2021
5054 Clouds 20 1015 79 10000 8.75 110 02:39 03.12.2021
5055 Clear 21 1014 74 10000 7.72 110 00:47 03.12.2021
5056 Clear 21 1014 71 10000 7.72 110 23:47 02.12.2021
5057 Clear 24 1015 59 10000 7.2 100 21:43 02.12.2021
5058 Clear 24 1015 58 10000 7.2 100 21:20 02.12.2021
5059 Clouds 24 1015 58 10000 7.72 100 20:38 02.12.2021
5060 Clouds 25 1016 58 10000 6.69 110 19:31 02.12.2021
5061 Clouds 24 1017 59 10000 4.63 100 17:43 02.12.2021
5062 Clouds 23 1018 64 10000 2.57 40 15:42 02.12.2021
5063 Clear 22 1018 66 10000 2.57 30 14:59 02.12.2021
5064 Clear 22 1018 66 10000 2.57 30 14:33 02.12.2021
5065 Clear 20 1018 71 10000 3.6 50 12:52 02.12.2021
5066 Clear 19 1018 72 10000 3.6 50 12:18 02.12.2021
5067 Clear 16 1017 76 10000 4.12 70 09:41 02.12.2021
5068 Clear 17 1016 75 10000 5.14 70 08:52 02.12.2021
5069 Clouds 18 1017 74 10000 6.69 90 04:54 02.12.2021
5070 Clear 19 1015 70 10000 7.2 110 00:53 02.12.2021
5071 Clear 20 1014 66 10000 6.69 120 23:28 01.12.2021
5072 Clear 22 1014 63 10000 6.17 100 22:23 01.12.2021
5073 Clear 22 1014 57 10000 5.14 100 20:39 01.12.2021
5074 Clouds 21 1015 61 10000 5.66 110 19:57 01.12.2021
5075 Clouds 21 1015 62 10000 5.66 110 19:28 01.12.2021
5076 Rain 21 1016 64 10000 4.63 100 17:45 01.12.2021
5077 Clouds 21 1016 64 10000 3.6 70 16:46 01.12.2021
5078 Clouds 20 1016 68 10000 4.12 60 14:52 01.12.2021
5079 Clouds 20 1016 72 10000 4.12 60 13:45 01.12.2021
5080 Clouds 20 1016 74 10000 4.63 70 12:50 01.12.2021
5081 Clouds 16 1015 82 10000 4.12 70 10:42 01.12.2021
5082 Clouds 16 1014 83 10000 4.63 70 09:20 01.12.2021
5083 Clouds 16 1013 80 10000 4.63 80 08:29 01.12.2021
5084 Clouds 16 1013 79 10000 5.14 100 07:33 01.12.2021
5085 Clouds 17 1013 78 10000 5.14 110 06:34 01.12.2021
5086 Clouds 18 1013 77 10000 8.23 110 03:45 01.12.2021
5087 Clear 21 1011 67 10000 7.72 100 00:56 01.12.2021
5088 Clear 22 1010 60 10000 5.66 70 23:53 30.11.2021
5089 Clear 24 1010 54 10000 5.66 70 23:23 30.11.2021
5090 Clear 25 1009 40 10000 2.57 0 21:30 30.11.2021
5091 Clear 25 1010 41 10000 3.09 20 20:43 30.11.2021
5092 Clear 26 1010 34 10000 1.54 0 19:53 30.11.2021
5093 Clear 26 1010 34 10000 1.54 0 19:30 30.11.2021
5094 Clear 25 1011 37 10000 2.06 0 18:35 30.11.2021
5095 Clear 23 1011 38 10000 2.06 170 16:35 30.11.2021
5096 Clear 22 1011 38 10000 2.57 220 15:18 30.11.2021
5097 Clear 21 1011 47 10000 2.06 170 14:20 30.11.2021
5098 Clear 20 1011 52 10000 2.57 190 13:25 30.11.2021
5099 Clear 18 1011 57 10000 2.57 200 12:45 30.11.2021
5100 Rain 17 1010 65 10000 3.09 190 11:27 30.11.2021
5101 Rain 16 1009 69 10000 3.09 200 10:56 30.11.2021
5102 Rain 15 1009 71 10000 3.09 200 10:31 30.11.2021
5103 Clear 15 1008 79 10000 2.57 200 08:52 30.11.2021
5104 Clear 15 1008 80 10000 2.57 200 08:20 30.11.2021
5105 Clear 15 1008 77 10000 2.57 200 07:47 30.11.2021
5106 Clear 20 1007 61 10000 2.06 190 02:29 30.11.2021
5107 Clear 21 1007 62 10000 5.71 188 01:40 30.11.2021
5108 Clear 23 1004 53 10000 3.6 210 23:57 29.11.2021
5109 Clear 24 1004 51 10000 3.6 210 23:23 29.11.2021
5110 Clouds 24 1004 50 10000 3.6 210 22:52 29.11.2021
5111 Clouds 24 1004 49 10000 3.6 210 22:32 29.11.2021
5112 Clouds 25 1004 52 10000 6.88 194 21:23 29.11.2021
5113 Clouds 25 1004 52 10000 4.12 0 20:57 29.11.2021
5114 Clouds 25 1004 53 10000 4.12 0 20:23 29.11.2021
5115 Clouds 24 1004 54 10000 4.63 220 19:54 29.11.2021
5116 Clouds 24 1004 56 10000 4.63 220 19:27 29.11.2021
5117 Clouds 23 1004 60 10000 7.14 210 18:48 29.11.2021
5118 Clouds 21 1005 67 10000 6.95 213 17:22 29.11.2021
5119 Clouds 21 1005 67 10000 6.95 213 16:57 29.11.2021
5120 Clouds 21 1005 70 10000 8.27 218 16:28 29.11.2021
5121 Clouds 20 1004 72 10000 8.47 215 15:27 29.11.2021
5122 Clouds 20 1004 72 10000 8.4 215 14:42 29.11.2021
5123 Clouds 18 1004 81 10000 8.46 214 13:28 29.11.2021
5124 Clouds 17 1004 87 10000 8.5 219 12:28 29.11.2021
5125 Clouds 17 1004 87 10000 8.59 219 11:34 29.11.2021
5126 Clouds 16 1002 91 10000 8.08 214 10:32 29.11.2021
5127 Clear 18 1002 88 10000 3.09 200 08:45 29.11.2021
5128 Rain 19 1002 88 10000 2.06 0 05:58 29.11.2021
5129 Rain 18 1003 94 4500 3.6 190 01:35 29.11.2021
5130 Rain 18 1002 94 6000 3.6 190 00:36 29.11.2021
5131 Rain 18 1002 94 8000 3.6 200 23:42 28.11.2021
5132 Rain 18 1002 94 8000 3.09 190 22:30 28.11.2021
5133 Rain 18 1003 94 8000 1.54 0 21:41 28.11.2021
5134 Rain 18 1004 94 2500 3.09 190 20:51 28.11.2021
5135 Rain 19 1004 94 2500 2.06 180 19:54 28.11.2021
5136 Rain 18 1005 94 1400 8.75 110 18:42 28.11.2021
5137 Rain 20 1005 94 2500 2.06 160 18:23 28.11.2021
5138 Rain 20 1005 88 7000 1.03 0 17:49 28.11.2021
5139 Rain 20 1006 88 4500 1.03 0 17:27 28.11.2021
5140 Rain 20 1006 88 8000 1.03 0 16:28 28.11.2021
5141 Rain 20 1007 94 8000 2.06 340 15:51 28.11.2021
5142 Rain 20 1008 83 10000 3.09 50 14:56 28.11.2021
5143 Rain 20 1008 83 10000 3.09 50 14:29 28.11.2021
5144 Rain 20 1009 83 10000 4.12 70 12:55 28.11.2021
5145 Clouds 20 1008 83 10000 4.12 60 11:56 28.11.2021
5146 Rain 21 1008 83 5000 4.63 60 10:37 28.11.2021
5147 Rain 21 1008 83 5000 4.63 60 10:18 28.11.2021
5148 Rain 21 1008 83 10000 5.14 70 09:36 28.11.2021
5149 Clouds 23 1009 78 10000 7.72 100 05:23 28.11.2021
5150 Clouds 24 1008 78 10000 8.75 120 22:58 27.11.2021
5151 Clear 26 1008 69 10000 7.72 100 20:28 27.11.2021
5152 Clear 25 1010 69 10000 7.2 100 18:44 27.11.2021
5153 Clear 24 1011 73 10000 3.6 70 16:19 27.11.2021
5154 Clouds 23 1012 78 10000 4.12 70 15:32 27.11.2021
5155 Clouds 22 1012 83 9000 5.14 70 13:40 27.11.2021
5156 Clouds 21 1012 78 9000 5.66 70 12:19 27.11.2021
5157 Rain 20 1011 83 10000 5.14 80 10:27 27.11.2021
5158 Clouds 21 1011 78 10000 4.63 80 09:25 27.11.2021
5159 Clear 21 1011 73 10000 5.66 90 07:43 27.11.2021
5160 Clouds 21 1012 78 10000 7.2 100 04:53 27.11.2021
5161 Clear 22 1011 73 10000 8.75 100 00:26 27.11.2021
5162 Clear 24 1010 60 10000 7.2 100 22:51 26.11.2021
5163 Clear 24 1010 60 10000 7.2 100 22:24 26.11.2021
5164 Clouds 24 1010 78 10000 7.72 100 21:33 26.11.2021
5165 Clouds 25 1010 78 10000 5.14 80 20:42 26.11.2021
5166 Clouds 26 1010 73 10000 4.12 70 19:56 26.11.2021
5167 Clouds 26 1010 73 10000 4.12 70 19:18 26.11.2021
5168 Clouds 27 1011 69 10000 3.09 30 17:46 26.11.2021
5169 Clouds 27 1011 69 10000 3.09 30 17:21 26.11.2021
5170 Clear 25 1011 69 10000 3.6 10 15:23 26.11.2021
5171 Clear 22 1011 61 10000 2.57 150 13:35 26.11.2021
5172 Clear 22 1011 61 10000 2.57 150 13:35 26.11.2021
5173 Clear 18 1009 75 10000 2.06 180 10:46 26.11.2021
5174 Clear 16 1008 79 10000 2.57 160 09:55 26.11.2021
5175 Clear 16 1009 81 10000 4.32 181 08:56 26.11.2021
5176 Clear 16 1008 80 10000 4.65 188 08:21 26.11.2021
5177 Clouds 17 1008 79 10000 4.45 192 06:48 26.11.2021
5178 Clouds 17 1008 80 10000 4.48 192 06:24 26.11.2021
5179 Clouds 18 1008 85 10000 4.1 187 03:47 26.11.2021
5180 Clouds 20 1005 79 10000 4.12 160 00:57 26.11.2021
5181 Clouds 21 1003 75 10000 3.6 170 22:38 25.11.2021
5182 Clouds 21 1002 74 10000 5.14 150 21:21 25.11.2021
5183 Clouds 20 1004 85 6000 3.6 150 19:55 25.11.2021
5184 Clouds 18 1004 88 8000 5.14 140 18:45 25.11.2021
5185 Clouds 19 1004 93 4500 2.57 140 17:29 25.11.2021
5186 Rain 19 1004 91 4500 3.6 120 16:58 25.11.2021
5187 Clouds 19 1004 89 6000 4.63 130 16:29 25.11.2021
5188 Rain 21 1005 66 10000 2.57 290 14:56 25.11.2021
5189 Rain 21 1005 71 10000 5.14 340 13:25 25.11.2021
5190 Rain 21 1004 78 10000 5.14 20 12:19 25.11.2021
5191 Rain 22 1004 67 10000 4.12 310 11:48 25.11.2021
5192 Clear 24 1005 41 10000 4.63 320 09:25 25.11.2021
5193 Clear 26 1007 47 10000 1.54 60 04:24 25.11.2021
5194 Clear 26 1007 51 10000 3.09 130 02:45 25.11.2021
5195 Clear 30 1007 35 10000 3.6 80 22:44 24.11.2021
5196 Clear 31 1007 31 10000 3.6 80 22:21 24.11.2021
5197 Clear 31 1007 30 9000 2.06 60 21:27 24.11.2021
5198 Clear 32 1008 25 10000 2.57 360 20:42 24.11.2021
5199 Clear 32 1008 24 10000 2.57 360 20:18 24.11.2021
5200 Clear 31 1008 22 10000 2.57 19 18:30 24.11.2021
5201 Clear 30 1010 30 10000 3.22 17 16:53 24.11.2021
5202 Clear 28 1013 32 10000 0.89 45 15:22 24.11.2021
5203 Clear 26 1013 41 10000 4.12 350 14:42 24.11.2021
5204 Clear 26 1013 40 10000 5.3 358 14:19 24.11.2021
5205 Clear 21 1013 52 10000 4.63 320 11:50 24.11.2021
5206 Clear 19 1013 57 10000 4.63 320 11:20 24.11.2021
5207 Clear 19 1013 55 10000 5.66 340 10:39 24.11.2021
5208 Clear 17 1014 52 10000 5.39 356 09:40 24.11.2021
5209 Clear 19 1012 47 10000 4.63 330 07:42 24.11.2021
5210 Clear 20 1013 53 10000 4.12 330 06:21 24.11.2021
5211 Clear 20 1015 66 10000 2.57 10 03:48 24.11.2021
5212 Clear 22 1015 48 10000 5.14 110 23:42 23.11.2021
5213 Clear 23 1015 41 10000 5.14 100 22:39 23.11.2021
5214 Clear 24 1016 36 10000 4.12 80 21:46 23.11.2021
5215 Clear 25 1016 31 10000 5.66 100 20:47 23.11.2021
5216 Clear 25 1017 33 10000 5.66 110 19:36 23.11.2021
5217 Clear 24 1018 35 10000 6.17 100 18:35 23.11.2021
5218 Clear 23 1019 36 10000 5.14 110 17:57 23.11.2021
5219 Clear 22 1020 41 10000 3.6 90 16:54 23.11.2021
5220 Clear 22 1020 41 10000 3.6 90 16:54 23.11.2021
5221 Clear 21 1019 41 10000 3.65 98 15:41 23.11.2021
5222 Clear 21 1020 50 10000 2.57 60 15:19 23.11.2021
5223 Clear 19 1020 54 10000 4.12 100 13:33 23.11.2021
5224 Clear 14 1018 53 10000 5.66 130 10:40 23.11.2021
5225 Clear 14 1018 53 10000 5.14 140 09:48 23.11.2021
5226 Clear 14 1017 53 10000 5.66 150 08:43 23.11.2021
5227 Clear 17 1016 45 10000 7.2 150 05:25 23.11.2021
5228 Clear 20 1015 40 10000 8.75 140 03:37 23.11.2021
5229 Clouds 28 1007 32 10000 5.66 190 23:42 22.11.2021
5230 Clouds 29 1007 25 10000 5.66 190 23:20 22.11.2021
5231 Clouds 32 1006 26 10000 5.14 190 22:31 22.11.2021
5232 Clouds 33 1004 30 10000 4.12 230 21:45 22.11.2021
5233 Clouds 34 1004 30 10000 4.12 230 21:21 22.11.2021
5234 Clouds 34 1004 28 10000 3.6 260 20:42 22.11.2021
5235 Clear 35 1004 25 10000 5.66 290 19:21 22.11.2021
5236 Clear 35 1004 25 10000 5.14 280 18:41 22.11.2021
5237 Clouds 34 1003 28 10000 1.42 7 18:22 22.11.2021
5238 Clouds 32 1004 34 10000 1.71 34 16:45 22.11.2021
5239 Rain 30 1006 45 10000 3.6 330 15:32 22.11.2021
5240 Clear 27 1006 42 10000 2.57 250 12:51 22.11.2021
5241 Clear 26 1006 41 10000 3.6 260 11:39 22.11.2021
5242 Clear 25 1006 41 10000 3.09 250 10:26 22.11.2021
5243 Clear 23 1005 54 10000 3.6 310 08:44 22.11.2021
5244 Clear 23 1005 52 10000 3.6 310 08:24 22.11.2021
5245 Clear 27 1006 48 10000 3.09 320 01:39 22.11.2021
5246 Clear 31 1006 33 10000 4.63 330 23:21 21.11.2021
5247 Clouds 33 1007 27 10000 1.34 270 22:43 21.11.2021
5248 Clear 34 1007 31 10000 6.69 340 20:55 21.11.2021
5249 Clear 35 1007 53 10000 2.68 315 20:34 21.11.2021
5250 Clear 34 1008 30 10000 7.72 330 18:55 21.11.2021
5251 Clear 34 1009 25 10000 1.79 315 17:56 21.11.2021
5252 Clear 34 1009 25 10000 2.24 135 17:35 21.11.2021
5253 Clear 30 1011 43 10000 4.12 350 14:50 21.11.2021
5254 Clear 31 1010 37 10000 4.98 322 14:31 21.11.2021
5255 Clear 28 1011 43 10000 2.57 290 12:58 21.11.2021
5256 Clear 26 1011 46 10000 2.57 290 12:20 21.11.2021
5257 Clear 24 1011 52 10000 2.06 290 11:37 21.11.2021
5258 Clear 22 1011 60 10000 1.54 290 10:19 21.11.2021
5259 Clear 22 1011 61 10000 1.54 290 09:45 21.11.2021
5260 Clear 22 1011 66 10000 3.6 330 08:32 21.11.2021
5261 Clear 23 1011 56 10000 3.6 310 07:52 21.11.2021
5262 Clear 23 1011 58 10000 4.12 310 06:26 21.11.2021
5263 Clear 23 1011 67 10000 2.57 320 05:41 21.11.2021
5264 Rain 25 1011 68 10000 1.03 0 03:22 21.11.2021
5265 Rain 25 1011 70 10000 0 0 02:55 21.11.2021
5266 Clear 25 1011 70 10000 0.51 80 01:25 21.11.2021
5267 Clear 26 1012 69 10000 2.85 32 00:42 21.11.2021
5268 Clear 28 1011 60 10000 3.09 80 22:30 20.11.2021
5269 Clouds 28 1011 59 10000 4.12 80 21:32 20.11.2021
5270 Clouds 29 1013 55 10000 4.12 80 19:56 20.11.2021
5271 Clouds 29 1014 48 10000 4.12 80 18:45 20.11.2021
5272 Clear 30 1014 45 10000 0.89 135 18:23 20.11.2021
5273 Clear 29 1014 48 10000 3.25 48 17:22 20.11.2021
5274 Clear 26 1015 48 10000 2.28 25 14:55 20.11.2021
5275 Clear 25 1016 50 10000 2.57 10 14:28 20.11.2021
5276 Clear 24 1016 54 10000 2.57 20 13:46 20.11.2021
5277 Clouds 19 1015 85 10000 2.57 20 11:26 20.11.2021
5278 Clear 18 1015 87 10000 3.09 90 09:56 20.11.2021
5279 Clouds 18 1014 89 10000 4.12 100 08:35 20.11.2021
5280 Clear 19 1015 87 10000 6.17 110 06:32 20.11.2021
5281 Clear 19 1015 87 10000 4.63 130 05:18 20.11.2021
5282 Clear 19 1015 82 10000 5.66 110 04:49 20.11.2021
5283 Clear 22 1014 80 10000 6.17 110 00:43 20.11.2021
5284 Clear 24 1013 68 10000 4.12 100 23:45 19.11.2021
5285 Clear 26 1013 49 10000 3.6 70 22:53 19.11.2021
5286 Clear 28 1013 42 10000 3.6 70 21:24 19.11.2021
5287 Clear 29 1011 35 10000 1.07 96 20:40 19.11.2021
5288 Clear 28 1013 44 10000 3.09 50 20:22 19.11.2021
5289 Clouds 28 1014 43 10000 3.6 60 19:43 19.11.2021
5290 Clear 27 1014 42 10000 3.09 40 18:45 19.11.2021
5291 Clear 27 1014 43 10000 3.6 60 17:44 19.11.2021
5292 Clear 27 1014 40 10000 2.57 0 16:43 19.11.2021
5293 Clear 25 1014 41 10000 2.06 210 14:52 19.11.2021
5294 Clear 18 1014 52 10000 3.6 320 11:32 19.11.2021
5295 Clear 15 1014 65 10000 2.06 290 10:24 19.11.2021
5296 Clear 16 1013 70 10000 0 0 08:35 19.11.2021
5297 Clear 18 1013 62 10000 1.54 280 05:36 19.11.2021
5298 Clear 19 1013 54 10000 2.57 320 03:37 19.11.2021
5299 Clear 23 1011 45 10000 3.6 350 23:54 18.11.2021
5300 Clear 25 1012 36 10000 4.46 23 22:49 18.11.2021
5301 Clear 26 1010 30 10000 4.51 34 20:57 18.11.2021
5302 Clear 26 1010 30 10000 4.51 34 20:39 18.11.2021
5303 Clear 26 1010 28 10000 4.62 35 20:19 18.11.2021
5304 Clear 26 1012 28 10000 5.14 360 19:36 18.11.2021
5305 Clear 25 1013 30 10000 5.66 360 18:37 18.11.2021
5306 Clear 24 1014 31 10000 5.14 360 17:52 18.11.2021
5307 Clear 23 1014 31 10000 3.6 20 16:47 18.11.2021
5308 Clear 22 1014 31 10000 2.73 357 15:56 18.11.2021
5309 Clear 21 1014 29 10000 3.03 335 14:57 18.11.2021
5310 Clear 18 1015 43 10000 4.12 330 12:55 18.11.2021
5311 Clear 15 1015 50 10000 3.6 330 11:44 18.11.2021
5312 Clear 14 1015 55 10000 3.6 330 11:25 18.11.2021
5313 Clear 12 1014 56 10000 1.54 290 10:24 18.11.2021
5314 Clear 12 1014 57 10000 1.03 0 08:30 18.11.2021
5315 Clear 13 1014 59 10000 1.54 280 06:40 18.11.2021
5316 Clear 13 1015 56 10000 1.54 290 05:44 18.11.2021
5317 Clear 17 1015 47 10000 3.09 350 01:26 18.11.2021
5318 Clear 17 1015 47 10000 3.09 350 01:26 18.11.2021
5319 Clear 18 1015 42 10000 2.57 20 23:35 17.11.2021
5320 Clear 20 1015 38 10000 3.09 30 22:40 17.11.2021
5321 Clear 20 1015 37 10000 3.09 30 22:19 17.11.2021
5322 Clear 20 1015 37 10000 3.09 30 22:19 17.11.2021
5323 Clear 20 1015 40 10000 3.6 20 21:35 17.11.2021
5324 Clear 20 1017 38 10000 3.6 30 19:51 17.11.2021
5325 Clear 20 1018 30 10000 3.09 140 17:35 17.11.2021
5326 Clear 18 1020 29 10000 3.09 160 15:56 17.11.2021
5327 Clear 13 1020 45 10000 2.57 190 13:19 17.11.2021
5328 Clear 12 1021 54 10000 3.09 190 12:37 17.11.2021
5329 Clear 10 1020 67 10000 2.06 160 10:54 17.11.2021
5330 Clear 9 1020 72 10000 2.57 160 09:38 17.11.2021
5331 Clear 10 1020 68 10000 4.12 160 07:56 17.11.2021
5332 Clear 10 1020 67 10000 4.12 160 07:37 17.11.2021
5333 Clear 14 1020 63 10000 5.66 160 02:49 17.11.2021
5334 Clear 17 1018 52 10000 3.6 170 00:34 17.11.2021
5335 Clear 19 1017 46 10000 4.12 160 22:30 16.11.2021
5336 Clouds 20 1017 48 10000 4.12 160 20:19 16.11.2021
5337 Clouds 20 1018 50 10000 3.6 170 19:39 16.11.2021
5338 Clouds 19 1018 53 10000 4.63 180 18:49 16.11.2021
5339 Clouds 19 1018 53 10000 4.63 180 18:28 16.11.2021
5340 Clouds 18 1017 59 10000 5.14 170 17:18 16.11.2021
5341 Clouds 17 1017 63 10000 5.14 180 16:20 16.11.2021
5342 Clouds 16 1016 77 10000 5.66 190 15:43 16.11.2021
5343 Rain 15 1016 83 10000 4.12 180 13:46 16.11.2021
5344 Rain 15 1015 78 10000 4.63 180 10:27 16.11.2021
5345 Rain 16 1014 80 6884 8.68 189 09:41 16.11.2021
5346 Rain 20 1010 81 10000 2.57 180 07:47 16.11.2021
5347 Clear 21 1009 73 10000 1.03 0 06:43 16.11.2021
5348 Clouds 26 1007 78 10000 5.66 110 23:26 15.11.2021
5349 Clouds 28 1007 61 10000 3.6 110 22:41 15.11.2021
5350 Clouds 28 1007 61 10000 3.6 100 21:57 15.11.2021
5351 Clouds 28 1007 61 10000 3.6 100 21:31 15.11.2021
5352 Clouds 29 1007 53 10000 2.06 70 20:35 15.11.2021
5353 Clear 29 1008 51 10000 4.44 72 19:18 15.11.2021
5354 Clouds 28 1009 58 10000 3.09 70 17:31 15.11.2021
5355 Clear 26 1011 61 10000 2.65 69 15:50 15.11.2021
5356 Clear 26 1011 62 10000 2.65 69 15:32 15.11.2021
5357 Clouds 25 1012 68 10000 3.6 40 14:18 15.11.2021
5358 Clear 23 1012 67 10000 4.12 50 12:37 15.11.2021
5359 Clear 17 1012 61 10000 4.63 60 09:59 15.11.2021
5360 Clear 16 1013 78 10000 3.98 7 09:19 15.11.2021
5361 Clear 18 1013 69 10000 2.06 20 06:54 15.11.2021
5362 Clear 23 1012 51 10000 2.06 40 00:37 15.11.2021
5363 Clear 26 1011 35 10000 1.54 210 22:44 14.11.2021
5364 Clear 26 1011 34 10000 3.09 270 21:18 14.11.2021
5365 Clear 26 1012 35 10000 2.06 0 19:18 14.11.2021
5366 Clear 26 1013 34 10000 3.09 250 18:54 14.11.2021
5367 Clear 25 1013 33 10000 3.09 250 18:36 14.11.2021
5368 Clear 26 1013 32 10000 3.09 250 18:18 14.11.2021
5369 Clear 25 1013 33 10000 4.63 280 17:57 14.11.2021
5370 Clear 25 1013 33 10000 4.63 280 17:39 14.11.2021
5371 Clear 25 1013 33 10000 4.63 280 17:21 14.11.2021
5372 Clear 24 1013 35 10000 3.09 250 16:55 14.11.2021
5373 Clear 24 1013 34 10000 3.09 250 16:37 14.11.2021
5374 Clear 24 1013 33 10000 3.09 250 16:18 14.11.2021
5375 Clear 23 1013 44 10000 3.09 250 15:19 14.11.2021
5376 Clear 21 1013 57 10000 3.6 230 14:37 14.11.2021
5377 Clear 20 1013 59 10000 3.6 230 14:18 14.11.2021
5378 Clouds 20 1012 69 10000 2.57 250 13:40 14.11.2021
5379 Clouds 19 1012 79 10000 3.09 250 12:53 14.11.2021
5380 Clouds 18 1012 82 10000 3.09 250 12:21 14.11.2021
5381 Clouds 18 1010 96 10000 2.57 290 10:54 14.11.2021
5382 Clouds 18 1010 97 10000 2.57 290 10:30 14.11.2021
5383 Rain 17 1009 94 10000 4.79 297 09:22 14.11.2021
5384 Clouds 17 1010 97 10000 4.79 297 08:46 14.11.2021
5385 Rain 17 1009 98 10000 1.36 150 04:46 14.11.2021
5386 Clear 27 1004 54 10000 4.12 90 22:28 13.11.2021
5387 Clouds 27 1005 50 10000 8.26 60 21:59 13.11.2021
5388 Clear 28 1005 43 10000 0.45 90 21:29 13.11.2021
5389 Clear 28 1007 43 10000 6.97 67 20:25 13.11.2021
5390 Clear 27 1009 42 10000 5.92 70 18:53 13.11.2021
5391 Clear 26 1009 48 10000 4.63 70 18:26 13.11.2021
5392 Clear 25 1011 49 10000 4.63 60 17:23 13.11.2021
5393 Clear 23 1013 54 10000 4.63 40 15:42 13.11.2021
5394 Clear 21 1014 59 10000 5.14 40 14:36 13.11.2021
5395 Clouds 20 1014 64 10000 5.66 30 13:46 13.11.2021
5396 Clouds 18 1015 71 10000 4.63 30 12:38 13.11.2021
5397 Clouds 18 1016 74 10000 5.14 50 11:39 13.11.2021
5398 Clouds 17 1016 78 10000 5.66 50 10:45 13.11.2021
5399 Clouds 16 1016 78 10000 5.66 50 10:23 13.11.2021
5400 Clouds 16 1016 78 10000 5.66 50 10:23 13.11.2021
5401 Clouds 16 1016 78 10000 5.14 50 09:39 13.11.2021
5402 Clear 17 1017 77 10000 5.66 50 08:59 13.11.2021
5403 Clear 17 1017 76 10000 5.66 50 08:34 13.11.2021
5404 Clear 18 1017 70 10000 7.72 60 06:27 13.11.2021
5405 Clear 20 1018 66 10000 8.75 60 04:32 13.11.2021
5406 Rain 21 1018 65 10000 6.17 100 01:54 13.11.2021
5407 Clear 22 1017 67 10000 10.29 110 22:59 12.11.2021
5408 Clear 23 1018 61 10000 10.29 110 21:50 12.11.2021
5409 Clear 24 1019 59 10000 10.8 110 20:18 12.11.2021
5410 Clear 24 1020 48 10000 10.29 100 19:28 12.11.2021
5411 Clear 24 1020 54 10000 9.26 100 18:46 12.11.2021
5412 Clear 22 1022 53 10000 5.14 70 16:39 12.11.2021
5413 Clouds 21 1023 55 10000 5.14 60 15:33 12.11.2021
5414 Clouds 18 1023 69 10000 5.66 50 12:54 12.11.2021
5415 Clouds 18 1023 69 10000 5.66 50 12:54 12.11.2021
5416 Clear 16 1022 72 10000 7.2 50 10:51 12.11.2021
5417 Clear 16 1022 75 10000 6.69 50 09:45 12.11.2021
5418 Clear 16 1022 73 10000 7.72 50 08:39 12.11.2021
5419 Clear 20 1022 58 10000 8.23 60 03:18 12.11.2021
5420 Clear 20 1021 72 10000 11.83 110 23:42 11.11.2021
5421 Clear 22 1021 67 10000 9.77 110 22:39 11.11.2021
5422 Clear 23 1021 63 10000 10.29 100 21:28 11.11.2021
5423 Clear 24 1021 57 10000 8.75 110 20:42 11.11.2021
5424 Clear 24 1022 53 10000 8.23 110 19:24 11.11.2021
5425 Clear 24 1023 50 10000 5.66 110 17:58 11.11.2021
5426 Clear 24 1023 50 10000 5.66 110 17:36 11.11.2021
5427 Clear 22 1024 56 10000 4.33 81 15:18 11.11.2021
5428 Clear 21 1024 61 10000 3.6 60 14:30 11.11.2021
5429 Clouds 20 1024 65 10000 4.12 40 13:40 11.11.2021
5430 Clouds 19 1024 70 10000 3.6 40 12:51 11.11.2021
5431 Clouds 17 1024 74 10000 5.14 20 10:58 11.11.2021
5432 Rain 17 1023 77 10000 4.63 40 09:39 11.11.2021
5433 Rain 17 1022 78 10000 6.69 60 07:59 11.11.2021
5434 Clear 18 1022 74 10000 8.23 60 05:55 11.11.2021
5435 Clear 20 1020 73 10000 9.26 120 23:45 10.11.2021
5436 Clear 21 1019 65 10000 8.75 120 22:32 10.11.2021
5437 Clear 21 1019 66 10000 8.75 120 21:31 10.11.2021
5438 Clear 22 1019 61 10000 8.23 110 20:47 10.11.2021
5439 Clouds 22 1019 59 10000 7.72 100 19:47 10.11.2021
5440 Clouds 22 1019 59 10000 7.72 100 19:27 10.11.2021
5441 Clouds 22 1021 65 10000 5.66 90 16:38 10.11.2021
5442 Clouds 21 1022 68 10000 4.63 70 15:40 10.11.2021
5443 Clouds 19 1022 75 10000 6.17 70 13:51 10.11.2021
5444 Clear 19 1022 74 10000 6.69 60 12:59 10.11.2021
5445 Clouds 17 1021 78 10000 7.2 70 10:56 10.11.2021
5446 Clouds 17 1019 78 10000 6.17 80 08:47 10.11.2021
5447 Rain 17 1019 77 10000 7.2 90 07:48 10.11.2021
5448 Clouds 18 1019 75 10000 8.23 90 06:26 10.11.2021
5449 Clouds 18 1020 76 10000 8.75 100 05:51 10.11.2021
5450 Clear 19 1019 71 10000 9.77 110 23:55 09.11.2021
5451 Clear 21 1018 67 10000 10.29 110 21:50 09.11.2021
5452 Clear 21 1018 67 10000 10.29 110 21:50 09.11.2021
5453 Clear 22 1019 64 10000 8.75 100 20:32 09.11.2021
5454 Clouds 22 1019 67 10000 9.26 100 19:25 09.11.2021
5455 Rain 22 1020 68 10000 9.26 100 17:44 09.11.2021
5456 Clouds 22 1020 64 10000 8.75 100 15:45 09.11.2021
5457 Clouds 22 1020 68 10000 8.23 100 14:43 09.11.2021
5458 Clouds 20 1019 76 10000 7.72 130 12:53 09.11.2021
5459 Clouds 20 1019 76 10000 7.72 130 12:53 09.11.2021
5460 Clouds 19 1020 82 10000 2.57 130 11:56 09.11.2021
5461 Clear 17 1019 77 10000 1.54 160 10:45 09.11.2021
5462 Clear 17 1017 73 10000 1.54 190 09:28 09.11.2021
5463 Clouds 17 1017 78 10000 2.32 138 08:26 09.11.2021
5464 Clear 19 1016 81 10000 1.54 210 05:52 09.11.2021
5465 Clear 20 1017 79 10000 1.03 0 02:23 09.11.2021
5466 Clouds 20 1017 79 10000 2.57 130 01:45 09.11.2021
5467 Thunderstorm 23 1015 49 10000 8.23 130 23:58 08.11.2021
5468 Clear 26 1013 58 10000 2.57 30 22:49 08.11.2021
5469 Clear 27 1013 55 10000 2.57 30 21:55 08.11.2021
5470 Clear 28 1013 43 10000 2.7 69 20:53 08.11.2021
5471 Clear 29 1014 43 10000 3.06 61 19:51 08.11.2021
5472 Clear 29 1014 43 10000 3.67 57 18:30 08.11.2021
5473 Clouds 27 1016 47 10000 3.6 10 16:22 08.11.2021
5474 Clear 25 1017 50 10000 2.16 16 14:58 08.11.2021
5475 Clear 25 1017 50 10000 2.16 16 14:38 08.11.2021
5476 Clear 22 1017 59 10000 3.09 350 13:31 08.11.2021
5477 Clear 19 1017 69 10000 3.09 340 11:56 08.11.2021
5478 Clear 16 1016 80 10000 2.57 350 10:50 08.11.2021
5479 Clear 15 1016 89 10000 2.57 360 09:39 08.11.2021
5480 Clear 15 1016 87 10000 2.06 60 08:53 08.11.2021
5481 Clear 16 1016 87 10000 2.57 70 07:29 08.11.2021
5482 Clear 18 1016 72 10000 4.12 70 03:48 08.11.2021
5483 Clear 18 1016 72 10000 4.12 70 03:26 08.11.2021
5484 Clear 20 1016 67 10000 4.63 90 23:45 07.11.2021
5485 Clear 21 1016 60 10000 4.63 80 21:46 07.11.2021
5486 Clouds 22 1016 57 10000 5.14 80 20:52 07.11.2021
5487 Clouds 23 1017 57 10000 5.14 80 19:25 07.11.2021
5488 Clouds 22 1018 57 10000 4.12 70 17:49 07.11.2021
5489 Clouds 21 1019 61 10000 2.57 40 16:49 07.11.2021
5490 Clouds 20 1019 61 10000 3.09 50 15:44 07.11.2021
5491 Clear 19 1020 62 10000 3.6 50 14:28 07.11.2021
5492 Clear 17 1020 68 10000 3.6 50 12:58 07.11.2021
5493 Clear 16 1020 73 10000 3.6 50 11:42 07.11.2021
5494 Clear 15 1020 77 10000 4.12 50 09:26 07.11.2021
5495 Clouds 16 1020 78 10000 6.17 80 06:46 07.11.2021
5496 Clouds 16 1022 70 10000 5.66 120 02:32 07.11.2021
5497 Clouds 18 1020 63 10000 8.75 110 22:57 06.11.2021
5498 Clouds 18 1020 64 10000 8.75 110 22:32 06.11.2021
5499 Clouds 19 1021 59 10000 8.23 100 21:28 06.11.2021
5500 Clouds 20 1021 59 10000 6.17 100 20:32 06.11.2021
5501 Clouds 20 1023 55 10000 6.17 90 18:56 06.11.2021
5502 Clouds 20 1024 51 10000 6.69 100 16:38 06.11.2021
5503 Clear 18 1024 56 10000 7.72 130 14:31 06.11.2021
5504 Clear 16 1025 57 10000 5.14 140 13:38 06.11.2021
5505 Clouds 12 1024 70 10000 4.63 160 11:25 06.11.2021
5506 Clouds 12 1024 68 10000 3.09 160 09:21 06.11.2021
5507 Clear 13 1024 67 10000 5.14 140 04:55 06.11.2021
5508 Clear 16 1023 51 10000 8.23 130 00:58 06.11.2021
5509 Clouds 17 1022 44 10000 8.75 130 23:33 05.11.2021
5510 Clouds 18 1021 39 10000 5.66 140 22:33 05.11.2021
5511 Clear 20 1021 35 10000 6.17 150 20:42 05.11.2021
5512 Rain 20 1021 34 10000 6.17 150 20:18 05.11.2021
5513 Clear 20 1021 33 10000 6.69 140 18:59 05.11.2021
5514 Clear 20 1021 32 10000 6.69 140 18:38 05.11.2021
5515 Rain 19 1021 34 10000 7.2 140 16:50 05.11.2021
5516 Rain 16 1020 50 10000 5.14 160 14:41 05.11.2021
5517 Clouds 14 1019 61 10000 4.63 160 12:50 05.11.2021
5518 Rain 14 1016 76 10000 6.17 170 09:51 05.11.2021
5519 Clouds 15 1015 85 10000 5.66 180 08:38 05.11.2021
5520 Rain 17 1015 92 10000 1.34 315 06:40 05.11.2021
5521 Rain 22 1013 91 10000 5.14 100 03:38 05.11.2021
5522 Clouds 22 1012 90 10000 5.66 110 02:21 05.11.2021
5523 Clear 24 1010 79 10000 4.63 110 23:58 04.11.2021
5524 Clear 25 1009 70 10000 4.12 100 22:37 04.11.2021
5525 Clear 25 1009 69 10000 4.12 100 22:18 04.11.2021
5526 Clear 26 1009 66 10000 6.17 100 21:28 04.11.2021
5527 Clouds 26 1009 68 10000 4.63 80 20:29 04.11.2021
5528 Clouds 26 1010 67 10000 3.6 70 19:49 04.11.2021
5529 Clouds 26 1010 68 10000 3.6 70 19:28 04.11.2021
5530 Clouds 26 1010 65 10000 3.45 89 18:29 04.11.2021
5531 Clouds 25 1010 73 10000 5.14 70 17:26 04.11.2021
5532 Clouds 24 1011 73 10000 5.14 90 16:23 04.11.2021
5533 Clouds 22 1011 80 10000 2.06 80 13:50 04.11.2021
5534 Clouds 20 1010 90 10000 3.09 50 10:48 04.11.2021
5535 Clouds 19 1008 89 10000 3.09 80 08:41 04.11.2021
5536 Clouds 20 1008 91 10000 4.12 70 07:49 04.11.2021
5537 Clouds 20 1008 91 10000 4.12 70 07:31 04.11.2021
5538 Clouds 22 1007 86 10000 6.69 120 23:18 03.11.2021
5539 Clouds 23 1008 84 10000 6.17 120 22:25 03.11.2021
5540 Clouds 23 1007 80 10000 6.17 110 21:37 03.11.2021
5541 Clouds 24 1007 80 10000 7.2 110 20:44 03.11.2021
5542 Clouds 24 1007 78 10000 7.2 110 20:25 03.11.2021
5543 Clouds 24 1008 75 10000 5.66 100 19:33 03.11.2021
5544 Clouds 24 1009 78 10000 5.66 100 18:27 03.11.2021
5545 Clouds 24 1009 78 10000 5.66 100 18:27 03.11.2021
5546 Clouds 24 1009 78 10000 5.66 100 18:27 03.11.2021
5547 Drizzle 23 1009 81 6000 6.17 100 17:42 03.11.2021
5548 Clouds 22 1010 88 10000 5.14 100 16:48 03.11.2021
5549 Clouds 22 1010 89 10000 1.54 150 15:49 03.11.2021
5550 Clouds 22 1011 88 10000 1.54 150 15:29 03.11.2021
5551 Mist 20 1011 93 4000 2.06 170 13:29 03.11.2021
5552 Clouds 19 1011 94 7000 2.57 170 11:34 03.11.2021
5553 Clouds 19 1011 96 7000 2.06 180 10:50 03.11.2021
5554 Clouds 19 1011 94 10000 2.06 170 09:40 03.11.2021
5555 Rain 19 1010 92 10000 2.06 170 08:53 03.11.2021
5556 Clouds 19 1011 91 10000 2.57 160 07:40 03.11.2021
5557 Clouds 19 1012 93 10000 3.09 160 06:32 03.11.2021
5558 Rain 19 1014 95 10000 1.54 170 04:22 03.11.2021
5559 Rain 20 1014 91 4000 5.66 110 00:57 03.11.2021
5560 Clouds 22 1013 83 10000 3.09 80 22:52 02.11.2021
5561 Clouds 22 1013 81 10000 3.6 70 21:54 02.11.2021
5562 Clouds 23 1013 74 10000 4.63 100 20:36 02.11.2021
5563 Clouds 23 1013 73 10000 5.14 100 19:56 02.11.2021
5564 Clouds 23 1013 73 10000 5.14 100 19:27 02.11.2021
5565 Clouds 22 1014 79 10000 2.57 140 18:34 02.11.2021
5566 Clouds 20 1015 85 10000 3.6 140 17:44 02.11.2021
5567 Clouds 20 1015 91 8000 2.57 140 16:34 02.11.2021
5568 Clouds 20 1016 93 7000 2.06 160 15:49 02.11.2021
5569 Mist 19 1016 96 4000 1.54 180 14:51 02.11.2021
5570 Mist 17 1015 94 3000 3.09 160 13:29 02.11.2021
5571 Mist 17 1016 97 5000 2.57 190 12:46 02.11.2021
5572 Mist 16 1016 98 4000 2.06 190 11:38 02.11.2021
5573 Mist 15 1016 100 3000 2.57 200 10:55 02.11.2021
5574 Clouds 15 1016 100 6000 2.57 190 10:32 02.11.2021
5575 Mist 15 1015 100 4500 3.09 190 09:40 02.11.2021
5576 Clouds 16 1016 94 8000 1.54 130 07:45 02.11.2021
5577 Rain 16 1017 94 10000 3.6 160 04:39 02.11.2021
5578 Rain 17 1017 94 8000 4.12 150 02:49 02.11.2021
5579 Rain 18 1017 88 8000 4.63 140 23:32 01.11.2021
5580 Clouds 19 1016 81 9000 6.17 130 21:28 01.11.2021
5581 Drizzle 19 1016 81 6000 4.63 140 20:42 01.11.2021
5582 Drizzle 19 1017 84 6000 4.12 140 19:58 01.11.2021
5583 Mist 19 1017 84 6000 4.12 140 19:58 01.11.2021
5584 Drizzle 19 1017 84 6000 4.12 140 19:38 01.11.2021
5585 Rain 19 1017 77 8000 7.2 130 18:23 01.11.2021
5586 Rain 19 1018 76 10000 5.14 130 17:35 01.11.2021
5587 Clouds 18 1019 78 10000 5.66 140 16:50 01.11.2021
5588 Clouds 18 1019 76 10000 4.63 150 15:56 01.11.2021
5589 Clouds 18 1019 77 10000 4.63 150 15:27 01.11.2021
5590 Clouds 17 1019 80 9000 4.63 140 14:43 01.11.2021
5591 Clouds 17 1019 81 9000 4.63 140 14:23 01.11.2021
5592 Clouds 16 1019 86 7000 4.12 150 13:49 01.11.2021
5593 Clouds 14 1020 90 6000 3.6 150 12:33 01.11.2021
5594 Clouds 14 1018 91 10000 3.6 150 10:36 01.11.2021
5595 Clouds 14 1018 91 10000 3.09 150 09:35 01.11.2021
5596 Drizzle 14 1019 90 9000 3.09 170 07:49 01.11.2021
5597 Drizzle 15 1019 90 9000 4.63 150 06:31 01.11.2021
5598 Clouds 16 1020 85 10000 5.66 140 03:44 01.11.2021
5599 Rain 18 1019 76 10000 7.2 130 00:37 01.11.2021
5600 Clouds 19 1019 75 10000 5.66 130 22:24 31.10.2021
5601 Rain 20 1018 75 10000 5.66 130 20:46 31.10.2021
5602 Rain 20 1020 75 10000 3.09 170 18:57 31.10.2021
5603 Rain 20 1020 74 10000 3.09 170 18:35 31.10.2021
5604 Clouds 19 1020 74 10000 5.14 140 16:53 31.10.2021
5605 Rain 18 1020 77 10000 6.69 120 15:41 31.10.2021
5606 Rain 15 1020 92 10000 4.12 180 13:38 31.10.2021
5607 Clouds 15 1020 92 7000 5.66 140 12:44 31.10.2021
5608 Drizzle 15 1019 95 3000 4.63 160 10:57 31.10.2021
5609 Drizzle 16 1019 95 5000 4.12 170 10:36 31.10.2021
5610 Clouds 17 1018 92 9000 4.63 160 09:19 31.10.2021
5611 Clear 23 1015 79 10000 3.6 140 04:55 31.10.2021
5612 Clear 26 1013 73 10000 4.63 110 00:48 31.10.2021
5613 Clear 29 1013 61 10000 5.66 100 22:33 30.10.2021
5614 Clear 30 1013 55 10000 4.12 100 21:33 30.10.2021
5615 Clear 31 1014 56 10000 4.3 101 20:19 30.10.2021
5616 Clear 29 1015 58 10000 3.79 97 18:33 30.10.2021
5617 Clear 25 1016 70 10000 4.12 80 16:20 30.10.2021
5618 Clear 23 1016 75 10000 3.09 50 14:25 30.10.2021
5619 Clear 22 1016 76 10000 3.6 50 13:39 30.10.2021
5620 Clear 22 1016 76 10000 3.6 50 13:20 30.10.2021
5621 Clear 21 1015 81 10000 4.63 30 11:50 30.10.2021
5622 Clear 20 1015 83 10000 4.63 30 11:26 30.10.2021
5623 Clear 21 1014 79 10000 4.12 30 09:53 30.10.2021
5624 Clear 22 1013 76 10000 4.12 10 08:31 30.10.2021
5625 Clear 23 1014 72 10000 5.66 60 05:49 30.10.2021
5626 Clear 24 1014 71 10000 6.69 70 04:54 30.10.2021
5627 Clear 26 1014 60 10000 7.72 120 23:33 29.10.2021
5628 Clear 27 1014 56 10000 7.72 120 22:35 29.10.2021
5629 Clear 28 1014 45 10000 6.69 100 21:20 29.10.2021
5630 Clear 28 1016 44 10000 7.72 100 20:33 29.10.2021
5631 Clear 29 1017 41 10000 5.66 110 19:33 29.10.2021
5632 Clear 28 1018 46 10000 6.69 100 18:18 29.10.2021
5633 Clouds 27 1020 40 10000 3.23 74 16:20 29.10.2021
5634 Rain 23 1020 52 10000 5.66 60 13:23 29.10.2021
5635 Clear 22 1020 56 10000 5.14 40 10:49 29.10.2021
5636 Clear 22 1020 56 10000 5.14 40 10:31 29.10.2021
5637 Clear 25 1019 78 10000 6.17 110 02:47 29.10.2021
5638 Clear 27 1018 65 10000 7.72 110 00:35 29.10.2021
5639 Rain 31 1018 51 10000 7.2 110 22:34 28.10.2021
5640 Clear 32 1019 44 10000 5.66 110 21:20 28.10.2021
5641 Clouds 34 1019 55 10000 4.98 94 20:19 28.10.2021
5642 Clouds 34 1020 57 10000 4.2 89 18:47 28.10.2021
5643 Clouds 33 1021 46 10000 3.6 80 17:52 28.10.2021
5644 Clouds 32 1022 59 10000 2.93 62 16:39 28.10.2021
5645 Clouds 29 1023 48 10000 2.65 29 14:43 28.10.2021
5646 Clear 26 1022 58 10000 2.06 360 13:33 28.10.2021
5647 Rain 24 1022 73 10000 1.54 360 12:50 28.10.2021
5648 Clear 22 1021 68 10000 0.51 0 11:50 28.10.2021
5649 Clear 21 1021 77 10000 1.03 0 10:38 28.10.2021
5650 Clear 22 1020 73 10000 1.54 80 09:37 28.10.2021
5651 Clear 22 1020 71 10000 0.51 0 08:36 28.10.2021
5652 Clear 22 1020 64 10000 0 0 07:41 28.10.2021
5653 Clear 26 1020 53 10000 3.6 110 02:33 28.10.2021
5654 Clear 33 1018 33 10000 1.54 80 22:54 27.10.2021
5655 Clear 33 1018 33 10000 3.95 47 21:57 27.10.2021
5656 Clear 34 1018 35 10000 4.14 44 21:28 27.10.2021
5657 Clear 33 1017 34 10000 4.15 43 20:43 27.10.2021
5658 Clear 33 1018 37 10000 4.36 39 19:47 27.10.2021
5659 Clear 33 1018 37 10000 4.29 38 18:56 27.10.2021
5660 Clear 33 1019 27 10000 3.94 34 17:49 27.10.2021
5661 Clear 31 1020 30 10000 2.05 15 16:25 27.10.2021
5662 Clear 30 1020 33 10000 1.91 343 15:25 27.10.2021
5663 Clear 26 1019 42 10000 2.62 336 14:24 27.10.2021
5664 Clear 19 1017 70 10000 1.03 0 11:18 27.10.2021
5665 Clear 19 1016 67 10000 1.54 340 10:56 27.10.2021
5666 Clear 20 1015 62 10000 2.06 310 09:28 27.10.2021
5667 Clear 21 1014 65 10000 1.03 0 07:46 27.10.2021
5668 Clear 23 1013 56 10000 1.54 300 05:49 27.10.2021
5669 Clear 27 1012 49 10000 1.03 0 01:26 27.10.2021
5670 Clear 28 1011 54 10000 1.03 0 00:54 27.10.2021
5671 Clear 30 1011 47 10000 1.03 0 23:55 26.10.2021
5672 Clear 33 1011 33 10000 1.29 114 22:47 26.10.2021
5673 Clear 34 1011 32 10000 0.65 300 22:25 26.10.2021
5674 Clear 35 1011 21 10000 0.65 300 21:41 26.10.2021
5675 Clouds 34 1012 23 10000 2.42 287 19:54 26.10.2021
5676 Clouds 34 1012 24 10000 3.69 289 19:22 26.10.2021
5677 Clouds 33 1012 23 10000 4.08 295 18:23 26.10.2021
5678 Clear 29 1014 38 10000 3.64 309 15:51 26.10.2021
5679 Clear 22 1013 56 10000 2.06 10 13:21 26.10.2021
5680 Clear 18 1012 69 10000 1.54 360 10:54 26.10.2021
5681 Clear 18 1013 73 10000 1.03 0 08:41 26.10.2021
5682 Clear 19 1013 70 10000 1.54 310 07:22 26.10.2021
5683 Clear 26 1010 30 10000 2.06 210 00:19 26.10.2021
5684 Clear 28 1009 24 10000 3.09 240 23:36 25.10.2021
5685 Clear 29 1009 22 10000 4.12 250 22:29 25.10.2021
5686 Clear 30 1009 22 10000 3.09 0 21:43 25.10.2021
5687 Clear 29 1009 22 10000 4.63 270 20:37 25.10.2021
5688 Clear 29 1009 22 10000 4.12 250 19:43 25.10.2021
5689 Clear 29 1009 22 10000 4.12 250 19:22 25.10.2021
5690 Clear 29 1010 24 10000 4.63 260 18:38 25.10.2021
5691 Clear 28 1010 28 10000 4.12 0 17:26 25.10.2021
5692 Clear 23 1010 38 10000 6.69 290 14:48 25.10.2021
5693 Clear 18 1009 45 10000 9.26 310 12:31 25.10.2021
5694 Clear 17 1008 49 10000 8.23 300 10:46 25.10.2021
5695 Clear 18 1008 45 10000 6.17 300 08:58 25.10.2021
5696 Clear 18 1009 39 10000 5.66 300 06:28 25.10.2021
5697 Clear 18 1009 39 10000 5.66 300 06:28 25.10.2021
5698 Clear 18 1009 39 10000 5.66 300 06:28 25.10.2021
5699 Clear 17 1011 49 10000 5.57 314 04:35 25.10.2021
5700 Clear 22 1010 27 10000 4.12 290 00:51 25.10.2021
5701 Clear 22 1010 27 10000 4.12 290 00:33 25.10.2021
5702 Clear 24 1010 22 10000 3.6 270 23:33 24.10.2021
5703 Clear 25 1010 25 10000 5.14 290 22:38 24.10.2021
5704 Clear 25 1010 26 10000 5.14 290 22:19 24.10.2021
5705 Clear 25 1011 26 10000 7.2 290 20:54 24.10.2021
5706 Clear 25 1011 26 10000 7.2 290 20:28 24.10.2021
5707 Clear 25 1012 28 10000 5.66 280 19:29 24.10.2021
5708 Clear 24 1013 31 10000 6.17 290 18:28 24.10.2021
5709 Clear 23 1013 33 10000 4.63 280 17:35 24.10.2021
5710 Clear 20 1015 40 10000 5.04 300 15:55 24.10.2021
5711 Clear 17 1014 48 10000 5.14 310 14:25 24.10.2021
5712 Clear 14 1014 63 10000 4.12 310 12:58 24.10.2021
5713 Clear 10 1013 72 10000 1.54 40 11:44 24.10.2021
5714 Clear 10 1013 72 10000 1.03 0 10:55 24.10.2021
5715 Clear 10 1013 72 10000 0 0 09:59 24.10.2021
5716 Clear 12 1013 58 10000 2.57 170 07:41 24.10.2021
5717 Clouds 20 1008 39 10000 3.6 220 00:57 24.10.2021
5718 Clouds 21 1008 37 10000 3.6 0 23:34 23.10.2021
5719 Clouds 21 1007 47 10000 6.35 214 21:58 23.10.2021
5720 Clouds 20 1007 57 10000 4.12 190 19:54 23.10.2021
5721 Clouds 20 1007 62 10000 3.6 210 18:59 23.10.2021
5722 Clouds 20 1007 63 10000 3.6 210 18:21 23.10.2021
5723 Clouds 19 1008 66 10000 3.09 190 17:43 23.10.2021
5724 Clouds 19 1008 66 10000 3.09 190 17:43 23.10.2021
5725 Clouds 18 1008 71 10000 3.6 200 16:21 23.10.2021
5726 Rain 16 1010 89 10000 1.33 205 14:22 23.10.2021
5727 Clouds 15 1011 87 10000 7.2 130 03:33 23.10.2021
5728 Clouds 15 1011 90 9000 4.63 170 23:59 22.10.2021
5729 Rain 17 1010 79 9000 4.63 170 22:49 22.10.2021
5730 Clouds 24 1010 56 10000 3.09 60 19:51 22.10.2021
5731 Clear 25 1011 58 10000 3.09 60 18:40 22.10.2021
5732 Clouds 25 1012 54 10000 3.65 66 17:36 22.10.2021
5733 Clear 21 1014 54 10000 1.03 0 14:58 22.10.2021
5734 Rain 20 1014 60 10000 2.06 250 13:35 22.10.2021
5735 Clear 18 1013 70 10000 2.57 320 11:18 22.10.2021
5736 Clear 18 1012 68 10000 2.57 350 10:38 22.10.2021
5737 Clear 18 1012 66 10000 5.14 330 09:41 22.10.2021
5738 Clear 19 1012 62 10000 4.63 330 08:30 22.10.2021
5739 Clear 20 1012 63 10000 4.12 330 07:21 22.10.2021
5740 Clear 22 1012 69 10000 2.57 50 02:56 22.10.2021
5741 Clear 24 1012 54 10000 2.57 50 23:53 21.10.2021
5742 Clear 25 1012 64 10000 3.09 50 22:47 21.10.2021
5743 Clear 27 1012 49 10000 4.18 75 21:39 21.10.2021
5744 Clear 27 1013 46 10000 3.74 74 20:27 21.10.2021
5745 Clear 27 1013 43 10000 3.74 74 19:57 21.10.2021
5746 Clear 27 1014 41 10000 4.02 51 19:26 21.10.2021
5747 Clear 27 1014 40 10000 4.02 51 18:38 21.10.2021
5748 Clear 26 1015 41 10000 3.55 46 17:53 21.10.2021
5749 Clear 25 1016 46 10000 3.31 38 17:18 21.10.2021
5750 Clear 21 1017 59 10000 3.09 50 15:33 21.10.2021
5751 Clouds 20 1018 65 10000 9.26 120 14:57 21.10.2021
5752 Clouds 20 1018 66 10000 9.26 120 14:37 21.10.2021
5753 Clear 16 1017 75 10000 4.63 350 11:59 21.10.2021
5754 Clear 17 1016 75 10000 5.14 360 09:55 21.10.2021
5755 Clear 17 1017 75 10000 3.09 10 08:20 21.10.2021
5756 Clear 18 1017 82 10000 3.09 80 06:54 21.10.2021
5757 Clear 20 1017 78 10000 7.2 110 00:51 21.10.2021
5758 Clouds 23 1017 57 10000 7.72 100 22:36 20.10.2021
5759 Clear 25 1017 47 10000 5 88 21:50 20.10.2021
5760 Clear 25 1017 48 10000 5.12 90 20:59 20.10.2021
5761 Clear 25 1017 49 10000 5.08 89 20:39 20.10.2021
5762 Clear 25 1018 47 10000 4.76 88 20:19 20.10.2021
5763 Clear 24 1018 52 10000 4.63 90 19:23 20.10.2021
5764 Clear 25 1019 51 10000 4.12 82 18:45 20.10.2021
5765 Clear 24 1020 58 10000 2.94 65 17:33 20.10.2021
5766 Clear 19 1021 72 10000 2.57 30 14:33 20.10.2021
5767 Rain 14 1020 92 10000 3.6 100 09:54 20.10.2021
5768 Clear 16 1021 81 10000 7.2 100 05:34 20.10.2021
5769 Clear 17 1022 60 10000 6.17 100 02:35 20.10.2021
5770 Clear 18 1021 51 10000 5.14 100 00:33 20.10.2021
5771 Clear 21 1020 38 10000 4.12 80 22:37 19.10.2021
5772 Clear 21 1021 45 10000 4.63 70 21:37 19.10.2021
5773 Clear 22 1021 46 10000 4.63 80 20:26 19.10.2021
5774 Clear 21 1022 51 10000 4.63 80 19:59 19.10.2021
5775 Clear 22 1021 39 10000 4.17 71 19:36 19.10.2021
5776 Clear 21 1022 49 10000 4.63 70 18:40 19.10.2021
5777 Clear 20 1023 52 10000 4.12 80 17:47 19.10.2021
5778 Clear 19 1023 51 10000 3.09 60 15:29 19.10.2021
5779 Clear 17 1023 56 10000 2.06 60 14:37 19.10.2021
5780 Clear 16 1023 69 10000 2.57 80 13:52 19.10.2021
5781 Clouds 13 1023 83 10000 2.57 80 12:23 19.10.2021
5782 Clouds 11 1023 91 10000 3.09 80 11:24 19.10.2021
5783 Clouds 12 1022 88 10000 3.09 80 09:55 19.10.2021
5784 Rain 12 1022 82 10000 3.6 100 08:56 19.10.2021
5785 Clear 16 1022 71 10000 6.17 110 02:18 19.10.2021
5786 Clear 17 1022 67 10000 7.72 100 23:58 18.10.2021
5787 Clear 18 1021 67 10000 7.72 100 23:39 18.10.2021
5788 Clear 19 1021 67 10000 7.2 100 22:55 18.10.2021
5789 Clear 19 1021 68 10000 7.2 100 22:18 18.10.2021
5790 Clouds 20 1021 70 10000 6.17 100 20:48 18.10.2021
5791 Clouds 21 1021 67 10000 6.17 100 20:23 18.10.2021
5792 Clouds 21 1022 66 10000 5.66 90 19:31 18.10.2021
5793 Clouds 21 1022 61 10000 6.69 100 18:59 18.10.2021
5794 Clear 20 1023 60 10000 5.14 100 16:38 18.10.2021
5795 Clear 18 1023 59 10000 2.06 160 14:44 18.10.2021
5796 Clear 13 1022 74 10000 1.03 0 11:59 18.10.2021
5797 Clear 13 1021 67 10000 0 0 09:48 18.10.2021
5798 Clear 15 1020 59 10000 1.54 280 07:46 18.10.2021
5799 Clear 20 1019 56 10000 2.06 70 00:29 18.10.2021
5800 Clear 22 1018 42 10000 4.12 50 22:30 17.10.2021
5801 Clear 22 1019 42 10000 3.6 50 21:44 17.10.2021
5802 Clear 22 1019 41 10000 4.12 50 20:57 17.10.2021
5803 Clear 22 1019 41 10000 4.12 50 20:21 17.10.2021
5804 Clouds 22 1019 41 10000 3.05 33 19:38 17.10.2021
5805 Clouds 22 1020 38 10000 2.76 28 18:34 17.10.2021
5806 Clouds 20 1021 37 10000 3.19 356 16:40 17.10.2021
5807 Clear 16 1021 54 10000 4.63 340 14:40 17.10.2021
5808 Clear 16 1021 55 10000 4.63 340 14:20 17.10.2021
5809 Clear 14 1022 64 10000 3.6 330 13:33 17.10.2021
5810 Rain 11 1022 70 10000 2.57 300 11:31 17.10.2021
5811 Clear 11 1021 64 10000 4.12 330 10:19 17.10.2021
5812 Clear 12 1021 62 10000 5.66 340 08:47 17.10.2021
5813 Clear 16 1022 48 10000 4.63 20 03:21 17.10.2021
5814 Clear 17 1021 43 10000 3.09 30 00:31 17.10.2021
5815 Clear 18 1021 38 10000 4.63 60 22:54 16.10.2021
5816 Clear 19 1022 36 10000 4.63 50 20:45 16.10.2021
5817 Clear 19 1022 36 10000 4.63 50 20:27 16.10.2021
5818 Clear 19 1023 37 10000 4.12 40 19:40 16.10.2021
5819 Clear 19 1023 37 10000 4.12 40 19:19 16.10.2021
5820 Clear 19 1023 37 10000 4.12 40 19:19 16.10.2021
5821 Clear 19 1023 35 10000 3.97 48 18:44 16.10.2021
5822 Clear 19 1024 34 10000 3.34 39 18:23 16.10.2021
5823 Clear 18 1025 32 10000 4.12 20 17:33 16.10.2021
5824 Clear 18 1025 36 10000 4.63 350 16:20 16.10.2021
5825 Clear 12 1025 51 10000 3.6 330 13:26 16.10.2021
5826 Clear 9 1025 64 10000 3.6 320 11:24 16.10.2021
5827 Clear 11 1025 58 10000 5.14 10 08:58 16.10.2021
5828 Clouds 13 1025 53 10000 5.14 60 04:33 16.10.2021
5829 Clear 15 1022 51 10000 4.63 90 00:51 16.10.2021
5830 Clear 17 1022 36 10000 4.63 100 23:26 15.10.2021
5831 Clear 19 1021 27 10000 3.6 140 22:21 15.10.2021
5832 Clear 19 1021 26 10000 3.09 200 21:40 15.10.2021
5833 Clear 19 1021 24 10000 3.09 0 20:54 15.10.2021
5834 Clear 19 1021 24 10000 3.09 0 20:25 15.10.2021
5835 Clouds 19 1022 25 10000 3.6 170 19:20 15.10.2021
5836 Clear 18 1022 27 10000 5.66 150 18:22 15.10.2021
5837 Clear 15 1022 37 10000 4.63 150 15:48 15.10.2021
5838 Clear 14 1022 54 10000 4.12 160 14:22 15.10.2021
5839 Clear 10 1021 72 10000 2.57 180 12:25 15.10.2021
5840 Clear 10 1020 72 10000 4.12 170 11:18 15.10.2021
5841 Clouds 10 1018 74 10000 3.09 180 10:28 15.10.2021
5842 Clear 11 1015 74 10000 4.63 0 07:37 15.10.2021
5843 Clear 12 1015 64 10000 4.63 190 04:46 15.10.2021
5844 Clouds 15 1011 66 10000 7.72 200 00:22 15.10.2021
5845 Clouds 16 1009 66 10000 7.72 210 23:25 14.10.2021
5846 Clear 23 1006 50 10000 2.57 220 22:20 14.10.2021
5847 Clouds 23 1004 61 10000 3.6 360 21:37 14.10.2021
5848 Clouds 23 1004 63 10000 3.09 10 20:20 14.10.2021
5849 Clouds 23 1004 63 10000 3.6 20 19:46 14.10.2021
5850 Clouds 22 1005 68 10000 3.6 20 18:26 14.10.2021
5851 Clouds 20 1005 71 9000 3.6 350 16:58 14.10.2021
5852 Clouds 20 1005 72 9000 3.6 350 16:32 14.10.2021
5853 Clouds 18 1005 72 8000 2.57 310 14:50 14.10.2021
5854 Clouds 17 1005 74 8000 2.57 310 14:26 14.10.2021
5855 Clouds 14 1005 92 8000 1.03 0 12:35 14.10.2021
5856 Fog 12 1005 97 8000 0.51 0 11:26 14.10.2021
5857 Clouds 13 1005 99 10000 1.42 273 08:26 14.10.2021
5858 Clouds 14 1007 99 10000 1 182 05:52 14.10.2021
5859 Clouds 17 1008 81 10000 2.76 218 00:36 14.10.2021
5860 Rain 18 1006 76 10000 2.06 240 22:39 13.10.2021
5861 Clouds 18 1006 77 10000 2.57 60 21:36 13.10.2021
5862 Rain 19 1006 75 10000 3.09 160 20:43 13.10.2021
5863 Clouds 18 1007 83 9000 2.57 0 19:20 13.10.2021
5864 Rain 18 1009 90 6000 2.57 0 18:37 13.10.2021
5865 Drizzle 18 1009 86 8000 3.09 310 16:35 13.10.2021
5866 Rain 18 1010 87 10000 1.54 70 14:46 13.10.2021
5867 Rain 18 1010 86 10000 1.54 70 14:23 13.10.2021
5868 Rain 17 1009 92 10000 1.03 0 12:24 13.10.2021
5869 Rain 17 1009 95 8000 3.6 70 11:36 13.10.2021
5870 Mist 17 1009 96 4300 3.6 100 09:26 13.10.2021
5871 Rain 16 1011 95 6000 3.6 120 07:48 13.10.2021
5872 Rain 18 1011 88 10000 2.57 90 02:58 13.10.2021
5873 Clouds 19 1012 86 10000 2.57 90 02:19 13.10.2021
5874 Clear 20 1011 81 10000 2.57 80 23:33 12.10.2021
5875 Clear 20 1011 76 10000 3.09 70 22:50 12.10.2021
5876 Clear 21 1011 75 10000 3.09 70 22:23 12.10.2021
5877 Clouds 21 1011 71 10000 2.56 83 20:50 12.10.2021
5878 Clouds 22 1012 70 10000 2.26 54 20:24 12.10.2021
5879 Clouds 21 1013 73 10000 3.6 60 18:58 12.10.2021
5880 Clouds 20 1013 74 10000 3.6 60 18:23 12.10.2021
5881 Clouds 19 1014 72 10000 2.06 190 16:47 12.10.2021
5882 Clouds 19 1014 74 10000 2.06 190 16:19 12.10.2021
5883 Clouds 17 1014 83 10000 1.54 180 14:51 12.10.2021
5884 Clouds 16 1014 92 10000 2.06 200 13:45 12.10.2021
5885 Clouds 15 1014 94 10000 1.54 200 12:40 12.10.2021
5886 Drizzle 15 1013 100 6000 1.54 210 10:38 12.10.2021
5887 Drizzle 15 1013 99 5000 1.54 190 08:49 12.10.2021
5888 Clouds 15 1014 94 10000 2.57 210 07:54 12.10.2021
5889 Clouds 15 1014 90 10000 3.09 190 06:41 12.10.2021
5890 Clouds 16 1014 93 10000 4.12 160 04:33 12.10.2021
5891 Clouds 17 1015 82 10000 4.12 160 01:28 12.10.2021
5892 Clouds 19 1015 73 10000 3.09 170 23:41 11.10.2021
5893 Clouds 19 1014 74 10000 2.06 0 22:59 11.10.2021
5894 Clouds 20 1015 72 10000 4.54 129 21:46 11.10.2021
5895 Clouds 20 1015 70 10000 5.13 124 21:18 11.10.2021
5896 Clouds 19 1016 80 10000 5.14 100 19:46 11.10.2021
5897 Clouds 18 1016 88 10000 3.09 130 18:44 11.10.2021
5898 Clouds 18 1017 80 10000 2.57 180 17:54 11.10.2021
5899 Clouds 17 1017 87 6000 3.6 170 16:39 11.10.2021
5900 Drizzle 16 1018 95 2500 2.06 180 15:51 11.10.2021
5901 Drizzle 16 1018 96 2500 2.06 180 15:23 11.10.2021
5902 Clouds 16 1018 95 10000 2.57 150 14:42 11.10.2021
5903 Clouds 16 1018 94 10000 3.6 130 13:37 11.10.2021
5904 Rain 16 1017 95 10000 3.6 130 11:51 11.10.2021
5905 Drizzle 16 1017 95 7000 4.12 130 10:43 11.10.2021
5906 Rain 16 1017 95 10000 4.63 110 09:37 11.10.2021
5907 Rain 16 1017 94 10000 4.63 100 07:27 11.10.2021
5908 Clouds 17 1018 90 10000 7.2 120 01:41 11.10.2021
5909 Clouds 17 1018 88 10000 7.2 130 00:48 11.10.2021
5910 Clouds 17 1018 88 10000 7.2 130 00:23 11.10.2021
5911 Rain 19 1018 74 10000 7.2 120 21:54 10.10.2021
5912 Rain 19 1018 74 10000 7.2 120 21:32 10.10.2021
5913 Clouds 19 1018 71 10000 6.69 120 20:43 10.10.2021
5914 Rain 20 1018 70 10000 6.69 120 20:21 10.10.2021
5915 Clouds 20 1018 70 10000 7.72 110 19:58 10.10.2021
5916 Clouds 20 1018 69 10000 7.72 110 19:35 10.10.2021
5917 Clouds 19 1019 73 10000 6.69 110 18:33 10.10.2021
5918 Clouds 19 1019 74 10000 4.63 100 16:45 10.10.2021
5919 Clouds 17 1020 80 10000 5.66 110 15:42 10.10.2021
5920 Clouds 15 1020 82 10000 6.17 90 13:43 10.10.2021
5921 Clouds 15 1020 91 10000 6.17 80 12:51 10.10.2021
5922 Clouds 15 1020 91 10000 6.17 80 12:33 10.10.2021
5923 Clouds 14 1019 89 10000 4.63 90 10:43 10.10.2021
5924 Clear 14 1019 87 10000 5.66 80 09:29 10.10.2021
5925 Clear 14 1019 85 10000 5.66 70 08:53 10.10.2021
5926 Clear 15 1020 82 10000 5.14 90 06:54 10.10.2021
5927 Clouds 15 1020 85 10000 7.2 120 02:29 10.10.2021
5928 Clear 16 1019 76 10000 8.75 120 00:55 10.10.2021
5929 Clear 16 1019 76 10000 8.75 120 00:55 10.10.2021
5930 Clear 17 1019 74 10000 7.72 120 23:52 09.10.2021
5931 Clear 19 1019 65 10000 7.2 110 22:45 09.10.2021
5932 Clear 19 1019 64 10000 6.17 120 21:31 09.10.2021
5933 Clear 20 1019 60 10000 6.69 110 20:59 09.10.2021
5934 Clear 19 1020 52 10000 5.83 96 19:43 09.10.2021
5935 Clear 19 1020 56 10000 5.94 92 18:57 09.10.2021
5936 Clouds 19 1020 65 10000 6.17 110 18:32 09.10.2021
5937 Clouds 18 1021 62 10000 5.66 100 16:28 09.10.2021
5938 Clear 16 1021 70 10000 4.12 90 14:57 09.10.2021
5939 Clear 15 1021 72 10000 3.6 90 13:41 09.10.2021
5940 Clear 13 1021 78 10000 3.6 90 12:37 09.10.2021
5941 Clear 11 1021 82 10000 2.57 130 11:33 09.10.2021
5942 Clear 11 1021 73 10000 3.09 130 10:38 09.10.2021
5943 Clear 12 1021 70 10000 2.57 140 09:30 09.10.2021
5944 Clear 12 1021 71 10000 4.12 120 08:28 09.10.2021
5945 Clear 12 1021 66 10000 4.63 100 06:54 09.10.2021
5946 Clear 13 1021 64 10000 6.17 100 05:27 09.10.2021
5947 Clear 13 1020 60 10000 7.72 110 02:49 09.10.2021
5948 Clear 14 1019 62 10000 8.23 100 00:45 09.10.2021
5949 Clear 15 1019 60 10000 7.72 100 23:35 08.10.2021
5950 Clear 15 1019 59 10000 8.75 110 22:49 08.10.2021
5951 Clear 16 1018 54 10000 7.72 110 21:47 08.10.2021
5952 Clouds 16 1018 64 10000 6.69 110 20:31 08.10.2021
5953 Clear 16 1020 66 10000 5.66 100 18:50 08.10.2021
5954 Clear 16 1020 67 10000 4.12 90 17:26 08.10.2021
5955 Clear 15 1021 68 10000 4.12 80 16:45 08.10.2021
5956 Clear 15 1021 66 10000 4.12 80 16:22 08.10.2021
5957 Clear 13 1021 72 10000 4.12 80 13:49 08.10.2021
5958 Clouds 11 1020 80 10000 4.12 90 11:57 08.10.2021
5959 Clouds 11 1020 77 10000 5.66 90 10:50 08.10.2021
5960 Clouds 11 1020 77 10000 5.66 90 10:25 08.10.2021
5961 Clear 12 1021 66 10000 5.66 90 06:49 08.10.2021
5962 Clear 15 1021 46 10000 3.6 80 23:28 07.10.2021
5963 Clear 15 1020 46 10000 4.12 70 22:55 07.10.2021
5964 Clouds 15 1021 48 10000 4.63 70 21:30 07.10.2021
5965 Clouds 16 1021 45 10000 3.09 50 20:42 07.10.2021
5966 Clouds 15 1022 47 10000 3.6 50 19:38 07.10.2021
5967 Clouds 15 1023 49 10000 3.6 50 18:54 07.10.2021
5968 Clouds 15 1024 44 10000 3.09 50 17:34 07.10.2021
5969 Clear 14 1024 38 10000 3.6 100 16:42 07.10.2021
5970 Clear 12 1024 45 10000 3.6 140 14:56 07.10.2021
5971 Clear 10 1024 50 10000 4.63 120 13:44 07.10.2021
5972 Clear 10 1024 52 10000 4.63 120 13:19 07.10.2021
5973 Clear 7 1024 67 10000 2.57 150 11:21 07.10.2021
5974 Clear 7 1023 69 10000 2.06 150 10:46 07.10.2021
5975 Clear 8 1023 67 10000 2.57 150 09:47 07.10.2021
5976 Clear 8 1024 64 10000 3.6 140 08:54 07.10.2021
5977 Clear 8 1024 63 10000 3.6 140 08:19 07.10.2021
5978 Clear 9 1024 63 10000 4.12 140 07:38 07.10.2021
5979 Clear 9 1024 57 10000 3.6 150 06:41 07.10.2021
5980 Clear 14 1023 43 10000 3.6 150 00:52 07.10.2021
5981 Clear 16 1022 38 10000 3.6 170 23:20 06.10.2021
5982 Clear 17 1022 36 10000 5.14 190 22:33 06.10.2021
5983 Clear 17 1021 37 10000 5.14 190 21:39 06.10.2021
5984 Clouds 17 1022 38 10000 4.63 170 20:29 06.10.2021
5985 Clear 17 1022 40 10000 5.66 170 19:21 06.10.2021
5986 Clear 16 1021 43 10000 6.17 180 17:27 06.10.2021
5987 Clear 14 1021 50 10000 5.14 180 15:43 06.10.2021
5988 Clouds 13 1020 54 10000 6.17 170 14:43 06.10.2021
5989 Clouds 12 1019 63 10000 6.69 170 13:24 06.10.2021
5990 Clouds 11 1019 81 10000 5.14 170 12:47 06.10.2021
5991 Clouds 11 1018 80 10000 5.14 170 12:25 06.10.2021
5992 Clear 12 1017 63 10000 5.66 178 11:23 06.10.2021
5993 Clear 13 1016 63 10000 5.33 204 09:40 06.10.2021
5994 Rain 13 1014 62 10000 3.69 326 08:58 06.10.2021
5995 Rain 14 1014 64 10000 2.57 320 08:30 06.10.2021
5996 Clear 16 1015 59 10000 3.6 350 05:56 06.10.2021
5997 Clear 19 1013 54 10000 2.57 360 01:56 06.10.2021
5998 Clear 20 1013 44 10000 3.09 360 00:22 06.10.2021
5999 Clear 20 1013 45 10000 3.09 20 23:51 05.10.2021
6000 Clear 21 1013 44 10000 3.09 20 23:29 05.10.2021
6001 Clear 22 1013 27 10000 5.55 18 22:30 05.10.2021
6002 Clear 22 1013 27 10000 5.54 18 21:56 05.10.2021
6003 Clear 22 1013 27 10000 5.54 18 21:56 05.10.2021
6004 Clear 23 1013 42 10000 4.63 20 21:19 05.10.2021
6005 Clear 23 1014 30 10000 5.39 22 20:26 05.10.2021
6006 Clear 22 1015 44 10000 4.63 20 19:50 05.10.2021
6007 Clear 22 1015 46 10000 4.63 20 19:22 05.10.2021
6008 Clear 21 1017 41 10000 5.14 340 17:40 05.10.2021
6009 Clear 18 1017 48 10000 5.14 330 15:27 05.10.2021
6010 Clear 15 1018 50 10000 5.14 320 13:49 05.10.2021
6011 Clear 14 1017 55 10000 5.14 320 13:18 05.10.2021
6012 Clear 13 1017 55 10000 5.14 330 12:33 05.10.2021
6013 Clear 12 1017 57 10000 5.14 320 11:22 05.10.2021
6014 Clear 12 1016 65 10000 4.12 320 10:21 05.10.2021
6015 Clear 14 1017 66 10000 3.09 320 05:56 05.10.2021
6016 Clear 18 1016 31 10000 1.54 280 00:37 05.10.2021
6017 Clear 21 1016 30 10000 2.57 320 22:49 04.10.2021
6018 Clouds 21 1017 29 10000 3.09 280 20:45 04.10.2021
6019 Clouds 20 1018 28 10000 4.12 290 18:47 04.10.2021
6020 Clear 18 1019 35 10000 3.09 290 16:44 04.10.2021
6021 Clear 17 1019 36 10000 2.57 290 15:32 04.10.2021
6022 Clear 15 1019 40 10000 2.57 290 14:43 04.10.2021
6023 Clear 13 1019 45 10000 1.03 0 13:58 04.10.2021
6024 Clear 12 1019 49 10000 1.03 0 13:30 04.10.2021
6025 Clear 10 1019 60 10000 1.03 0 12:30 04.10.2021
6026 Clear 8 1018 65 10000 1.03 240 11:31 04.10.2021
6027 Clear 8 1018 64 10000 1.03 240 10:34 04.10.2021
6028 Clear 9 1017 59 10000 1.03 0 08:45 04.10.2021
6029 Clear 9 1017 59 10000 1.03 0 07:43 04.10.2021
6030 Clear 11 1017 45 10000 1.03 0 03:34 04.10.2021
6031 Clouds 16 1015 33 10000 4.12 220 22:44 03.10.2021
6032 Clouds 16 1014 33 10000 3.6 220 21:42 03.10.2021
6033 Clouds 16 1014 34 10000 3.6 220 21:23 03.10.2021
6034 Clouds 16 1015 33 10000 3.6 240 20:21 03.10.2021
6035 Clouds 16 1015 32 10000 5.14 0 19:31 03.10.2021
6036 Clear 15 1016 34 10000 4.12 0 18:28 03.10.2021
6037 Clear 14 1016 34 10000 4.63 210 17:28 03.10.2021
6038 Clear 11 1016 45 10000 4.12 210 14:48 03.10.2021
6039 Clear 11 1016 49 10000 4.12 210 14:24 03.10.2021
6040 Clear 9 1016 60 10000 3.09 0 13:34 03.10.2021
6041 Clear 8 1016 76 10000 3.09 200 12:29 03.10.2021
6042 Clear 8 1015 81 10000 3.6 200 10:43 03.10.2021
6043 Clear 10 1014 73 10000 4.12 200 08:43 03.10.2021
6044 Rain 16 1011 73 10000 4.12 330 01:51 03.10.2021
6045 Clouds 18 1008 62 10000 3.6 80 22:40 02.10.2021
6046 Clouds 17 1010 63 8000 3.09 80 20:57 02.10.2021
6047 Rain 15 1011 67 10000 3.09 110 19:42 02.10.2021
6048 Rain 16 1013 63 5000 3.09 330 18:52 02.10.2021
6049 Rain 17 1012 50 10000 3.6 330 17:54 02.10.2021
6050 Rain 18 1012 48 10000 5.66 360 17:21 02.10.2021
6051 Clear 18 1011 50 10000 5.14 20 14:58 02.10.2021
6052 Thunderstorm 16 1010 85 10000 3.6 350 16:34 30.09.2021
6053 Rain 17 1011 82 10000 5.66 30 14:57 30.09.2021
6054 Clouds 16 1011 92 10000 5.66 30 12:56 30.09.2021
6055 Clouds 15 1011 93 10000 4.63 30 11:35 30.09.2021
6056 Clouds 15 1011 93 10000 5.14 30 10:41 30.09.2021
6057 Clouds 16 1011 90 10000 5.14 40 08:56 30.09.2021
6058 Clouds 16 1011 90 10000 5.14 40 08:27 30.09.2021
6059 Clear 17 1013 86 10000 6.17 60 06:41 30.09.2021
6060 Clouds 18 1015 84 10000 5.14 60 04:36 30.09.2021
6061 Clouds 17 1016 84 10000 6.69 110 00:40 30.09.2021
6062 Clouds 18 1016 81 10000 7.2 110 23:29 29.09.2021
6063 Clouds 20 1016 68 10000 7.2 100 21:55 29.09.2021
6064 Clear 20 1017 62 10000 6.1 100 20:57 29.09.2021
6065 Clear 20 1017 60 10000 5.78 97 20:22 29.09.2021
6066 Clear 20 1018 59 10000 5.75 93 19:28 29.09.2021
6067 Clouds 19 1019 77 10000 6.69 90 18:19 29.09.2021
6068 Clouds 17 1021 77 10000 5.66 70 16:56 29.09.2021
6069 Clouds 17 1021 77 10000 5.66 70 16:29 29.09.2021
6070 Clouds 17 1021 80 10000 4.63 80 15:43 29.09.2021
6071 Clouds 16 1022 82 10000 3.6 100 14:38 29.09.2021
6072 Clouds 15 1022 92 10000 4.12 80 13:34 29.09.2021
6073 Clouds 14 1022 93 10000 3.09 60 12:40 29.09.2021
6074 Clouds 14 1021 90 10000 4.12 70 11:23 29.09.2021
6075 Clouds 14 1020 90 10000 4.63 80 10:31 29.09.2021
6076 Clouds 14 1020 92 10000 6.69 70 09:42 29.09.2021
6077 Clouds 15 1020 89 10000 6.69 100 07:52 29.09.2021
6078 Clouds 15 1021 88 10000 5.66 100 06:49 29.09.2021
6079 Clouds 15 1020 82 10000 6.69 120 00:28 29.09.2021
6080 Clouds 16 1020 80 10000 7.2 120 22:45 28.09.2021
6081 Clouds 16 1020 81 10000 7.2 120 22:22 28.09.2021
6082 Clouds 17 1020 80 10000 7.2 120 21:21 28.09.2021
6083 Clouds 16 1021 84 10000 7.2 120 19:49 28.09.2021
6084 Clouds 16 1021 82 10000 7.2 120 19:29 28.09.2021
6085 Clouds 16 1022 87 10000 6.69 120 18:41 28.09.2021
6086 Drizzle 14 1022 96 8000 6.69 130 16:57 28.09.2021
6087 Drizzle 13 1022 96 8000 6.69 130 15:21 28.09.2021
6088 Drizzle 11 1022 93 8000 4.63 150 13:27 28.09.2021
6089 Clouds 11 1022 93 10000 4.12 150 12:25 28.09.2021
6090 Drizzle 10 1020 93 9000 4.12 160 11:48 28.09.2021
6091 Drizzle 10 1021 96 9000 4.12 160 11:27 28.09.2021
6092 Drizzle 10 1020 96 9000 4.12 160 10:27 28.09.2021
6093 Drizzle 11 1020 100 4000 4.12 170 09:29 28.09.2021
6094 Mist 11 1020 100 5000 3.6 150 08:43 28.09.2021
6095 Mist 11 1020 100 5000 3.6 150 08:18 28.09.2021
6096 Drizzle 12 1021 96 4500 3.09 170 06:46 28.09.2021
6097 Clouds 13 1019 91 8000 6.69 140 01:35 28.09.2021
6098 Clouds 13 1019 88 8000 6.17 140 00:30 28.09.2021
6099 Clouds 13 1019 90 8000 6.17 140 23:49 27.09.2021
6100 Clouds 13 1018 90 8000 6.17 140 23:24 27.09.2021
6101 Clouds 14 1018 86 10000 6.69 130 22:20 27.09.2021
6102 Clouds 14 1018 86 10000 4.12 150 20:54 27.09.2021
6103 Clouds 14 1019 86 10000 4.12 150 20:26 27.09.2021
6104 Rain 15 1019 87 10000 6.69 120 19:37 27.09.2021
6105 Rain 15 1020 86 10000 0.89 23 18:52 27.09.2021
6106 Clouds 15 1020 86 10000 0.89 225 18:52 27.09.2021
6107 Clouds 15 1019 88 9000 6.17 130 17:37 27.09.2021
6108 Clouds 14 1020 89 9000 5.14 140 16:56 27.09.2021
6109 Clouds 14 1020 89 9000 5.14 140 16:33 27.09.2021
6110 Clouds 14 1021 92 8000 5.66 140 15:36 27.09.2021
6111 Clouds 14 1020 90 10000 7.72 110 13:44 27.09.2021
6112 Clouds 15 1019 91 10000 6.69 120 12:22 27.09.2021
6113 Clouds 15 1018 90 10000 5.66 130 10:48 27.09.2021
6114 Clouds 14 1019 90 10000 5.14 140 09:38 27.09.2021
6115 Clouds 15 1019 91 7000 7.2 130 06:37 27.09.2021
6116 Clear 19 1017 77 10000 3.6 100 03:31 27.09.2021
6117 Clouds 21 1016 65 10000 2.57 80 23:41 26.09.2021
6118 Clouds 23 1015 73 10000 3.6 70 21:55 26.09.2021
6119 Clouds 24 1015 73 10000 3.6 70 21:26 26.09.2021
6120 Clear 25 1016 57 10000 2.67 65 20:24 26.09.2021
6121 Clear 25 1016 57 10000 2.67 65 19:53 26.09.2021
6122 Clear 25 1016 59 10000 2.12 57 18:52 26.09.2021
6123 Clear 24 1017 61 10000 1.85 37 17:59 26.09.2021
6124 Clear 23 1017 65 10000 1.82 37 17:36 26.09.2021
6125 Clear 23 1017 63 10000 2.01 19 17:18 26.09.2021
6126 Clear 22 1018 67 10000 2.63 1 16:22 26.09.2021
6127 Clear 20 1017 71 10000 2.96 349 15:22 26.09.2021
6128 Clear 17 1016 82 10000 3.09 350 13:59 26.09.2021
6129 Clear 17 1016 82 10000 3.09 350 13:31 26.09.2021
6130 Clear 13 1016 85 10000 3.68 354 12:26 26.09.2021
6131 Clear 14 1016 86 10000 2.06 330 11:52 26.09.2021
6132 Clear 14 1016 87 10000 2.06 300 10:38 26.09.2021
6133 Clear 14 1015 87 10000 3.09 330 09:21 26.09.2021
6134 Clear 14 1016 83 10000 3.95 13 07:57 26.09.2021
6135 Clouds 17 1016 90 10000 5.14 110 00:28 26.09.2021
6136 Clear 18 1016 81 10000 6.17 110 23:40 25.09.2021
6137 Clear 20 1016 70 10000 0.89 0 22:38 25.09.2021
6138 Clear 20 1016 74 10000 3.79 94 21:56 25.09.2021
6139 Clear 20 1016 72 10000 3.79 94 21:33 25.09.2021
6140 Clouds 19 1017 78 10000 5.66 100 20:51 25.09.2021
6141 Clouds 19 1018 78 10000 4.12 100 19:32 25.09.2021
6142 Clear 19 1019 73 10000 3.5 59 18:26 25.09.2021
6143 Clouds 17 1021 75 10000 3.6 50 16:51 25.09.2021
6144 Clouds 14 1022 83 10000 2.57 40 14:24 25.09.2021
6145 Clouds 14 1022 82 10000 2.57 50 13:46 25.09.2021
6146 Clouds 13 1022 85 10000 3.6 60 12:28 25.09.2021
6147 Clouds 13 1022 86 10000 5.14 70 10:36 25.09.2021
6148 Clouds 13 1022 84 10000 4.63 60 09:45 25.09.2021
6149 Clouds 13 1023 75 10000 4.63 70 08:38 25.09.2021
6150 Clouds 14 1023 77 10000 4.63 90 07:20 25.09.2021
6151 Clouds 15 1024 79 10000 7.2 100 00:49 25.09.2021
6152 Clouds 18 1023 63 10000 5.66 70 21:54 24.09.2021
6153 Clouds 19 1024 70 10000 4.12 70 20:49 24.09.2021
6154 Clouds 18 1024 70 10000 4.12 80 19:58 24.09.2021
6155 Clouds 19 1025 67 10000 4.63 90 18:35 24.09.2021
6156 Clear 19 1024 67 10000 4.12 85 17:55 24.09.2021
6157 Clear 19 1024 67 10000 4.15 85 17:37 24.09.2021
6158 Clear 18 1024 67 10000 4.04 90 17:18 24.09.2021
6159 Clouds 16 1025 82 10000 4.12 110 14:31 24.09.2021
6160 Clouds 13 1025 88 10000 3.09 130 13:18 24.09.2021
6161 Clouds 12 1025 96 10000 2.57 130 12:40 24.09.2021
6162 Clouds 11 1025 94 10000 2.57 130 12:22 24.09.2021
6163 Clouds 12 1023 96 10000 1.54 150 10:27 24.09.2021
6164 Clouds 12 1023 93 10000 2.57 130 08:55 24.09.2021
6165 Clouds 13 1023 93 10000 2.06 150 07:35 24.09.2021
6166 Clouds 13 1023 89 10000 2.57 140 06:46 24.09.2021
6167 Clear 14 1023 80 10000 5.66 110 04:55 24.09.2021
6168 Clear 16 1022 80 10000 5.14 110 00:26 24.09.2021
6169 Clouds 18 1021 72 10000 3.03 101 22:30 23.09.2021
6170 Clouds 18 1021 70 10000 2.7 101 21:56 23.09.2021
6171 Clouds 17 1021 77 10000 5.66 100 20:34 23.09.2021
6172 Clouds 18 1022 77 10000 5.14 100 19:46 23.09.2021
6173 Clouds 17 1023 77 10000 6.69 100 17:47 23.09.2021
6174 Clouds 15 1023 82 10000 6.17 100 15:32 23.09.2021
6175 Clouds 15 1023 82 10000 5.66 110 14:59 23.09.2021
6176 Clouds 14 1022 82 10000 6.17 100 13:45 23.09.2021
6177 Clouds 14 1022 82 10000 6.17 100 13:20 23.09.2021
6178 Clear 14 1022 86 10000 7.2 100 12:52 23.09.2021
6179 Clear 13 1022 87 10000 7.2 100 12:22 23.09.2021
6180 Clear 13 1022 87 10000 5.14 100 11:32 23.09.2021
6181 Clouds 13 1022 84 10000 2.57 90 10:25 23.09.2021
6182 Clear 14 1023 84 10000 3.09 90 09:51 23.09.2021
6183 Clouds 14 1023 82 10000 3.6 90 07:54 23.09.2021
6184 Clouds 14 1022 88 10000 10.8 100 03:31 23.09.2021
6185 Rain 13 1023 88 10000 1.03 0 22:58 22.09.2021
6186 Rain 14 1023 87 10000 1.03 0 22:28 22.09.2021
6187 Rain 14 1024 85 8000 4.12 120 21:53 22.09.2021
6188 Drizzle 14 1024 83 8000 4.12 120 21:33 22.09.2021
6189 Rain 14 1024 79 10000 3.09 90 20:39 22.09.2021
6190 Clouds 14 1024 77 10000 2.57 90 19:29 22.09.2021
6191 Rain 14 1026 76 10000 2.06 30 18:37 22.09.2021
6192 Rain 14 1026 74 10000 1.19 40 17:43 22.09.2021
6193 Clouds 14 1027 76 10000 0.89 0 16:37 22.09.2021
6194 Clouds 13 1026 74 10000 7.72 70 14:55 22.09.2021
6195 Clear 13 1026 75 10000 7.72 70 13:25 22.09.2021
6196 Clear 13 1026 75 10000 7.72 70 13:25 22.09.2021
6197 Clear 10 1026 84 10000 6.69 70 11:41 22.09.2021
6198 Clouds 11 1026 84 10000 7.72 70 10:37 22.09.2021
6199 Clouds 11 1026 83 10000 6.69 70 08:57 22.09.2021
6200 Clouds 11 1027 77 10000 6.69 90 07:50 22.09.2021
6201 Clouds 12 1027 74 10000 5.66 80 06:57 22.09.2021
6202 Clouds 12 1028 70 10000 5.66 90 05:51 22.09.2021
6203 Clouds 12 1028 69 10000 5.66 90 05:23 22.09.2021
6204 Clouds 12 1028 62 10000 6.69 100 03:34 22.09.2021
6205 Clear 13 1028 61 10000 7.72 100 00:20 22.09.2021
6206 Clear 15 1028 59 10000 6.69 100 22:43 21.09.2021
6207 Clouds 16 1028 59 10000 7.2 110 21:31 21.09.2021
6208 Clear 16 1028 60 10000 5.72 88 19:39 21.09.2021
6209 Clear 16 1030 57 10000 0.89 0 19:20 21.09.2021
6210 Clear 14 1029 58 10000 3.09 150 16:59 21.09.2021
6211 Clear 13 1029 59 10000 3.09 150 16:27 21.09.2021
6212 Clear 11 1029 69 10000 3.6 150 15:25 21.09.2021
6213 Clear 10 1029 74 10000 3.6 160 14:49 21.09.2021
6214 Clear 8 1028 82 10000 5.14 170 13:40 21.09.2021
6215 Clear 7 1028 85 10000 2.57 180 12:58 21.09.2021
6216 Clear 8 1027 80 10000 6 170 11:19 21.09.2021
6217 Clear 9 1026 71 10000 4.12 190 09:54 21.09.2021
6218 Clear 11 1026 66 10000 4.12 170 07:47 21.09.2021
6219 Clear 11 1026 66 10000 4.63 170 06:18 21.09.2021
6220 Clouds 17 1020 68 10000 5.14 190 23:58 20.09.2021
6221 Clouds 19 1018 63 10000 4.63 160 21:58 20.09.2021
6222 Clouds 19 1018 63 10000 4.63 160 21:32 20.09.2021
6223 Clouds 19 1017 63 10000 5.66 150 20:27 20.09.2021
6224 Clouds 19 1018 71 10000 5.66 170 19:24 20.09.2021
6225 Clouds 17 1017 75 10000 5.14 160 17:39 20.09.2021
6226 Clouds 16 1016 79 10000 5.14 180 16:26 20.09.2021
6227 Clouds 16 1016 83 10000 4.12 0 15:47 20.09.2021
6228 Drizzle 16 1016 90 9000 5.14 190 15:18 20.09.2021
6229 Clouds 15 1014 92 10000 4.12 190 13:42 20.09.2021
6230 Drizzle 14 1012 94 8000 4.12 190 12:34 20.09.2021
6231 Mist 15 1012 96 5000 3.6 190 11:18 20.09.2021
6232 Clouds 15 1012 95 10000 4.12 190 09:53 20.09.2021
6233 Clouds 15 1012 96 10000 4.12 190 09:34 20.09.2021
6234 Clear 15 1011 93 10000 2.57 180 08:56 20.09.2021
6235 Clouds 17 1012 89 10000 2.06 150 06:36 20.09.2021
6236 Clouds 18 1011 82 10000 5.14 120 23:44 19.09.2021
6237 Clouds 18 1011 83 10000 5.14 120 21:56 19.09.2021
6238 Clouds 18 1011 82 10000 5.14 120 21:33 19.09.2021
6239 Clouds 18 1012 88 10000 5.14 110 20:32 19.09.2021
6240 Clouds 17 1014 87 10000 4.63 110 18:57 19.09.2021
6241 Clouds 17 1014 85 10000 4.63 110 18:21 19.09.2021
6242 Clouds 17 1015 83 10000 4.12 60 17:21 19.09.2021
6243 Clouds 17 1015 76 10000 6.17 80 15:44 19.09.2021
6244 Clouds 16 1015 79 10000 7.72 90 14:49 19.09.2021
6245 Clouds 16 1015 80 10000 7.72 90 14:24 19.09.2021
6246 Clouds 15 1015 92 10000 4.63 80 12:56 19.09.2021
6247 Clouds 15 1015 94 10000 4.63 80 12:35 19.09.2021
6248 Clouds 14 1014 98 8000 5.14 70 11:25 19.09.2021
6249 Clear 15 1014 91 10000 4.63 60 09:58 19.09.2021
6250 Clear 15 1014 92 10000 4.63 60 09:26 19.09.2021
6251 Mist 15 1015 97 2500 6.17 100 06:49 19.09.2021
6252 Mist 17 1015 94 1500 7.2 110 01:39 19.09.2021
6253 Clouds 20 1014 73 10000 4.63 120 23:25 18.09.2021
6254 Clear 21 1014 77 10000 5.14 100 21:58 18.09.2021
6255 Clear 21 1014 75 10000 4.63 100 20:48 18.09.2021
6256 Clear 21 1014 76 10000 4.63 100 20:26 18.09.2021
6257 Clear 22 1015 76 10000 4.12 100 19:37 18.09.2021
6258 Clear 21 1015 77 10000 4.12 100 19:19 18.09.2021
6259 Clear 21 1016 77 10000 3.6 70 18:31 18.09.2021
6260 Clear 20 1016 76 10000 3.09 70 17:22 18.09.2021
6261 Clear 19 1016 77 10000 1.54 60 15:45 18.09.2021
6262 Clear 16 1016 80 10000 2.06 360 13:46 18.09.2021
6263 Clear 15 1016 82 10000 2.06 360 13:24 18.09.2021
6264 Clear 12 1016 88 10000 1.95 21 12:23 18.09.2021
6265 -273 0 0 0 0 0 11:31 18.09.2021
6266 Clear 13 1016 85 10000 2.57 330 11:30 18.09.2021
6267 Clear 13 1015 84 10000 3.09 340 10:30 18.09.2021
6268 Clear 14 1015 83 10000 2.57 360 09:24 18.09.2021
6269 Clear 14 1016 80 10000 3.09 360 08:25 18.09.2021
6270 Clear 17 1017 72 10000 3.95 36 00:53 18.09.2021
6271 Clear 18 1017 63 10000 3.69 39 23:56 17.09.2021
6272 Clear 20 1017 61 10000 3.15 51 22:48 17.09.2021
6273 Clear 21 1017 59 10000 3.24 52 22:23 17.09.2021
6274 Clear 22 1017 54 10000 3.24 52 21:32 17.09.2021
6275 Clear 22 1017 54 10000 3.24 52 21:32 17.09.2021
6276 Clear 23 1018 55 10000 2.94 50 19:34 17.09.2021
6277 Clear 22 1019 57 10000 2.94 38 18:40 17.09.2021
6278 Clear 20 1021 48 10000 3.02 35 16:35 17.09.2021
6279 Clear 17 1021 67 10000 3.09 20 14:48 17.09.2021
6280 Clear 13 1021 66 10000 6.17 360 11:48 17.09.2021
6281 Clear 14 1021 70 10000 4.12 350 09:57 17.09.2021
6282 Clear 14 1022 68 10000 4.12 350 07:42 17.09.2021
6283 Clear 16 1023 68 10000 5.14 360 05:27 17.09.2021
6284 Clear 19 1022 55 10000 4.12 350 00:29 17.09.2021
6285 Clear 21 1022 56 10000 2.57 40 22:41 16.09.2021
6286 Clear 23 1023 53 10000 3.37 37 22:23 16.09.2021
6287 Clear 24 1023 49 10000 3.25 33 21:27 16.09.2021
6288 Clear 24 1023 49 10000 3.25 33 21:27 16.09.2021
6289 Clear 24 1024 47 10000 3.02 23 20:28 16.09.2021
6290 Clear 22 1025 54 10000 1.91 2 18:28 16.09.2021
6291 Clear 22 1025 46 10000 1.91 2 17:58 16.09.2021
6292 Clear 17 1027 59 10000 2.57 350 15:24 16.09.2021
6293 Clear 15 1027 48 10000 2.06 330 14:33 16.09.2021
6294 Clear 11 1026 58 10000 3.09 330 12:53 16.09.2021
6295 Clear 10 1026 58 10000 3.09 330 12:33 16.09.2021
6296 Clear 10 1025 58 10000 3.09 310 11:44 16.09.2021
6297 Clear 10 1025 58 10000 3.09 310 11:43 16.09.2021
6298 Clear 10 1025 71 10000 3.67 310 10:34 16.09.2021
6299 Clear 12 1024 55 10000 3.6 310 09:59 16.09.2021
6300 Clear 12 1024 54 10000 4.12 310 08:43 16.09.2021
6301 Clear 13 1024 58 10000 4.12 320 07:43 16.09.2021
6302 Clear 13 1024 58 10000 4.12 320 06:54 16.09.2021
6303 Clear 13 1023 62 10000 5.14 320 05:57 16.09.2021
6304 Clear 16 1022 50 10000 2.06 310 01:56 16.09.2021
6305 Clear 17 1021 47 10000 3.09 310 00:37 16.09.2021
6306 Clear 20 1020 26 10000 2.57 290 22:47 15.09.2021
6307 Clear 20 1020 28 10000 3.6 290 21:48 15.09.2021
6308 Clear 20 1020 28 10000 3.6 290 21:29 15.09.2021
6309 Clear 20 1021 30 10000 3.6 270 20:22 15.09.2021
6310 Clear 19 1021 26 10000 3.6 250 19:27 15.09.2021
6311 Clear 18 1022 34 10000 5.66 320 18:23 15.09.2021
6312 Clear 17 1023 39 10000 4.12 300 17:23 15.09.2021
6313 Clear 15 1023 53 10000 4.63 300 15:59 15.09.2021
6314 Clear 13 1023 52 10000 3.6 320 14:45 15.09.2021
6315 Clear 11 1022 57 10000 2.57 320 13:55 15.09.2021
6316 Clear 10 1022 58 10000 2.57 320 13:37 15.09.2021
6317 Clear 9 1022 59 10000 2.57 320 13:18 15.09.2021
6318 Clear 7 1021 65 10000 1.03 0 11:52 15.09.2021
6319 Clear 7 1021 66 10000 1.03 0 11:32 15.09.2021
6320 Clear 7 1020 70 10000 1.54 280 10:55 15.09.2021
6321 Clear 8 1020 70 10000 1.03 0 09:30 15.09.2021
6322 Clear 8 1020 67 10000 1.03 0 08:20 15.09.2021
6323 Clear 10 1020 61 10000 1.03 0 04:55 15.09.2021
6324 Clouds 15 1015 41 10000 3.6 250 23:45 14.09.2021
6325 Clouds 18 1015 22 10000 4.12 260 21:41 14.09.2021
6326 Clouds 18 1015 22 10000 3.6 260 20:39 14.09.2021
6327 Clouds 18 1016 29 10000 3.6 240 19:42 14.09.2021
6328 Clear 16 1017 46 10000 3.6 0 17:40 14.09.2021
6329 Clear 15 1017 51 10000 4.12 210 16:58 14.09.2021
6330 Clear 14 1017 50 10000 4.63 220 15:33 14.09.2021
6331 Clear 13 1017 57 10000 3.6 200 14:31 14.09.2021
6332 Clear 11 1015 67 10000 4.63 210 12:39 14.09.2021
6333 Clouds 11 1017 73 10000 0.89 225 10:54 14.09.2021
6334 Clouds 11 1017 72 10000 2.24 225 09:50 14.09.2021
6335 Clear 12 1016 58 10000 3.6 210 08:39 14.09.2021
6336 Clear 13 1012 58 10000 6.17 170 06:24 14.09.2021
6337 Clouds 17 1010 77 10000 5.66 150 23:57 13.09.2021
6338 Clouds 17 1009 81 10000 5.14 150 22:46 13.09.2021
6339 Clouds 17 1009 81 10000 5.14 150 22:23 13.09.2021
6340 Clouds 17 1009 81 10000 5.14 150 22:23 13.09.2021
6341 Clouds 18 1008 78 10000 5.14 150 21:45 13.09.2021
6342 Clouds 17 1008 80 10000 5.66 140 20:50 13.09.2021
6343 Clouds 17 1009 81 10000 4.12 160 18:46 13.09.2021
6344 Clouds 16 1010 84 10000 4.12 150 17:42 13.09.2021
6345 Clouds 15 1010 90 10000 6.69 120 16:50 13.09.2021
6346 Clouds 16 1010 91 10000 6.69 120 16:50 13.09.2021
6347 Clouds 15 1008 88 10000 5.66 130 14:57 13.09.2021
6348 Clouds 14 1008 96 10000 6.17 130 11:55 13.09.2021
6349 Clear 14 1009 93 10000 5.14 130 10:58 13.09.2021
6350 Clear 15 1009 93 10000 6.17 130 09:31 13.09.2021
6351 Clouds 20 1010 68 10000 4.12 170 01:24 13.09.2021
6352 Clouds 24 1005 64 10000 1.54 60 22:55 12.09.2021
6353 Clouds 24 1005 64 10000 1.54 60 22:24 12.09.2021
6354 Clear 24 1005 64 10000 1.03 0 21:34 12.09.2021
6355 Clouds 26 1006 67 10000 2.38 337 20:21 12.09.2021
6356 Clouds 24 1006 70 10000 2.67 2 19:49 12.09.2021
6357 Clouds 24 1007 71 10000 3.57 10 19:18 12.09.2021
6358 Clouds 23 1008 74 10000 3.54 9 18:18 12.09.2021
6359 Clear 18 1009 79 10000 4.63 30 15:59 12.09.2021
6360 Clear 16 1009 88 10000 4.12 30 14:48 12.09.2021
6361 Clear 14 1009 90 10000 4.12 40 12:45 12.09.2021
6362 Clouds 14 1009 90 10000 4.63 20 10:33 12.09.2021
6363 Clouds 14 1010 90 10000 5.14 20 08:39 12.09.2021
6364 Clouds 14 1011 90 10000 5.14 20 07:33 12.09.2021
6365 Clear 17 1013 82 10000 4.12 30 00:47 12.09.2021
6366 Clouds 18 1013 80 10000 5.14 60 22:59 11.09.2021
6367 Clouds 18 1014 77 10000 4.63 70 21:39 11.09.2021
6368 Clouds 17 1016 72 10000 4.12 60 19:41 11.09.2021
6369 Clouds 17 1017 70 10000 4.63 50 18:28 11.09.2021
6370 Clouds 16 1018 71 10000 4.12 30 17:29 11.09.2021
6371 Clouds 15 1019 72 10000 3.6 20 15:37 11.09.2021
6372 Clouds 14 1019 77 10000 1.54 320 13:25 11.09.2021
6373 Clouds 12 1019 93 10000 2.34 67 11:44 11.09.2021
6374 Clouds 13 1018 90 10000 1.54 40 10:35 11.09.2021
6375 Clouds 13 1019 90 10000 2.57 110 08:51 11.09.2021
6376 Clouds 13 1019 82 10000 2.57 110 07:43 11.09.2021
6377 Clouds 13 1019 90 10000 0.51 0 04:23 11.09.2021
6378 Clouds 15 1018 85 10000 2.06 180 22:37 10.09.2021
6379 Clouds 15 1018 83 10000 2.06 190 21:57 10.09.2021
6380 Clouds 15 1018 83 10000 2.06 190 21:36 10.09.2021
6381 Clouds 15 1018 83 10000 2.57 190 19:31 10.09.2021
6382 Clouds 14 1019 89 10000 2.57 200 17:56 10.09.2021
6383 Clouds 13 1019 88 10000 2.57 210 16:27 10.09.2021
6384 Clouds 11 1018 93 10000 2.57 0 13:26 10.09.2021
6385 Clouds 11 1016 99 10000 1.34 180 10:32 10.09.2021
6386 Drizzle 12 1014 93 8000 3.6 210 07:52 10.09.2021
6387 Drizzle 12 1014 90 5000 3.6 220 06:37 10.09.2021
6388 Clouds 14 1009 93 10000 3.6 210 23:59 09.09.2021
6389 Drizzle 14 1008 93 3500 4.12 240 21:48 09.09.2021
6390 Drizzle 14 1007 93 3000 3.6 0 20:47 09.09.2021
6391 Drizzle 14 1007 93 3000 3.6 0 20:26 09.09.2021
6392 Drizzle 14 1007 93 3000 3.6 240 18:41 09.09.2021
6393 Drizzle 13 1006 88 6000 3.6 230 17:41 09.09.2021
6394 Drizzle 13 1006 90 8000 3.6 230 16:27 09.09.2021
6395 Rain 13 1004 93 8000 2.57 210 13:38 09.09.2021
6396 Drizzle 13 1001 96 8000 2.06 220 11:57 09.09.2021
6397 Drizzle 13 1001 100 8000 1.54 230 10:54 09.09.2021
6398 Drizzle 13 999 96 9000 1.54 290 09:34 09.09.2021
6399 Drizzle 13 1000 96 3000 2.06 280 07:34 09.09.2021
6400 Rain 14 1000 94 4000 5.14 320 04:47 09.09.2021
6401 Rain 15 1003 96 4500 4.63 290 22:58 08.09.2021
6402 Drizzle 15 1003 94 2500 2.57 20 21:47 08.09.2021
6403 Rain 15 1004 100 7000 3.09 80 20:21 08.09.2021
6404 Clouds 15 1005 96 8000 3.09 120 19:37 08.09.2021
6405 Drizzle 15 1006 100 6000 3.6 120 18:34 08.09.2021
6406 Drizzle 15 1007 100 4000 4.63 100 17:58 08.09.2021
6407 Drizzle 15 1007 100 4000 4.63 100 17:39 08.09.2021
6408 Rain 15 1009 100 6000 5.14 100 14:50 08.09.2021
6409 Rain 15 1009 100 5000 6.17 100 13:21 08.09.2021
6410 Rain 15 1008 100 6000 5.66 110 12:41 08.09.2021
6411 Rain 15 1008 100 6000 5.66 110 12:41 08.09.2021
6412 Rain 15 1008 100 6000 5.66 110 12:19 08.09.2021
6413 Rain 15 1008 96 2500 3.09 90 10:59 08.09.2021
6414 Rain 15 1008 96 5000 3.6 90 10:27 08.09.2021
6415 Rain 15 1008 100 5000 2.06 80 09:25 08.09.2021
6416 Rain 15 1009 96 10000 3.6 100 07:41 08.09.2021
6417 Rain 15 1010 100 4400 10.8 100 05:44 08.09.2021
6418 Rain 15 1011 96 3000 9.26 120 22:51 07.09.2021
6419 Rain 15 1011 96 3000 9.26 120 22:18 07.09.2021
6420 Clouds 15 1011 92 7000 8.23 120 20:27 07.09.2021
6421 Clouds 15 1013 92 9000 9.26 110 18:46 07.09.2021
6422 Clouds 15 1013 88 9000 9.26 110 18:21 07.09.2021
6423 Rain 15 1014 88 10000 9.26 100 16:48 07.09.2021
6424 Clouds 15 1015 94 8000 9.77 100 15:40 07.09.2021
6425 Rain 14 1015 93 8000 10.29 100 14:44 07.09.2021
6426 Rain 14 1015 93 6000 10.8 100 12:44 07.09.2021
6427 Rain 14 1015 93 6000 9.26 100 11:51 07.09.2021
6428 Rain 15 1014 94 6000 9.77 110 10:43 07.09.2021
6429 Rain 15 1015 88 10000 8.23 100 08:39 07.09.2021
6430 Rain 15 1017 84 10000 6.69 90 07:44 07.09.2021
6431 Clear 15 1017 87 10000 6.69 90 05:41 07.09.2021
6432 Clouds 15 1017 92 10000 7.2 120 02:38 07.09.2021
6433 Clouds 15 1016 88 10000 11.32 110 00:52 07.09.2021
6434 Clouds 15 1016 87 10000 10.29 110 23:35 06.09.2021
6435 Clouds 15 1016 85 10000 11.32 110 22:54 06.09.2021
6436 Clouds 15 1016 85 10000 11.32 110 22:35 06.09.2021
6437 Clouds 16 1017 83 10000 9.26 110 21:25 06.09.2021
6438 Clouds 16 1018 80 10000 7.2 120 19:31 06.09.2021
6439 Clouds 16 1019 82 10000 5.66 100 18:50 06.09.2021
6440 Clouds 16 1019 82 10000 5.66 100 18:23 06.09.2021
6441 Clouds 16 1020 82 10000 3.09 90 17:36 06.09.2021
6442 Clouds 15 1020 90 10000 4.63 60 15:52 06.09.2021
6443 Clouds 14 1019 86 10000 6.17 70 13:48 06.09.2021
6444 Clouds 13 1019 92 10000 5.14 60 12:47 06.09.2021
6445 Clouds 13 1019 90 10000 5.66 70 10:48 06.09.2021
6446 Clouds 13 1020 86 10000 6.69 70 08:35 06.09.2021
6447 Clouds 12 1020 84 10000 8.23 110 04:48 06.09.2021
6448 Clouds 14 1018 77 10000 6.69 100 23:35 05.09.2021
6449 Clouds 15 1018 76 10000 6.69 110 22:48 05.09.2021
6450 Clouds 16 1017 75 10000 6.17 100 21:58 05.09.2021
6451 Clouds 16 1017 75 10000 6.17 100 21:30 05.09.2021
6452 Clouds 16 1018 80 10000 5.14 100 20:33 05.09.2021
6453 Clouds 15 1019 78 10000 5.66 100 18:46 05.09.2021
6454 Clouds 15 1019 79 10000 6.17 100 17:31 05.09.2021
6455 Clouds 14 1020 78 10000 4.63 130 15:28 05.09.2021
6456 Clouds 13 1020 85 10000 4.12 140 14:19 05.09.2021
6457 Clouds 12 1018 91 10000 4.12 140 12:29 05.09.2021
6458 Clouds 11 1018 92 10000 4.12 140 10:48 05.09.2021
6459 Clouds 11 1017 92 10000 4.12 140 10:23 05.09.2021
6460 Drizzle 11 1017 94 3000 3.09 150 09:21 05.09.2021
6461 Drizzle 12 1017 93 5000 3.09 160 07:48 05.09.2021
6462 Rain 13 1014 94 10000 7.2 110 00:51 05.09.2021
6463 Rain 13 1014 94 3500 6.69 120 00:27 05.09.2021
6464 Rain 14 1016 93 2000 3.09 150 23:35 04.09.2021
6465 Clouds 14 1014 89 10000 5.14 120 22:35 04.09.2021
6466 Clouds 15 1014 89 10000 6.17 110 21:55 04.09.2021
6467 Clouds 15 1015 84 10000 4.63 70 19:41 04.09.2021
6468 Clouds 15 1015 87 10000 5.66 100 18:43 04.09.2021
6469 Rain 15 1017 82 10000 4.63 110 16:22 04.09.2021
6470 Clouds 13 1017 90 10000 4.12 90 13:18 04.09.2021
6471 Clouds 12 1017 91 10000 4.63 90 11:19 04.09.2021
6472 Clouds 12 1018 90 10000 4.63 90 08:58 04.09.2021
6473 Clouds 12 1019 90 10000 7.72 100 04:50 04.09.2021
6474 Clouds 14 1019 82 10000 7.2 110 00:24 04.09.2021
6475 Clear 15 1018 74 10000 8.23 110 23:31 03.09.2021
6476 Clouds 16 1019 72 10000 6.69 100 21:53 03.09.2021
6477 Clouds 16 1019 72 10000 6.69 100 21:33 03.09.2021
6478 Clouds 16 1019 74 10000 7.2 110 20:41 03.09.2021
6479 Clouds 16 1020 76 10000 7.2 100 19:49 03.09.2021
6480 Clouds 16 1020 79 10000 7.72 100 18:55 03.09.2021
6481 Clouds 16 1021 77 10000 7.72 110 17:42 03.09.2021
6482 Clouds 15 1021 84 9000 7.2 110 16:25 03.09.2021
6483 Clouds 14 1020 86 6000 6.17 130 14:47 03.09.2021
6484 Drizzle 14 1020 94 7000 6.17 130 11:57 03.09.2021
6485 Drizzle 13 1020 95 5000 5.14 130 10:26 03.09.2021
6486 Drizzle 13 1019 94 8000 7.72 120 08:39 03.09.2021
6487 Mist 13 1020 94 5000 5.66 130 07:37 03.09.2021
6488 Clouds 14 1019 95 7000 4.12 150 00:44 03.09.2021
6489 Clouds 15 1018 92 9000 3.09 140 22:54 02.09.2021
6490 Clouds 15 1018 91 9000 3.09 160 21:19 02.09.2021
6491 Rain 15 1018 91 6000 4.63 150 19:27 02.09.2021
6492 Rain 15 1020 95 10000 0.89 90 17:30 02.09.2021
6493 Rain 15 1020 95 10000 0.89 90 17:30 02.09.2021
6494 Mist 14 1018 94 4500 6.69 130 15:48 02.09.2021
6495 Mist 13 1019 96 4500 4.12 140 13:51 02.09.2021
6496 Mist 13 1018 100 4500 5.14 140 12:36 02.09.2021
6497 Mist 13 1018 96 4500 4.12 150 11:33 02.09.2021
6498 Rain 14 1017 96 10000 6.17 130 09:38 02.09.2021
6499 Drizzle 14 1017 96 7000 4.12 140 07:45 02.09.2021
6500 Rain 14 1018 96 9000 5.14 150 06:57 02.09.2021
6501 Rain 15 1017 96 5000 9.26 100 02:44 02.09.2021
6502 Rain 15 1017 95 10000 11.83 110 01:53 02.09.2021
6503 Clouds 15 1016 97 7000 12.35 110 01:18 02.09.2021
6504 Rain 16 1015 94 5000 9.26 130 23:34 01.09.2021
6505 Rain 16 1016 93 8000 3.6 160 22:34 01.09.2021
6506 Rain 17 1016 90 6000 5.14 110 21:33 01.09.2021
6507 Rain 18 1014 86 8000 8.23 130 19:55 01.09.2021
6508 Clouds 18 1016 82 10000 9.26 130 17:58 01.09.2021
6509 Rain 18 1016 83 10000 9.26 130 17:18 01.09.2021
6510 Rain 18 1016 78 10000 6.17 140 16:46 01.09.2021
6511 Clear 18 1017 80 10000 7.72 140 15:23 01.09.2021
6512 Clear 19 1015 77 10000 7.72 120 11:48 01.09.2021
6513 Rain 19 1014 75 10000 9.26 120 10:42 01.09.2021
6514 Rain 19 1012 81 10000 2.06 340 08:46 01.09.2021
6515 Clear 19 1013 83 10000 1.03 80 07:50 01.09.2021
6516 Clear 23 1013 73 10000 4.12 90 23:41 31.08.2021
6517 Clouds 28 1013 61 10000 3.72 33 22:24 31.08.2021
6518 Clouds 28 1014 59 10000 3.84 27 20:34 31.08.2021
6519 Clouds 27 1014 57 10000 4.02 37 19:43 31.08.2021
6520 Clouds 26 1016 63 10000 3.28 18 17:53 31.08.2021
6521 Clouds 25 1016 61 10000 3.04 18 17:27 31.08.2021
6522 Clouds 24 1018 63 10000 1.34 23 16:41 31.08.2021
6523 Clear 22 1018 71 10000 0.89 0 15:39 31.08.2021
6524 Clear 18 1016 91 10000 0.51 0 12:43 31.08.2021
6525 Clear 18 1016 87 10000 0.51 0 11:20 31.08.2021
6526 Clear 18 1016 87 10000 1.54 90 10:43 31.08.2021
6527 Clear 17 1015 90 10000 1.03 0 09:41 31.08.2021
6528 Clear 18 1016 88 10000 3.6 110 07:52 31.08.2021
6529 Clear 18 1016 83 10000 2.57 100 05:57 31.08.2021
6530 Clear 20 1016 76 10000 4.12 110 23:36 30.08.2021
6531 Clear 22 1015 69 10000 2.65 76 22:52 30.08.2021
6532 Clear 24 1015 65 10000 3.57 79 21:38 30.08.2021
6533 Clear 24 1015 61 10000 3.84 78 20:41 30.08.2021
6534 Clear 24 1016 64 10000 3.2 86 19:53 30.08.2021
6535 Clear 23 1017 65 10000 3.21 74 19:19 30.08.2021
6536 Clear 22 1019 71 10000 2.91 60 17:50 30.08.2021
6537 Clear 19 1020 76 10000 3.65 54 16:28 30.08.2021
6538 Clear 18 1020 79 10000 3.65 54 15:45 30.08.2021
6539 Clear 15 1021 93 10000 3.09 90 13:59 30.08.2021
6540 Clear 14 1021 94 10000 3.09 90 13:19 30.08.2021
6541 Clear 13 1020 93 10000 0.51 0 10:59 30.08.2021
6542 Clear 15 1023 80 10000 4.63 110 03:31 30.08.2021
6543 Clear 20 1023 52 10000 4.12 110 21:36 29.08.2021
6544 Clear 21 1022 46 10000 3.47 90 20:48 29.08.2021
6545 Clear 21 1024 49 10000 3.13 84 19:28 29.08.2021
6546 Clear 21 1025 54 10000 2.73 80 18:24 29.08.2021
6547 Clear 16 1025 69 10000 2.06 350 15:58 29.08.2021
6548 Clear 13 1025 82 10000 1.03 0 14:28 29.08.2021
6549 Fog 12 1025 85 10000 0 0 13:55 29.08.2021
6550 Fog 10 1025 100 10000 0 0 12:43 29.08.2021
6551 Fog 10 1024 93 10000 1.03 360 11:54 29.08.2021
6552 Fog 10 1024 93 10000 1.03 360 11:32 29.08.2021
6553 Clear 10 1024 91 10000 0 0 10:46 29.08.2021
6554 Clear 10 1024 90 10000 0 0 10:27 29.08.2021
6555 Clear 10 1024 90 10000 0 0 10:27 29.08.2021
6556 Fog 10 1023 89 10000 0 0 09:21 29.08.2021
6557 Clear 13 1024 79 10000 2.57 100 03:26 29.08.2021
6558 Clouds 20 1023 49 10000 0.45 135 22:29 28.08.2021
6559 Clouds 20 1022 55 10000 3.67 27 20:30 28.08.2021
6560 Clouds 20 1023 55 10000 3.81 19 18:53 28.08.2021
6561 Clouds 20 1024 57 10000 4.11 18 18:21 28.08.2021
6562 Clouds 19 1024 57 10000 4.1 18 17:45 28.08.2021
6563 Clear 16 1024 67 10000 3.09 20 16:21 28.08.2021
6564 Clear 13 1023 67 10000 3.6 10 14:42 28.08.2021
6565 Clear 12 1023 72 10000 2.57 360 13:46 28.08.2021
6566 Clear 11 1022 79 10000 4.12 360 12:45 28.08.2021
6567 Clear 10 1022 78 10000 2.06 340 11:57 28.08.2021
6568 Clear 11 1021 77 10000 2.06 360 10:43 28.08.2021
6569 Clear 11 1020 77 10000 2.06 30 09:24 28.08.2021
6570 Clear 12 1022 69 10000 3.6 80 07:25 28.08.2021
6571 Clear 14 1020 43 10000 3.09 60 22:48 27.08.2021
6572 Clear 15 1020 47 10000 3.6 70 21:24 27.08.2021
6573 Clear 15 1021 44 10000 4.12 60 20:33 27.08.2021
6574 Clear 16 1022 38 10000 3.09 70 18:58 27.08.2021
6575 Clear 15 1022 38 10000 3.09 70 18:37 27.08.2021
6576 Clear 14 1022 30 10000 1.54 0 17:20 27.08.2021
6577 Clear 12 1022 35 10000 2.57 180 15:55 27.08.2021
6578 Clear 11 1022 28 10000 2.57 180 14:43 27.08.2021
6579 Clear 8 1021 28 10000 1.03 0 12:54 27.08.2021
6580 Clear 8 1020 32 10000 1.54 220 11:26 27.08.2021
6581 Clear 9 1019 34 10000 1.54 240 10:43 27.08.2021
6582 Clear 10 1019 33 10000 1.54 230 09:37 27.08.2021
6583 Clear 10 1019 33 10000 1.54 230 08:46 27.08.2021
6584 Clear 12 1018 32 10000 1.54 230 06:47 27.08.2021
6585 Clear 14 1017 31 7000 3.09 220 04:56 27.08.2021
6586 Clear 17 1014 30 10000 4.63 320 00:33 27.08.2021
6587 Clear 19 1013 27 10000 6.17 330 22:43 26.08.2021
6588 Clear 20 1013 28 10000 6.17 330 22:18 26.08.2021
6589 Clear 20 1013 42 10000 4.12 350 20:35 26.08.2021
6590 Clear 19 1015 43 10000 4.24 349 18:50 26.08.2021
6591 Clear 17 1016 44 10000 4.23 348 17:44 26.08.2021
6592 Clear 15 1016 47 10000 3.6 320 16:33 26.08.2021
6593 Clear 13 1017 50 10000 2.06 290 15:54 26.08.2021
6594 Clear 8 1016 80 10000 1.54 300 13:44 26.08.2021
6595 Clear 7 1016 74 10000 2.06 290 12:50 26.08.2021
6596 Clear 7 1015 74 10000 2.06 290 12:24 26.08.2021
6597 Clear 8 1016 83 10000 1.03 0 09:43 26.08.2021
6598 Clear 8 1016 87 10000 2.06 300 08:34 26.08.2021
6599 Clear 11 1016 71 10000 1.54 80 02:32 26.08.2021
6600 Clear 15 1014 67 10000 3.09 80 22:48 25.08.2021
6601 Clear 16 1014 67 10000 3.09 80 22:29 25.08.2021
6602 Clouds 17 1015 45 10000 0.89 90 21:25 25.08.2021
6603 Clear 16 1014 67 10000 3.6 90 20:43 25.08.2021
6604 Clear 16 1014 67 10000 3.6 90 20:25 25.08.2021
6605 Clear 15 1016 57 10000 5.14 90 18:32 25.08.2021
6606 Clear 14 1016 58 10000 6.69 120 16:31 25.08.2021
6607 Clear 13 1016 58 10000 5.14 120 15:41 25.08.2021
6608 Clear 11 1016 76 10000 3.6 120 14:47 25.08.2021
6609 Clear 8 1015 57 10000 1.03 0 13:58 25.08.2021
6610 Clear 8 1014 66 10000 1.54 170 12:53 25.08.2021
6611 Clear 8 1014 76 10000 1.54 180 11:25 25.08.2021
6612 Clear 9 1014 81 10000 1.54 170 10:26 25.08.2021
6613 Clear 9 1014 79 10000 1.54 160 09:42 25.08.2021
6614 Clear 9 1015 74 10000 2.06 140 08:39 25.08.2021
6615 Clear 10 1015 75 10000 2.06 150 07:32 25.08.2021
6616 Clear 12 1015 68 10000 3.09 140 01:26 25.08.2021
6617 Clear 13 1015 62 10000 4.12 110 23:40 24.08.2021
6618 Clear 15 1014 58 10000 4.63 100 21:21 24.08.2021
6619 Clear 15 1014 62 10000 5.14 100 20:21 24.08.2021
6620 Clear 15 1015 62 10000 4.63 90 19:43 24.08.2021
6621 Clear 14 1017 62 10000 3.6 110 17:55 24.08.2021
6622 Clear 14 1017 62 10000 3.6 110 17:22 24.08.2021
6623 Clouds 12 1017 54 10000 4.63 100 16:23 24.08.2021
6624 Clear 9 1016 53 10000 1.54 170 13:54 24.08.2021
6625 Clear 7 1015 56 10000 1.54 180 12:45 24.08.2021
6626 Clear 7 1015 54 10000 2.06 180 11:21 24.08.2021
6627 Clear 8 1015 51 10000 2.06 180 10:47 24.08.2021
6628 Clear 8 1016 52 10000 2.06 180 09:53 24.08.2021
6629 Clear 8 1017 50 10000 1.03 0 07:42 24.08.2021
6630 Clear 8 1017 48 10000 0.51 0 05:50 24.08.2021
6631 Clear 10 1016 39 10000 2.06 160 03:37 24.08.2021
6632 Clear 13 1015 26 10000 2.06 180 23:54 23.08.2021
6633 Clear 15 1014 24 10000 2.06 200 22:46 23.08.2021
6634 Clear 15 1014 27 10000 1.54 0 21:36 23.08.2021
6635 Clear 14 1015 29 10000 2.06 0 19:55 23.08.2021
6636 Clear 14 1015 33 10000 1.54 140 18:25 23.08.2021
6637 Rain 12 1015 35 10000 2.06 190 15:45 23.08.2021
6638 Clear 10 1014 38 10000 1.54 200 13:56 23.08.2021
6639 Clear 8 1014 38 10000 1.03 0 12:32 23.08.2021
6640 Clear 8 1012 42 10000 1.03 0 10:50 23.08.2021
6641 Clear 9 1012 41 10000 1.03 0 10:21 23.08.2021
6642 Clear 10 1013 40 10000 1.03 0 08:49 23.08.2021
6643 Clear 10 1013 41 10000 1.54 240 07:41 23.08.2021
6644 Clear 11 1013 42 10000 1.54 240 06:41 23.08.2021
6645 Clear 15 1012 41 10000 4.49 239 01:57 23.08.2021
6646 Clear 16 1009 34 10000 3.09 240 00:46 23.08.2021
6647 Clear 19 1008 29 10000 5.14 250 22:42 22.08.2021
6648 Clear 20 1007 38 10000 3.6 230 21:18 22.08.2021
6649 Clear 20 1006 40 10000 3.6 230 20:19 22.08.2021
6650 Clear 19 1007 45 10000 3.6 250 18:32 22.08.2021
6651 Clear 15 1007 65 10000 2.06 0 15:49 22.08.2021
6652 Clouds 14 1007 72 10000 1.54 240 14:54 22.08.2021
6653 Clouds 12 1007 82 9000 1.03 0 13:47 22.08.2021
6654 Clouds 12 1007 83 9000 1.03 0 13:19 22.08.2021
6655 Clouds 12 1006 85 10000 1.03 0 12:41 22.08.2021
6656 Clouds 12 1006 86 10000 2.06 120 11:45 22.08.2021
6657 Clouds 12 1005 87 10000 2.06 120 11:20 22.08.2021
6658 Clouds 13 1006 80 10000 2.06 120 08:42 22.08.2021
6659 Clouds 13 1006 80 10000 2.06 60 07:51